<?xml version="1.0" encoding="UTF-8" standalone="no" ?>
<gpx xmlns="http://www.topografix.com/GPX/1/1" xmlns:xsi="http://www.w3.org/2001/XMLSchema-instance" xsi:schemaLocation="http://www.topografix.com/GPX/1/1 http://www.topografix.com/GPX/1/1/gpx.xsd" version="1.1" creator="VisuGPX - https://www.visugpx.com">
  <metadata>
    <name>Pyrénées J4 Luchon Garaux Hospice France superbagneres2018-07-29 08:08</name>
    <desc><![CDATA[Voyage en Pyrénnées depuis Grenoble en moto par les petites routes virolantes
Tourisme en local]]></desc>
  </metadata>
  <wpt lat="42.92217" lon="0.68435">
    <ele>728.07</ele>
    <name><![CDATA[0000177]]></name>
    <type><![CDATA[Point de départ]]></type>
  </wpt>
  <wpt lat="42.93295" lon="0.69705">
    <ele>726.93</ele>
    <name><![CDATA[0000178]]></name>
    <desc><![CDATA[<p><br /><h3>Nom: Segment: 1</h3><br />Heure de départ: 07/29/2018 08:08<br/>Heure d'arrivée: 07/29/2018 08:13<br/>Distance: 3,7km (00:04)<br/>Temps déplacement: 00:03<br/>Vitesse moyenne: 44,98 km/h<br/>Vitesse moyenne mouv.: 44,98 km/h<br/>Vitesse Max.: 78,19 km/h<br/>Altitude minimale: 497 m<br/>Altitude maximale: 728 m<br/>Vitesse de montée: 3614,9 m/h<br/>Vitesse de descente: -16072,4 m/h<br/>Gain d'altitude: 229 m<br/>Perte d'altitude: -241 m<br/>Temps de montée: 00:03<br/>Temps de descente: 00:00<br/></p>]]></desc>
    <type><![CDATA[Point d'arrivée]]></type>
  </wpt>
  <wpt lat="42.78414" lon="0.59647">
    <ele>625.86</ele>
    <name><![CDATA[0000181]]></name>
    <desc><![CDATA[<p><br /><h3>Nom: Segment: 1</h3><br />Heure de départ: 07/29/2018 08:08<br/>Heure d'arrivée: 07/29/2018 13:01<br/>Distance: 30,7km (04:52)<br/>Temps déplacement: 04:35<br/>Vitesse moyenne: 6,29 km/h<br/>Vitesse moyenne mouv.: 6,65 km/h<br/>Vitesse Max.: 98,09 km/h<br/>Altitude minimale: 473 m<br/>Altitude maximale: 728 m<br/>Vitesse de montée: 910,5 m/h<br/>Vitesse de descente: -1788,3 m/h<br/>Gain d'altitude: 459 m<br/>Perte d'altitude: -388 m<br/>Temps de montée: 00:30<br/>Temps de descente: 00:13<br/></p>]]></desc>
    <type><![CDATA[Point d'arrivée]]></type>
  </wpt>
  <wpt lat="42.78414" lon="0.59658">
    <ele>634.38</ele>
    <name><![CDATA[0000182]]></name>
    <desc><![CDATA[<p><br /><h3>Nom: Segment: 1</h3><br />Heure de départ: 07/29/2018 08:08<br/>Heure d'arrivée: 07/29/2018 18:09<br/>Distance: 93,4km (10:00)<br/>Temps déplacement: 08:31<br/>Vitesse moyenne: 9,33 km/h<br/>Vitesse moyenne mouv.: 10,95 km/h<br/>Vitesse Max.: 98,09 km/h<br/>Altitude minimale: 473 m<br/>Altitude maximale: 1800 m<br/>Vitesse de montée: 395,5 m/h<br/>Vitesse de descente: -2114,3 m/h<br/>Gain d'altitude: 2523 m<br/>Perte d'altitude: -2534 m<br/>Temps de montée: 06:22<br/>Temps de descente: 01:11<br/></p>]]></desc>
    <type><![CDATA[Point d'arrivée]]></type>
  </wpt>
  <trk>
    <name><![CDATA[2018-07-29 08:08]]></name>
    <desc><![CDATA[<p>Heure de départ: 07/29/2018 08:08<br/>Heure d'arrivée: 07/29/2018 18:09<br/>Distance: 93,4 km (10:00)<br/>Temps déplacement: 08:31<br/>Vitesse moyenne: 9,33 km/h<br/>Vitesse moyenne mouv.: 10,96 km/h<br/>Vitesse Max.: 98,09 km/h<br/>Altitude minimale: 473 m<br/>Altitude maximale: 1800 m<br/>Vitesse de montée: 287,7 m/h<br/>Vitesse de descente: -2094,4 m/h<br/>Gain d'altitude: 2503 m<br/>Perte d'altitude: -2501 m<br/>Temps de montée: 08:42<br/>Temps de descente: 01:11<br/></p><hr align="center" width="480" style="height: 2px; width: 517px"/>]]></desc>
    <trkseg>
      <trkpt lat="42.92217" lon="0.68435">
        <ele>728.07</ele>
        <time>2018-07-29T06:08:31Z</time>
      </trkpt>
      <trkpt lat="42.92213" lon="0.68405">
        <ele>537.5</ele>
        <time>2018-07-29T06:08:33Z</time>
      </trkpt>
      <trkpt lat="42.92221" lon="0.68377">
        <ele>520</ele>
        <time>2018-07-29T06:08:35Z</time>
      </trkpt>
      <trkpt lat="42.9224" lon="0.68368">
        <ele>516.53</ele>
        <time>2018-07-29T06:08:37Z</time>
      </trkpt>
      <trkpt lat="42.92271" lon="0.68385">
        <ele>522.31</ele>
        <time>2018-07-29T06:08:39Z</time>
      </trkpt>
      <trkpt lat="42.92287" lon="0.68401">
        <ele>524.58</ele>
        <time>2018-07-29T06:08:41Z</time>
      </trkpt>
      <trkpt lat="42.92312" lon="0.68406">
        <ele>523.43</ele>
        <time>2018-07-29T06:08:44Z</time>
      </trkpt>
      <trkpt lat="42.92328" lon="0.68387">
        <ele>522.42</ele>
        <time>2018-07-29T06:08:47Z</time>
      </trkpt>
      <trkpt lat="42.92326" lon="0.68352">
        <ele>521.84</ele>
        <time>2018-07-29T06:08:50Z</time>
      </trkpt>
      <trkpt lat="42.92331" lon="0.68324">
        <ele>522.02</ele>
        <time>2018-07-29T06:08:52Z</time>
      </trkpt>
      <trkpt lat="42.92343" lon="0.68289">
        <ele>521.54</ele>
        <time>2018-07-29T06:08:54Z</time>
      </trkpt>
      <trkpt lat="42.9236" lon="0.68251">
        <ele>523.81</ele>
        <time>2018-07-29T06:08:56Z</time>
      </trkpt>
      <trkpt lat="42.9238" lon="0.6821">
        <ele>525.84</ele>
        <time>2018-07-29T06:08:58Z</time>
      </trkpt>
      <trkpt lat="42.9239" lon="0.6819">
        <ele>526.14</ele>
        <time>2018-07-29T06:08:59Z</time>
      </trkpt>
      <trkpt lat="42.92403" lon="0.6817">
        <ele>526.23</ele>
        <time>2018-07-29T06:09:00Z</time>
      </trkpt>
      <trkpt lat="42.92414" lon="0.68149">
        <ele>526.26</ele>
        <time>2018-07-29T06:09:01Z</time>
      </trkpt>
      <trkpt lat="42.92426" lon="0.68127">
        <ele>525.56</ele>
        <time>2018-07-29T06:09:02Z</time>
      </trkpt>
      <trkpt lat="42.92439" lon="0.68105">
        <ele>525.36</ele>
        <time>2018-07-29T06:09:03Z</time>
      </trkpt>
      <trkpt lat="42.92451" lon="0.68083">
        <ele>525.29</ele>
        <time>2018-07-29T06:09:04Z</time>
      </trkpt>
      <trkpt lat="42.92463" lon="0.6806">
        <ele>525.28</ele>
        <time>2018-07-29T06:09:05Z</time>
      </trkpt>
      <trkpt lat="42.92475" lon="0.68038">
        <ele>525.27</ele>
        <time>2018-07-29T06:09:06Z</time>
      </trkpt>
      <trkpt lat="42.92487" lon="0.68016">
        <ele>525.27</ele>
        <time>2018-07-29T06:09:07Z</time>
      </trkpt>
      <trkpt lat="42.92499" lon="0.67993">
        <ele>524.57</ele>
        <time>2018-07-29T06:09:08Z</time>
      </trkpt>
      <trkpt lat="42.9251" lon="0.67971">
        <ele>523.66</ele>
        <time>2018-07-29T06:09:09Z</time>
      </trkpt>
      <trkpt lat="42.92523" lon="0.67949">
        <ele>522.68</ele>
        <time>2018-07-29T06:09:10Z</time>
      </trkpt>
      <trkpt lat="42.92535" lon="0.67927">
        <ele>520.99</ele>
        <time>2018-07-29T06:09:11Z</time>
      </trkpt>
      <trkpt lat="42.92547" lon="0.67907">
        <ele>520.48</ele>
        <time>2018-07-29T06:09:12Z</time>
      </trkpt>
      <trkpt lat="42.92567" lon="0.67868">
        <ele>520.99</ele>
        <time>2018-07-29T06:09:14Z</time>
      </trkpt>
      <trkpt lat="42.92586" lon="0.67827">
        <ele>520.75</ele>
        <time>2018-07-29T06:09:16Z</time>
      </trkpt>
      <trkpt lat="42.926" lon="0.67786">
        <ele>519.4</ele>
        <time>2018-07-29T06:09:18Z</time>
      </trkpt>
      <trkpt lat="42.92612" lon="0.67753">
        <ele>520.19</ele>
        <time>2018-07-29T06:09:20Z</time>
      </trkpt>
      <trkpt lat="42.92629" lon="0.67739">
        <ele>518.59</ele>
        <time>2018-07-29T06:09:24Z</time>
      </trkpt>
      <trkpt lat="42.9264" lon="0.67768">
        <ele>511.77</ele>
        <time>2018-07-29T06:09:27Z</time>
      </trkpt>
      <trkpt lat="42.92644" lon="0.67806">
        <ele>506.06</ele>
        <time>2018-07-29T06:09:29Z</time>
      </trkpt>
      <trkpt lat="42.92645" lon="0.67846">
        <ele>501.21</ele>
        <time>2018-07-29T06:09:31Z</time>
      </trkpt>
      <trkpt lat="42.92647" lon="0.67888">
        <ele>499.44</ele>
        <time>2018-07-29T06:09:33Z</time>
      </trkpt>
      <trkpt lat="42.9265" lon="0.67929">
        <ele>498.37</ele>
        <time>2018-07-29T06:09:35Z</time>
      </trkpt>
      <trkpt lat="42.92655" lon="0.67972">
        <ele>497.58</ele>
        <time>2018-07-29T06:09:37Z</time>
      </trkpt>
      <trkpt lat="42.92658" lon="0.68015">
        <ele>497.99</ele>
        <time>2018-07-29T06:09:39Z</time>
      </trkpt>
      <trkpt lat="42.92658" lon="0.68056">
        <ele>500.55</ele>
        <time>2018-07-29T06:09:41Z</time>
      </trkpt>
      <trkpt lat="42.9266" lon="0.68099">
        <ele>502.11</ele>
        <time>2018-07-29T06:09:43Z</time>
      </trkpt>
      <trkpt lat="42.92666" lon="0.68142">
        <ele>503.16</ele>
        <time>2018-07-29T06:09:45Z</time>
      </trkpt>
      <trkpt lat="42.92675" lon="0.68186">
        <ele>504.17</ele>
        <time>2018-07-29T06:09:47Z</time>
      </trkpt>
      <trkpt lat="42.92683" lon="0.68232">
        <ele>505.17</ele>
        <time>2018-07-29T06:09:49Z</time>
      </trkpt>
      <trkpt lat="42.92691" lon="0.68277">
        <ele>507.08</ele>
        <time>2018-07-29T06:09:51Z</time>
      </trkpt>
      <trkpt lat="42.92696" lon="0.68323">
        <ele>507.25</ele>
        <time>2018-07-29T06:09:53Z</time>
      </trkpt>
      <trkpt lat="42.92699" lon="0.68364">
        <ele>509.58</ele>
        <time>2018-07-29T06:09:55Z</time>
      </trkpt>
      <trkpt lat="42.92697" lon="0.68395">
        <ele>510.9</ele>
        <time>2018-07-29T06:09:57Z</time>
      </trkpt>
      <trkpt lat="42.92688" lon="0.68428">
        <ele>512.17</ele>
        <time>2018-07-29T06:10:00Z</time>
      </trkpt>
      <trkpt lat="42.92687" lon="0.68458">
        <ele>512.96</ele>
        <time>2018-07-29T06:10:02Z</time>
      </trkpt>
      <trkpt lat="42.92688" lon="0.68495">
        <ele>514.64</ele>
        <time>2018-07-29T06:10:04Z</time>
      </trkpt>
      <trkpt lat="42.92685" lon="0.68535">
        <ele>516.12</ele>
        <time>2018-07-29T06:10:06Z</time>
      </trkpt>
      <trkpt lat="42.92681" lon="0.68576">
        <ele>518.56</ele>
        <time>2018-07-29T06:10:08Z</time>
      </trkpt>
      <trkpt lat="42.92678" lon="0.6862">
        <ele>519.9</ele>
        <time>2018-07-29T06:10:10Z</time>
      </trkpt>
      <trkpt lat="42.92675" lon="0.68664">
        <ele>521.63</ele>
        <time>2018-07-29T06:10:12Z</time>
      </trkpt>
      <trkpt lat="42.92673" lon="0.68709">
        <ele>523.82</ele>
        <time>2018-07-29T06:10:14Z</time>
      </trkpt>
      <trkpt lat="42.92673" lon="0.68753">
        <ele>525.84</ele>
        <time>2018-07-29T06:10:16Z</time>
      </trkpt>
      <trkpt lat="42.92671" lon="0.68795">
        <ele>528.05</ele>
        <time>2018-07-29T06:10:18Z</time>
      </trkpt>
      <trkpt lat="42.92671" lon="0.68832">
        <ele>528.25</ele>
        <time>2018-07-29T06:10:20Z</time>
      </trkpt>
      <trkpt lat="42.92676" lon="0.68869">
        <ele>529.88</ele>
        <time>2018-07-29T06:10:22Z</time>
      </trkpt>
      <trkpt lat="42.92682" lon="0.68905">
        <ele>531.84</ele>
        <time>2018-07-29T06:10:24Z</time>
      </trkpt>
      <trkpt lat="42.92687" lon="0.68936">
        <ele>533.84</ele>
        <time>2018-07-29T06:10:26Z</time>
      </trkpt>
      <trkpt lat="42.92694" lon="0.68966">
        <ele>534.93</ele>
        <time>2018-07-29T06:10:28Z</time>
      </trkpt>
      <trkpt lat="42.92707" lon="0.68986">
        <ele>537.06</ele>
        <time>2018-07-29T06:10:30Z</time>
      </trkpt>
      <trkpt lat="42.92722" lon="0.69005">
        <ele>537.25</ele>
        <time>2018-07-29T06:10:32Z</time>
      </trkpt>
      <trkpt lat="42.92735" lon="0.69027">
        <ele>537.27</ele>
        <time>2018-07-29T06:10:34Z</time>
      </trkpt>
      <trkpt lat="42.92746" lon="0.69047">
        <ele>537.48</ele>
        <time>2018-07-29T06:10:36Z</time>
      </trkpt>
      <trkpt lat="42.92763" lon="0.69075">
        <ele>538.18</ele>
        <time>2018-07-29T06:10:39Z</time>
      </trkpt>
      <trkpt lat="42.9278" lon="0.6909">
        <ele>538.96</ele>
        <time>2018-07-29T06:10:41Z</time>
      </trkpt>
      <trkpt lat="42.92796" lon="0.69109">
        <ele>539.45</ele>
        <time>2018-07-29T06:10:43Z</time>
      </trkpt>
      <trkpt lat="42.92808" lon="0.6913">
        <ele>539.98</ele>
        <time>2018-07-29T06:10:45Z</time>
      </trkpt>
      <trkpt lat="42.92816" lon="0.69154">
        <ele>542.76</ele>
        <time>2018-07-29T06:10:47Z</time>
      </trkpt>
      <trkpt lat="42.92815" lon="0.69188">
        <ele>546.54</ele>
        <time>2018-07-29T06:10:50Z</time>
      </trkpt>
      <trkpt lat="42.92812" lon="0.69213">
        <ele>550.63</ele>
        <time>2018-07-29T06:10:52Z</time>
      </trkpt>
      <trkpt lat="42.92813" lon="0.69239">
        <ele>554.43</ele>
        <time>2018-07-29T06:10:54Z</time>
      </trkpt>
      <trkpt lat="42.92822" lon="0.69262">
        <ele>556.1</ele>
        <time>2018-07-29T06:10:56Z</time>
      </trkpt>
      <trkpt lat="42.92839" lon="0.69273">
        <ele>558.07</ele>
        <time>2018-07-29T06:10:58Z</time>
      </trkpt>
      <trkpt lat="42.92856" lon="0.69283">
        <ele>558.25</ele>
        <time>2018-07-29T06:11:00Z</time>
      </trkpt>
      <trkpt lat="42.92872" lon="0.69299">
        <ele>557.57</ele>
        <time>2018-07-29T06:11:02Z</time>
      </trkpt>
      <trkpt lat="42.92878" lon="0.69326">
        <ele>558.9</ele>
        <time>2018-07-29T06:11:04Z</time>
      </trkpt>
      <trkpt lat="42.92898" lon="0.69345">
        <ele>560.93</ele>
        <time>2018-07-29T06:11:07Z</time>
      </trkpt>
      <trkpt lat="42.92915" lon="0.69339">
        <ele>562.93</ele>
        <time>2018-07-29T06:11:10Z</time>
      </trkpt>
      <trkpt lat="42.92919" lon="0.69303">
        <ele>562.54</ele>
        <time>2018-07-29T06:11:12Z</time>
      </trkpt>
      <trkpt lat="42.92916" lon="0.69277">
        <ele>563.05</ele>
        <time>2018-07-29T06:11:13Z</time>
      </trkpt>
      <trkpt lat="42.92906" lon="0.69239">
        <ele>565.77</ele>
        <time>2018-07-29T06:11:15Z</time>
      </trkpt>
      <trkpt lat="42.92894" lon="0.69201">
        <ele>566.92</ele>
        <time>2018-07-29T06:11:17Z</time>
      </trkpt>
      <trkpt lat="42.92895" lon="0.69163">
        <ele>569.55</ele>
        <time>2018-07-29T06:11:19Z</time>
      </trkpt>
      <trkpt lat="42.92897" lon="0.69125">
        <ele>575.24</ele>
        <time>2018-07-29T06:11:21Z</time>
      </trkpt>
      <trkpt lat="42.92906" lon="0.6909">
        <ele>581</ele>
        <time>2018-07-29T06:11:23Z</time>
      </trkpt>
      <trkpt lat="42.92922" lon="0.6906">
        <ele>586.98</ele>
        <time>2018-07-29T06:11:25Z</time>
      </trkpt>
      <trkpt lat="42.92938" lon="0.69028">
        <ele>590.67</ele>
        <time>2018-07-29T06:11:27Z</time>
      </trkpt>
      <trkpt lat="42.92951" lon="0.6899">
        <ele>594.22</ele>
        <time>2018-07-29T06:11:29Z</time>
      </trkpt>
      <trkpt lat="42.92963" lon="0.68952">
        <ele>595.87</ele>
        <time>2018-07-29T06:11:31Z</time>
      </trkpt>
      <trkpt lat="42.92975" lon="0.68923">
        <ele>598.75</ele>
        <time>2018-07-29T06:11:33Z</time>
      </trkpt>
      <trkpt lat="42.92989" lon="0.68905">
        <ele>599.22</ele>
        <time>2018-07-29T06:11:35Z</time>
      </trkpt>
      <trkpt lat="42.92987" lon="0.68937">
        <ele>601.05</ele>
        <time>2018-07-29T06:11:40Z</time>
      </trkpt>
      <trkpt lat="42.92977" lon="0.68975">
        <ele>602.86</ele>
        <time>2018-07-29T06:11:42Z</time>
      </trkpt>
      <trkpt lat="42.92982" lon="0.69012">
        <ele>605.54</ele>
        <time>2018-07-29T06:11:44Z</time>
      </trkpt>
      <trkpt lat="42.92987" lon="0.69047">
        <ele>608.72</ele>
        <time>2018-07-29T06:11:46Z</time>
      </trkpt>
      <trkpt lat="42.92991" lon="0.69075">
        <ele>611.53</ele>
        <time>2018-07-29T06:11:48Z</time>
      </trkpt>
      <trkpt lat="42.93005" lon="0.69101">
        <ele>614.83</ele>
        <time>2018-07-29T06:11:51Z</time>
      </trkpt>
      <trkpt lat="42.93017" lon="0.69079">
        <ele>617.85</ele>
        <time>2018-07-29T06:11:55Z</time>
      </trkpt>
      <trkpt lat="42.93017" lon="0.69042">
        <ele>620.54</ele>
        <time>2018-07-29T06:11:57Z</time>
      </trkpt>
      <trkpt lat="42.93023" lon="0.69016">
        <ele>623.72</ele>
        <time>2018-07-29T06:11:59Z</time>
      </trkpt>
      <trkpt lat="42.93047" lon="0.68999">
        <ele>627.96</ele>
        <time>2018-07-29T06:12:02Z</time>
      </trkpt>
      <trkpt lat="42.93068" lon="0.68997">
        <ele>629.85</ele>
        <time>2018-07-29T06:12:04Z</time>
      </trkpt>
      <trkpt lat="42.93088" lon="0.69003">
        <ele>631.84</ele>
        <time>2018-07-29T06:12:06Z</time>
      </trkpt>
      <trkpt lat="42.93108" lon="0.69009">
        <ele>633.84</ele>
        <time>2018-07-29T06:12:08Z</time>
      </trkpt>
      <trkpt lat="42.9313" lon="0.69009">
        <ele>636.54</ele>
        <time>2018-07-29T06:12:10Z</time>
      </trkpt>
      <trkpt lat="42.93149" lon="0.69003">
        <ele>639.02</ele>
        <time>2018-07-29T06:12:12Z</time>
      </trkpt>
      <trkpt lat="42.93161" lon="0.69025">
        <ele>639.97</ele>
        <time>2018-07-29T06:12:16Z</time>
      </trkpt>
      <trkpt lat="42.93154" lon="0.6905">
        <ele>644.37</ele>
        <time>2018-07-29T06:12:18Z</time>
      </trkpt>
      <trkpt lat="42.93152" lon="0.69081">
        <ele>649.32</ele>
        <time>2018-07-29T06:12:20Z</time>
      </trkpt>
      <trkpt lat="42.93155" lon="0.69112">
        <ele>654.52</ele>
        <time>2018-07-29T06:12:22Z</time>
      </trkpt>
      <trkpt lat="42.93158" lon="0.69143">
        <ele>658.63</ele>
        <time>2018-07-29T06:12:24Z</time>
      </trkpt>
      <trkpt lat="42.93151" lon="0.69168">
        <ele>662.64</ele>
        <time>2018-07-29T06:12:26Z</time>
      </trkpt>
      <trkpt lat="42.93139" lon="0.69195">
        <ele>665.62</ele>
        <time>2018-07-29T06:12:29Z</time>
      </trkpt>
      <trkpt lat="42.93161" lon="0.69196">
        <ele>668.84</ele>
        <time>2018-07-29T06:12:33Z</time>
      </trkpt>
      <trkpt lat="42.93188" lon="0.69202">
        <ele>673.51</ele>
        <time>2018-07-29T06:12:36Z</time>
      </trkpt>
      <trkpt lat="42.9321" lon="0.69203">
        <ele>678.5</ele>
        <time>2018-07-29T06:12:39Z</time>
      </trkpt>
      <trkpt lat="42.9322" lon="0.69226">
        <ele>681.77</ele>
        <time>2018-07-29T06:12:42Z</time>
      </trkpt>
      <trkpt lat="42.93222" lon="0.69258">
        <ele>684.53</ele>
        <time>2018-07-29T06:12:44Z</time>
      </trkpt>
      <trkpt lat="42.93228" lon="0.69291">
        <ele>687.72</ele>
        <time>2018-07-29T06:12:46Z</time>
      </trkpt>
      <trkpt lat="42.93234" lon="0.69326">
        <ele>690.53</ele>
        <time>2018-07-29T06:12:48Z</time>
      </trkpt>
      <trkpt lat="42.93238" lon="0.69361">
        <ele>692.81</ele>
        <time>2018-07-29T06:12:50Z</time>
      </trkpt>
      <trkpt lat="42.93241" lon="0.69389">
        <ele>696.24</ele>
        <time>2018-07-29T06:12:52Z</time>
      </trkpt>
      <trkpt lat="42.93244" lon="0.69423">
        <ele>698.85</ele>
        <time>2018-07-29T06:12:55Z</time>
      </trkpt>
      <trkpt lat="42.93242" lon="0.69457">
        <ele>701.9</ele>
        <time>2018-07-29T06:12:58Z</time>
      </trkpt>
      <trkpt lat="42.93254" lon="0.69488">
        <ele>706.02</ele>
        <time>2018-07-29T06:13:01Z</time>
      </trkpt>
      <trkpt lat="42.93269" lon="0.69501">
        <ele>707.37</ele>
        <time>2018-07-29T06:13:03Z</time>
      </trkpt>
      <trkpt lat="42.9328" lon="0.69525">
        <ele>707.98</ele>
        <time>2018-07-29T06:13:05Z</time>
      </trkpt>
      <trkpt lat="42.93279" lon="0.69554">
        <ele>709.64</ele>
        <time>2018-07-29T06:13:07Z</time>
      </trkpt>
      <trkpt lat="42.93279" lon="0.69582">
        <ele>711.82</ele>
        <time>2018-07-29T06:13:09Z</time>
      </trkpt>
      <trkpt lat="42.93278" lon="0.6961">
        <ele>714.75</ele>
        <time>2018-07-29T06:13:11Z</time>
      </trkpt>
      <trkpt lat="42.93282" lon="0.69634">
        <ele>716.93</ele>
        <time>2018-07-29T06:13:14Z</time>
      </trkpt>
      <trkpt lat="42.93295" lon="0.69653">
        <ele>718.96</ele>
        <time>2018-07-29T06:13:19Z</time>
      </trkpt>
      <trkpt lat="42.93297" lon="0.69679">
        <ele>722.84</ele>
        <time>2018-07-29T06:13:23Z</time>
      </trkpt>
      <trkpt lat="42.93295" lon="0.69705">
        <ele>726.93</ele>
        <time>2018-07-29T06:13:29Z</time>
      </trkpt>
      <trkpt lat="42.93292" lon="0.69713">
        <ele>727.27</ele>
        <time>2018-07-29T10:19:06Z</time>
      </trkpt>
      <trkpt lat="42.93297" lon="0.69688">
        <ele>727.79</ele>
        <time>2018-07-29T10:20:00Z</time>
      </trkpt>
      <trkpt lat="42.93295" lon="0.6966">
        <ele>727.27</ele>
        <time>2018-07-29T10:20:05Z</time>
      </trkpt>
      <trkpt lat="42.93282" lon="0.69636">
        <ele>725.36</ele>
        <time>2018-07-29T10:20:10Z</time>
      </trkpt>
      <trkpt lat="42.93278" lon="0.69606">
        <ele>723.37</ele>
        <time>2018-07-29T10:20:14Z</time>
      </trkpt>
      <trkpt lat="42.93279" lon="0.69575">
        <ele>719.71</ele>
        <time>2018-07-29T10:20:17Z</time>
      </trkpt>
      <trkpt lat="42.93278" lon="0.6955">
        <ele>717.49</ele>
        <time>2018-07-29T10:20:19Z</time>
      </trkpt>
      <trkpt lat="42.93276" lon="0.69518">
        <ele>716.57</ele>
        <time>2018-07-29T10:20:22Z</time>
      </trkpt>
      <trkpt lat="42.93271" lon="0.69494">
        <ele>715.8</ele>
        <time>2018-07-29T10:20:24Z</time>
      </trkpt>
      <trkpt lat="42.93253" lon="0.69484">
        <ele>712.8</ele>
        <time>2018-07-29T10:20:26Z</time>
      </trkpt>
      <trkpt lat="42.93242" lon="0.69451">
        <ele>709.43</ele>
        <time>2018-07-29T10:20:29Z</time>
      </trkpt>
      <trkpt lat="42.93242" lon="0.69424">
        <ele>709.28</ele>
        <time>2018-07-29T10:20:31Z</time>
      </trkpt>
      <trkpt lat="42.93238" lon="0.69392">
        <ele>707.45</ele>
        <time>2018-07-29T10:20:33Z</time>
      </trkpt>
      <trkpt lat="42.93235" lon="0.69362">
        <ele>705.67</ele>
        <time>2018-07-29T10:20:35Z</time>
      </trkpt>
      <trkpt lat="42.93232" lon="0.69333">
        <ele>704.39</ele>
        <time>2018-07-29T10:20:37Z</time>
      </trkpt>
      <trkpt lat="42.93228" lon="0.69303">
        <ele>702.67</ele>
        <time>2018-07-29T10:20:39Z</time>
      </trkpt>
      <trkpt lat="42.93224" lon="0.69278">
        <ele>699.29</ele>
        <time>2018-07-29T10:20:41Z</time>
      </trkpt>
      <trkpt lat="42.93222" lon="0.69252">
        <ele>696.96</ele>
        <time>2018-07-29T10:20:43Z</time>
      </trkpt>
      <trkpt lat="42.93218" lon="0.69225">
        <ele>694.72</ele>
        <time>2018-07-29T10:20:45Z</time>
      </trkpt>
      <trkpt lat="42.93213" lon="0.692">
        <ele>692.7</ele>
        <time>2018-07-29T10:20:47Z</time>
      </trkpt>
      <trkpt lat="42.93213" lon="0.69166">
        <ele>691.31</ele>
        <time>2018-07-29T10:20:50Z</time>
      </trkpt>
      <trkpt lat="42.93221" lon="0.69139">
        <ele>691.54</ele>
        <time>2018-07-29T10:20:53Z</time>
      </trkpt>
      <trkpt lat="42.93228" lon="0.69113">
        <ele>691.97</ele>
        <time>2018-07-29T10:20:56Z</time>
      </trkpt>
      <trkpt lat="42.93237" lon="0.69091">
        <ele>692.26</ele>
        <time>2018-07-29T10:20:59Z</time>
      </trkpt>
      <trkpt lat="42.93253" lon="0.69074">
        <ele>689.68</ele>
        <time>2018-07-29T10:21:02Z</time>
      </trkpt>
      <trkpt lat="42.93273" lon="0.69059">
        <ele>688.58</ele>
        <time>2018-07-29T10:21:05Z</time>
      </trkpt>
      <trkpt lat="42.9329" lon="0.69032">
        <ele>686.88</ele>
        <time>2018-07-29T10:21:08Z</time>
      </trkpt>
      <trkpt lat="42.93279" lon="0.69009">
        <ele>687.05</ele>
        <time>2018-07-29T10:21:11Z</time>
      </trkpt>
      <trkpt lat="42.93267" lon="0.68991">
        <ele>687.69</ele>
        <time>2018-07-29T10:21:14Z</time>
      </trkpt>
      <trkpt lat="42.93257" lon="0.68966">
        <ele>688.25</ele>
        <time>2018-07-29T10:21:17Z</time>
      </trkpt>
      <trkpt lat="42.93254" lon="0.68941">
        <ele>689.24</ele>
        <time>2018-07-29T10:21:20Z</time>
      </trkpt>
      <trkpt lat="42.93259" lon="0.68915">
        <ele>689.97</ele>
        <time>2018-07-29T10:21:23Z</time>
      </trkpt>
      <trkpt lat="42.9326" lon="0.68886">
        <ele>690.54</ele>
        <time>2018-07-29T10:21:27Z</time>
      </trkpt>
      <trkpt lat="42.93252" lon="0.68862">
        <ele>689.3</ele>
        <time>2018-07-29T10:21:31Z</time>
      </trkpt>
      <trkpt lat="42.93255" lon="0.68829">
        <ele>691.58</ele>
        <time>2018-07-29T10:21:35Z</time>
      </trkpt>
      <trkpt lat="42.93261" lon="0.688">
        <ele>695.84</ele>
        <time>2018-07-29T10:21:39Z</time>
      </trkpt>
      <trkpt lat="42.93272" lon="0.68776">
        <ele>698.17</ele>
        <time>2018-07-29T10:21:43Z</time>
      </trkpt>
      <trkpt lat="42.93279" lon="0.68748">
        <ele>699.32</ele>
        <time>2018-07-29T10:21:47Z</time>
      </trkpt>
      <trkpt lat="42.93285" lon="0.6872">
        <ele>702.78</ele>
        <time>2018-07-29T10:21:51Z</time>
      </trkpt>
      <trkpt lat="42.93295" lon="0.68694">
        <ele>706.16</ele>
        <time>2018-07-29T10:21:55Z</time>
      </trkpt>
      <trkpt lat="42.93299" lon="0.68667">
        <ele>709.86</ele>
        <time>2018-07-29T10:21:59Z</time>
      </trkpt>
      <trkpt lat="42.93311" lon="0.68686">
        <ele>725.44</ele>
        <time>2018-07-29T10:32:10Z</time>
      </trkpt>
      <trkpt lat="42.93306" lon="0.68662">
        <ele>718.36</ele>
        <time>2018-07-29T10:36:40Z</time>
      </trkpt>
      <trkpt lat="42.93294" lon="0.68688">
        <ele>716.6</ele>
        <time>2018-07-29T10:36:50Z</time>
      </trkpt>
      <trkpt lat="42.93286" lon="0.68716">
        <ele>712.69</ele>
        <time>2018-07-29T10:36:54Z</time>
      </trkpt>
      <trkpt lat="42.93279" lon="0.68746">
        <ele>708.76</ele>
        <time>2018-07-29T10:36:58Z</time>
      </trkpt>
      <trkpt lat="42.93274" lon="0.68771">
        <ele>707.13</ele>
        <time>2018-07-29T10:37:02Z</time>
      </trkpt>
      <trkpt lat="42.93264" lon="0.68796">
        <ele>704.37</ele>
        <time>2018-07-29T10:37:06Z</time>
      </trkpt>
      <trkpt lat="42.93256" lon="0.68822">
        <ele>699.8</ele>
        <time>2018-07-29T10:37:09Z</time>
      </trkpt>
      <trkpt lat="42.93254" lon="0.68851">
        <ele>695.09</ele>
        <time>2018-07-29T10:37:12Z</time>
      </trkpt>
      <trkpt lat="42.9324" lon="0.68827">
        <ele>689.66</ele>
        <time>2018-07-29T10:37:23Z</time>
      </trkpt>
      <trkpt lat="42.93219" lon="0.68819">
        <ele>687.39</ele>
        <time>2018-07-29T10:37:26Z</time>
      </trkpt>
      <trkpt lat="42.93199" lon="0.68801">
        <ele>684.48</ele>
        <time>2018-07-29T10:37:29Z</time>
      </trkpt>
      <trkpt lat="42.93193" lon="0.68774">
        <ele>681.07</ele>
        <time>2018-07-29T10:37:31Z</time>
      </trkpt>
      <trkpt lat="42.93192" lon="0.68744">
        <ele>678.03</ele>
        <time>2018-07-29T10:37:33Z</time>
      </trkpt>
      <trkpt lat="42.93196" lon="0.68713">
        <ele>675.73</ele>
        <time>2018-07-29T10:37:35Z</time>
      </trkpt>
      <trkpt lat="42.932" lon="0.68687">
        <ele>673.49</ele>
        <time>2018-07-29T10:37:37Z</time>
      </trkpt>
      <trkpt lat="42.93185" lon="0.68716">
        <ele>668.6</ele>
        <time>2018-07-29T10:37:44Z</time>
      </trkpt>
      <trkpt lat="42.9317" lon="0.68742">
        <ele>665.78</ele>
        <time>2018-07-29T10:37:46Z</time>
      </trkpt>
      <trkpt lat="42.93149" lon="0.68763">
        <ele>664.61</ele>
        <time>2018-07-29T10:37:48Z</time>
      </trkpt>
      <trkpt lat="42.93133" lon="0.68791">
        <ele>662.69</ele>
        <time>2018-07-29T10:37:50Z</time>
      </trkpt>
      <trkpt lat="42.93122" lon="0.68822">
        <ele>659.99</ele>
        <time>2018-07-29T10:37:52Z</time>
      </trkpt>
      <trkpt lat="42.9312" lon="0.68855">
        <ele>658.63</ele>
        <time>2018-07-29T10:37:54Z</time>
      </trkpt>
      <trkpt lat="42.93123" lon="0.68894">
        <ele>655.99</ele>
        <time>2018-07-29T10:37:56Z</time>
      </trkpt>
      <trkpt lat="42.93122" lon="0.68931">
        <ele>655.33</ele>
        <time>2018-07-29T10:37:58Z</time>
      </trkpt>
      <trkpt lat="42.93124" lon="0.68965">
        <ele>652.75</ele>
        <time>2018-07-29T10:38:00Z</time>
      </trkpt>
      <trkpt lat="42.9313" lon="0.6899">
        <ele>651.4</ele>
        <time>2018-07-29T10:38:02Z</time>
      </trkpt>
      <trkpt lat="42.93124" lon="0.69014">
        <ele>649.39</ele>
        <time>2018-07-29T10:38:05Z</time>
      </trkpt>
      <trkpt lat="42.93094" lon="0.69012">
        <ele>646.62</ele>
        <time>2018-07-29T10:38:08Z</time>
      </trkpt>
      <trkpt lat="42.93078" lon="0.69001">
        <ele>645.67</ele>
        <time>2018-07-29T10:38:09Z</time>
      </trkpt>
      <trkpt lat="42.93053" lon="0.68995">
        <ele>642.57</ele>
        <time>2018-07-29T10:38:11Z</time>
      </trkpt>
      <trkpt lat="42.93033" lon="0.69">
        <ele>641.38</ele>
        <time>2018-07-29T10:38:13Z</time>
      </trkpt>
      <trkpt lat="42.93017" lon="0.69015">
        <ele>638.76</ele>
        <time>2018-07-29T10:38:15Z</time>
      </trkpt>
      <trkpt lat="42.9301" lon="0.69038">
        <ele>636.7</ele>
        <time>2018-07-29T10:38:17Z</time>
      </trkpt>
      <trkpt lat="42.93008" lon="0.69068">
        <ele>634.7</ele>
        <time>2018-07-29T10:38:19Z</time>
      </trkpt>
      <trkpt lat="42.93002" lon="0.69101">
        <ele>631.49</ele>
        <time>2018-07-29T10:38:22Z</time>
      </trkpt>
      <trkpt lat="42.92977" lon="0.69066">
        <ele>627.14</ele>
        <time>2018-07-29T10:38:26Z</time>
      </trkpt>
      <trkpt lat="42.92975" lon="0.69021">
        <ele>625.65</ele>
        <time>2018-07-29T10:38:28Z</time>
      </trkpt>
      <trkpt lat="42.92973" lon="0.68987">
        <ele>621.38</ele>
        <time>2018-07-29T10:38:30Z</time>
      </trkpt>
      <trkpt lat="42.92973" lon="0.68954">
        <ele>618.55</ele>
        <time>2018-07-29T10:38:32Z</time>
      </trkpt>
      <trkpt lat="42.92977" lon="0.68925">
        <ele>617.59</ele>
        <time>2018-07-29T10:38:34Z</time>
      </trkpt>
      <trkpt lat="42.92964" lon="0.68906">
        <ele>614.28</ele>
        <time>2018-07-29T10:38:39Z</time>
      </trkpt>
      <trkpt lat="42.92955" lon="0.68939">
        <ele>614.27</ele>
        <time>2018-07-29T10:38:41Z</time>
      </trkpt>
      <trkpt lat="42.92951" lon="0.68967">
        <ele>610.07</ele>
        <time>2018-07-29T10:38:42Z</time>
      </trkpt>
      <trkpt lat="42.9294" lon="0.69007">
        <ele>604.51</ele>
        <time>2018-07-29T10:38:44Z</time>
      </trkpt>
      <trkpt lat="42.92925" lon="0.69043">
        <ele>601.77</ele>
        <time>2018-07-29T10:38:46Z</time>
      </trkpt>
      <trkpt lat="42.92905" lon="0.69071">
        <ele>598.79</ele>
        <time>2018-07-29T10:38:48Z</time>
      </trkpt>
      <trkpt lat="42.92891" lon="0.69103">
        <ele>597.61</ele>
        <time>2018-07-29T10:38:50Z</time>
      </trkpt>
      <trkpt lat="42.92887" lon="0.69141">
        <ele>596.88</ele>
        <time>2018-07-29T10:38:52Z</time>
      </trkpt>
      <trkpt lat="42.92884" lon="0.69181">
        <ele>594.01</ele>
        <time>2018-07-29T10:38:54Z</time>
      </trkpt>
      <trkpt lat="42.92889" lon="0.69223">
        <ele>586.68</ele>
        <time>2018-07-29T10:38:56Z</time>
      </trkpt>
      <trkpt lat="42.92902" lon="0.69266">
        <ele>582.87</ele>
        <time>2018-07-29T10:38:58Z</time>
      </trkpt>
      <trkpt lat="42.92905" lon="0.69305">
        <ele>579.8</ele>
        <time>2018-07-29T10:39:00Z</time>
      </trkpt>
      <trkpt lat="42.9291" lon="0.69335">
        <ele>578.41</ele>
        <time>2018-07-29T10:39:02Z</time>
      </trkpt>
      <trkpt lat="42.92898" lon="0.69359">
        <ele>575.06</ele>
        <time>2018-07-29T10:39:04Z</time>
      </trkpt>
      <trkpt lat="42.92878" lon="0.69318">
        <ele>574.78</ele>
        <time>2018-07-29T10:39:07Z</time>
      </trkpt>
      <trkpt lat="42.92867" lon="0.69293">
        <ele>572.7</ele>
        <time>2018-07-29T10:39:09Z</time>
      </trkpt>
      <trkpt lat="42.92852" lon="0.69272">
        <ele>569.49</ele>
        <time>2018-07-29T10:39:12Z</time>
      </trkpt>
      <trkpt lat="42.92834" lon="0.69262">
        <ele>569.27</ele>
        <time>2018-07-29T10:39:15Z</time>
      </trkpt>
      <trkpt lat="42.92819" lon="0.69244">
        <ele>568.65</ele>
        <time>2018-07-29T10:39:20Z</time>
      </trkpt>
      <trkpt lat="42.9281" lon="0.69216">
        <ele>566.6</ele>
        <time>2018-07-29T10:39:55Z</time>
      </trkpt>
      <trkpt lat="42.92813" lon="0.69183">
        <ele>563.9</ele>
        <time>2018-07-29T10:39:58Z</time>
      </trkpt>
      <trkpt lat="42.92815" lon="0.69158">
        <ele>562.62</ele>
        <time>2018-07-29T10:40:00Z</time>
      </trkpt>
      <trkpt lat="42.92806" lon="0.69133">
        <ele>559.78</ele>
        <time>2018-07-29T10:40:02Z</time>
      </trkpt>
      <trkpt lat="42.9279" lon="0.69105">
        <ele>556.63</ele>
        <time>2018-07-29T10:40:05Z</time>
      </trkpt>
      <trkpt lat="42.92775" lon="0.69088">
        <ele>554.69</ele>
        <time>2018-07-29T10:40:07Z</time>
      </trkpt>
      <trkpt lat="42.92755" lon="0.69072">
        <ele>552.73</ele>
        <time>2018-07-29T10:40:10Z</time>
      </trkpt>
      <trkpt lat="42.92742" lon="0.69048">
        <ele>551.37</ele>
        <time>2018-07-29T10:40:13Z</time>
      </trkpt>
      <trkpt lat="42.92733" lon="0.69025">
        <ele>548.97</ele>
        <time>2018-07-29T10:40:15Z</time>
      </trkpt>
      <trkpt lat="42.92721" lon="0.69003">
        <ele>548.33</ele>
        <time>2018-07-29T10:40:17Z</time>
      </trkpt>
      <trkpt lat="42.92707" lon="0.68982">
        <ele>545.75</ele>
        <time>2018-07-29T10:40:19Z</time>
      </trkpt>
      <trkpt lat="42.92694" lon="0.68959">
        <ele>542.79</ele>
        <time>2018-07-29T10:40:21Z</time>
      </trkpt>
      <trkpt lat="42.92687" lon="0.6893">
        <ele>540</ele>
        <time>2018-07-29T10:40:23Z</time>
      </trkpt>
      <trkpt lat="42.92682" lon="0.68897">
        <ele>537.51</ele>
        <time>2018-07-29T10:40:25Z</time>
      </trkpt>
      <trkpt lat="42.92677" lon="0.68863">
        <ele>536.38</ele>
        <time>2018-07-29T10:40:27Z</time>
      </trkpt>
      <trkpt lat="42.92671" lon="0.68832">
        <ele>534.67</ele>
        <time>2018-07-29T10:40:29Z</time>
      </trkpt>
      <trkpt lat="42.9267" lon="0.68799">
        <ele>532.48</ele>
        <time>2018-07-29T10:40:31Z</time>
      </trkpt>
      <trkpt lat="42.92671" lon="0.68764">
        <ele>530.68</ele>
        <time>2018-07-29T10:40:33Z</time>
      </trkpt>
      <trkpt lat="42.92672" lon="0.68727">
        <ele>528.48</ele>
        <time>2018-07-29T10:40:35Z</time>
      </trkpt>
      <trkpt lat="42.92673" lon="0.68691">
        <ele>526.68</ele>
        <time>2018-07-29T10:40:37Z</time>
      </trkpt>
      <trkpt lat="42.92674" lon="0.68652">
        <ele>526.3</ele>
        <time>2018-07-29T10:40:39Z</time>
      </trkpt>
      <trkpt lat="42.92676" lon="0.68614">
        <ele>524.45</ele>
        <time>2018-07-29T10:40:41Z</time>
      </trkpt>
      <trkpt lat="42.92679" lon="0.68575">
        <ele>523.58</ele>
        <time>2018-07-29T10:40:43Z</time>
      </trkpt>
      <trkpt lat="42.92682" lon="0.68537">
        <ele>522.6</ele>
        <time>2018-07-29T10:40:45Z</time>
      </trkpt>
      <trkpt lat="42.92685" lon="0.68502">
        <ele>522.3</ele>
        <time>2018-07-29T10:40:47Z</time>
      </trkpt>
      <trkpt lat="42.92686" lon="0.68467">
        <ele>522.27</ele>
        <time>2018-07-29T10:40:49Z</time>
      </trkpt>
      <trkpt lat="42.92684" lon="0.68435">
        <ele>520.66</ele>
        <time>2018-07-29T10:40:51Z</time>
      </trkpt>
      <trkpt lat="42.92688" lon="0.68406">
        <ele>519.39</ele>
        <time>2018-07-29T10:40:53Z</time>
      </trkpt>
      <trkpt lat="42.92697" lon="0.6838">
        <ele>518.37</ele>
        <time>2018-07-29T10:40:55Z</time>
      </trkpt>
      <trkpt lat="42.92696" lon="0.68347">
        <ele>516.67</ele>
        <time>2018-07-29T10:40:57Z</time>
      </trkpt>
      <trkpt lat="42.92694" lon="0.68314">
        <ele>513.08</ele>
        <time>2018-07-29T10:40:59Z</time>
      </trkpt>
      <trkpt lat="42.9269" lon="0.68278">
        <ele>511.43</ele>
        <time>2018-07-29T10:41:01Z</time>
      </trkpt>
      <trkpt lat="42.92685" lon="0.68241">
        <ele>509.67</ele>
        <time>2018-07-29T10:41:03Z</time>
      </trkpt>
      <trkpt lat="42.92679" lon="0.68203">
        <ele>508.39</ele>
        <time>2018-07-29T10:41:05Z</time>
      </trkpt>
      <trkpt lat="42.92674" lon="0.68162">
        <ele>507.58</ele>
        <time>2018-07-29T10:41:07Z</time>
      </trkpt>
      <trkpt lat="42.92668" lon="0.68123">
        <ele>506.6</ele>
        <time>2018-07-29T10:41:09Z</time>
      </trkpt>
      <trkpt lat="42.9266" lon="0.68085">
        <ele>503.29</ele>
        <time>2018-07-29T10:41:11Z</time>
      </trkpt>
      <trkpt lat="42.9266" lon="0.68044">
        <ele>499.84</ele>
        <time>2018-07-29T10:41:13Z</time>
      </trkpt>
      <trkpt lat="42.92659" lon="0.68001">
        <ele>497.92</ele>
        <time>2018-07-29T10:41:15Z</time>
      </trkpt>
      <trkpt lat="42.92655" lon="0.6796">
        <ele>496.42</ele>
        <time>2018-07-29T10:41:17Z</time>
      </trkpt>
      <trkpt lat="42.9265" lon="0.67917">
        <ele>494.67</ele>
        <time>2018-07-29T10:41:19Z</time>
      </trkpt>
      <trkpt lat="42.92647" lon="0.67877">
        <ele>491.99</ele>
        <time>2018-07-29T10:41:21Z</time>
      </trkpt>
      <trkpt lat="42.92647" lon="0.6784">
        <ele>492.03</ele>
        <time>2018-07-29T10:41:23Z</time>
      </trkpt>
      <trkpt lat="42.92649" lon="0.67805">
        <ele>491.55</ele>
        <time>2018-07-29T10:41:25Z</time>
      </trkpt>
      <trkpt lat="42.92651" lon="0.67777">
        <ele>491.29</ele>
        <time>2018-07-29T10:41:27Z</time>
      </trkpt>
      <trkpt lat="42.92644" lon="0.67748">
        <ele>489.38</ele>
        <time>2018-07-29T10:41:30Z</time>
      </trkpt>
      <trkpt lat="42.92632" lon="0.67728">
        <ele>488.28</ele>
        <time>2018-07-29T10:41:34Z</time>
      </trkpt>
      <trkpt lat="42.92633" lon="0.67699">
        <ele>488.2</ele>
        <time>2018-07-29T10:41:37Z</time>
      </trkpt>
      <trkpt lat="42.92643" lon="0.67657">
        <ele>488.26</ele>
        <time>2018-07-29T10:41:39Z</time>
      </trkpt>
      <trkpt lat="42.92654" lon="0.67601">
        <ele>486.66</ele>
        <time>2018-07-29T10:41:41Z</time>
      </trkpt>
      <trkpt lat="42.92658" lon="0.67568">
        <ele>487.08</ele>
        <time>2018-07-29T10:41:42Z</time>
      </trkpt>
      <trkpt lat="42.92663" lon="0.67537">
        <ele>487.21</ele>
        <time>2018-07-29T10:41:43Z</time>
      </trkpt>
      <trkpt lat="42.92669" lon="0.67507">
        <ele>487.25</ele>
        <time>2018-07-29T10:41:44Z</time>
      </trkpt>
      <trkpt lat="42.92674" lon="0.67478">
        <ele>487.96</ele>
        <time>2018-07-29T10:41:45Z</time>
      </trkpt>
      <trkpt lat="42.92678" lon="0.67448">
        <ele>488.18</ele>
        <time>2018-07-29T10:41:46Z</time>
      </trkpt>
      <trkpt lat="42.92681" lon="0.67418">
        <ele>487.54</ele>
        <time>2018-07-29T10:41:47Z</time>
      </trkpt>
      <trkpt lat="42.92686" lon="0.67391">
        <ele>487.35</ele>
        <time>2018-07-29T10:41:48Z</time>
      </trkpt>
      <trkpt lat="42.92691" lon="0.67362">
        <ele>487.99</ele>
        <time>2018-07-29T10:41:49Z</time>
      </trkpt>
      <trkpt lat="42.92694" lon="0.67336">
        <ele>488.18</ele>
        <time>2018-07-29T10:41:50Z</time>
      </trkpt>
      <trkpt lat="42.92699" lon="0.67309">
        <ele>487.54</ele>
        <time>2018-07-29T10:41:51Z</time>
      </trkpt>
      <trkpt lat="42.92704" lon="0.67282">
        <ele>486.65</ele>
        <time>2018-07-29T10:41:52Z</time>
      </trkpt>
      <trkpt lat="42.92708" lon="0.67256">
        <ele>485.68</ele>
        <time>2018-07-29T10:41:53Z</time>
      </trkpt>
      <trkpt lat="42.92713" lon="0.67231">
        <ele>485.39</ele>
        <time>2018-07-29T10:41:54Z</time>
      </trkpt>
      <trkpt lat="42.92718" lon="0.67205">
        <ele>485.3</ele>
        <time>2018-07-29T10:41:55Z</time>
      </trkpt>
      <trkpt lat="42.92721" lon="0.67178">
        <ele>485.28</ele>
        <time>2018-07-29T10:41:56Z</time>
      </trkpt>
      <trkpt lat="42.92726" lon="0.67152">
        <ele>485.27</ele>
        <time>2018-07-29T10:41:57Z</time>
      </trkpt>
      <trkpt lat="42.9273" lon="0.67126">
        <ele>484.57</ele>
        <time>2018-07-29T10:41:58Z</time>
      </trkpt>
      <trkpt lat="42.92735" lon="0.67099">
        <ele>484.36</ele>
        <time>2018-07-29T10:41:59Z</time>
      </trkpt>
      <trkpt lat="42.9274" lon="0.67072">
        <ele>483.59</ele>
        <time>2018-07-29T10:42:00Z</time>
      </trkpt>
      <trkpt lat="42.92744" lon="0.67045">
        <ele>484.07</ele>
        <time>2018-07-29T10:42:01Z</time>
      </trkpt>
      <trkpt lat="42.92748" lon="0.67019">
        <ele>483.51</ele>
        <time>2018-07-29T10:42:02Z</time>
      </trkpt>
      <trkpt lat="42.92751" lon="0.66992">
        <ele>483.34</ele>
        <time>2018-07-29T10:42:03Z</time>
      </trkpt>
      <trkpt lat="42.92756" lon="0.66965">
        <ele>483.29</ele>
        <time>2018-07-29T10:42:04Z</time>
      </trkpt>
      <trkpt lat="42.92761" lon="0.66938">
        <ele>483.27</ele>
        <time>2018-07-29T10:42:05Z</time>
      </trkpt>
      <trkpt lat="42.92765" lon="0.66912">
        <ele>483.27</ele>
        <time>2018-07-29T10:42:06Z</time>
      </trkpt>
      <trkpt lat="42.9277" lon="0.66885">
        <ele>483.27</ele>
        <time>2018-07-29T10:42:07Z</time>
      </trkpt>
      <trkpt lat="42.92773" lon="0.66858">
        <ele>483.97</ele>
        <time>2018-07-29T10:42:08Z</time>
      </trkpt>
      <trkpt lat="42.92778" lon="0.66831">
        <ele>484.18</ele>
        <time>2018-07-29T10:42:09Z</time>
      </trkpt>
      <trkpt lat="42.92781" lon="0.66804">
        <ele>484.24</ele>
        <time>2018-07-29T10:42:10Z</time>
      </trkpt>
      <trkpt lat="42.92785" lon="0.66776">
        <ele>484.26</ele>
        <time>2018-07-29T10:42:11Z</time>
      </trkpt>
      <trkpt lat="42.9279" lon="0.66748">
        <ele>484.96</ele>
        <time>2018-07-29T10:42:12Z</time>
      </trkpt>
      <trkpt lat="42.92794" lon="0.66721">
        <ele>485.18</ele>
        <time>2018-07-29T10:42:13Z</time>
      </trkpt>
      <trkpt lat="42.92798" lon="0.66694">
        <ele>485.24</ele>
        <time>2018-07-29T10:42:14Z</time>
      </trkpt>
      <trkpt lat="42.92802" lon="0.66667">
        <ele>484.56</ele>
        <time>2018-07-29T10:42:15Z</time>
      </trkpt>
      <trkpt lat="42.92806" lon="0.66639">
        <ele>484.35</ele>
        <time>2018-07-29T10:42:16Z</time>
      </trkpt>
      <trkpt lat="42.92811" lon="0.66613">
        <ele>483.59</ele>
        <time>2018-07-29T10:42:17Z</time>
      </trkpt>
      <trkpt lat="42.92815" lon="0.66586">
        <ele>483.36</ele>
        <time>2018-07-29T10:42:18Z</time>
      </trkpt>
      <trkpt lat="42.92819" lon="0.66559">
        <ele>483.3</ele>
        <time>2018-07-29T10:42:19Z</time>
      </trkpt>
      <trkpt lat="42.92825" lon="0.66533">
        <ele>482.58</ele>
        <time>2018-07-29T10:42:20Z</time>
      </trkpt>
      <trkpt lat="42.92829" lon="0.66507">
        <ele>482.36</ele>
        <time>2018-07-29T10:42:21Z</time>
      </trkpt>
      <trkpt lat="42.92834" lon="0.66481">
        <ele>482.29</ele>
        <time>2018-07-29T10:42:22Z</time>
      </trkpt>
      <trkpt lat="42.92837" lon="0.66455">
        <ele>482.28</ele>
        <time>2018-07-29T10:42:23Z</time>
      </trkpt>
      <trkpt lat="42.9284" lon="0.66428">
        <ele>482.27</ele>
        <time>2018-07-29T10:42:24Z</time>
      </trkpt>
      <trkpt lat="42.92843" lon="0.66403">
        <ele>481.57</ele>
        <time>2018-07-29T10:42:25Z</time>
      </trkpt>
      <trkpt lat="42.92843" lon="0.66377">
        <ele>482.06</ele>
        <time>2018-07-29T10:42:26Z</time>
      </trkpt>
      <trkpt lat="42.92844" lon="0.66351">
        <ele>481.5</ele>
        <time>2018-07-29T10:42:27Z</time>
      </trkpt>
      <trkpt lat="42.92843" lon="0.66326">
        <ele>481.34</ele>
        <time>2018-07-29T10:42:28Z</time>
      </trkpt>
      <trkpt lat="42.92841" lon="0.663">
        <ele>481.29</ele>
        <time>2018-07-29T10:42:29Z</time>
      </trkpt>
      <trkpt lat="42.92838" lon="0.66274">
        <ele>481.27</ele>
        <time>2018-07-29T10:42:30Z</time>
      </trkpt>
      <trkpt lat="42.92834" lon="0.66248">
        <ele>481.27</ele>
        <time>2018-07-29T10:42:31Z</time>
      </trkpt>
      <trkpt lat="42.92829" lon="0.66222">
        <ele>481.27</ele>
        <time>2018-07-29T10:42:32Z</time>
      </trkpt>
      <trkpt lat="42.92825" lon="0.66196">
        <ele>481.27</ele>
        <time>2018-07-29T10:42:33Z</time>
      </trkpt>
      <trkpt lat="42.92821" lon="0.66169">
        <ele>480.57</ele>
        <time>2018-07-29T10:42:34Z</time>
      </trkpt>
      <trkpt lat="42.92817" lon="0.66142">
        <ele>481.06</ele>
        <time>2018-07-29T10:42:35Z</time>
      </trkpt>
      <trkpt lat="42.92813" lon="0.66116">
        <ele>481.2</ele>
        <time>2018-07-29T10:42:36Z</time>
      </trkpt>
      <trkpt lat="42.92808" lon="0.66091">
        <ele>481.25</ele>
        <time>2018-07-29T10:42:37Z</time>
      </trkpt>
      <trkpt lat="42.92804" lon="0.66065">
        <ele>481.26</ele>
        <time>2018-07-29T10:42:38Z</time>
      </trkpt>
      <trkpt lat="42.928" lon="0.66039">
        <ele>481.27</ele>
        <time>2018-07-29T10:42:39Z</time>
      </trkpt>
      <trkpt lat="42.92796" lon="0.66013">
        <ele>481.27</ele>
        <time>2018-07-29T10:42:40Z</time>
      </trkpt>
      <trkpt lat="42.92791" lon="0.65986">
        <ele>481.27</ele>
        <time>2018-07-29T10:42:41Z</time>
      </trkpt>
      <trkpt lat="42.92787" lon="0.6596">
        <ele>481.27</ele>
        <time>2018-07-29T10:42:42Z</time>
      </trkpt>
      <trkpt lat="42.92783" lon="0.65935">
        <ele>481.27</ele>
        <time>2018-07-29T10:42:43Z</time>
      </trkpt>
      <trkpt lat="42.92779" lon="0.65909">
        <ele>480.57</ele>
        <time>2018-07-29T10:42:44Z</time>
      </trkpt>
      <trkpt lat="42.92775" lon="0.65883">
        <ele>480.36</ele>
        <time>2018-07-29T10:42:45Z</time>
      </trkpt>
      <trkpt lat="42.92771" lon="0.65857">
        <ele>480.29</ele>
        <time>2018-07-29T10:42:46Z</time>
      </trkpt>
      <trkpt lat="42.92766" lon="0.65831">
        <ele>480.28</ele>
        <time>2018-07-29T10:42:47Z</time>
      </trkpt>
      <trkpt lat="42.92762" lon="0.65805">
        <ele>480.27</ele>
        <time>2018-07-29T10:42:48Z</time>
      </trkpt>
      <trkpt lat="42.92757" lon="0.65779">
        <ele>480.27</ele>
        <time>2018-07-29T10:42:49Z</time>
      </trkpt>
      <trkpt lat="42.92753" lon="0.65753">
        <ele>480.27</ele>
        <time>2018-07-29T10:42:50Z</time>
      </trkpt>
      <trkpt lat="42.92749" lon="0.65727">
        <ele>480.97</ele>
        <time>2018-07-29T10:42:51Z</time>
      </trkpt>
      <trkpt lat="42.92747" lon="0.65701">
        <ele>481.18</ele>
        <time>2018-07-29T10:42:52Z</time>
      </trkpt>
      <trkpt lat="42.92745" lon="0.65676">
        <ele>481.94</ele>
        <time>2018-07-29T10:42:53Z</time>
      </trkpt>
      <trkpt lat="42.92744" lon="0.65651">
        <ele>482.87</ele>
        <time>2018-07-29T10:42:54Z</time>
      </trkpt>
      <trkpt lat="42.92745" lon="0.65625">
        <ele>483.85</ele>
        <time>2018-07-29T10:42:55Z</time>
      </trkpt>
      <trkpt lat="42.92748" lon="0.656">
        <ele>484.84</ele>
        <time>2018-07-29T10:42:56Z</time>
      </trkpt>
      <trkpt lat="42.92752" lon="0.65575">
        <ele>485.14</ele>
        <time>2018-07-29T10:42:57Z</time>
      </trkpt>
      <trkpt lat="42.92757" lon="0.6555">
        <ele>485.23</ele>
        <time>2018-07-29T10:42:58Z</time>
      </trkpt>
      <trkpt lat="42.92763" lon="0.65525">
        <ele>485.96</ele>
        <time>2018-07-29T10:42:59Z</time>
      </trkpt>
      <trkpt lat="42.92771" lon="0.65501">
        <ele>486.17</ele>
        <time>2018-07-29T10:43:00Z</time>
      </trkpt>
      <trkpt lat="42.9278" lon="0.65478">
        <ele>486.24</ele>
        <time>2018-07-29T10:43:01Z</time>
      </trkpt>
      <trkpt lat="42.92791" lon="0.65456">
        <ele>486.26</ele>
        <time>2018-07-29T10:43:02Z</time>
      </trkpt>
      <trkpt lat="42.92802" lon="0.65436">
        <ele>486.26</ele>
        <time>2018-07-29T10:43:03Z</time>
      </trkpt>
      <trkpt lat="42.92815" lon="0.65415">
        <ele>486.27</ele>
        <time>2018-07-29T10:43:04Z</time>
      </trkpt>
      <trkpt lat="42.92829" lon="0.65396">
        <ele>485.57</ele>
        <time>2018-07-29T10:43:05Z</time>
      </trkpt>
      <trkpt lat="42.92845" lon="0.65378">
        <ele>484.66</ele>
        <time>2018-07-29T10:43:06Z</time>
      </trkpt>
      <trkpt lat="42.92861" lon="0.65362">
        <ele>483.68</ele>
        <time>2018-07-29T10:43:07Z</time>
      </trkpt>
      <trkpt lat="42.92879" lon="0.65346">
        <ele>482.69</ele>
        <time>2018-07-29T10:43:08Z</time>
      </trkpt>
      <trkpt lat="42.92897" lon="0.65333">
        <ele>481.69</ele>
        <time>2018-07-29T10:43:09Z</time>
      </trkpt>
      <trkpt lat="42.92916" lon="0.65321">
        <ele>481.4</ele>
        <time>2018-07-29T10:43:10Z</time>
      </trkpt>
      <trkpt lat="42.92935" lon="0.65311">
        <ele>481.31</ele>
        <time>2018-07-29T10:43:11Z</time>
      </trkpt>
      <trkpt lat="42.92955" lon="0.65301">
        <ele>481.28</ele>
        <time>2018-07-29T10:43:12Z</time>
      </trkpt>
      <trkpt lat="42.92975" lon="0.6529">
        <ele>480.57</ele>
        <time>2018-07-29T10:43:13Z</time>
      </trkpt>
      <trkpt lat="42.92994" lon="0.6528">
        <ele>480.36</ele>
        <time>2018-07-29T10:43:14Z</time>
      </trkpt>
      <trkpt lat="42.93013" lon="0.6527">
        <ele>480.29</ele>
        <time>2018-07-29T10:43:15Z</time>
      </trkpt>
      <trkpt lat="42.93032" lon="0.65261">
        <ele>480.28</ele>
        <time>2018-07-29T10:43:16Z</time>
      </trkpt>
      <trkpt lat="42.93051" lon="0.65251">
        <ele>480.27</ele>
        <time>2018-07-29T10:43:17Z</time>
      </trkpt>
      <trkpt lat="42.9307" lon="0.65241">
        <ele>480.27</ele>
        <time>2018-07-29T10:43:18Z</time>
      </trkpt>
      <trkpt lat="42.93088" lon="0.65232">
        <ele>480.27</ele>
        <time>2018-07-29T10:43:19Z</time>
      </trkpt>
      <trkpt lat="42.93107" lon="0.65222">
        <ele>480.27</ele>
        <time>2018-07-29T10:43:20Z</time>
      </trkpt>
      <trkpt lat="42.93126" lon="0.65212">
        <ele>480.27</ele>
        <time>2018-07-29T10:43:21Z</time>
      </trkpt>
      <trkpt lat="42.93145" lon="0.65202">
        <ele>480.27</ele>
        <time>2018-07-29T10:43:22Z</time>
      </trkpt>
      <trkpt lat="42.93164" lon="0.65193">
        <ele>479.57</ele>
        <time>2018-07-29T10:43:23Z</time>
      </trkpt>
      <trkpt lat="42.93184" lon="0.65182">
        <ele>479.36</ele>
        <time>2018-07-29T10:43:24Z</time>
      </trkpt>
      <trkpt lat="42.93203" lon="0.65171">
        <ele>479.99</ele>
        <time>2018-07-29T10:43:25Z</time>
      </trkpt>
      <trkpt lat="42.93222" lon="0.65162">
        <ele>479.49</ele>
        <time>2018-07-29T10:43:26Z</time>
      </trkpt>
      <trkpt lat="42.93241" lon="0.65152">
        <ele>479.33</ele>
        <time>2018-07-29T10:43:27Z</time>
      </trkpt>
      <trkpt lat="42.9326" lon="0.65142">
        <ele>479.99</ele>
        <time>2018-07-29T10:43:28Z</time>
      </trkpt>
      <trkpt lat="42.93279" lon="0.65133">
        <ele>480.18</ele>
        <time>2018-07-29T10:43:29Z</time>
      </trkpt>
      <trkpt lat="42.93297" lon="0.65123">
        <ele>480.24</ele>
        <time>2018-07-29T10:43:30Z</time>
      </trkpt>
      <trkpt lat="42.93315" lon="0.65113">
        <ele>480.26</ele>
        <time>2018-07-29T10:43:31Z</time>
      </trkpt>
      <trkpt lat="42.93334" lon="0.65103">
        <ele>479.56</ele>
        <time>2018-07-29T10:43:32Z</time>
      </trkpt>
      <trkpt lat="42.93352" lon="0.65093">
        <ele>479.36</ele>
        <time>2018-07-29T10:43:33Z</time>
      </trkpt>
      <trkpt lat="42.9337" lon="0.65083">
        <ele>479.29</ele>
        <time>2018-07-29T10:43:34Z</time>
      </trkpt>
      <trkpt lat="42.93388" lon="0.65073">
        <ele>479.28</ele>
        <time>2018-07-29T10:43:35Z</time>
      </trkpt>
      <trkpt lat="42.93406" lon="0.65064">
        <ele>478.57</ele>
        <time>2018-07-29T10:43:36Z</time>
      </trkpt>
      <trkpt lat="42.93425" lon="0.65056">
        <ele>478.36</ele>
        <time>2018-07-29T10:43:37Z</time>
      </trkpt>
      <trkpt lat="42.93443" lon="0.65046">
        <ele>478.29</ele>
        <time>2018-07-29T10:43:38Z</time>
      </trkpt>
      <trkpt lat="42.93461" lon="0.65035">
        <ele>478.28</ele>
        <time>2018-07-29T10:43:39Z</time>
      </trkpt>
      <trkpt lat="42.9348" lon="0.65026">
        <ele>477.57</ele>
        <time>2018-07-29T10:43:40Z</time>
      </trkpt>
      <trkpt lat="42.935" lon="0.65015">
        <ele>478.06</ele>
        <time>2018-07-29T10:43:41Z</time>
      </trkpt>
      <trkpt lat="42.93518" lon="0.65004">
        <ele>478.2</ele>
        <time>2018-07-29T10:43:42Z</time>
      </trkpt>
      <trkpt lat="42.93538" lon="0.64995">
        <ele>476.85</ele>
        <time>2018-07-29T10:43:43Z</time>
      </trkpt>
      <trkpt lat="42.93557" lon="0.64984">
        <ele>475.74</ele>
        <time>2018-07-29T10:43:44Z</time>
      </trkpt>
      <trkpt lat="42.93576" lon="0.64974">
        <ele>475.41</ele>
        <time>2018-07-29T10:43:45Z</time>
      </trkpt>
      <trkpt lat="42.93594" lon="0.64964">
        <ele>475.31</ele>
        <time>2018-07-29T10:43:46Z</time>
      </trkpt>
      <trkpt lat="42.93614" lon="0.64954">
        <ele>475.28</ele>
        <time>2018-07-29T10:43:47Z</time>
      </trkpt>
      <trkpt lat="42.93633" lon="0.64945">
        <ele>475.27</ele>
        <time>2018-07-29T10:43:48Z</time>
      </trkpt>
      <trkpt lat="42.93651" lon="0.64936">
        <ele>475.27</ele>
        <time>2018-07-29T10:43:49Z</time>
      </trkpt>
      <trkpt lat="42.9367" lon="0.64928">
        <ele>475.97</ele>
        <time>2018-07-29T10:43:50Z</time>
      </trkpt>
      <trkpt lat="42.93688" lon="0.6492">
        <ele>476.18</ele>
        <time>2018-07-29T10:43:51Z</time>
      </trkpt>
      <trkpt lat="42.93708" lon="0.64914">
        <ele>475.54</ele>
        <time>2018-07-29T10:43:52Z</time>
      </trkpt>
      <trkpt lat="42.93727" lon="0.64907">
        <ele>475.35</ele>
        <time>2018-07-29T10:43:53Z</time>
      </trkpt>
      <trkpt lat="42.93746" lon="0.64902">
        <ele>475.29</ele>
        <time>2018-07-29T10:43:54Z</time>
      </trkpt>
      <trkpt lat="42.93764" lon="0.64897">
        <ele>475.97</ele>
        <time>2018-07-29T10:43:55Z</time>
      </trkpt>
      <trkpt lat="42.93783" lon="0.6489">
        <ele>475.48</ele>
        <time>2018-07-29T10:43:56Z</time>
      </trkpt>
      <trkpt lat="42.93801" lon="0.64885">
        <ele>475.33</ele>
        <time>2018-07-29T10:43:57Z</time>
      </trkpt>
      <trkpt lat="42.93834" lon="0.64877">
        <ele>475.48</ele>
        <time>2018-07-29T10:43:59Z</time>
      </trkpt>
      <trkpt lat="42.93862" lon="0.64879">
        <ele>474.38</ele>
        <time>2018-07-29T10:44:01Z</time>
      </trkpt>
      <trkpt lat="42.93883" lon="0.64883">
        <ele>474.28</ele>
        <time>2018-07-29T10:44:03Z</time>
      </trkpt>
      <trkpt lat="42.93906" lon="0.64874">
        <ele>473.36</ele>
        <time>2018-07-29T10:44:06Z</time>
      </trkpt>
      <trkpt lat="42.93899" lon="0.64844">
        <ele>475.1</ele>
        <time>2018-07-29T10:44:08Z</time>
      </trkpt>
      <trkpt lat="42.93886" lon="0.64825">
        <ele>475.25</ele>
        <time>2018-07-29T10:44:10Z</time>
      </trkpt>
      <trkpt lat="42.93876" lon="0.64797">
        <ele>475.48</ele>
        <time>2018-07-29T10:44:12Z</time>
      </trkpt>
      <trkpt lat="42.93869" lon="0.6476">
        <ele>476.2</ele>
        <time>2018-07-29T10:44:14Z</time>
      </trkpt>
      <trkpt lat="42.93862" lon="0.6472">
        <ele>476.26</ele>
        <time>2018-07-29T10:44:16Z</time>
      </trkpt>
      <trkpt lat="42.93856" lon="0.64677">
        <ele>476.97</ele>
        <time>2018-07-29T10:44:18Z</time>
      </trkpt>
      <trkpt lat="42.93849" lon="0.64633">
        <ele>476.33</ele>
        <time>2018-07-29T10:44:20Z</time>
      </trkpt>
      <trkpt lat="42.93843" lon="0.64592">
        <ele>476.27</ele>
        <time>2018-07-29T10:44:22Z</time>
      </trkpt>
      <trkpt lat="42.93839" lon="0.64558">
        <ele>475.57</ele>
        <time>2018-07-29T10:44:24Z</time>
      </trkpt>
      <trkpt lat="42.93835" lon="0.64528">
        <ele>475.98</ele>
        <time>2018-07-29T10:44:27Z</time>
      </trkpt>
      <trkpt lat="42.93806" lon="0.64528">
        <ele>476.12</ele>
        <time>2018-07-29T10:44:33Z</time>
      </trkpt>
      <trkpt lat="42.93777" lon="0.64545">
        <ele>475.55</ele>
        <time>2018-07-29T10:44:35Z</time>
      </trkpt>
      <trkpt lat="42.9376" lon="0.64557">
        <ele>475.35</ele>
        <time>2018-07-29T10:44:36Z</time>
      </trkpt>
      <trkpt lat="42.93741" lon="0.6457">
        <ele>475.29</ele>
        <time>2018-07-29T10:44:37Z</time>
      </trkpt>
      <trkpt lat="42.93724" lon="0.64586">
        <ele>475.27</ele>
        <time>2018-07-29T10:44:38Z</time>
      </trkpt>
      <trkpt lat="42.93706" lon="0.64604">
        <ele>475.27</ele>
        <time>2018-07-29T10:44:39Z</time>
      </trkpt>
      <trkpt lat="42.93688" lon="0.64623">
        <ele>475.97</ele>
        <time>2018-07-29T10:44:40Z</time>
      </trkpt>
      <trkpt lat="42.9367" lon="0.6464">
        <ele>476.18</ele>
        <time>2018-07-29T10:44:41Z</time>
      </trkpt>
      <trkpt lat="42.93653" lon="0.64658">
        <ele>476.24</ele>
        <time>2018-07-29T10:44:42Z</time>
      </trkpt>
      <trkpt lat="42.93636" lon="0.64675">
        <ele>476.26</ele>
        <time>2018-07-29T10:44:43Z</time>
      </trkpt>
      <trkpt lat="42.93619" lon="0.6469">
        <ele>476.26</ele>
        <time>2018-07-29T10:44:44Z</time>
      </trkpt>
      <trkpt lat="42.93603" lon="0.64708">
        <ele>476.27</ele>
        <time>2018-07-29T10:44:45Z</time>
      </trkpt>
      <trkpt lat="42.93587" lon="0.64724">
        <ele>476.27</ele>
        <time>2018-07-29T10:44:46Z</time>
      </trkpt>
      <trkpt lat="42.93571" lon="0.64741">
        <ele>475.57</ele>
        <time>2018-07-29T10:44:47Z</time>
      </trkpt>
      <trkpt lat="42.93554" lon="0.64758">
        <ele>476.06</ele>
        <time>2018-07-29T10:44:48Z</time>
      </trkpt>
      <trkpt lat="42.93538" lon="0.64774">
        <ele>476.2</ele>
        <time>2018-07-29T10:44:49Z</time>
      </trkpt>
      <trkpt lat="42.93521" lon="0.6479">
        <ele>475.55</ele>
        <time>2018-07-29T10:44:50Z</time>
      </trkpt>
      <trkpt lat="42.93504" lon="0.64807">
        <ele>475.35</ele>
        <time>2018-07-29T10:44:51Z</time>
      </trkpt>
      <trkpt lat="42.93487" lon="0.64822">
        <ele>475.29</ele>
        <time>2018-07-29T10:44:52Z</time>
      </trkpt>
      <trkpt lat="42.93468" lon="0.64835">
        <ele>475.27</ele>
        <time>2018-07-29T10:44:53Z</time>
      </trkpt>
      <trkpt lat="42.9345" lon="0.6485">
        <ele>475.27</ele>
        <time>2018-07-29T10:44:54Z</time>
      </trkpt>
      <trkpt lat="42.93432" lon="0.64864">
        <ele>474.57</ele>
        <time>2018-07-29T10:44:55Z</time>
      </trkpt>
      <trkpt lat="42.93412" lon="0.64878">
        <ele>473.66</ele>
        <time>2018-07-29T10:44:56Z</time>
      </trkpt>
      <trkpt lat="42.93393" lon="0.64891">
        <ele>473.38</ele>
        <time>2018-07-29T10:44:57Z</time>
      </trkpt>
      <trkpt lat="42.93373" lon="0.64903">
        <ele>473.3</ele>
        <time>2018-07-29T10:44:58Z</time>
      </trkpt>
      <trkpt lat="42.93354" lon="0.64914">
        <ele>473.28</ele>
        <time>2018-07-29T10:44:59Z</time>
      </trkpt>
      <trkpt lat="42.93335" lon="0.64925">
        <ele>473.27</ele>
        <time>2018-07-29T10:45:00Z</time>
      </trkpt>
      <trkpt lat="42.93316" lon="0.64934">
        <ele>473.27</ele>
        <time>2018-07-29T10:45:01Z</time>
      </trkpt>
      <trkpt lat="42.93296" lon="0.64944">
        <ele>473.97</ele>
        <time>2018-07-29T10:45:02Z</time>
      </trkpt>
      <trkpt lat="42.93278" lon="0.64955">
        <ele>473.48</ele>
        <time>2018-07-29T10:45:03Z</time>
      </trkpt>
      <trkpt lat="42.93259" lon="0.64961">
        <ele>473.33</ele>
        <time>2018-07-29T10:45:04Z</time>
      </trkpt>
      <trkpt lat="42.93239" lon="0.6497">
        <ele>473.99</ele>
        <time>2018-07-29T10:45:05Z</time>
      </trkpt>
      <trkpt lat="42.9322" lon="0.64978">
        <ele>474.18</ele>
        <time>2018-07-29T10:45:06Z</time>
      </trkpt>
      <trkpt lat="42.93201" lon="0.64986">
        <ele>474.24</ele>
        <time>2018-07-29T10:45:07Z</time>
      </trkpt>
      <trkpt lat="42.93182" lon="0.64993">
        <ele>474.26</ele>
        <time>2018-07-29T10:45:08Z</time>
      </trkpt>
      <trkpt lat="42.93162" lon="0.65001">
        <ele>474.96</ele>
        <time>2018-07-29T10:45:09Z</time>
      </trkpt>
      <trkpt lat="42.93143" lon="0.65009">
        <ele>475.18</ele>
        <time>2018-07-29T10:45:10Z</time>
      </trkpt>
      <trkpt lat="42.93124" lon="0.65017">
        <ele>475.94</ele>
        <time>2018-07-29T10:45:11Z</time>
      </trkpt>
      <trkpt lat="42.93106" lon="0.65026">
        <ele>476.17</ele>
        <time>2018-07-29T10:45:12Z</time>
      </trkpt>
      <trkpt lat="42.93087" lon="0.65031">
        <ele>476.24</ele>
        <time>2018-07-29T10:45:13Z</time>
      </trkpt>
      <trkpt lat="42.93068" lon="0.65037">
        <ele>476.26</ele>
        <time>2018-07-29T10:45:14Z</time>
      </trkpt>
      <trkpt lat="42.9305" lon="0.65042">
        <ele>475.56</ele>
        <time>2018-07-29T10:45:15Z</time>
      </trkpt>
      <trkpt lat="42.93032" lon="0.65049">
        <ele>476.06</ele>
        <time>2018-07-29T10:45:16Z</time>
      </trkpt>
      <trkpt lat="42.92998" lon="0.65061">
        <ele>475.34</ele>
        <time>2018-07-29T10:45:18Z</time>
      </trkpt>
      <trkpt lat="42.9298" lon="0.65069">
        <ele>475.29</ele>
        <time>2018-07-29T10:45:19Z</time>
      </trkpt>
      <trkpt lat="42.92962" lon="0.65076">
        <ele>474.57</ele>
        <time>2018-07-29T10:45:20Z</time>
      </trkpt>
      <trkpt lat="42.92944" lon="0.65083">
        <ele>474.36</ele>
        <time>2018-07-29T10:45:21Z</time>
      </trkpt>
      <trkpt lat="42.92925" lon="0.65089">
        <ele>474.29</ele>
        <time>2018-07-29T10:45:22Z</time>
      </trkpt>
      <trkpt lat="42.92906" lon="0.65094">
        <ele>474.28</ele>
        <time>2018-07-29T10:45:23Z</time>
      </trkpt>
      <trkpt lat="42.92886" lon="0.65097">
        <ele>474.27</ele>
        <time>2018-07-29T10:45:24Z</time>
      </trkpt>
      <trkpt lat="42.92867" lon="0.65098">
        <ele>474.27</ele>
        <time>2018-07-29T10:45:25Z</time>
      </trkpt>
      <trkpt lat="42.92848" lon="0.65098">
        <ele>474.27</ele>
        <time>2018-07-29T10:45:26Z</time>
      </trkpt>
      <trkpt lat="42.92828" lon="0.65096">
        <ele>474.97</ele>
        <time>2018-07-29T10:45:27Z</time>
      </trkpt>
      <trkpt lat="42.92808" lon="0.65092">
        <ele>475.18</ele>
        <time>2018-07-29T10:45:28Z</time>
      </trkpt>
      <trkpt lat="42.92789" lon="0.65087">
        <ele>475.94</ele>
        <time>2018-07-29T10:45:29Z</time>
      </trkpt>
      <trkpt lat="42.92769" lon="0.6508">
        <ele>476.17</ele>
        <time>2018-07-29T10:45:30Z</time>
      </trkpt>
      <trkpt lat="42.92749" lon="0.65074">
        <ele>476.24</ele>
        <time>2018-07-29T10:45:31Z</time>
      </trkpt>
      <trkpt lat="42.92729" lon="0.65064">
        <ele>476.26</ele>
        <time>2018-07-29T10:45:32Z</time>
      </trkpt>
      <trkpt lat="42.9271" lon="0.65055">
        <ele>476.26</ele>
        <time>2018-07-29T10:45:33Z</time>
      </trkpt>
      <trkpt lat="42.92691" lon="0.65046">
        <ele>476.27</ele>
        <time>2018-07-29T10:45:34Z</time>
      </trkpt>
      <trkpt lat="42.92671" lon="0.65036">
        <ele>476.27</ele>
        <time>2018-07-29T10:45:35Z</time>
      </trkpt>
      <trkpt lat="42.92651" lon="0.65027">
        <ele>476.27</ele>
        <time>2018-07-29T10:45:36Z</time>
      </trkpt>
      <trkpt lat="42.92633" lon="0.65015">
        <ele>476.27</ele>
        <time>2018-07-29T10:45:37Z</time>
      </trkpt>
      <trkpt lat="42.92613" lon="0.65008">
        <ele>476.27</ele>
        <time>2018-07-29T10:45:38Z</time>
      </trkpt>
      <trkpt lat="42.92594" lon="0.64999">
        <ele>476.27</ele>
        <time>2018-07-29T10:45:39Z</time>
      </trkpt>
      <trkpt lat="42.92574" lon="0.6499">
        <ele>476.27</ele>
        <time>2018-07-29T10:45:40Z</time>
      </trkpt>
      <trkpt lat="42.92555" lon="0.64981">
        <ele>475.57</ele>
        <time>2018-07-29T10:45:41Z</time>
      </trkpt>
      <trkpt lat="42.92536" lon="0.64972">
        <ele>476.06</ele>
        <time>2018-07-29T10:45:42Z</time>
      </trkpt>
      <trkpt lat="42.92517" lon="0.64962">
        <ele>476.2</ele>
        <time>2018-07-29T10:45:43Z</time>
      </trkpt>
      <trkpt lat="42.92499" lon="0.64952">
        <ele>476.95</ele>
        <time>2018-07-29T10:45:44Z</time>
      </trkpt>
      <trkpt lat="42.9248" lon="0.64942">
        <ele>477.17</ele>
        <time>2018-07-29T10:45:45Z</time>
      </trkpt>
      <trkpt lat="42.92461" lon="0.64932">
        <ele>477.24</ele>
        <time>2018-07-29T10:45:46Z</time>
      </trkpt>
      <trkpt lat="42.92443" lon="0.64922">
        <ele>477.26</ele>
        <time>2018-07-29T10:45:47Z</time>
      </trkpt>
      <trkpt lat="42.92424" lon="0.64912">
        <ele>477.96</ele>
        <time>2018-07-29T10:45:48Z</time>
      </trkpt>
      <trkpt lat="42.92406" lon="0.64901">
        <ele>478.18</ele>
        <time>2018-07-29T10:45:49Z</time>
      </trkpt>
      <trkpt lat="42.92387" lon="0.6489">
        <ele>478.24</ele>
        <time>2018-07-29T10:45:50Z</time>
      </trkpt>
      <trkpt lat="42.92368" lon="0.64879">
        <ele>478.96</ele>
        <time>2018-07-29T10:45:51Z</time>
      </trkpt>
      <trkpt lat="42.92352" lon="0.64866">
        <ele>478.47</ele>
        <time>2018-07-29T10:45:52Z</time>
      </trkpt>
      <trkpt lat="42.92335" lon="0.64853">
        <ele>478.33</ele>
        <time>2018-07-29T10:45:53Z</time>
      </trkpt>
      <trkpt lat="42.92317" lon="0.64841">
        <ele>478.29</ele>
        <time>2018-07-29T10:45:54Z</time>
      </trkpt>
      <trkpt lat="42.92299" lon="0.64829">
        <ele>478.27</ele>
        <time>2018-07-29T10:45:55Z</time>
      </trkpt>
      <trkpt lat="42.9228" lon="0.64816">
        <ele>478.27</ele>
        <time>2018-07-29T10:45:56Z</time>
      </trkpt>
      <trkpt lat="42.92261" lon="0.64806">
        <ele>478.97</ele>
        <time>2018-07-29T10:45:57Z</time>
      </trkpt>
      <trkpt lat="42.92243" lon="0.64793">
        <ele>479.18</ele>
        <time>2018-07-29T10:45:58Z</time>
      </trkpt>
      <trkpt lat="42.92224" lon="0.64783">
        <ele>479.24</ele>
        <time>2018-07-29T10:45:59Z</time>
      </trkpt>
      <trkpt lat="42.92205" lon="0.64773">
        <ele>479.96</ele>
        <time>2018-07-29T10:46:00Z</time>
      </trkpt>
      <trkpt lat="42.92187" lon="0.64762">
        <ele>480.17</ele>
        <time>2018-07-29T10:46:01Z</time>
      </trkpt>
      <trkpt lat="42.92169" lon="0.64753">
        <ele>480.24</ele>
        <time>2018-07-29T10:46:02Z</time>
      </trkpt>
      <trkpt lat="42.92152" lon="0.64742">
        <ele>480.26</ele>
        <time>2018-07-29T10:46:03Z</time>
      </trkpt>
      <trkpt lat="42.92135" lon="0.64733">
        <ele>480.26</ele>
        <time>2018-07-29T10:46:04Z</time>
      </trkpt>
      <trkpt lat="42.92117" lon="0.64725">
        <ele>480.27</ele>
        <time>2018-07-29T10:46:05Z</time>
      </trkpt>
      <trkpt lat="42.92098" lon="0.64718">
        <ele>480.27</ele>
        <time>2018-07-29T10:46:06Z</time>
      </trkpt>
      <trkpt lat="42.92079" lon="0.64711">
        <ele>480.27</ele>
        <time>2018-07-29T10:46:07Z</time>
      </trkpt>
      <trkpt lat="42.9206" lon="0.64707">
        <ele>480.27</ele>
        <time>2018-07-29T10:46:08Z</time>
      </trkpt>
      <trkpt lat="42.9204" lon="0.64703">
        <ele>480.27</ele>
        <time>2018-07-29T10:46:09Z</time>
      </trkpt>
      <trkpt lat="42.9202" lon="0.64702">
        <ele>480.97</ele>
        <time>2018-07-29T10:46:10Z</time>
      </trkpt>
      <trkpt lat="42.91999" lon="0.64703">
        <ele>481.18</ele>
        <time>2018-07-29T10:46:11Z</time>
      </trkpt>
      <trkpt lat="42.91979" lon="0.64704">
        <ele>481.24</ele>
        <time>2018-07-29T10:46:12Z</time>
      </trkpt>
      <trkpt lat="42.9196" lon="0.64705">
        <ele>481.26</ele>
        <time>2018-07-29T10:46:13Z</time>
      </trkpt>
      <trkpt lat="42.91939" lon="0.64708">
        <ele>481.26</ele>
        <time>2018-07-29T10:46:14Z</time>
      </trkpt>
      <trkpt lat="42.9192" lon="0.64709">
        <ele>481.27</ele>
        <time>2018-07-29T10:46:15Z</time>
      </trkpt>
      <trkpt lat="42.91901" lon="0.64712">
        <ele>480.57</ele>
        <time>2018-07-29T10:46:16Z</time>
      </trkpt>
      <trkpt lat="42.91882" lon="0.64714">
        <ele>481.06</ele>
        <time>2018-07-29T10:46:17Z</time>
      </trkpt>
      <trkpt lat="42.91863" lon="0.64717">
        <ele>480.5</ele>
        <time>2018-07-29T10:46:18Z</time>
      </trkpt>
      <trkpt lat="42.91844" lon="0.64718">
        <ele>481.04</ele>
        <time>2018-07-29T10:46:19Z</time>
      </trkpt>
      <trkpt lat="42.91823" lon="0.64717">
        <ele>481.2</ele>
        <time>2018-07-29T10:46:20Z</time>
      </trkpt>
      <trkpt lat="42.91803" lon="0.64719">
        <ele>481.95</ele>
        <time>2018-07-29T10:46:21Z</time>
      </trkpt>
      <trkpt lat="42.91784" lon="0.64721">
        <ele>482.87</ele>
        <time>2018-07-29T10:46:22Z</time>
      </trkpt>
      <trkpt lat="42.91764" lon="0.64722">
        <ele>483.85</ele>
        <time>2018-07-29T10:46:23Z</time>
      </trkpt>
      <trkpt lat="42.91744" lon="0.64723">
        <ele>484.14</ele>
        <time>2018-07-29T10:46:24Z</time>
      </trkpt>
      <trkpt lat="42.91725" lon="0.64726">
        <ele>484.23</ele>
        <time>2018-07-29T10:46:25Z</time>
      </trkpt>
      <trkpt lat="42.91705" lon="0.64727">
        <ele>484.26</ele>
        <time>2018-07-29T10:46:26Z</time>
      </trkpt>
      <trkpt lat="42.91685" lon="0.64728">
        <ele>484.96</ele>
        <time>2018-07-29T10:46:27Z</time>
      </trkpt>
      <trkpt lat="42.91666" lon="0.64728">
        <ele>485.88</ele>
        <time>2018-07-29T10:46:28Z</time>
      </trkpt>
      <trkpt lat="42.91646" lon="0.6473">
        <ele>485.45</ele>
        <time>2018-07-29T10:46:29Z</time>
      </trkpt>
      <trkpt lat="42.91627" lon="0.64731">
        <ele>485.32</ele>
        <time>2018-07-29T10:46:30Z</time>
      </trkpt>
      <trkpt lat="42.91608" lon="0.64732">
        <ele>485.98</ele>
        <time>2018-07-29T10:46:31Z</time>
      </trkpt>
      <trkpt lat="42.91589" lon="0.64734">
        <ele>485.48</ele>
        <time>2018-07-29T10:46:32Z</time>
      </trkpt>
      <trkpt lat="42.9157" lon="0.64735">
        <ele>485.33</ele>
        <time>2018-07-29T10:46:33Z</time>
      </trkpt>
      <trkpt lat="42.91551" lon="0.64736">
        <ele>485.29</ele>
        <time>2018-07-29T10:46:34Z</time>
      </trkpt>
      <trkpt lat="42.91516" lon="0.64737">
        <ele>485.27</ele>
        <time>2018-07-29T10:46:36Z</time>
      </trkpt>
      <trkpt lat="42.91481" lon="0.64739">
        <ele>484.57</ele>
        <time>2018-07-29T10:46:38Z</time>
      </trkpt>
      <trkpt lat="42.91453" lon="0.64738">
        <ele>484.29</ele>
        <time>2018-07-29T10:46:40Z</time>
      </trkpt>
      <trkpt lat="42.91427" lon="0.64731">
        <ele>484.27</ele>
        <time>2018-07-29T10:46:42Z</time>
      </trkpt>
      <trkpt lat="42.91396" lon="0.64721">
        <ele>484.27</ele>
        <time>2018-07-29T10:46:44Z</time>
      </trkpt>
      <trkpt lat="42.91379" lon="0.64712">
        <ele>484.27</ele>
        <time>2018-07-29T10:46:45Z</time>
      </trkpt>
      <trkpt lat="42.91361" lon="0.64698">
        <ele>484.27</ele>
        <time>2018-07-29T10:46:46Z</time>
      </trkpt>
      <trkpt lat="42.91342" lon="0.64682">
        <ele>484.27</ele>
        <time>2018-07-29T10:46:47Z</time>
      </trkpt>
      <trkpt lat="42.91325" lon="0.64664">
        <ele>484.27</ele>
        <time>2018-07-29T10:46:48Z</time>
      </trkpt>
      <trkpt lat="42.91308" lon="0.64642">
        <ele>484.27</ele>
        <time>2018-07-29T10:46:49Z</time>
      </trkpt>
      <trkpt lat="42.91293" lon="0.64618">
        <ele>484.97</ele>
        <time>2018-07-29T10:46:50Z</time>
      </trkpt>
      <trkpt lat="42.91279" lon="0.6459">
        <ele>484.48</ele>
        <time>2018-07-29T10:46:51Z</time>
      </trkpt>
      <trkpt lat="42.91268" lon="0.64559">
        <ele>485.03</ele>
        <time>2018-07-29T10:46:52Z</time>
      </trkpt>
      <trkpt lat="42.91258" lon="0.64527">
        <ele>485.9</ele>
        <time>2018-07-29T10:46:53Z</time>
      </trkpt>
      <trkpt lat="42.91252" lon="0.64494">
        <ele>486.16</ele>
        <time>2018-07-29T10:46:54Z</time>
      </trkpt>
      <trkpt lat="42.91246" lon="0.6446">
        <ele>486.23</ele>
        <time>2018-07-29T10:46:55Z</time>
      </trkpt>
      <trkpt lat="42.91241" lon="0.64426">
        <ele>486.26</ele>
        <time>2018-07-29T10:46:56Z</time>
      </trkpt>
      <trkpt lat="42.91235" lon="0.64393">
        <ele>486.96</ele>
        <time>2018-07-29T10:46:57Z</time>
      </trkpt>
      <trkpt lat="42.91229" lon="0.64361">
        <ele>487.88</ele>
        <time>2018-07-29T10:46:58Z</time>
      </trkpt>
      <trkpt lat="42.91221" lon="0.64329">
        <ele>488.15</ele>
        <time>2018-07-29T10:46:59Z</time>
      </trkpt>
      <trkpt lat="42.91212" lon="0.64298">
        <ele>488.23</ele>
        <time>2018-07-29T10:47:00Z</time>
      </trkpt>
      <trkpt lat="42.91203" lon="0.64268">
        <ele>487.56</ele>
        <time>2018-07-29T10:47:01Z</time>
      </trkpt>
      <trkpt lat="42.91194" lon="0.64238">
        <ele>488.05</ele>
        <time>2018-07-29T10:47:02Z</time>
      </trkpt>
      <trkpt lat="42.91184" lon="0.64208">
        <ele>488.2</ele>
        <time>2018-07-29T10:47:03Z</time>
      </trkpt>
      <trkpt lat="42.91175" lon="0.64177">
        <ele>488.95</ele>
        <time>2018-07-29T10:47:04Z</time>
      </trkpt>
      <trkpt lat="42.91166" lon="0.64148">
        <ele>489.87</ele>
        <time>2018-07-29T10:47:05Z</time>
      </trkpt>
      <trkpt lat="42.91157" lon="0.64118">
        <ele>490.15</ele>
        <time>2018-07-29T10:47:06Z</time>
      </trkpt>
      <trkpt lat="42.91149" lon="0.64088">
        <ele>490.23</ele>
        <time>2018-07-29T10:47:07Z</time>
      </trkpt>
      <trkpt lat="42.91141" lon="0.64059">
        <ele>490.96</ele>
        <time>2018-07-29T10:47:08Z</time>
      </trkpt>
      <trkpt lat="42.9113" lon="0.64031">
        <ele>490.47</ele>
        <time>2018-07-29T10:47:09Z</time>
      </trkpt>
      <trkpt lat="42.91119" lon="0.64006">
        <ele>491.03</ele>
        <time>2018-07-29T10:47:10Z</time>
      </trkpt>
      <trkpt lat="42.91108" lon="0.6398">
        <ele>491.9</ele>
        <time>2018-07-29T10:47:11Z</time>
      </trkpt>
      <trkpt lat="42.91096" lon="0.63956">
        <ele>492.16</ele>
        <time>2018-07-29T10:47:12Z</time>
      </trkpt>
      <trkpt lat="42.91084" lon="0.63932">
        <ele>492.23</ele>
        <time>2018-07-29T10:47:13Z</time>
      </trkpt>
      <trkpt lat="42.91069" lon="0.6391">
        <ele>492.26</ele>
        <time>2018-07-29T10:47:14Z</time>
      </trkpt>
      <trkpt lat="42.91057" lon="0.63887">
        <ele>492.26</ele>
        <time>2018-07-29T10:47:15Z</time>
      </trkpt>
      <trkpt lat="42.91041" lon="0.63867">
        <ele>492.97</ele>
        <time>2018-07-29T10:47:16Z</time>
      </trkpt>
      <trkpt lat="42.91025" lon="0.63847">
        <ele>493.18</ele>
        <time>2018-07-29T10:47:17Z</time>
      </trkpt>
      <trkpt lat="42.91009" lon="0.63829">
        <ele>493.24</ele>
        <time>2018-07-29T10:47:18Z</time>
      </trkpt>
      <trkpt lat="42.90993" lon="0.6381">
        <ele>492.56</ele>
        <time>2018-07-29T10:47:19Z</time>
      </trkpt>
      <trkpt lat="42.90976" lon="0.63792">
        <ele>492.35</ele>
        <time>2018-07-29T10:47:20Z</time>
      </trkpt>
      <trkpt lat="42.90959" lon="0.63774">
        <ele>492.99</ele>
        <time>2018-07-29T10:47:21Z</time>
      </trkpt>
      <trkpt lat="42.90942" lon="0.63757">
        <ele>493.88</ele>
        <time>2018-07-29T10:47:22Z</time>
      </trkpt>
      <trkpt lat="42.90924" lon="0.6374">
        <ele>494.15</ele>
        <time>2018-07-29T10:47:23Z</time>
      </trkpt>
      <trkpt lat="42.90907" lon="0.63725">
        <ele>494.23</ele>
        <time>2018-07-29T10:47:24Z</time>
      </trkpt>
      <trkpt lat="42.90888" lon="0.6371">
        <ele>494.26</ele>
        <time>2018-07-29T10:47:25Z</time>
      </trkpt>
      <trkpt lat="42.90868" lon="0.63696">
        <ele>494.96</ele>
        <time>2018-07-29T10:47:26Z</time>
      </trkpt>
      <trkpt lat="42.90848" lon="0.63683">
        <ele>495.18</ele>
        <time>2018-07-29T10:47:27Z</time>
      </trkpt>
      <trkpt lat="42.90827" lon="0.63671">
        <ele>496.64</ele>
        <time>2018-07-29T10:47:28Z</time>
      </trkpt>
      <trkpt lat="42.90807" lon="0.63661">
        <ele>496.38</ele>
        <time>2018-07-29T10:47:29Z</time>
      </trkpt>
      <trkpt lat="42.90786" lon="0.6365">
        <ele>495.6</ele>
        <time>2018-07-29T10:47:30Z</time>
      </trkpt>
      <trkpt lat="42.90766" lon="0.6364">
        <ele>495.37</ele>
        <time>2018-07-29T10:47:31Z</time>
      </trkpt>
      <trkpt lat="42.90746" lon="0.63628">
        <ele>496.7</ele>
        <time>2018-07-29T10:47:32Z</time>
      </trkpt>
      <trkpt lat="42.90726" lon="0.63615">
        <ele>497.1</ele>
        <time>2018-07-29T10:47:33Z</time>
      </trkpt>
      <trkpt lat="42.90707" lon="0.63604">
        <ele>497.22</ele>
        <time>2018-07-29T10:47:34Z</time>
      </trkpt>
      <trkpt lat="42.90686" lon="0.63593">
        <ele>497.25</ele>
        <time>2018-07-29T10:47:35Z</time>
      </trkpt>
      <trkpt lat="42.90667" lon="0.63582">
        <ele>497.26</ele>
        <time>2018-07-29T10:47:36Z</time>
      </trkpt>
      <trkpt lat="42.90647" lon="0.63571">
        <ele>497.27</ele>
        <time>2018-07-29T10:47:37Z</time>
      </trkpt>
      <trkpt lat="42.90628" lon="0.6356">
        <ele>496.57</ele>
        <time>2018-07-29T10:47:38Z</time>
      </trkpt>
      <trkpt lat="42.9061" lon="0.63546">
        <ele>496.36</ele>
        <time>2018-07-29T10:47:39Z</time>
      </trkpt>
      <trkpt lat="42.90591" lon="0.63532">
        <ele>496.29</ele>
        <time>2018-07-29T10:47:40Z</time>
      </trkpt>
      <trkpt lat="42.90573" lon="0.63518">
        <ele>496.98</ele>
        <time>2018-07-29T10:47:41Z</time>
      </trkpt>
      <trkpt lat="42.90555" lon="0.63502">
        <ele>498.58</ele>
        <time>2018-07-29T10:47:42Z</time>
      </trkpt>
      <trkpt lat="42.90538" lon="0.63487">
        <ele>499.06</ele>
        <time>2018-07-29T10:47:43Z</time>
      </trkpt>
      <trkpt lat="42.90522" lon="0.63469">
        <ele>499.21</ele>
        <time>2018-07-29T10:47:44Z</time>
      </trkpt>
      <trkpt lat="42.90506" lon="0.6345">
        <ele>499.25</ele>
        <time>2018-07-29T10:47:45Z</time>
      </trkpt>
      <trkpt lat="42.90494" lon="0.63427">
        <ele>498.56</ele>
        <time>2018-07-29T10:47:46Z</time>
      </trkpt>
      <trkpt lat="42.90482" lon="0.63404">
        <ele>499.76</ele>
        <time>2018-07-29T10:47:47Z</time>
      </trkpt>
      <trkpt lat="42.90469" lon="0.6338">
        <ele>500.11</ele>
        <time>2018-07-29T10:47:48Z</time>
      </trkpt>
      <trkpt lat="42.90457" lon="0.63357">
        <ele>500.22</ele>
        <time>2018-07-29T10:47:49Z</time>
      </trkpt>
      <trkpt lat="42.90444" lon="0.63335">
        <ele>500.25</ele>
        <time>2018-07-29T10:47:50Z</time>
      </trkpt>
      <trkpt lat="42.90432" lon="0.63315">
        <ele>500.96</ele>
        <time>2018-07-29T10:47:51Z</time>
      </trkpt>
      <trkpt lat="42.90418" lon="0.63297">
        <ele>501.18</ele>
        <time>2018-07-29T10:47:52Z</time>
      </trkpt>
      <trkpt lat="42.90381" lon="0.63286">
        <ele>501.75</ele>
        <time>2018-07-29T10:47:54Z</time>
      </trkpt>
      <trkpt lat="42.90361" lon="0.63284">
        <ele>502.11</ele>
        <time>2018-07-29T10:47:55Z</time>
      </trkpt>
      <trkpt lat="42.90342" lon="0.63284">
        <ele>504.32</ele>
        <time>2018-07-29T10:47:56Z</time>
      </trkpt>
      <trkpt lat="42.90324" lon="0.63293">
        <ele>504.98</ele>
        <time>2018-07-29T10:47:57Z</time>
      </trkpt>
      <trkpt lat="42.90308" lon="0.63303">
        <ele>505.18</ele>
        <time>2018-07-29T10:47:58Z</time>
      </trkpt>
      <trkpt lat="42.90293" lon="0.63318">
        <ele>505.94</ele>
        <time>2018-07-29T10:47:59Z</time>
      </trkpt>
      <trkpt lat="42.90279" lon="0.63334">
        <ele>507.57</ele>
        <time>2018-07-29T10:48:00Z</time>
      </trkpt>
      <trkpt lat="42.90265" lon="0.63353">
        <ele>509.46</ele>
        <time>2018-07-29T10:48:01Z</time>
      </trkpt>
      <trkpt lat="42.9025" lon="0.6337">
        <ele>510.72</ele>
        <time>2018-07-29T10:48:02Z</time>
      </trkpt>
      <trkpt lat="42.90233" lon="0.63385">
        <ele>511.8</ele>
        <time>2018-07-29T10:48:03Z</time>
      </trkpt>
      <trkpt lat="42.90215" lon="0.63394">
        <ele>512.83</ele>
        <time>2018-07-29T10:48:04Z</time>
      </trkpt>
      <trkpt lat="42.90197" lon="0.63404">
        <ele>513.14</ele>
        <time>2018-07-29T10:48:05Z</time>
      </trkpt>
      <trkpt lat="42.90162" lon="0.63411">
        <ele>512.35</ele>
        <time>2018-07-29T10:48:07Z</time>
      </trkpt>
      <trkpt lat="42.90142" lon="0.634">
        <ele>510.89</ele>
        <time>2018-07-29T10:48:08Z</time>
      </trkpt>
      <trkpt lat="42.90119" lon="0.63382">
        <ele>509.75</ele>
        <time>2018-07-29T10:48:09Z</time>
      </trkpt>
      <trkpt lat="42.90093" lon="0.63367">
        <ele>510.11</ele>
        <time>2018-07-29T10:48:10Z</time>
      </trkpt>
      <trkpt lat="42.90071" lon="0.63353">
        <ele>511.62</ele>
        <time>2018-07-29T10:48:11Z</time>
      </trkpt>
      <trkpt lat="42.9005" lon="0.6334">
        <ele>512.77</ele>
        <time>2018-07-29T10:48:12Z</time>
      </trkpt>
      <trkpt lat="42.9003" lon="0.63325">
        <ele>513.82</ele>
        <time>2018-07-29T10:48:13Z</time>
      </trkpt>
      <trkpt lat="42.90009" lon="0.63317">
        <ele>515.53</ele>
        <time>2018-07-29T10:48:14Z</time>
      </trkpt>
      <trkpt lat="42.89991" lon="0.63308">
        <ele>516.75</ele>
        <time>2018-07-29T10:48:15Z</time>
      </trkpt>
      <trkpt lat="42.89974" lon="0.63296">
        <ele>516.41</ele>
        <time>2018-07-29T10:48:16Z</time>
      </trkpt>
      <trkpt lat="42.89958" lon="0.63281">
        <ele>516.31</ele>
        <time>2018-07-29T10:48:17Z</time>
      </trkpt>
      <trkpt lat="42.89944" lon="0.63267">
        <ele>516.28</ele>
        <time>2018-07-29T10:48:18Z</time>
      </trkpt>
      <trkpt lat="42.89936" lon="0.63242">
        <ele>516.97</ele>
        <time>2018-07-29T10:48:19Z</time>
      </trkpt>
      <trkpt lat="42.89919" lon="0.63197">
        <ele>517.24</ele>
        <time>2018-07-29T10:48:21Z</time>
      </trkpt>
      <trkpt lat="42.89917" lon="0.63165">
        <ele>517.26</ele>
        <time>2018-07-29T10:48:22Z</time>
      </trkpt>
      <trkpt lat="42.8992" lon="0.63138">
        <ele>517.26</ele>
        <time>2018-07-29T10:48:23Z</time>
      </trkpt>
      <trkpt lat="42.8992" lon="0.63113">
        <ele>517.97</ele>
        <time>2018-07-29T10:48:24Z</time>
      </trkpt>
      <trkpt lat="42.89919" lon="0.63088">
        <ele>518.18</ele>
        <time>2018-07-29T10:48:25Z</time>
      </trkpt>
      <trkpt lat="42.89921" lon="0.63047">
        <ele>515.74</ele>
        <time>2018-07-29T10:48:27Z</time>
      </trkpt>
      <trkpt lat="42.89941" lon="0.63016">
        <ele>516.22</ele>
        <time>2018-07-29T10:48:29Z</time>
      </trkpt>
      <trkpt lat="42.89953" lon="0.62985">
        <ele>517.17</ele>
        <time>2018-07-29T10:48:31Z</time>
      </trkpt>
      <trkpt lat="42.89952" lon="0.6295">
        <ele>516.35</ele>
        <time>2018-07-29T10:48:33Z</time>
      </trkpt>
      <trkpt lat="42.89942" lon="0.62905">
        <ele>517.18</ele>
        <time>2018-07-29T10:48:35Z</time>
      </trkpt>
      <trkpt lat="42.89931" lon="0.6287">
        <ele>517.94</ele>
        <time>2018-07-29T10:48:36Z</time>
      </trkpt>
      <trkpt lat="42.89918" lon="0.62844">
        <ele>517.47</ele>
        <time>2018-07-29T10:48:37Z</time>
      </trkpt>
      <trkpt lat="42.89906" lon="0.62818">
        <ele>517.33</ele>
        <time>2018-07-29T10:48:38Z</time>
      </trkpt>
      <trkpt lat="42.89896" lon="0.62791">
        <ele>517.99</ele>
        <time>2018-07-29T10:48:39Z</time>
      </trkpt>
      <trkpt lat="42.89886" lon="0.62768">
        <ele>518.18</ele>
        <time>2018-07-29T10:48:40Z</time>
      </trkpt>
      <trkpt lat="42.89879" lon="0.62739">
        <ele>518.94</ele>
        <time>2018-07-29T10:48:41Z</time>
      </trkpt>
      <trkpt lat="42.89871" lon="0.62714">
        <ele>520.57</ele>
        <time>2018-07-29T10:48:42Z</time>
      </trkpt>
      <trkpt lat="42.89862" lon="0.62689">
        <ele>522.46</ele>
        <time>2018-07-29T10:48:43Z</time>
      </trkpt>
      <trkpt lat="42.89854" lon="0.62664">
        <ele>523.02</ele>
        <time>2018-07-29T10:48:44Z</time>
      </trkpt>
      <trkpt lat="42.89843" lon="0.62643">
        <ele>523.19</ele>
        <time>2018-07-29T10:48:45Z</time>
      </trkpt>
      <trkpt lat="42.89823" lon="0.62606">
        <ele>525.78</ele>
        <time>2018-07-29T10:48:47Z</time>
      </trkpt>
      <trkpt lat="42.89803" lon="0.62577">
        <ele>526.92</ele>
        <time>2018-07-29T10:48:49Z</time>
      </trkpt>
      <trkpt lat="42.89793" lon="0.62548">
        <ele>529.55</ele>
        <time>2018-07-29T10:48:51Z</time>
      </trkpt>
      <trkpt lat="42.89788" lon="0.62517">
        <ele>531.11</ele>
        <time>2018-07-29T10:48:53Z</time>
      </trkpt>
      <trkpt lat="42.89772" lon="0.62488">
        <ele>532.16</ele>
        <time>2018-07-29T10:48:55Z</time>
      </trkpt>
      <trkpt lat="42.8975" lon="0.62461">
        <ele>533.17</ele>
        <time>2018-07-29T10:48:57Z</time>
      </trkpt>
      <trkpt lat="42.89736" lon="0.62446">
        <ele>533.24</ele>
        <time>2018-07-29T10:48:58Z</time>
      </trkpt>
      <trkpt lat="42.89713" lon="0.62431">
        <ele>533.96</ele>
        <time>2018-07-29T10:48:59Z</time>
      </trkpt>
      <trkpt lat="42.89695" lon="0.62417">
        <ele>534.17</ele>
        <time>2018-07-29T10:49:00Z</time>
      </trkpt>
      <trkpt lat="42.89678" lon="0.62402">
        <ele>534.24</ele>
        <time>2018-07-29T10:49:01Z</time>
      </trkpt>
      <trkpt lat="42.89663" lon="0.62387">
        <ele>534.26</ele>
        <time>2018-07-29T10:49:02Z</time>
      </trkpt>
      <trkpt lat="42.89647" lon="0.62372">
        <ele>534.96</ele>
        <time>2018-07-29T10:49:03Z</time>
      </trkpt>
      <trkpt lat="42.89631" lon="0.62358">
        <ele>535.18</ele>
        <time>2018-07-29T10:49:04Z</time>
      </trkpt>
      <trkpt lat="42.89615" lon="0.62344">
        <ele>535.94</ele>
        <time>2018-07-29T10:49:05Z</time>
      </trkpt>
      <trkpt lat="42.89599" lon="0.62329">
        <ele>536.87</ele>
        <time>2018-07-29T10:49:06Z</time>
      </trkpt>
      <trkpt lat="42.89584" lon="0.62314">
        <ele>537.15</ele>
        <time>2018-07-29T10:49:07Z</time>
      </trkpt>
      <trkpt lat="42.89568" lon="0.62298">
        <ele>537.23</ele>
        <time>2018-07-29T10:49:08Z</time>
      </trkpt>
      <trkpt lat="42.89554" lon="0.62282">
        <ele>537.96</ele>
        <time>2018-07-29T10:49:09Z</time>
      </trkpt>
      <trkpt lat="42.8954" lon="0.62264">
        <ele>538.17</ele>
        <time>2018-07-29T10:49:10Z</time>
      </trkpt>
      <trkpt lat="42.89527" lon="0.62245">
        <ele>538.94</ele>
        <time>2018-07-29T10:49:11Z</time>
      </trkpt>
      <trkpt lat="42.89514" lon="0.62227">
        <ele>539.17</ele>
        <time>2018-07-29T10:49:12Z</time>
      </trkpt>
      <trkpt lat="42.895" lon="0.6221">
        <ele>539.94</ele>
        <time>2018-07-29T10:49:13Z</time>
      </trkpt>
      <trkpt lat="42.89471" lon="0.62182">
        <ele>539.33</ele>
        <time>2018-07-29T10:49:15Z</time>
      </trkpt>
      <trkpt lat="42.8945" lon="0.6217">
        <ele>539.29</ele>
        <time>2018-07-29T10:49:16Z</time>
      </trkpt>
      <trkpt lat="42.89431" lon="0.62155">
        <ele>539.97</ele>
        <time>2018-07-29T10:49:17Z</time>
      </trkpt>
      <trkpt lat="42.8941" lon="0.62143">
        <ele>540.18</ele>
        <time>2018-07-29T10:49:18Z</time>
      </trkpt>
      <trkpt lat="42.89392" lon="0.6213">
        <ele>539.54</ele>
        <time>2018-07-29T10:49:19Z</time>
      </trkpt>
      <trkpt lat="42.89375" lon="0.62114">
        <ele>540.05</ele>
        <time>2018-07-29T10:49:20Z</time>
      </trkpt>
      <trkpt lat="42.89348" lon="0.62098">
        <ele>540.95</ele>
        <time>2018-07-29T10:49:22Z</time>
      </trkpt>
      <trkpt lat="42.89323" lon="0.62083">
        <ele>541.24</ele>
        <time>2018-07-29T10:49:24Z</time>
      </trkpt>
      <trkpt lat="42.89304" lon="0.62071">
        <ele>541.26</ele>
        <time>2018-07-29T10:49:26Z</time>
      </trkpt>
      <trkpt lat="42.89279" lon="0.62087">
        <ele>542.18</ele>
        <time>2018-07-29T10:49:29Z</time>
      </trkpt>
      <trkpt lat="42.89258" lon="0.62107">
        <ele>545.82</ele>
        <time>2018-07-29T10:49:32Z</time>
      </trkpt>
      <trkpt lat="42.89238" lon="0.62118">
        <ele>545.32</ele>
        <time>2018-07-29T10:49:34Z</time>
      </trkpt>
      <trkpt lat="42.8921" lon="0.62133">
        <ele>544.36</ele>
        <time>2018-07-29T10:49:36Z</time>
      </trkpt>
      <trkpt lat="42.89182" lon="0.6215">
        <ele>544.28</ele>
        <time>2018-07-29T10:49:38Z</time>
      </trkpt>
      <trkpt lat="42.89156" lon="0.62159">
        <ele>544.27</ele>
        <time>2018-07-29T10:49:40Z</time>
      </trkpt>
      <trkpt lat="42.89131" lon="0.62141">
        <ele>544.97</ele>
        <time>2018-07-29T10:49:42Z</time>
      </trkpt>
      <trkpt lat="42.89111" lon="0.62118">
        <ele>545.24</ele>
        <time>2018-07-29T10:49:44Z</time>
      </trkpt>
      <trkpt lat="42.89094" lon="0.62067">
        <ele>545.26</ele>
        <time>2018-07-29T10:49:46Z</time>
      </trkpt>
      <trkpt lat="42.89086" lon="0.62042">
        <ele>545.27</ele>
        <time>2018-07-29T10:49:47Z</time>
      </trkpt>
      <trkpt lat="42.89077" lon="0.6202">
        <ele>545.27</ele>
        <time>2018-07-29T10:49:48Z</time>
      </trkpt>
      <trkpt lat="42.89062" lon="0.61983">
        <ele>546.67</ele>
        <time>2018-07-29T10:49:50Z</time>
      </trkpt>
      <trkpt lat="42.89042" lon="0.61966">
        <ele>547</ele>
        <time>2018-07-29T10:49:52Z</time>
      </trkpt>
      <trkpt lat="42.89017" lon="0.61973">
        <ele>549.76</ele>
        <time>2018-07-29T10:49:54Z</time>
      </trkpt>
      <trkpt lat="42.88986" lon="0.61986">
        <ele>551.13</ele>
        <time>2018-07-29T10:49:56Z</time>
      </trkpt>
      <trkpt lat="42.88968" lon="0.61997">
        <ele>551.93</ele>
        <time>2018-07-29T10:49:57Z</time>
      </trkpt>
      <trkpt lat="42.88945" lon="0.62003">
        <ele>551.46</ele>
        <time>2018-07-29T10:49:58Z</time>
      </trkpt>
      <trkpt lat="42.88919" lon="0.61995">
        <ele>550.63</ele>
        <time>2018-07-29T10:49:59Z</time>
      </trkpt>
      <trkpt lat="42.88896" lon="0.61989">
        <ele>548.97</ele>
        <time>2018-07-29T10:50:00Z</time>
      </trkpt>
      <trkpt lat="42.88875" lon="0.61987">
        <ele>549.18</ele>
        <time>2018-07-29T10:50:01Z</time>
      </trkpt>
      <trkpt lat="42.88853" lon="0.61985">
        <ele>549.94</ele>
        <time>2018-07-29T10:50:02Z</time>
      </trkpt>
      <trkpt lat="42.88832" lon="0.61982">
        <ele>550.17</ele>
        <time>2018-07-29T10:50:03Z</time>
      </trkpt>
      <trkpt lat="42.8881" lon="0.61977">
        <ele>552.34</ele>
        <time>2018-07-29T10:50:04Z</time>
      </trkpt>
      <trkpt lat="42.8879" lon="0.61971">
        <ele>552.29</ele>
        <time>2018-07-29T10:50:05Z</time>
      </trkpt>
      <trkpt lat="42.88771" lon="0.61965">
        <ele>552.97</ele>
        <time>2018-07-29T10:50:06Z</time>
      </trkpt>
      <trkpt lat="42.88752" lon="0.61958">
        <ele>553.88</ele>
        <time>2018-07-29T10:50:07Z</time>
      </trkpt>
      <trkpt lat="42.88735" lon="0.61948">
        <ele>554.15</ele>
        <time>2018-07-29T10:50:08Z</time>
      </trkpt>
      <trkpt lat="42.88721" lon="0.61932">
        <ele>554.23</ele>
        <time>2018-07-29T10:50:09Z</time>
      </trkpt>
      <trkpt lat="42.88692" lon="0.619">
        <ele>552.44</ele>
        <time>2018-07-29T10:50:11Z</time>
      </trkpt>
      <trkpt lat="42.88677" lon="0.61884">
        <ele>552.32</ele>
        <time>2018-07-29T10:50:12Z</time>
      </trkpt>
      <trkpt lat="42.88661" lon="0.61869">
        <ele>552.28</ele>
        <time>2018-07-29T10:50:13Z</time>
      </trkpt>
      <trkpt lat="42.88645" lon="0.61855">
        <ele>552.97</ele>
        <time>2018-07-29T10:50:14Z</time>
      </trkpt>
      <trkpt lat="42.88628" lon="0.61842">
        <ele>552.48</ele>
        <time>2018-07-29T10:50:15Z</time>
      </trkpt>
      <trkpt lat="42.88596" lon="0.61817">
        <ele>552.29</ele>
        <time>2018-07-29T10:50:17Z</time>
      </trkpt>
      <trkpt lat="42.88572" lon="0.61784">
        <ele>553.88</ele>
        <time>2018-07-29T10:50:19Z</time>
      </trkpt>
      <trkpt lat="42.88549" lon="0.61749">
        <ele>554.93</ele>
        <time>2018-07-29T10:50:21Z</time>
      </trkpt>
      <trkpt lat="42.88538" lon="0.61729">
        <ele>554.47</ele>
        <time>2018-07-29T10:50:22Z</time>
      </trkpt>
      <trkpt lat="42.88514" lon="0.61697">
        <ele>551.97</ele>
        <time>2018-07-29T10:50:24Z</time>
      </trkpt>
      <trkpt lat="42.88489" lon="0.61671">
        <ele>552.24</ele>
        <time>2018-07-29T10:50:26Z</time>
      </trkpt>
      <trkpt lat="42.88458" lon="0.61657">
        <ele>551.35</ele>
        <time>2018-07-29T10:50:28Z</time>
      </trkpt>
      <trkpt lat="42.88426" lon="0.61635">
        <ele>551.76</ele>
        <time>2018-07-29T10:50:30Z</time>
      </trkpt>
      <trkpt lat="42.88408" lon="0.6162">
        <ele>550.72</ele>
        <time>2018-07-29T10:50:31Z</time>
      </trkpt>
      <trkpt lat="42.88395" lon="0.61601">
        <ele>551.1</ele>
        <time>2018-07-29T10:50:32Z</time>
      </trkpt>
      <trkpt lat="42.88381" lon="0.61583">
        <ele>551.22</ele>
        <time>2018-07-29T10:50:33Z</time>
      </trkpt>
      <trkpt lat="42.88369" lon="0.61561">
        <ele>551.25</ele>
        <time>2018-07-29T10:50:34Z</time>
      </trkpt>
      <trkpt lat="42.88357" lon="0.61539">
        <ele>551.26</ele>
        <time>2018-07-29T10:50:35Z</time>
      </trkpt>
      <trkpt lat="42.88346" lon="0.61518">
        <ele>551.27</ele>
        <time>2018-07-29T10:50:36Z</time>
      </trkpt>
      <trkpt lat="42.88336" lon="0.61495">
        <ele>550.57</ele>
        <time>2018-07-29T10:50:37Z</time>
      </trkpt>
      <trkpt lat="42.88326" lon="0.61473">
        <ele>551.06</ele>
        <time>2018-07-29T10:50:38Z</time>
      </trkpt>
      <trkpt lat="42.88315" lon="0.61452">
        <ele>551.2</ele>
        <time>2018-07-29T10:50:39Z</time>
      </trkpt>
      <trkpt lat="42.88304" lon="0.61431">
        <ele>552.65</ele>
        <time>2018-07-29T10:50:40Z</time>
      </trkpt>
      <trkpt lat="42.88292" lon="0.61413">
        <ele>553.08</ele>
        <time>2018-07-29T10:50:41Z</time>
      </trkpt>
      <trkpt lat="42.88266" lon="0.61381">
        <ele>555.98</ele>
        <time>2018-07-29T10:50:43Z</time>
      </trkpt>
      <trkpt lat="42.88246" lon="0.61366">
        <ele>556.88</ele>
        <time>2018-07-29T10:50:44Z</time>
      </trkpt>
      <trkpt lat="42.88227" lon="0.61356">
        <ele>557.85</ele>
        <time>2018-07-29T10:50:45Z</time>
      </trkpt>
      <trkpt lat="42.88199" lon="0.61366">
        <ele>558.84</ele>
        <time>2018-07-29T10:50:46Z</time>
      </trkpt>
      <trkpt lat="42.88175" lon="0.61369">
        <ele>560.54</ele>
        <time>2018-07-29T10:50:47Z</time>
      </trkpt>
      <trkpt lat="42.88152" lon="0.61368">
        <ele>561.75</ele>
        <time>2018-07-29T10:50:48Z</time>
      </trkpt>
      <trkpt lat="42.88128" lon="0.61363">
        <ele>562.11</ele>
        <time>2018-07-29T10:50:49Z</time>
      </trkpt>
      <trkpt lat="42.88105" lon="0.6136">
        <ele>562.92</ele>
        <time>2018-07-29T10:50:50Z</time>
      </trkpt>
      <trkpt lat="42.88081" lon="0.61357">
        <ele>563.16</ele>
        <time>2018-07-29T10:50:51Z</time>
      </trkpt>
      <trkpt lat="42.88058" lon="0.61356">
        <ele>563.24</ele>
        <time>2018-07-29T10:50:52Z</time>
      </trkpt>
      <trkpt lat="42.88034" lon="0.61354">
        <ele>563.96</ele>
        <time>2018-07-29T10:50:53Z</time>
      </trkpt>
      <trkpt lat="42.88012" lon="0.61351">
        <ele>564.87</ele>
        <time>2018-07-29T10:50:54Z</time>
      </trkpt>
      <trkpt lat="42.8799" lon="0.61351">
        <ele>564.45</ele>
        <time>2018-07-29T10:50:55Z</time>
      </trkpt>
      <trkpt lat="42.87968" lon="0.61356">
        <ele>565.02</ele>
        <time>2018-07-29T10:50:56Z</time>
      </trkpt>
      <trkpt lat="42.87945" lon="0.61365">
        <ele>565.89</ele>
        <time>2018-07-29T10:50:57Z</time>
      </trkpt>
      <trkpt lat="42.87923" lon="0.61373">
        <ele>566.15</ele>
        <time>2018-07-29T10:50:58Z</time>
      </trkpt>
      <trkpt lat="42.87902" lon="0.6138">
        <ele>566.93</ele>
        <time>2018-07-29T10:50:59Z</time>
      </trkpt>
      <trkpt lat="42.87882" lon="0.61387">
        <ele>567.87</ele>
        <time>2018-07-29T10:51:00Z</time>
      </trkpt>
      <trkpt lat="42.87863" lon="0.61393">
        <ele>568.15</ele>
        <time>2018-07-29T10:51:01Z</time>
      </trkpt>
      <trkpt lat="42.87844" lon="0.61399">
        <ele>567.53</ele>
        <time>2018-07-29T10:51:02Z</time>
      </trkpt>
      <trkpt lat="42.87825" lon="0.61404">
        <ele>568.05</ele>
        <time>2018-07-29T10:51:03Z</time>
      </trkpt>
      <trkpt lat="42.87805" lon="0.61407">
        <ele>568.2</ele>
        <time>2018-07-29T10:51:04Z</time>
      </trkpt>
      <trkpt lat="42.87785" lon="0.61406">
        <ele>568.25</ele>
        <time>2018-07-29T10:51:05Z</time>
      </trkpt>
      <trkpt lat="42.87767" lon="0.61404">
        <ele>568.26</ele>
        <time>2018-07-29T10:51:06Z</time>
      </trkpt>
      <trkpt lat="42.87749" lon="0.61399">
        <ele>568.27</ele>
        <time>2018-07-29T10:51:07Z</time>
      </trkpt>
      <trkpt lat="42.87717" lon="0.61384">
        <ele>568.27</ele>
        <time>2018-07-29T10:51:09Z</time>
      </trkpt>
      <trkpt lat="42.87687" lon="0.61371">
        <ele>570.09</ele>
        <time>2018-07-29T10:51:11Z</time>
      </trkpt>
      <trkpt lat="42.87659" lon="0.6136">
        <ele>570.25</ele>
        <time>2018-07-29T10:51:13Z</time>
      </trkpt>
      <trkpt lat="42.8763" lon="0.61345">
        <ele>570.27</ele>
        <time>2018-07-29T10:51:15Z</time>
      </trkpt>
      <trkpt lat="42.87598" lon="0.61331">
        <ele>571.18</ele>
        <time>2018-07-29T10:51:17Z</time>
      </trkpt>
      <trkpt lat="42.87565" lon="0.61316">
        <ele>571.26</ele>
        <time>2018-07-29T10:51:19Z</time>
      </trkpt>
      <trkpt lat="42.87531" lon="0.61301">
        <ele>571.97</ele>
        <time>2018-07-29T10:51:21Z</time>
      </trkpt>
      <trkpt lat="42.87512" lon="0.61292">
        <ele>572.18</ele>
        <time>2018-07-29T10:51:22Z</time>
      </trkpt>
      <trkpt lat="42.87493" lon="0.61283">
        <ele>572.94</ele>
        <time>2018-07-29T10:51:23Z</time>
      </trkpt>
      <trkpt lat="42.87475" lon="0.61274">
        <ele>573.17</ele>
        <time>2018-07-29T10:51:24Z</time>
      </trkpt>
      <trkpt lat="42.87455" lon="0.61265">
        <ele>572.54</ele>
        <time>2018-07-29T10:51:25Z</time>
      </trkpt>
      <trkpt lat="42.87435" lon="0.61257">
        <ele>573.05</ele>
        <time>2018-07-29T10:51:26Z</time>
      </trkpt>
      <trkpt lat="42.87413" lon="0.61249">
        <ele>573.9</ele>
        <time>2018-07-29T10:51:27Z</time>
      </trkpt>
      <trkpt lat="42.87391" lon="0.61239">
        <ele>574.16</ele>
        <time>2018-07-29T10:51:28Z</time>
      </trkpt>
      <trkpt lat="42.8737" lon="0.61229">
        <ele>573.53</ele>
        <time>2018-07-29T10:51:29Z</time>
      </trkpt>
      <trkpt lat="42.87349" lon="0.61217">
        <ele>574.05</ele>
        <time>2018-07-29T10:51:30Z</time>
      </trkpt>
      <trkpt lat="42.8733" lon="0.61202">
        <ele>574.2</ele>
        <time>2018-07-29T10:51:31Z</time>
      </trkpt>
      <trkpt lat="42.8731" lon="0.61188">
        <ele>574.95</ele>
        <time>2018-07-29T10:51:32Z</time>
      </trkpt>
      <trkpt lat="42.8729" lon="0.61174">
        <ele>575.17</ele>
        <time>2018-07-29T10:51:33Z</time>
      </trkpt>
      <trkpt lat="42.8727" lon="0.6116">
        <ele>575.24</ele>
        <time>2018-07-29T10:51:34Z</time>
      </trkpt>
      <trkpt lat="42.8725" lon="0.61146">
        <ele>575.26</ele>
        <time>2018-07-29T10:51:35Z</time>
      </trkpt>
      <trkpt lat="42.8723" lon="0.61137">
        <ele>575.26</ele>
        <time>2018-07-29T10:51:36Z</time>
      </trkpt>
      <trkpt lat="42.87209" lon="0.61126">
        <ele>575.27</ele>
        <time>2018-07-29T10:51:37Z</time>
      </trkpt>
      <trkpt lat="42.87188" lon="0.61118">
        <ele>574.57</ele>
        <time>2018-07-29T10:51:38Z</time>
      </trkpt>
      <trkpt lat="42.87167" lon="0.61111">
        <ele>574.36</ele>
        <time>2018-07-29T10:51:39Z</time>
      </trkpt>
      <trkpt lat="42.87145" lon="0.61102">
        <ele>574.29</ele>
        <time>2018-07-29T10:51:40Z</time>
      </trkpt>
      <trkpt lat="42.87124" lon="0.61093">
        <ele>572.88</ele>
        <time>2018-07-29T10:51:41Z</time>
      </trkpt>
      <trkpt lat="42.87103" lon="0.61081">
        <ele>573.15</ele>
        <time>2018-07-29T10:51:42Z</time>
      </trkpt>
      <trkpt lat="42.87081" lon="0.61065">
        <ele>574.63</ele>
        <time>2018-07-29T10:51:43Z</time>
      </trkpt>
      <trkpt lat="42.8706" lon="0.61048">
        <ele>577.18</ele>
        <time>2018-07-29T10:51:44Z</time>
      </trkpt>
      <trkpt lat="42.87037" lon="0.61032">
        <ele>579.34</ele>
        <time>2018-07-29T10:51:45Z</time>
      </trkpt>
      <trkpt lat="42.87016" lon="0.61015">
        <ele>581.39</ele>
        <time>2018-07-29T10:51:46Z</time>
      </trkpt>
      <trkpt lat="42.86993" lon="0.61002">
        <ele>582.7</ele>
        <time>2018-07-29T10:51:47Z</time>
      </trkpt>
      <trkpt lat="42.8697" lon="0.6099">
        <ele>583.1</ele>
        <time>2018-07-29T10:51:48Z</time>
      </trkpt>
      <trkpt lat="42.86948" lon="0.60979">
        <ele>584.62</ele>
        <time>2018-07-29T10:51:49Z</time>
      </trkpt>
      <trkpt lat="42.86925" lon="0.6097">
        <ele>585.77</ele>
        <time>2018-07-29T10:51:50Z</time>
      </trkpt>
      <trkpt lat="42.86902" lon="0.60966">
        <ele>587.52</ele>
        <time>2018-07-29T10:51:51Z</time>
      </trkpt>
      <trkpt lat="42.86879" lon="0.6096">
        <ele>588.74</ele>
        <time>2018-07-29T10:51:52Z</time>
      </trkpt>
      <trkpt lat="42.86856" lon="0.60952">
        <ele>589.11</ele>
        <time>2018-07-29T10:51:53Z</time>
      </trkpt>
      <trkpt lat="42.86835" lon="0.60941">
        <ele>589.22</ele>
        <time>2018-07-29T10:51:54Z</time>
      </trkpt>
      <trkpt lat="42.86815" lon="0.60925">
        <ele>589.95</ele>
        <time>2018-07-29T10:51:55Z</time>
      </trkpt>
      <trkpt lat="42.86795" lon="0.60905">
        <ele>589.47</ele>
        <time>2018-07-29T10:51:56Z</time>
      </trkpt>
      <trkpt lat="42.86776" lon="0.60885">
        <ele>589.33</ele>
        <time>2018-07-29T10:51:57Z</time>
      </trkpt>
      <trkpt lat="42.86761" lon="0.60862">
        <ele>589.29</ele>
        <time>2018-07-29T10:51:58Z</time>
      </trkpt>
      <trkpt lat="42.86744" lon="0.6084">
        <ele>589.97</ele>
        <time>2018-07-29T10:51:59Z</time>
      </trkpt>
      <trkpt lat="42.86728" lon="0.60819">
        <ele>589.48</ele>
        <time>2018-07-29T10:52:00Z</time>
      </trkpt>
      <trkpt lat="42.86711" lon="0.608">
        <ele>589.33</ele>
        <time>2018-07-29T10:52:01Z</time>
      </trkpt>
      <trkpt lat="42.86694" lon="0.60782">
        <ele>589.29</ele>
        <time>2018-07-29T10:52:02Z</time>
      </trkpt>
      <trkpt lat="42.86676" lon="0.60763">
        <ele>589.27</ele>
        <time>2018-07-29T10:52:03Z</time>
      </trkpt>
      <trkpt lat="42.86658" lon="0.60747">
        <ele>588.57</ele>
        <time>2018-07-29T10:52:04Z</time>
      </trkpt>
      <trkpt lat="42.86638" lon="0.60729">
        <ele>587.66</ele>
        <time>2018-07-29T10:52:05Z</time>
      </trkpt>
      <trkpt lat="42.86619" lon="0.60713">
        <ele>588.08</ele>
        <time>2018-07-29T10:52:06Z</time>
      </trkpt>
      <trkpt lat="42.86598" lon="0.60697">
        <ele>586.81</ele>
        <time>2018-07-29T10:52:07Z</time>
      </trkpt>
      <trkpt lat="42.86581" lon="0.60681">
        <ele>587.83</ele>
        <time>2018-07-29T10:52:08Z</time>
      </trkpt>
      <trkpt lat="42.86564" lon="0.60663">
        <ele>588.14</ele>
        <time>2018-07-29T10:52:09Z</time>
      </trkpt>
      <trkpt lat="42.86546" lon="0.60647">
        <ele>588.23</ele>
        <time>2018-07-29T10:52:10Z</time>
      </trkpt>
      <trkpt lat="42.86528" lon="0.60631">
        <ele>588.96</ele>
        <time>2018-07-29T10:52:11Z</time>
      </trkpt>
      <trkpt lat="42.8651" lon="0.60614">
        <ele>589.17</ele>
        <time>2018-07-29T10:52:12Z</time>
      </trkpt>
      <trkpt lat="42.86492" lon="0.60597">
        <ele>589.24</ele>
        <time>2018-07-29T10:52:13Z</time>
      </trkpt>
      <trkpt lat="42.86475" lon="0.6058">
        <ele>589.26</ele>
        <time>2018-07-29T10:52:14Z</time>
      </trkpt>
      <trkpt lat="42.86458" lon="0.60564">
        <ele>589.96</ele>
        <time>2018-07-29T10:52:15Z</time>
      </trkpt>
      <trkpt lat="42.8644" lon="0.60549">
        <ele>590.18</ele>
        <time>2018-07-29T10:52:16Z</time>
      </trkpt>
      <trkpt lat="42.86421" lon="0.60536">
        <ele>590.94</ele>
        <time>2018-07-29T10:52:17Z</time>
      </trkpt>
      <trkpt lat="42.86402" lon="0.60524">
        <ele>591.87</ele>
        <time>2018-07-29T10:52:18Z</time>
      </trkpt>
      <trkpt lat="42.86382" lon="0.60514">
        <ele>592.15</ele>
        <time>2018-07-29T10:52:19Z</time>
      </trkpt>
      <trkpt lat="42.86361" lon="0.60507">
        <ele>592.23</ele>
        <time>2018-07-29T10:52:20Z</time>
      </trkpt>
      <trkpt lat="42.8634" lon="0.60503">
        <ele>592.26</ele>
        <time>2018-07-29T10:52:21Z</time>
      </trkpt>
      <trkpt lat="42.86318" lon="0.60505">
        <ele>592.26</ele>
        <time>2018-07-29T10:52:22Z</time>
      </trkpt>
      <trkpt lat="42.86297" lon="0.6051">
        <ele>590.87</ele>
        <time>2018-07-29T10:52:23Z</time>
      </trkpt>
      <trkpt lat="42.86275" lon="0.6051">
        <ele>590.45</ele>
        <time>2018-07-29T10:52:24Z</time>
      </trkpt>
      <trkpt lat="42.86254" lon="0.60517">
        <ele>590.32</ele>
        <time>2018-07-29T10:52:25Z</time>
      </trkpt>
      <trkpt lat="42.86232" lon="0.60523">
        <ele>590.28</ele>
        <time>2018-07-29T10:52:26Z</time>
      </trkpt>
      <trkpt lat="42.8621" lon="0.6053">
        <ele>589.57</ele>
        <time>2018-07-29T10:52:27Z</time>
      </trkpt>
      <trkpt lat="42.86188" lon="0.60538">
        <ele>588.66</ele>
        <time>2018-07-29T10:52:28Z</time>
      </trkpt>
      <trkpt lat="42.86165" lon="0.60545">
        <ele>588.38</ele>
        <time>2018-07-29T10:52:29Z</time>
      </trkpt>
      <trkpt lat="42.86142" lon="0.60551">
        <ele>588.3</ele>
        <time>2018-07-29T10:52:30Z</time>
      </trkpt>
      <trkpt lat="42.86119" lon="0.60559">
        <ele>588.28</ele>
        <time>2018-07-29T10:52:31Z</time>
      </trkpt>
      <trkpt lat="42.86095" lon="0.60565">
        <ele>588.97</ele>
        <time>2018-07-29T10:52:32Z</time>
      </trkpt>
      <trkpt lat="42.86073" lon="0.60573">
        <ele>588.48</ele>
        <time>2018-07-29T10:52:33Z</time>
      </trkpt>
      <trkpt lat="42.86049" lon="0.60577">
        <ele>588.33</ele>
        <time>2018-07-29T10:52:34Z</time>
      </trkpt>
      <trkpt lat="42.86027" lon="0.6058">
        <ele>588.29</ele>
        <time>2018-07-29T10:52:35Z</time>
      </trkpt>
      <trkpt lat="42.86005" lon="0.60578">
        <ele>588.27</ele>
        <time>2018-07-29T10:52:36Z</time>
      </trkpt>
      <trkpt lat="42.85982" lon="0.60574">
        <ele>588.27</ele>
        <time>2018-07-29T10:52:37Z</time>
      </trkpt>
      <trkpt lat="42.85962" lon="0.60569">
        <ele>588.97</ele>
        <time>2018-07-29T10:52:38Z</time>
      </trkpt>
      <trkpt lat="42.85941" lon="0.60562">
        <ele>589.88</ele>
        <time>2018-07-29T10:52:39Z</time>
      </trkpt>
      <trkpt lat="42.8592" lon="0.60556">
        <ele>590.85</ele>
        <time>2018-07-29T10:52:40Z</time>
      </trkpt>
      <trkpt lat="42.85898" lon="0.60554">
        <ele>591.84</ele>
        <time>2018-07-29T10:52:41Z</time>
      </trkpt>
      <trkpt lat="42.85876" lon="0.60555">
        <ele>591.44</ele>
        <time>2018-07-29T10:52:42Z</time>
      </trkpt>
      <trkpt lat="42.85853" lon="0.60555">
        <ele>592.02</ele>
        <time>2018-07-29T10:52:43Z</time>
      </trkpt>
      <trkpt lat="42.8583" lon="0.6056">
        <ele>591.49</ele>
        <time>2018-07-29T10:52:44Z</time>
      </trkpt>
      <trkpt lat="42.85807" lon="0.60565">
        <ele>592.03</ele>
        <time>2018-07-29T10:52:45Z</time>
      </trkpt>
      <trkpt lat="42.85785" lon="0.60574">
        <ele>592.2</ele>
        <time>2018-07-29T10:52:46Z</time>
      </trkpt>
      <trkpt lat="42.85763" lon="0.60583">
        <ele>592.25</ele>
        <time>2018-07-29T10:52:47Z</time>
      </trkpt>
      <trkpt lat="42.8574" lon="0.60591">
        <ele>591.56</ele>
        <time>2018-07-29T10:52:48Z</time>
      </trkpt>
      <trkpt lat="42.85716" lon="0.60598">
        <ele>591.36</ele>
        <time>2018-07-29T10:52:49Z</time>
      </trkpt>
      <trkpt lat="42.85693" lon="0.606">
        <ele>591.99</ele>
        <time>2018-07-29T10:52:50Z</time>
      </trkpt>
      <trkpt lat="42.85669" lon="0.60602">
        <ele>592.18</ele>
        <time>2018-07-29T10:52:51Z</time>
      </trkpt>
      <trkpt lat="42.85645" lon="0.60599">
        <ele>592.94</ele>
        <time>2018-07-29T10:52:52Z</time>
      </trkpt>
      <trkpt lat="42.85622" lon="0.60595">
        <ele>592.47</ele>
        <time>2018-07-29T10:52:53Z</time>
      </trkpt>
      <trkpt lat="42.85599" lon="0.60588">
        <ele>592.33</ele>
        <time>2018-07-29T10:52:54Z</time>
      </trkpt>
      <trkpt lat="42.85576" lon="0.60578">
        <ele>592.99</ele>
        <time>2018-07-29T10:52:55Z</time>
      </trkpt>
      <trkpt lat="42.85556" lon="0.60561">
        <ele>592.48</ele>
        <time>2018-07-29T10:52:56Z</time>
      </trkpt>
      <trkpt lat="42.85535" lon="0.60549">
        <ele>592.33</ele>
        <time>2018-07-29T10:52:57Z</time>
      </trkpt>
      <trkpt lat="42.85514" lon="0.60537">
        <ele>592.29</ele>
        <time>2018-07-29T10:52:58Z</time>
      </trkpt>
      <trkpt lat="42.85494" lon="0.60527">
        <ele>591.57</ele>
        <time>2018-07-29T10:52:59Z</time>
      </trkpt>
      <trkpt lat="42.85474" lon="0.60516">
        <ele>591.36</ele>
        <time>2018-07-29T10:53:00Z</time>
      </trkpt>
      <trkpt lat="42.85455" lon="0.60505">
        <ele>591.29</ele>
        <time>2018-07-29T10:53:01Z</time>
      </trkpt>
      <trkpt lat="42.8544" lon="0.60487">
        <ele>589.88</ele>
        <time>2018-07-29T10:53:02Z</time>
      </trkpt>
      <trkpt lat="42.85423" lon="0.60472">
        <ele>590.15</ele>
        <time>2018-07-29T10:53:03Z</time>
      </trkpt>
      <trkpt lat="42.85406" lon="0.60458">
        <ele>589.53</ele>
        <time>2018-07-29T10:53:04Z</time>
      </trkpt>
      <trkpt lat="42.8539" lon="0.60441">
        <ele>589.35</ele>
        <time>2018-07-29T10:53:05Z</time>
      </trkpt>
      <trkpt lat="42.85377" lon="0.60422">
        <ele>589.29</ele>
        <time>2018-07-29T10:53:06Z</time>
      </trkpt>
      <trkpt lat="42.85363" lon="0.60404">
        <ele>588.57</ele>
        <time>2018-07-29T10:53:07Z</time>
      </trkpt>
      <trkpt lat="42.85349" lon="0.60385">
        <ele>588.36</ele>
        <time>2018-07-29T10:53:08Z</time>
      </trkpt>
      <trkpt lat="42.85333" lon="0.60366">
        <ele>588.99</ele>
        <time>2018-07-29T10:53:09Z</time>
      </trkpt>
      <trkpt lat="42.85318" lon="0.60347">
        <ele>589.19</ele>
        <time>2018-07-29T10:53:10Z</time>
      </trkpt>
      <trkpt lat="42.85304" lon="0.60329">
        <ele>589.94</ele>
        <time>2018-07-29T10:53:11Z</time>
      </trkpt>
      <trkpt lat="42.85288" lon="0.6031">
        <ele>590.17</ele>
        <time>2018-07-29T10:53:12Z</time>
      </trkpt>
      <trkpt lat="42.85272" lon="0.60295">
        <ele>590.94</ele>
        <time>2018-07-29T10:53:13Z</time>
      </trkpt>
      <trkpt lat="42.85254" lon="0.6028">
        <ele>591.17</ele>
        <time>2018-07-29T10:53:14Z</time>
      </trkpt>
      <trkpt lat="42.85234" lon="0.6027">
        <ele>591.24</ele>
        <time>2018-07-29T10:53:15Z</time>
      </trkpt>
      <trkpt lat="42.85213" lon="0.60262">
        <ele>590.56</ele>
        <time>2018-07-29T10:53:16Z</time>
      </trkpt>
      <trkpt lat="42.8519" lon="0.60256">
        <ele>591.75</ele>
        <time>2018-07-29T10:53:17Z</time>
      </trkpt>
      <trkpt lat="42.85169" lon="0.60253">
        <ele>591.41</ele>
        <time>2018-07-29T10:53:18Z</time>
      </trkpt>
      <trkpt lat="42.85146" lon="0.60251">
        <ele>591.31</ele>
        <time>2018-07-29T10:53:19Z</time>
      </trkpt>
      <trkpt lat="42.85122" lon="0.6025">
        <ele>590.58</ele>
        <time>2018-07-29T10:53:20Z</time>
      </trkpt>
      <trkpt lat="42.85098" lon="0.6025">
        <ele>590.36</ele>
        <time>2018-07-29T10:53:21Z</time>
      </trkpt>
      <trkpt lat="42.85075" lon="0.6025">
        <ele>589.6</ele>
        <time>2018-07-29T10:53:22Z</time>
      </trkpt>
      <trkpt lat="42.85053" lon="0.6025">
        <ele>590.07</ele>
        <time>2018-07-29T10:53:23Z</time>
      </trkpt>
      <trkpt lat="42.85031" lon="0.6025">
        <ele>590.21</ele>
        <time>2018-07-29T10:53:24Z</time>
      </trkpt>
      <trkpt lat="42.85009" lon="0.60252">
        <ele>589.55</ele>
        <time>2018-07-29T10:53:25Z</time>
      </trkpt>
      <trkpt lat="42.84989" lon="0.60254">
        <ele>590.05</ele>
        <time>2018-07-29T10:53:26Z</time>
      </trkpt>
      <trkpt lat="42.84969" lon="0.60258">
        <ele>589.5</ele>
        <time>2018-07-29T10:53:27Z</time>
      </trkpt>
      <trkpt lat="42.84949" lon="0.60261">
        <ele>589.34</ele>
        <time>2018-07-29T10:53:28Z</time>
      </trkpt>
      <trkpt lat="42.84929" lon="0.60266">
        <ele>589.29</ele>
        <time>2018-07-29T10:53:29Z</time>
      </trkpt>
      <trkpt lat="42.84908" lon="0.60272">
        <ele>589.97</ele>
        <time>2018-07-29T10:53:30Z</time>
      </trkpt>
      <trkpt lat="42.84888" lon="0.60277">
        <ele>590.88</ele>
        <time>2018-07-29T10:53:31Z</time>
      </trkpt>
      <trkpt lat="42.84867" lon="0.60283">
        <ele>590.45</ele>
        <time>2018-07-29T10:53:32Z</time>
      </trkpt>
      <trkpt lat="42.84848" lon="0.60289">
        <ele>589.62</ele>
        <time>2018-07-29T10:53:33Z</time>
      </trkpt>
      <trkpt lat="42.84827" lon="0.60293">
        <ele>590.07</ele>
        <time>2018-07-29T10:53:34Z</time>
      </trkpt>
      <trkpt lat="42.84807" lon="0.60298">
        <ele>590.91</ele>
        <time>2018-07-29T10:53:35Z</time>
      </trkpt>
      <trkpt lat="42.84787" lon="0.60303">
        <ele>591.16</ele>
        <time>2018-07-29T10:53:36Z</time>
      </trkpt>
      <trkpt lat="42.84766" lon="0.60306">
        <ele>591.23</ele>
        <time>2018-07-29T10:53:37Z</time>
      </trkpt>
      <trkpt lat="42.84746" lon="0.60311">
        <ele>591.26</ele>
        <time>2018-07-29T10:53:38Z</time>
      </trkpt>
      <trkpt lat="42.84726" lon="0.60316">
        <ele>591.26</ele>
        <time>2018-07-29T10:53:39Z</time>
      </trkpt>
      <trkpt lat="42.84704" lon="0.60321">
        <ele>591.97</ele>
        <time>2018-07-29T10:53:40Z</time>
      </trkpt>
      <trkpt lat="42.84684" lon="0.60326">
        <ele>592.18</ele>
        <time>2018-07-29T10:53:41Z</time>
      </trkpt>
      <trkpt lat="42.84662" lon="0.60331">
        <ele>592.24</ele>
        <time>2018-07-29T10:53:42Z</time>
      </trkpt>
      <trkpt lat="42.84641" lon="0.60336">
        <ele>592.96</ele>
        <time>2018-07-29T10:53:43Z</time>
      </trkpt>
      <trkpt lat="42.84621" lon="0.60341">
        <ele>593.17</ele>
        <time>2018-07-29T10:53:44Z</time>
      </trkpt>
      <trkpt lat="42.846" lon="0.60345">
        <ele>593.24</ele>
        <time>2018-07-29T10:53:45Z</time>
      </trkpt>
      <trkpt lat="42.8458" lon="0.6035">
        <ele>593.96</ele>
        <time>2018-07-29T10:53:46Z</time>
      </trkpt>
      <trkpt lat="42.8456" lon="0.60354">
        <ele>594.17</ele>
        <time>2018-07-29T10:53:47Z</time>
      </trkpt>
      <trkpt lat="42.8454" lon="0.60358">
        <ele>593.54</ele>
        <time>2018-07-29T10:53:48Z</time>
      </trkpt>
      <trkpt lat="42.8452" lon="0.60363">
        <ele>593.35</ele>
        <time>2018-07-29T10:53:49Z</time>
      </trkpt>
      <trkpt lat="42.84499" lon="0.60367">
        <ele>593.99</ele>
        <time>2018-07-29T10:53:50Z</time>
      </trkpt>
      <trkpt lat="42.84479" lon="0.60372">
        <ele>594.88</ele>
        <time>2018-07-29T10:53:51Z</time>
      </trkpt>
      <trkpt lat="42.84459" lon="0.60376">
        <ele>595.15</ele>
        <time>2018-07-29T10:53:52Z</time>
      </trkpt>
      <trkpt lat="42.8444" lon="0.60381">
        <ele>594.53</ele>
        <time>2018-07-29T10:53:53Z</time>
      </trkpt>
      <trkpt lat="42.8442" lon="0.60386">
        <ele>594.35</ele>
        <time>2018-07-29T10:53:54Z</time>
      </trkpt>
      <trkpt lat="42.84399" lon="0.6039">
        <ele>594.29</ele>
        <time>2018-07-29T10:53:55Z</time>
      </trkpt>
      <trkpt lat="42.84379" lon="0.60394">
        <ele>594.97</ele>
        <time>2018-07-29T10:53:56Z</time>
      </trkpt>
      <trkpt lat="42.84359" lon="0.60397">
        <ele>594.48</ele>
        <time>2018-07-29T10:53:57Z</time>
      </trkpt>
      <trkpt lat="42.84338" lon="0.604">
        <ele>594.33</ele>
        <time>2018-07-29T10:53:58Z</time>
      </trkpt>
      <trkpt lat="42.84318" lon="0.60403">
        <ele>594.99</ele>
        <time>2018-07-29T10:53:59Z</time>
      </trkpt>
      <trkpt lat="42.84297" lon="0.60407">
        <ele>595.18</ele>
        <time>2018-07-29T10:54:00Z</time>
      </trkpt>
      <trkpt lat="42.84277" lon="0.60412">
        <ele>594.54</ele>
        <time>2018-07-29T10:54:01Z</time>
      </trkpt>
      <trkpt lat="42.84256" lon="0.60418">
        <ele>594.35</ele>
        <time>2018-07-29T10:54:02Z</time>
      </trkpt>
      <trkpt lat="42.84237" lon="0.60424">
        <ele>594.29</ele>
        <time>2018-07-29T10:54:03Z</time>
      </trkpt>
      <trkpt lat="42.84217" lon="0.60434">
        <ele>594.27</ele>
        <time>2018-07-29T10:54:04Z</time>
      </trkpt>
      <trkpt lat="42.84197" lon="0.60442">
        <ele>594.27</ele>
        <time>2018-07-29T10:54:05Z</time>
      </trkpt>
      <trkpt lat="42.84177" lon="0.60449">
        <ele>594.27</ele>
        <time>2018-07-29T10:54:06Z</time>
      </trkpt>
      <trkpt lat="42.84156" lon="0.60455">
        <ele>593.57</ele>
        <time>2018-07-29T10:54:07Z</time>
      </trkpt>
      <trkpt lat="42.84135" lon="0.60457">
        <ele>594.06</ele>
        <time>2018-07-29T10:54:08Z</time>
      </trkpt>
      <trkpt lat="42.84115" lon="0.60458">
        <ele>594.9</ele>
        <time>2018-07-29T10:54:09Z</time>
      </trkpt>
      <trkpt lat="42.84095" lon="0.60458">
        <ele>595.16</ele>
        <time>2018-07-29T10:54:10Z</time>
      </trkpt>
      <trkpt lat="42.84074" lon="0.60456">
        <ele>595.93</ele>
        <time>2018-07-29T10:54:11Z</time>
      </trkpt>
      <trkpt lat="42.84054" lon="0.60453">
        <ele>596.17</ele>
        <time>2018-07-29T10:54:12Z</time>
      </trkpt>
      <trkpt lat="42.84035" lon="0.60449">
        <ele>597.64</ele>
        <time>2018-07-29T10:54:13Z</time>
      </trkpt>
      <trkpt lat="42.84014" lon="0.60444">
        <ele>598.78</ele>
        <time>2018-07-29T10:54:14Z</time>
      </trkpt>
      <trkpt lat="42.83994" lon="0.60438">
        <ele>599.82</ele>
        <time>2018-07-29T10:54:15Z</time>
      </trkpt>
      <trkpt lat="42.83974" lon="0.60433">
        <ele>600.83</ele>
        <time>2018-07-29T10:54:16Z</time>
      </trkpt>
      <trkpt lat="42.83954" lon="0.60427">
        <ele>601.14</ele>
        <time>2018-07-29T10:54:17Z</time>
      </trkpt>
      <trkpt lat="42.83934" lon="0.60423">
        <ele>601.93</ele>
        <time>2018-07-29T10:54:18Z</time>
      </trkpt>
      <trkpt lat="42.83914" lon="0.60418">
        <ele>601.47</ele>
        <time>2018-07-29T10:54:19Z</time>
      </trkpt>
      <trkpt lat="42.83894" lon="0.60412">
        <ele>602.03</ele>
        <time>2018-07-29T10:54:20Z</time>
      </trkpt>
      <trkpt lat="42.83874" lon="0.60405">
        <ele>602.19</ele>
        <time>2018-07-29T10:54:21Z</time>
      </trkpt>
      <trkpt lat="42.83854" lon="0.60399">
        <ele>602.95</ele>
        <time>2018-07-29T10:54:22Z</time>
      </trkpt>
      <trkpt lat="42.83834" lon="0.60394">
        <ele>603.17</ele>
        <time>2018-07-29T10:54:23Z</time>
      </trkpt>
      <trkpt lat="42.83815" lon="0.60388">
        <ele>603.24</ele>
        <time>2018-07-29T10:54:24Z</time>
      </trkpt>
      <trkpt lat="42.83796" lon="0.60382">
        <ele>603.26</ele>
        <time>2018-07-29T10:54:25Z</time>
      </trkpt>
      <trkpt lat="42.83776" lon="0.60377">
        <ele>601.86</ele>
        <time>2018-07-29T10:54:26Z</time>
      </trkpt>
      <trkpt lat="42.83756" lon="0.60371">
        <ele>601.45</ele>
        <time>2018-07-29T10:54:27Z</time>
      </trkpt>
      <trkpt lat="42.83735" lon="0.60365">
        <ele>600.62</ele>
        <time>2018-07-29T10:54:28Z</time>
      </trkpt>
      <trkpt lat="42.83715" lon="0.60359">
        <ele>598.97</ele>
        <time>2018-07-29T10:54:29Z</time>
      </trkpt>
      <trkpt lat="42.83693" lon="0.60352">
        <ele>598.48</ele>
        <time>2018-07-29T10:54:30Z</time>
      </trkpt>
      <trkpt lat="42.83672" lon="0.60346">
        <ele>598.33</ele>
        <time>2018-07-29T10:54:31Z</time>
      </trkpt>
      <trkpt lat="42.83651" lon="0.60341">
        <ele>598.29</ele>
        <time>2018-07-29T10:54:32Z</time>
      </trkpt>
      <trkpt lat="42.8363" lon="0.60335">
        <ele>597.57</ele>
        <time>2018-07-29T10:54:33Z</time>
      </trkpt>
      <trkpt lat="42.8361" lon="0.6033">
        <ele>597.36</ele>
        <time>2018-07-29T10:54:34Z</time>
      </trkpt>
      <trkpt lat="42.83591" lon="0.60324">
        <ele>597.29</ele>
        <time>2018-07-29T10:54:35Z</time>
      </trkpt>
      <trkpt lat="42.83571" lon="0.60319">
        <ele>597.28</ele>
        <time>2018-07-29T10:54:36Z</time>
      </trkpt>
      <trkpt lat="42.83552" lon="0.60314">
        <ele>596.57</ele>
        <time>2018-07-29T10:54:37Z</time>
      </trkpt>
      <trkpt lat="42.83532" lon="0.60308">
        <ele>597.06</ele>
        <time>2018-07-29T10:54:38Z</time>
      </trkpt>
      <trkpt lat="42.83512" lon="0.60303">
        <ele>597.2</ele>
        <time>2018-07-29T10:54:39Z</time>
      </trkpt>
      <trkpt lat="42.83492" lon="0.60298">
        <ele>597.25</ele>
        <time>2018-07-29T10:54:40Z</time>
      </trkpt>
      <trkpt lat="42.83473" lon="0.60293">
        <ele>596.56</ele>
        <time>2018-07-29T10:54:41Z</time>
      </trkpt>
      <trkpt lat="42.83453" lon="0.60287">
        <ele>596.36</ele>
        <time>2018-07-29T10:54:42Z</time>
      </trkpt>
      <trkpt lat="42.83433" lon="0.60283">
        <ele>596.99</ele>
        <time>2018-07-29T10:54:43Z</time>
      </trkpt>
      <trkpt lat="42.83414" lon="0.60277">
        <ele>596.48</ele>
        <time>2018-07-29T10:54:44Z</time>
      </trkpt>
      <trkpt lat="42.83394" lon="0.60272">
        <ele>597.03</ele>
        <time>2018-07-29T10:54:45Z</time>
      </trkpt>
      <trkpt lat="42.83374" lon="0.60267">
        <ele>597.9</ele>
        <time>2018-07-29T10:54:46Z</time>
      </trkpt>
      <trkpt lat="42.83355" lon="0.60262">
        <ele>598.16</ele>
        <time>2018-07-29T10:54:47Z</time>
      </trkpt>
      <trkpt lat="42.83335" lon="0.60257">
        <ele>598.23</ele>
        <time>2018-07-29T10:54:48Z</time>
      </trkpt>
      <trkpt lat="42.83316" lon="0.60251">
        <ele>598.26</ele>
        <time>2018-07-29T10:54:49Z</time>
      </trkpt>
      <trkpt lat="42.83295" lon="0.60245">
        <ele>598.96</ele>
        <time>2018-07-29T10:54:50Z</time>
      </trkpt>
      <trkpt lat="42.83275" lon="0.6024">
        <ele>599.88</ele>
        <time>2018-07-29T10:54:51Z</time>
      </trkpt>
      <trkpt lat="42.83256" lon="0.60235">
        <ele>600.15</ele>
        <time>2018-07-29T10:54:52Z</time>
      </trkpt>
      <trkpt lat="42.83236" lon="0.60229">
        <ele>600.23</ele>
        <time>2018-07-29T10:54:53Z</time>
      </trkpt>
      <trkpt lat="42.83216" lon="0.60223">
        <ele>600.26</ele>
        <time>2018-07-29T10:54:54Z</time>
      </trkpt>
      <trkpt lat="42.83196" lon="0.60218">
        <ele>600.26</ele>
        <time>2018-07-29T10:54:55Z</time>
      </trkpt>
      <trkpt lat="42.83175" lon="0.60211">
        <ele>600.27</ele>
        <time>2018-07-29T10:54:56Z</time>
      </trkpt>
      <trkpt lat="42.83155" lon="0.60206">
        <ele>600.27</ele>
        <time>2018-07-29T10:54:57Z</time>
      </trkpt>
      <trkpt lat="42.83134" lon="0.60201">
        <ele>600.97</ele>
        <time>2018-07-29T10:54:58Z</time>
      </trkpt>
      <trkpt lat="42.83113" lon="0.60195">
        <ele>601.18</ele>
        <time>2018-07-29T10:54:59Z</time>
      </trkpt>
      <trkpt lat="42.83093" lon="0.60189">
        <ele>601.24</ele>
        <time>2018-07-29T10:55:00Z</time>
      </trkpt>
      <trkpt lat="42.83072" lon="0.60184">
        <ele>601.26</ele>
        <time>2018-07-29T10:55:01Z</time>
      </trkpt>
      <trkpt lat="42.83053" lon="0.60179">
        <ele>600.56</ele>
        <time>2018-07-29T10:55:02Z</time>
      </trkpt>
      <trkpt lat="42.83033" lon="0.60173">
        <ele>600.36</ele>
        <time>2018-07-29T10:55:03Z</time>
      </trkpt>
      <trkpt lat="42.83013" lon="0.60168">
        <ele>600.29</ele>
        <time>2018-07-29T10:55:04Z</time>
      </trkpt>
      <trkpt lat="42.82995" lon="0.60164">
        <ele>599.58</ele>
        <time>2018-07-29T10:55:05Z</time>
      </trkpt>
      <trkpt lat="42.82976" lon="0.60161">
        <ele>600.06</ele>
        <time>2018-07-29T10:55:06Z</time>
      </trkpt>
      <trkpt lat="42.82942" lon="0.60162">
        <ele>600.25</ele>
        <time>2018-07-29T10:55:08Z</time>
      </trkpt>
      <trkpt lat="42.82914" lon="0.60159">
        <ele>600.27</ele>
        <time>2018-07-29T10:55:10Z</time>
      </trkpt>
      <trkpt lat="42.82894" lon="0.60163">
        <ele>600.97</ele>
        <time>2018-07-29T10:55:12Z</time>
      </trkpt>
      <trkpt lat="42.8287" lon="0.60176">
        <ele>601.24</ele>
        <time>2018-07-29T10:55:14Z</time>
      </trkpt>
      <trkpt lat="42.82838" lon="0.60184">
        <ele>601.26</ele>
        <time>2018-07-29T10:55:16Z</time>
      </trkpt>
      <trkpt lat="42.82804" lon="0.60191">
        <ele>601.27</ele>
        <time>2018-07-29T10:55:18Z</time>
      </trkpt>
      <trkpt lat="42.82785" lon="0.60195">
        <ele>601.27</ele>
        <time>2018-07-29T10:55:19Z</time>
      </trkpt>
      <trkpt lat="42.82767" lon="0.60198">
        <ele>601.27</ele>
        <time>2018-07-29T10:55:20Z</time>
      </trkpt>
      <trkpt lat="42.82733" lon="0.60207">
        <ele>601.27</ele>
        <time>2018-07-29T10:55:22Z</time>
      </trkpt>
      <trkpt lat="42.82701" lon="0.60216">
        <ele>601.27</ele>
        <time>2018-07-29T10:55:24Z</time>
      </trkpt>
      <trkpt lat="42.82671" lon="0.60227">
        <ele>601.27</ele>
        <time>2018-07-29T10:55:26Z</time>
      </trkpt>
      <trkpt lat="42.82645" lon="0.60238">
        <ele>601.27</ele>
        <time>2018-07-29T10:55:28Z</time>
      </trkpt>
      <trkpt lat="42.82621" lon="0.60251">
        <ele>600.36</ele>
        <time>2018-07-29T10:55:30Z</time>
      </trkpt>
      <trkpt lat="42.82595" lon="0.60262">
        <ele>600.28</ele>
        <time>2018-07-29T10:55:32Z</time>
      </trkpt>
      <trkpt lat="42.82567" lon="0.60273">
        <ele>600.27</ele>
        <time>2018-07-29T10:55:34Z</time>
      </trkpt>
      <trkpt lat="42.82537" lon="0.60286">
        <ele>600.27</ele>
        <time>2018-07-29T10:55:36Z</time>
      </trkpt>
      <trkpt lat="42.82504" lon="0.60302">
        <ele>600.27</ele>
        <time>2018-07-29T10:55:38Z</time>
      </trkpt>
      <trkpt lat="42.82487" lon="0.6031">
        <ele>600.27</ele>
        <time>2018-07-29T10:55:39Z</time>
      </trkpt>
      <trkpt lat="42.82469" lon="0.60319">
        <ele>599.57</ele>
        <time>2018-07-29T10:55:40Z</time>
      </trkpt>
      <trkpt lat="42.82452" lon="0.60327">
        <ele>599.36</ele>
        <time>2018-07-29T10:55:41Z</time>
      </trkpt>
      <trkpt lat="42.82433" lon="0.60335">
        <ele>599.29</ele>
        <time>2018-07-29T10:55:42Z</time>
      </trkpt>
      <trkpt lat="42.82414" lon="0.60342">
        <ele>599.28</ele>
        <time>2018-07-29T10:55:43Z</time>
      </trkpt>
      <trkpt lat="42.82395" lon="0.6035">
        <ele>599.27</ele>
        <time>2018-07-29T10:55:44Z</time>
      </trkpt>
      <trkpt lat="42.82375" lon="0.60357">
        <ele>599.27</ele>
        <time>2018-07-29T10:55:45Z</time>
      </trkpt>
      <trkpt lat="42.82356" lon="0.60362">
        <ele>599.27</ele>
        <time>2018-07-29T10:55:46Z</time>
      </trkpt>
      <trkpt lat="42.82335" lon="0.60368">
        <ele>599.27</ele>
        <time>2018-07-29T10:55:47Z</time>
      </trkpt>
      <trkpt lat="42.82314" lon="0.60372">
        <ele>599.27</ele>
        <time>2018-07-29T10:55:48Z</time>
      </trkpt>
      <trkpt lat="42.82293" lon="0.60377">
        <ele>599.27</ele>
        <time>2018-07-29T10:55:49Z</time>
      </trkpt>
      <trkpt lat="42.82271" lon="0.6038">
        <ele>599.27</ele>
        <time>2018-07-29T10:55:50Z</time>
      </trkpt>
      <trkpt lat="42.82249" lon="0.60381">
        <ele>599.27</ele>
        <time>2018-07-29T10:55:51Z</time>
      </trkpt>
      <trkpt lat="42.82227" lon="0.60382">
        <ele>599.27</ele>
        <time>2018-07-29T10:55:52Z</time>
      </trkpt>
      <trkpt lat="42.82205" lon="0.60382">
        <ele>599.97</ele>
        <time>2018-07-29T10:55:53Z</time>
      </trkpt>
      <trkpt lat="42.82183" lon="0.60381">
        <ele>600.18</ele>
        <time>2018-07-29T10:55:54Z</time>
      </trkpt>
      <trkpt lat="42.82162" lon="0.60379">
        <ele>599.54</ele>
        <time>2018-07-29T10:55:55Z</time>
      </trkpt>
      <trkpt lat="42.82141" lon="0.60376">
        <ele>600.05</ele>
        <time>2018-07-29T10:55:56Z</time>
      </trkpt>
      <trkpt lat="42.8212" lon="0.60373">
        <ele>600.2</ele>
        <time>2018-07-29T10:55:57Z</time>
      </trkpt>
      <trkpt lat="42.82099" lon="0.6037">
        <ele>600.25</ele>
        <time>2018-07-29T10:55:58Z</time>
      </trkpt>
      <trkpt lat="42.82079" lon="0.60366">
        <ele>600.26</ele>
        <time>2018-07-29T10:55:59Z</time>
      </trkpt>
      <trkpt lat="42.82058" lon="0.6036">
        <ele>600.97</ele>
        <time>2018-07-29T10:56:00Z</time>
      </trkpt>
      <trkpt lat="42.82038" lon="0.60355">
        <ele>601.18</ele>
        <time>2018-07-29T10:56:01Z</time>
      </trkpt>
      <trkpt lat="42.82018" lon="0.60351">
        <ele>601.24</ele>
        <time>2018-07-29T10:56:02Z</time>
      </trkpt>
      <trkpt lat="42.81998" lon="0.60345">
        <ele>601.26</ele>
        <time>2018-07-29T10:56:03Z</time>
      </trkpt>
      <trkpt lat="42.81977" lon="0.60341">
        <ele>601.26</ele>
        <time>2018-07-29T10:56:04Z</time>
      </trkpt>
      <trkpt lat="42.81956" lon="0.60337">
        <ele>601.27</ele>
        <time>2018-07-29T10:56:05Z</time>
      </trkpt>
      <trkpt lat="42.81936" lon="0.60333">
        <ele>601.27</ele>
        <time>2018-07-29T10:56:06Z</time>
      </trkpt>
      <trkpt lat="42.81915" lon="0.60328">
        <ele>601.27</ele>
        <time>2018-07-29T10:56:07Z</time>
      </trkpt>
      <trkpt lat="42.81895" lon="0.60324">
        <ele>601.27</ele>
        <time>2018-07-29T10:56:08Z</time>
      </trkpt>
      <trkpt lat="42.81875" lon="0.60319">
        <ele>601.27</ele>
        <time>2018-07-29T10:56:09Z</time>
      </trkpt>
      <trkpt lat="42.81854" lon="0.60314">
        <ele>601.27</ele>
        <time>2018-07-29T10:56:10Z</time>
      </trkpt>
      <trkpt lat="42.81834" lon="0.60309">
        <ele>601.27</ele>
        <time>2018-07-29T10:56:11Z</time>
      </trkpt>
      <trkpt lat="42.81813" lon="0.60305">
        <ele>601.97</ele>
        <time>2018-07-29T10:56:12Z</time>
      </trkpt>
      <trkpt lat="42.81793" lon="0.60301">
        <ele>602.18</ele>
        <time>2018-07-29T10:56:13Z</time>
      </trkpt>
      <trkpt lat="42.81773" lon="0.60297">
        <ele>602.24</ele>
        <time>2018-07-29T10:56:14Z</time>
      </trkpt>
      <trkpt lat="42.81753" lon="0.60292">
        <ele>602.26</ele>
        <time>2018-07-29T10:56:15Z</time>
      </trkpt>
      <trkpt lat="42.81732" lon="0.60287">
        <ele>602.26</ele>
        <time>2018-07-29T10:56:16Z</time>
      </trkpt>
      <trkpt lat="42.81712" lon="0.60283">
        <ele>602.97</ele>
        <time>2018-07-29T10:56:17Z</time>
      </trkpt>
      <trkpt lat="42.81692" lon="0.60278">
        <ele>603.18</ele>
        <time>2018-07-29T10:56:18Z</time>
      </trkpt>
      <trkpt lat="42.81672" lon="0.60273">
        <ele>603.24</ele>
        <time>2018-07-29T10:56:19Z</time>
      </trkpt>
      <trkpt lat="42.81652" lon="0.60268">
        <ele>603.26</ele>
        <time>2018-07-29T10:56:20Z</time>
      </trkpt>
      <trkpt lat="42.81632" lon="0.60264">
        <ele>603.26</ele>
        <time>2018-07-29T10:56:21Z</time>
      </trkpt>
      <trkpt lat="42.81612" lon="0.60259">
        <ele>603.27</ele>
        <time>2018-07-29T10:56:22Z</time>
      </trkpt>
      <trkpt lat="42.81592" lon="0.60255">
        <ele>603.27</ele>
        <time>2018-07-29T10:56:23Z</time>
      </trkpt>
      <trkpt lat="42.81572" lon="0.60251">
        <ele>603.27</ele>
        <time>2018-07-29T10:56:24Z</time>
      </trkpt>
      <trkpt lat="42.81552" lon="0.60247">
        <ele>603.27</ele>
        <time>2018-07-29T10:56:25Z</time>
      </trkpt>
      <trkpt lat="42.81532" lon="0.60242">
        <ele>603.97</ele>
        <time>2018-07-29T10:56:26Z</time>
      </trkpt>
      <trkpt lat="42.81512" lon="0.60237">
        <ele>604.18</ele>
        <time>2018-07-29T10:56:27Z</time>
      </trkpt>
      <trkpt lat="42.81492" lon="0.60232">
        <ele>604.94</ele>
        <time>2018-07-29T10:56:28Z</time>
      </trkpt>
      <trkpt lat="42.81472" lon="0.60228">
        <ele>605.17</ele>
        <time>2018-07-29T10:56:29Z</time>
      </trkpt>
      <trkpt lat="42.81452" lon="0.60224">
        <ele>605.24</ele>
        <time>2018-07-29T10:56:30Z</time>
      </trkpt>
      <trkpt lat="42.81432" lon="0.60219">
        <ele>605.26</ele>
        <time>2018-07-29T10:56:31Z</time>
      </trkpt>
      <trkpt lat="42.81413" lon="0.60216">
        <ele>605.26</ele>
        <time>2018-07-29T10:56:32Z</time>
      </trkpt>
      <trkpt lat="42.81393" lon="0.60211">
        <ele>605.27</ele>
        <time>2018-07-29T10:56:33Z</time>
      </trkpt>
      <trkpt lat="42.81374" lon="0.60207">
        <ele>605.27</ele>
        <time>2018-07-29T10:56:34Z</time>
      </trkpt>
      <trkpt lat="42.81355" lon="0.60203">
        <ele>605.27</ele>
        <time>2018-07-29T10:56:35Z</time>
      </trkpt>
      <trkpt lat="42.81335" lon="0.60199">
        <ele>605.97</ele>
        <time>2018-07-29T10:56:36Z</time>
      </trkpt>
      <trkpt lat="42.81316" lon="0.60194">
        <ele>606.18</ele>
        <time>2018-07-29T10:56:37Z</time>
      </trkpt>
      <trkpt lat="42.81297" lon="0.6019">
        <ele>606.24</ele>
        <time>2018-07-29T10:56:38Z</time>
      </trkpt>
      <trkpt lat="42.81279" lon="0.60185">
        <ele>606.26</ele>
        <time>2018-07-29T10:56:39Z</time>
      </trkpt>
      <trkpt lat="42.8126" lon="0.60181">
        <ele>606.26</ele>
        <time>2018-07-29T10:56:40Z</time>
      </trkpt>
      <trkpt lat="42.81241" lon="0.60176">
        <ele>605.57</ele>
        <time>2018-07-29T10:56:41Z</time>
      </trkpt>
      <trkpt lat="42.81221" lon="0.60172">
        <ele>605.36</ele>
        <time>2018-07-29T10:56:42Z</time>
      </trkpt>
      <trkpt lat="42.81202" lon="0.60168">
        <ele>604.59</ele>
        <time>2018-07-29T10:56:43Z</time>
      </trkpt>
      <trkpt lat="42.81183" lon="0.60164">
        <ele>605.07</ele>
        <time>2018-07-29T10:56:44Z</time>
      </trkpt>
      <trkpt lat="42.81163" lon="0.60161">
        <ele>605.21</ele>
        <time>2018-07-29T10:56:45Z</time>
      </trkpt>
      <trkpt lat="42.81143" lon="0.60156">
        <ele>605.25</ele>
        <time>2018-07-29T10:56:46Z</time>
      </trkpt>
      <trkpt lat="42.81124" lon="0.60151">
        <ele>605.96</ele>
        <time>2018-07-29T10:56:47Z</time>
      </trkpt>
      <trkpt lat="42.81105" lon="0.60147">
        <ele>605.48</ele>
        <time>2018-07-29T10:56:48Z</time>
      </trkpt>
      <trkpt lat="42.81085" lon="0.60143">
        <ele>606.03</ele>
        <time>2018-07-29T10:56:49Z</time>
      </trkpt>
      <trkpt lat="42.81066" lon="0.60139">
        <ele>605.5</ele>
        <time>2018-07-29T10:56:50Z</time>
      </trkpt>
      <trkpt lat="42.81047" lon="0.60134">
        <ele>606.04</ele>
        <time>2018-07-29T10:56:51Z</time>
      </trkpt>
      <trkpt lat="42.81027" lon="0.6013">
        <ele>606.9</ele>
        <time>2018-07-29T10:56:52Z</time>
      </trkpt>
      <trkpt lat="42.81008" lon="0.60124">
        <ele>607.16</ele>
        <time>2018-07-29T10:56:53Z</time>
      </trkpt>
      <trkpt lat="42.80988" lon="0.6012">
        <ele>607.23</ele>
        <time>2018-07-29T10:56:54Z</time>
      </trkpt>
      <trkpt lat="42.80969" lon="0.60116">
        <ele>607.26</ele>
        <time>2018-07-29T10:56:55Z</time>
      </trkpt>
      <trkpt lat="42.8095" lon="0.60111">
        <ele>606.56</ele>
        <time>2018-07-29T10:56:56Z</time>
      </trkpt>
      <trkpt lat="42.80931" lon="0.60106">
        <ele>607.06</ele>
        <time>2018-07-29T10:56:57Z</time>
      </trkpt>
      <trkpt lat="42.80912" lon="0.60102">
        <ele>607.2</ele>
        <time>2018-07-29T10:56:58Z</time>
      </trkpt>
      <trkpt lat="42.80892" lon="0.60097">
        <ele>607.95</ele>
        <time>2018-07-29T10:56:59Z</time>
      </trkpt>
      <trkpt lat="42.80873" lon="0.60093">
        <ele>608.17</ele>
        <time>2018-07-29T10:57:00Z</time>
      </trkpt>
      <trkpt lat="42.80854" lon="0.60089">
        <ele>608.24</ele>
        <time>2018-07-29T10:57:01Z</time>
      </trkpt>
      <trkpt lat="42.80834" lon="0.60084">
        <ele>608.26</ele>
        <time>2018-07-29T10:57:02Z</time>
      </trkpt>
      <trkpt lat="42.80814" lon="0.6008">
        <ele>608.26</ele>
        <time>2018-07-29T10:57:03Z</time>
      </trkpt>
      <trkpt lat="42.80795" lon="0.60075">
        <ele>608.97</ele>
        <time>2018-07-29T10:57:04Z</time>
      </trkpt>
      <trkpt lat="42.80776" lon="0.60071">
        <ele>609.88</ele>
        <time>2018-07-29T10:57:05Z</time>
      </trkpt>
      <trkpt lat="42.80757" lon="0.60066">
        <ele>610.15</ele>
        <time>2018-07-29T10:57:06Z</time>
      </trkpt>
      <trkpt lat="42.80738" lon="0.60062">
        <ele>610.23</ele>
        <time>2018-07-29T10:57:07Z</time>
      </trkpt>
      <trkpt lat="42.80719" lon="0.60057">
        <ele>610.26</ele>
        <time>2018-07-29T10:57:08Z</time>
      </trkpt>
      <trkpt lat="42.807" lon="0.60052">
        <ele>610.26</ele>
        <time>2018-07-29T10:57:09Z</time>
      </trkpt>
      <trkpt lat="42.80682" lon="0.60048">
        <ele>610.97</ele>
        <time>2018-07-29T10:57:10Z</time>
      </trkpt>
      <trkpt lat="42.80647" lon="0.60041">
        <ele>611.24</ele>
        <time>2018-07-29T10:57:12Z</time>
      </trkpt>
      <trkpt lat="42.80613" lon="0.60033">
        <ele>611.26</ele>
        <time>2018-07-29T10:57:14Z</time>
      </trkpt>
      <trkpt lat="42.80583" lon="0.60025">
        <ele>611.27</ele>
        <time>2018-07-29T10:57:16Z</time>
      </trkpt>
      <trkpt lat="42.80556" lon="0.6002">
        <ele>612.18</ele>
        <time>2018-07-29T10:57:18Z</time>
      </trkpt>
      <trkpt lat="42.80534" lon="0.60011">
        <ele>612.26</ele>
        <time>2018-07-29T10:57:20Z</time>
      </trkpt>
      <trkpt lat="42.80514" lon="0.59995">
        <ele>612.06</ele>
        <time>2018-07-29T10:57:22Z</time>
      </trkpt>
      <trkpt lat="42.8049" lon="0.59976">
        <ele>612.95</ele>
        <time>2018-07-29T10:57:24Z</time>
      </trkpt>
      <trkpt lat="42.80465" lon="0.59955">
        <ele>614.15</ele>
        <time>2018-07-29T10:57:26Z</time>
      </trkpt>
      <trkpt lat="42.80441" lon="0.59935">
        <ele>614.05</ele>
        <time>2018-07-29T10:57:28Z</time>
      </trkpt>
      <trkpt lat="42.80416" lon="0.59914">
        <ele>614.95</ele>
        <time>2018-07-29T10:57:30Z</time>
      </trkpt>
      <trkpt lat="42.8039" lon="0.59894">
        <ele>615.24</ele>
        <time>2018-07-29T10:57:32Z</time>
      </trkpt>
      <trkpt lat="42.80364" lon="0.59874">
        <ele>615.26</ele>
        <time>2018-07-29T10:57:34Z</time>
      </trkpt>
      <trkpt lat="42.80337" lon="0.59853">
        <ele>616.18</ele>
        <time>2018-07-29T10:57:36Z</time>
      </trkpt>
      <trkpt lat="42.8031" lon="0.59832">
        <ele>616.96</ele>
        <time>2018-07-29T10:57:38Z</time>
      </trkpt>
      <trkpt lat="42.80282" lon="0.59811">
        <ele>617.24</ele>
        <time>2018-07-29T10:57:40Z</time>
      </trkpt>
      <trkpt lat="42.80252" lon="0.59789">
        <ele>617.26</ele>
        <time>2018-07-29T10:57:42Z</time>
      </trkpt>
      <trkpt lat="42.80221" lon="0.59771">
        <ele>617.27</ele>
        <time>2018-07-29T10:57:44Z</time>
      </trkpt>
      <trkpt lat="42.8019" lon="0.59756">
        <ele>617.27</ele>
        <time>2018-07-29T10:57:46Z</time>
      </trkpt>
      <trkpt lat="42.80159" lon="0.59745">
        <ele>617.97</ele>
        <time>2018-07-29T10:57:48Z</time>
      </trkpt>
      <trkpt lat="42.80129" lon="0.59739">
        <ele>618.24</ele>
        <time>2018-07-29T10:57:50Z</time>
      </trkpt>
      <trkpt lat="42.80099" lon="0.59734">
        <ele>618.26</ele>
        <time>2018-07-29T10:57:52Z</time>
      </trkpt>
      <trkpt lat="42.80069" lon="0.59733">
        <ele>619.18</ele>
        <time>2018-07-29T10:57:54Z</time>
      </trkpt>
      <trkpt lat="42.8004" lon="0.59733">
        <ele>619.26</ele>
        <time>2018-07-29T10:57:56Z</time>
      </trkpt>
      <trkpt lat="42.80013" lon="0.59734">
        <ele>619.06</ele>
        <time>2018-07-29T10:57:58Z</time>
      </trkpt>
      <trkpt lat="42.79984" lon="0.59733">
        <ele>619.25</ele>
        <time>2018-07-29T10:58:00Z</time>
      </trkpt>
      <trkpt lat="42.79956" lon="0.59731">
        <ele>619.27</ele>
        <time>2018-07-29T10:58:02Z</time>
      </trkpt>
      <trkpt lat="42.79929" lon="0.59728">
        <ele>619.27</ele>
        <time>2018-07-29T10:58:04Z</time>
      </trkpt>
      <trkpt lat="42.79903" lon="0.59725">
        <ele>619.27</ele>
        <time>2018-07-29T10:58:06Z</time>
      </trkpt>
      <trkpt lat="42.79878" lon="0.59721">
        <ele>619.27</ele>
        <time>2018-07-29T10:58:08Z</time>
      </trkpt>
      <trkpt lat="42.79853" lon="0.59718">
        <ele>619.97</ele>
        <time>2018-07-29T10:58:10Z</time>
      </trkpt>
      <trkpt lat="42.7983" lon="0.59715">
        <ele>620.24</ele>
        <time>2018-07-29T10:58:12Z</time>
      </trkpt>
      <trkpt lat="42.79809" lon="0.59713">
        <ele>620.26</ele>
        <time>2018-07-29T10:58:14Z</time>
      </trkpt>
      <trkpt lat="42.7979" lon="0.59709">
        <ele>619.36</ele>
        <time>2018-07-29T10:58:16Z</time>
      </trkpt>
      <trkpt lat="42.7977" lon="0.59706">
        <ele>619.28</ele>
        <time>2018-07-29T10:58:18Z</time>
      </trkpt>
      <trkpt lat="42.7975" lon="0.59704">
        <ele>619.27</ele>
        <time>2018-07-29T10:58:20Z</time>
      </trkpt>
      <trkpt lat="42.79728" lon="0.597">
        <ele>619.97</ele>
        <time>2018-07-29T10:58:22Z</time>
      </trkpt>
      <trkpt lat="42.79704" lon="0.59698">
        <ele>619.33</ele>
        <time>2018-07-29T10:58:24Z</time>
      </trkpt>
      <trkpt lat="42.7968" lon="0.59694">
        <ele>619.97</ele>
        <time>2018-07-29T10:58:26Z</time>
      </trkpt>
      <trkpt lat="42.79654" lon="0.59691">
        <ele>619.54</ele>
        <time>2018-07-29T10:58:28Z</time>
      </trkpt>
      <trkpt lat="42.79629" lon="0.59688">
        <ele>619.29</ele>
        <time>2018-07-29T10:58:30Z</time>
      </trkpt>
      <trkpt lat="42.79604" lon="0.59685">
        <ele>619.97</ele>
        <time>2018-07-29T10:58:32Z</time>
      </trkpt>
      <trkpt lat="42.79581" lon="0.59682">
        <ele>618.63</ele>
        <time>2018-07-29T10:58:34Z</time>
      </trkpt>
      <trkpt lat="42.7956" lon="0.5968">
        <ele>619.21</ele>
        <time>2018-07-29T10:58:36Z</time>
      </trkpt>
      <trkpt lat="42.79539" lon="0.59671">
        <ele>619.54</ele>
        <time>2018-07-29T10:58:39Z</time>
      </trkpt>
      <trkpt lat="42.79527" lon="0.59641">
        <ele>620.26</ele>
        <time>2018-07-29T10:58:43Z</time>
      </trkpt>
      <trkpt lat="42.79518" lon="0.59618">
        <ele>619.57</ele>
        <time>2018-07-29T10:58:46Z</time>
      </trkpt>
      <trkpt lat="42.79499" lon="0.5962">
        <ele>619.49</ele>
        <time>2018-07-29T10:58:49Z</time>
      </trkpt>
      <trkpt lat="42.79479" lon="0.59633">
        <ele>619.08</ele>
        <time>2018-07-29T10:58:51Z</time>
      </trkpt>
      <trkpt lat="42.79459" lon="0.59643">
        <ele>618.55</ele>
        <time>2018-07-29T10:58:53Z</time>
      </trkpt>
      <trkpt lat="42.79433" lon="0.59655">
        <ele>619.2</ele>
        <time>2018-07-29T10:58:55Z</time>
      </trkpt>
      <trkpt lat="42.79404" lon="0.5967">
        <ele>619.26</ele>
        <time>2018-07-29T10:58:57Z</time>
      </trkpt>
      <trkpt lat="42.79373" lon="0.59688">
        <ele>619.27</ele>
        <time>2018-07-29T10:58:59Z</time>
      </trkpt>
      <trkpt lat="42.79342" lon="0.5971">
        <ele>619.27</ele>
        <time>2018-07-29T10:59:01Z</time>
      </trkpt>
      <trkpt lat="42.79312" lon="0.59735">
        <ele>617.87</ele>
        <time>2018-07-29T10:59:03Z</time>
      </trkpt>
      <trkpt lat="42.79282" lon="0.59758">
        <ele>617.32</ele>
        <time>2018-07-29T10:59:05Z</time>
      </trkpt>
      <trkpt lat="42.7925" lon="0.59773">
        <ele>618.18</ele>
        <time>2018-07-29T10:59:07Z</time>
      </trkpt>
      <trkpt lat="42.79217" lon="0.59776">
        <ele>617.56</ele>
        <time>2018-07-29T10:59:09Z</time>
      </trkpt>
      <trkpt lat="42.79187" lon="0.59776">
        <ele>618.9</ele>
        <time>2018-07-29T10:59:11Z</time>
      </trkpt>
      <trkpt lat="42.79161" lon="0.59775">
        <ele>619.44</ele>
        <time>2018-07-29T10:59:13Z</time>
      </trkpt>
      <trkpt lat="42.7914" lon="0.59771">
        <ele>618.86</ele>
        <time>2018-07-29T10:59:15Z</time>
      </trkpt>
      <trkpt lat="42.79115" lon="0.5976">
        <ele>620.23</ele>
        <time>2018-07-29T10:59:18Z</time>
      </trkpt>
      <trkpt lat="42.79095" lon="0.59764">
        <ele>621.03</ele>
        <time>2018-07-29T10:59:21Z</time>
      </trkpt>
      <trkpt lat="42.7907" lon="0.59761">
        <ele>620.29</ele>
        <time>2018-07-29T10:59:24Z</time>
      </trkpt>
      <trkpt lat="42.79049" lon="0.59757">
        <ele>621.94</ele>
        <time>2018-07-29T10:59:27Z</time>
      </trkpt>
      <trkpt lat="42.79031" lon="0.59752">
        <ele>624.08</ele>
        <time>2018-07-29T10:59:30Z</time>
      </trkpt>
      <trkpt lat="42.79006" lon="0.59745">
        <ele>623.35</ele>
        <time>2018-07-29T10:59:33Z</time>
      </trkpt>
      <trkpt lat="42.78987" lon="0.59739">
        <ele>624.18</ele>
        <time>2018-07-29T10:59:35Z</time>
      </trkpt>
      <trkpt lat="42.78966" lon="0.59736">
        <ele>624.26</ele>
        <time>2018-07-29T10:59:37Z</time>
      </trkpt>
      <trkpt lat="42.78949" lon="0.59731">
        <ele>625.88</ele>
        <time>2018-07-29T10:59:39Z</time>
      </trkpt>
      <trkpt lat="42.7893" lon="0.59729">
        <ele>626.44</ele>
        <time>2018-07-29T10:59:41Z</time>
      </trkpt>
      <trkpt lat="42.78911" lon="0.59728">
        <ele>627.19</ele>
        <time>2018-07-29T10:59:43Z</time>
      </trkpt>
      <trkpt lat="42.7889" lon="0.59726">
        <ele>626.35</ele>
        <time>2018-07-29T10:59:45Z</time>
      </trkpt>
      <trkpt lat="42.7887" lon="0.59723">
        <ele>627.18</ele>
        <time>2018-07-29T10:59:47Z</time>
      </trkpt>
      <trkpt lat="42.78849" lon="0.5972">
        <ele>626.35</ele>
        <time>2018-07-29T10:59:49Z</time>
      </trkpt>
      <trkpt lat="42.78828" lon="0.5972">
        <ele>626.27</ele>
        <time>2018-07-29T10:59:51Z</time>
      </trkpt>
      <trkpt lat="42.78807" lon="0.59722">
        <ele>626.48</ele>
        <time>2018-07-29T10:59:53Z</time>
      </trkpt>
      <trkpt lat="42.78788" lon="0.59728">
        <ele>626.29</ele>
        <time>2018-07-29T10:59:55Z</time>
      </trkpt>
      <trkpt lat="42.78768" lon="0.59733">
        <ele>626.27</ele>
        <time>2018-07-29T10:59:57Z</time>
      </trkpt>
      <trkpt lat="42.78744" lon="0.59743">
        <ele>626.27</ele>
        <time>2018-07-29T11:00:00Z</time>
      </trkpt>
      <trkpt lat="42.78723" lon="0.59754">
        <ele>626.06</ele>
        <time>2018-07-29T11:00:03Z</time>
      </trkpt>
      <trkpt lat="42.78701" lon="0.59768">
        <ele>625.99</ele>
        <time>2018-07-29T11:00:06Z</time>
      </trkpt>
      <trkpt lat="42.78678" lon="0.59778">
        <ele>626.9</ele>
        <time>2018-07-29T11:00:09Z</time>
      </trkpt>
      <trkpt lat="42.78658" lon="0.59791">
        <ele>627.47</ele>
        <time>2018-07-29T11:00:12Z</time>
      </trkpt>
      <trkpt lat="42.78641" lon="0.59799">
        <ele>626.3</ele>
        <time>2018-07-29T11:00:15Z</time>
      </trkpt>
      <trkpt lat="42.78623" lon="0.59789">
        <ele>627.24</ele>
        <time>2018-07-29T11:00:19Z</time>
      </trkpt>
      <trkpt lat="42.78615" lon="0.59766">
        <ele>628.17</ele>
        <time>2018-07-29T11:00:21Z</time>
      </trkpt>
      <trkpt lat="42.78608" lon="0.59738">
        <ele>628.26</ele>
        <time>2018-07-29T11:00:23Z</time>
      </trkpt>
      <trkpt lat="42.786" lon="0.59709">
        <ele>628.27</ele>
        <time>2018-07-29T11:00:25Z</time>
      </trkpt>
      <trkpt lat="42.78591" lon="0.59678">
        <ele>629.18</ele>
        <time>2018-07-29T11:00:27Z</time>
      </trkpt>
      <trkpt lat="42.78582" lon="0.59649">
        <ele>629.96</ele>
        <time>2018-07-29T11:00:29Z</time>
      </trkpt>
      <trkpt lat="42.78575" lon="0.59617">
        <ele>629.54</ele>
        <time>2018-07-29T11:00:31Z</time>
      </trkpt>
      <trkpt lat="42.78566" lon="0.59588">
        <ele>629.5</ele>
        <time>2018-07-29T11:00:33Z</time>
      </trkpt>
      <trkpt lat="42.7856" lon="0.59562">
        <ele>631.11</ele>
        <time>2018-07-29T11:00:35Z</time>
      </trkpt>
      <trkpt lat="42.78551" lon="0.59533">
        <ele>629.59</ele>
        <time>2018-07-29T11:00:38Z</time>
      </trkpt>
      <trkpt lat="42.78529" lon="0.59534">
        <ele>628.37</ele>
        <time>2018-07-29T11:00:41Z</time>
      </trkpt>
      <trkpt lat="42.78509" lon="0.59549">
        <ele>628.28</ele>
        <time>2018-07-29T11:00:43Z</time>
      </trkpt>
      <trkpt lat="42.78488" lon="0.59562">
        <ele>627.57</ele>
        <time>2018-07-29T11:00:45Z</time>
      </trkpt>
      <trkpt lat="42.78465" lon="0.59572">
        <ele>627.29</ele>
        <time>2018-07-29T11:00:47Z</time>
      </trkpt>
      <trkpt lat="42.78445" lon="0.59582">
        <ele>628.88</ele>
        <time>2018-07-29T11:00:49Z</time>
      </trkpt>
      <trkpt lat="42.78424" lon="0.59599">
        <ele>629.26</ele>
        <time>2018-07-29T11:00:52Z</time>
      </trkpt>
      <trkpt lat="42.78411" lon="0.5962">
        <ele>626.8</ele>
        <time>2018-07-29T11:00:56Z</time>
      </trkpt>
      <trkpt lat="42.78414" lon="0.59647">
        <ele>625.86</ele>
        <time>2018-07-29T11:01:01Z</time>
      </trkpt>
      <trkpt lat="42.78415" lon="0.59662">
        <ele>638.27</ele>
        <time>2018-07-29T13:24:11Z</time>
      </trkpt>
      <trkpt lat="42.7842" lon="0.59637">
        <ele>641.03</ele>
        <time>2018-07-29T13:31:49Z</time>
      </trkpt>
      <trkpt lat="42.78405" lon="0.59621">
        <ele>643.27</ele>
        <time>2018-07-29T13:32:07Z</time>
      </trkpt>
      <trkpt lat="42.78388" lon="0.59632">
        <ele>643.27</ele>
        <time>2018-07-29T13:32:10Z</time>
      </trkpt>
      <trkpt lat="42.78372" lon="0.59647">
        <ele>645.17</ele>
        <time>2018-07-29T13:32:14Z</time>
      </trkpt>
      <trkpt lat="42.7835" lon="0.5966">
        <ele>646.18</ele>
        <time>2018-07-29T13:32:18Z</time>
      </trkpt>
      <trkpt lat="42.78332" lon="0.59673">
        <ele>644.59</ele>
        <time>2018-07-29T13:32:21Z</time>
      </trkpt>
      <trkpt lat="42.78314" lon="0.59685">
        <ele>645.95</ele>
        <time>2018-07-29T13:32:24Z</time>
      </trkpt>
      <trkpt lat="42.78295" lon="0.59696">
        <ele>647.44</ele>
        <time>2018-07-29T13:32:27Z</time>
      </trkpt>
      <trkpt lat="42.78273" lon="0.59705">
        <ele>647.42</ele>
        <time>2018-07-29T13:32:30Z</time>
      </trkpt>
      <trkpt lat="42.78254" lon="0.59709">
        <ele>645.67</ele>
        <time>2018-07-29T13:32:32Z</time>
      </trkpt>
      <trkpt lat="42.78236" lon="0.59712">
        <ele>645.09</ele>
        <time>2018-07-29T13:32:34Z</time>
      </trkpt>
      <trkpt lat="42.78217" lon="0.59719">
        <ele>645.25</ele>
        <time>2018-07-29T13:32:36Z</time>
      </trkpt>
      <trkpt lat="42.78199" lon="0.59726">
        <ele>645.27</ele>
        <time>2018-07-29T13:32:38Z</time>
      </trkpt>
      <trkpt lat="42.78179" lon="0.59733">
        <ele>642.75</ele>
        <time>2018-07-29T13:32:40Z</time>
      </trkpt>
      <trkpt lat="42.78159" lon="0.59734">
        <ele>642.31</ele>
        <time>2018-07-29T13:32:42Z</time>
      </trkpt>
      <trkpt lat="42.78137" lon="0.59734">
        <ele>643.88</ele>
        <time>2018-07-29T13:32:44Z</time>
      </trkpt>
      <trkpt lat="42.78118" lon="0.59739">
        <ele>644.23</ele>
        <time>2018-07-29T13:32:46Z</time>
      </trkpt>
      <trkpt lat="42.78097" lon="0.5975">
        <ele>644.26</ele>
        <time>2018-07-29T13:32:48Z</time>
      </trkpt>
      <trkpt lat="42.78079" lon="0.59763">
        <ele>644.97</ele>
        <time>2018-07-29T13:32:50Z</time>
      </trkpt>
      <trkpt lat="42.78058" lon="0.59777">
        <ele>645.24</ele>
        <time>2018-07-29T13:32:52Z</time>
      </trkpt>
      <trkpt lat="42.78037" lon="0.5979">
        <ele>646.17</ele>
        <time>2018-07-29T13:32:54Z</time>
      </trkpt>
      <trkpt lat="42.78016" lon="0.59804">
        <ele>647.17</ele>
        <time>2018-07-29T13:32:56Z</time>
      </trkpt>
      <trkpt lat="42.77994" lon="0.59817">
        <ele>646.77</ele>
        <time>2018-07-29T13:32:58Z</time>
      </trkpt>
      <trkpt lat="42.77973" lon="0.59828">
        <ele>645.61</ele>
        <time>2018-07-29T13:33:00Z</time>
      </trkpt>
      <trkpt lat="42.7795" lon="0.59833">
        <ele>643.27</ele>
        <time>2018-07-29T13:33:02Z</time>
      </trkpt>
      <trkpt lat="42.77925" lon="0.59836">
        <ele>643.97</ele>
        <time>2018-07-29T13:33:04Z</time>
      </trkpt>
      <trkpt lat="42.77902" lon="0.59842">
        <ele>645.15</ele>
        <time>2018-07-29T13:33:06Z</time>
      </trkpt>
      <trkpt lat="42.77877" lon="0.59852">
        <ele>645.26</ele>
        <time>2018-07-29T13:33:08Z</time>
      </trkpt>
      <trkpt lat="42.77856" lon="0.59868">
        <ele>646.18</ele>
        <time>2018-07-29T13:33:10Z</time>
      </trkpt>
      <trkpt lat="42.77837" lon="0.59887">
        <ele>647.17</ele>
        <time>2018-07-29T13:33:12Z</time>
      </trkpt>
      <trkpt lat="42.77822" lon="0.59914">
        <ele>647.26</ele>
        <time>2018-07-29T13:33:14Z</time>
      </trkpt>
      <trkpt lat="42.77808" lon="0.59944">
        <ele>648.18</ele>
        <time>2018-07-29T13:33:16Z</time>
      </trkpt>
      <trkpt lat="42.77794" lon="0.59972">
        <ele>648.26</ele>
        <time>2018-07-29T13:33:18Z</time>
      </trkpt>
      <trkpt lat="42.77779" lon="0.59999">
        <ele>648.76</ele>
        <time>2018-07-29T13:33:20Z</time>
      </trkpt>
      <trkpt lat="42.77761" lon="0.60021">
        <ele>650.13</ele>
        <time>2018-07-29T13:33:22Z</time>
      </trkpt>
      <trkpt lat="42.77741" lon="0.60039">
        <ele>651.16</ele>
        <time>2018-07-29T13:33:24Z</time>
      </trkpt>
      <trkpt lat="42.77718" lon="0.60054">
        <ele>650.35</ele>
        <time>2018-07-29T13:33:26Z</time>
      </trkpt>
      <trkpt lat="42.77695" lon="0.60065">
        <ele>650.97</ele>
        <time>2018-07-29T13:33:28Z</time>
      </trkpt>
      <trkpt lat="42.77672" lon="0.60075">
        <ele>652.15</ele>
        <time>2018-07-29T13:33:30Z</time>
      </trkpt>
      <trkpt lat="42.77647" lon="0.60077">
        <ele>653.87</ele>
        <time>2018-07-29T13:33:32Z</time>
      </trkpt>
      <trkpt lat="42.77621" lon="0.60072">
        <ele>654.93</ele>
        <time>2018-07-29T13:33:34Z</time>
      </trkpt>
      <trkpt lat="42.77596" lon="0.60072">
        <ele>655.94</ele>
        <time>2018-07-29T13:33:36Z</time>
      </trkpt>
      <trkpt lat="42.77574" lon="0.60087">
        <ele>656.94</ele>
        <time>2018-07-29T13:33:38Z</time>
      </trkpt>
      <trkpt lat="42.77555" lon="0.60108">
        <ele>656.54</ele>
        <time>2018-07-29T13:33:40Z</time>
      </trkpt>
      <trkpt lat="42.77535" lon="0.60131">
        <ele>655.59</ele>
        <time>2018-07-29T13:33:42Z</time>
      </trkpt>
      <trkpt lat="42.77512" lon="0.60148">
        <ele>657.82</ele>
        <time>2018-07-29T13:33:44Z</time>
      </trkpt>
      <trkpt lat="42.77489" lon="0.60164">
        <ele>658.93</ele>
        <time>2018-07-29T13:33:46Z</time>
      </trkpt>
      <trkpt lat="42.77464" lon="0.60178">
        <ele>659.24</ele>
        <time>2018-07-29T13:33:48Z</time>
      </trkpt>
      <trkpt lat="42.77439" lon="0.60192">
        <ele>659.26</ele>
        <time>2018-07-29T13:33:50Z</time>
      </trkpt>
      <trkpt lat="42.7741" lon="0.60211">
        <ele>661.37</ele>
        <time>2018-07-29T13:33:52Z</time>
      </trkpt>
      <trkpt lat="42.77394" lon="0.60225">
        <ele>662.7</ele>
        <time>2018-07-29T13:33:53Z</time>
      </trkpt>
      <trkpt lat="42.77377" lon="0.60239">
        <ele>663.1</ele>
        <time>2018-07-29T13:33:54Z</time>
      </trkpt>
      <trkpt lat="42.77361" lon="0.60253">
        <ele>663.22</ele>
        <time>2018-07-29T13:33:55Z</time>
      </trkpt>
      <trkpt lat="42.77343" lon="0.60268">
        <ele>663.25</ele>
        <time>2018-07-29T13:33:56Z</time>
      </trkpt>
      <trkpt lat="42.77323" lon="0.60284">
        <ele>663.96</ele>
        <time>2018-07-29T13:33:57Z</time>
      </trkpt>
      <trkpt lat="42.77304" lon="0.60298">
        <ele>664.88</ele>
        <time>2018-07-29T13:33:58Z</time>
      </trkpt>
      <trkpt lat="42.77285" lon="0.60312">
        <ele>667.25</ele>
        <time>2018-07-29T13:33:59Z</time>
      </trkpt>
      <trkpt lat="42.77266" lon="0.60324">
        <ele>669.36</ele>
        <time>2018-07-29T13:34:00Z</time>
      </trkpt>
      <trkpt lat="42.77247" lon="0.60332">
        <ele>672.8</ele>
        <time>2018-07-29T13:34:01Z</time>
      </trkpt>
      <trkpt lat="42.77227" lon="0.60339">
        <ele>674.53</ele>
        <time>2018-07-29T13:34:02Z</time>
      </trkpt>
      <trkpt lat="42.77209" lon="0.60341">
        <ele>677.14</ele>
        <time>2018-07-29T13:34:03Z</time>
      </trkpt>
      <trkpt lat="42.77189" lon="0.60345">
        <ele>680.03</ele>
        <time>2018-07-29T13:34:04Z</time>
      </trkpt>
      <trkpt lat="42.77154" lon="0.60351">
        <ele>683.47</ele>
        <time>2018-07-29T13:34:06Z</time>
      </trkpt>
      <trkpt lat="42.77135" lon="0.60349">
        <ele>685.43</ele>
        <time>2018-07-29T13:34:07Z</time>
      </trkpt>
      <trkpt lat="42.77116" lon="0.60347">
        <ele>686.71</ele>
        <time>2018-07-29T13:34:08Z</time>
      </trkpt>
      <trkpt lat="42.77082" lon="0.60341">
        <ele>687.22</ele>
        <time>2018-07-29T13:34:10Z</time>
      </trkpt>
      <trkpt lat="42.77048" lon="0.60341">
        <ele>687.26</ele>
        <time>2018-07-29T13:34:12Z</time>
      </trkpt>
      <trkpt lat="42.77014" lon="0.60352">
        <ele>688.18</ele>
        <time>2018-07-29T13:34:14Z</time>
      </trkpt>
      <trkpt lat="42.7699" lon="0.60379">
        <ele>688.26</ele>
        <time>2018-07-29T13:34:16Z</time>
      </trkpt>
      <trkpt lat="42.76976" lon="0.60402">
        <ele>688.26</ele>
        <time>2018-07-29T13:34:17Z</time>
      </trkpt>
      <trkpt lat="42.76959" lon="0.6044">
        <ele>688.27</ele>
        <time>2018-07-29T13:34:18Z</time>
      </trkpt>
      <trkpt lat="42.76947" lon="0.60469">
        <ele>688.27</ele>
        <time>2018-07-29T13:34:19Z</time>
      </trkpt>
      <trkpt lat="42.76939" lon="0.60495">
        <ele>691.07</ele>
        <time>2018-07-29T13:34:20Z</time>
      </trkpt>
      <trkpt lat="42.76926" lon="0.60516">
        <ele>694.01</ele>
        <time>2018-07-29T13:34:21Z</time>
      </trkpt>
      <trkpt lat="42.76907" lon="0.60547">
        <ele>695.15</ele>
        <time>2018-07-29T13:34:23Z</time>
      </trkpt>
      <trkpt lat="42.76867" lon="0.60564">
        <ele>694.77</ele>
        <time>2018-07-29T13:34:25Z</time>
      </trkpt>
      <trkpt lat="42.76843" lon="0.60565">
        <ele>695.12</ele>
        <time>2018-07-29T13:34:26Z</time>
      </trkpt>
      <trkpt lat="42.76824" lon="0.60572">
        <ele>695.92</ele>
        <time>2018-07-29T13:34:27Z</time>
      </trkpt>
      <trkpt lat="42.76794" lon="0.60599">
        <ele>698.06</ele>
        <time>2018-07-29T13:34:29Z</time>
      </trkpt>
      <trkpt lat="42.76775" lon="0.60614">
        <ele>698.9</ele>
        <time>2018-07-29T13:34:30Z</time>
      </trkpt>
      <trkpt lat="42.76755" lon="0.60629">
        <ele>699.16</ele>
        <time>2018-07-29T13:34:31Z</time>
      </trkpt>
      <trkpt lat="42.76738" lon="0.60656">
        <ele>700.63</ele>
        <time>2018-07-29T13:34:32Z</time>
      </trkpt>
      <trkpt lat="42.76722" lon="0.60677">
        <ele>702.48</ele>
        <time>2018-07-29T13:34:33Z</time>
      </trkpt>
      <trkpt lat="42.76708" lon="0.60699">
        <ele>703.73</ele>
        <time>2018-07-29T13:34:34Z</time>
      </trkpt>
      <trkpt lat="42.76697" lon="0.60724">
        <ele>708.31</ele>
        <time>2018-07-29T13:34:35Z</time>
      </trkpt>
      <trkpt lat="42.76683" lon="0.60747">
        <ele>712.48</ele>
        <time>2018-07-29T13:34:36Z</time>
      </trkpt>
      <trkpt lat="42.76671" lon="0.6077">
        <ele>716.53</ele>
        <time>2018-07-29T13:34:37Z</time>
      </trkpt>
      <trkpt lat="42.76659" lon="0.60792">
        <ele>719.85</ele>
        <time>2018-07-29T13:34:38Z</time>
      </trkpt>
      <trkpt lat="42.76646" lon="0.60815">
        <ele>722.94</ele>
        <time>2018-07-29T13:34:39Z</time>
      </trkpt>
      <trkpt lat="42.76634" lon="0.60835">
        <ele>725.97</ele>
        <time>2018-07-29T13:34:40Z</time>
      </trkpt>
      <trkpt lat="42.76622" lon="0.60856">
        <ele>729.68</ele>
        <time>2018-07-29T13:34:41Z</time>
      </trkpt>
      <trkpt lat="42.76609" lon="0.60876">
        <ele>733.59</ele>
        <time>2018-07-29T13:34:42Z</time>
      </trkpt>
      <trkpt lat="42.76596" lon="0.60894">
        <ele>737.56</ele>
        <time>2018-07-29T13:34:43Z</time>
      </trkpt>
      <trkpt lat="42.76572" lon="0.60925">
        <ele>740.72</ele>
        <time>2018-07-29T13:34:45Z</time>
      </trkpt>
      <trkpt lat="42.76554" lon="0.60935">
        <ele>741.8</ele>
        <time>2018-07-29T13:34:46Z</time>
      </trkpt>
      <trkpt lat="42.76536" lon="0.60939">
        <ele>743.53</ele>
        <time>2018-07-29T13:34:47Z</time>
      </trkpt>
      <trkpt lat="42.76516" lon="0.60935">
        <ele>745.45</ele>
        <time>2018-07-29T13:34:48Z</time>
      </trkpt>
      <trkpt lat="42.76495" lon="0.60939">
        <ele>747.42</ele>
        <time>2018-07-29T13:34:49Z</time>
      </trkpt>
      <trkpt lat="42.76475" lon="0.60933">
        <ele>749.41</ele>
        <time>2018-07-29T13:34:50Z</time>
      </trkpt>
      <trkpt lat="42.76453" lon="0.60922">
        <ele>752.81</ele>
        <time>2018-07-29T13:34:51Z</time>
      </trkpt>
      <trkpt lat="42.7643" lon="0.60916">
        <ele>755.93</ele>
        <time>2018-07-29T13:34:52Z</time>
      </trkpt>
      <trkpt lat="42.76409" lon="0.6091">
        <ele>758.27</ele>
        <time>2018-07-29T13:34:53Z</time>
      </trkpt>
      <trkpt lat="42.76387" lon="0.60907">
        <ele>760.37</ele>
        <time>2018-07-29T13:34:54Z</time>
      </trkpt>
      <trkpt lat="42.76366" lon="0.60903">
        <ele>762.4</ele>
        <time>2018-07-29T13:34:55Z</time>
      </trkpt>
      <trkpt lat="42.76346" lon="0.609">
        <ele>764.41</ele>
        <time>2018-07-29T13:34:56Z</time>
      </trkpt>
      <trkpt lat="42.76327" lon="0.60895">
        <ele>766.41</ele>
        <time>2018-07-29T13:34:57Z</time>
      </trkpt>
      <trkpt lat="42.76309" lon="0.60894">
        <ele>768.41</ele>
        <time>2018-07-29T13:34:58Z</time>
      </trkpt>
      <trkpt lat="42.76275" lon="0.60887">
        <ele>772.62</ele>
        <time>2018-07-29T13:35:00Z</time>
      </trkpt>
      <trkpt lat="42.76241" lon="0.60881">
        <ele>776.64</ele>
        <time>2018-07-29T13:35:02Z</time>
      </trkpt>
      <trkpt lat="42.76208" lon="0.60874">
        <ele>777.42</ele>
        <time>2018-07-29T13:35:04Z</time>
      </trkpt>
      <trkpt lat="42.76172" lon="0.60867">
        <ele>778.89</ele>
        <time>2018-07-29T13:35:06Z</time>
      </trkpt>
      <trkpt lat="42.76138" lon="0.6086">
        <ele>781.54</ele>
        <time>2018-07-29T13:35:08Z</time>
      </trkpt>
      <trkpt lat="42.76104" lon="0.60851">
        <ele>782.41</ele>
        <time>2018-07-29T13:35:10Z</time>
      </trkpt>
      <trkpt lat="42.76073" lon="0.60841">
        <ele>782.98</ele>
        <time>2018-07-29T13:35:12Z</time>
      </trkpt>
      <trkpt lat="42.76044" lon="0.6082">
        <ele>784.85</ele>
        <time>2018-07-29T13:35:14Z</time>
      </trkpt>
      <trkpt lat="42.76018" lon="0.60804">
        <ele>786.84</ele>
        <time>2018-07-29T13:35:16Z</time>
      </trkpt>
      <trkpt lat="42.75998" lon="0.60796">
        <ele>787.23</ele>
        <time>2018-07-29T13:35:18Z</time>
      </trkpt>
      <trkpt lat="42.7598" lon="0.60789">
        <ele>790.12</ele>
        <time>2018-07-29T13:35:21Z</time>
      </trkpt>
      <trkpt lat="42.75958" lon="0.6079">
        <ele>791.03</ele>
        <time>2018-07-29T13:35:26Z</time>
      </trkpt>
      <trkpt lat="42.75934" lon="0.60789">
        <ele>791.95</ele>
        <time>2018-07-29T13:35:28Z</time>
      </trkpt>
      <trkpt lat="42.7591" lon="0.60783">
        <ele>792.24</ele>
        <time>2018-07-29T13:35:30Z</time>
      </trkpt>
      <trkpt lat="42.75885" lon="0.60779">
        <ele>794.08</ele>
        <time>2018-07-29T13:35:32Z</time>
      </trkpt>
      <trkpt lat="42.75858" lon="0.60784">
        <ele>794.25</ele>
        <time>2018-07-29T13:35:34Z</time>
      </trkpt>
      <trkpt lat="42.75826" lon="0.60797">
        <ele>794.27</ele>
        <time>2018-07-29T13:35:36Z</time>
      </trkpt>
      <trkpt lat="42.75808" lon="0.60801">
        <ele>794.97</ele>
        <time>2018-07-29T13:35:37Z</time>
      </trkpt>
      <trkpt lat="42.75776" lon="0.60814">
        <ele>795.94</ele>
        <time>2018-07-29T13:35:39Z</time>
      </trkpt>
      <trkpt lat="42.7576" lon="0.60825">
        <ele>796.17</ele>
        <time>2018-07-29T13:35:40Z</time>
      </trkpt>
      <trkpt lat="42.75742" lon="0.60836">
        <ele>795.54</ele>
        <time>2018-07-29T13:35:41Z</time>
      </trkpt>
      <trkpt lat="42.75726" lon="0.6085">
        <ele>796.75</ele>
        <time>2018-07-29T13:35:42Z</time>
      </trkpt>
      <trkpt lat="42.75719" lon="0.60875">
        <ele>798.51</ele>
        <time>2018-07-29T13:35:43Z</time>
      </trkpt>
      <trkpt lat="42.75706" lon="0.60894">
        <ele>801.84</ele>
        <time>2018-07-29T13:35:44Z</time>
      </trkpt>
      <trkpt lat="42.75683" lon="0.60926">
        <ele>800.2</ele>
        <time>2018-07-29T13:35:46Z</time>
      </trkpt>
      <trkpt lat="42.75652" lon="0.60941">
        <ele>799.35</ele>
        <time>2018-07-29T13:35:48Z</time>
      </trkpt>
      <trkpt lat="42.75614" lon="0.60942">
        <ele>800.18</ele>
        <time>2018-07-29T13:35:50Z</time>
      </trkpt>
      <trkpt lat="42.75594" lon="0.60937">
        <ele>800.94</ele>
        <time>2018-07-29T13:35:51Z</time>
      </trkpt>
      <trkpt lat="42.75572" lon="0.60928">
        <ele>801.87</ele>
        <time>2018-07-29T13:35:52Z</time>
      </trkpt>
      <trkpt lat="42.75547" lon="0.60922">
        <ele>802.85</ele>
        <time>2018-07-29T13:35:53Z</time>
      </trkpt>
      <trkpt lat="42.75525" lon="0.60917">
        <ele>803.14</ele>
        <time>2018-07-29T13:35:54Z</time>
      </trkpt>
      <trkpt lat="42.75499" lon="0.60913">
        <ele>804.63</ele>
        <time>2018-07-29T13:35:55Z</time>
      </trkpt>
      <trkpt lat="42.75477" lon="0.60912">
        <ele>805.08</ele>
        <time>2018-07-29T13:35:56Z</time>
      </trkpt>
      <trkpt lat="42.75454" lon="0.60908">
        <ele>805.91</ele>
        <time>2018-07-29T13:35:57Z</time>
      </trkpt>
      <trkpt lat="42.75433" lon="0.60904">
        <ele>807.56</ele>
        <time>2018-07-29T13:35:58Z</time>
      </trkpt>
      <trkpt lat="42.75412" lon="0.60899">
        <ele>810.15</ele>
        <time>2018-07-29T13:35:59Z</time>
      </trkpt>
      <trkpt lat="42.75392" lon="0.60892">
        <ele>812.33</ele>
        <time>2018-07-29T13:36:00Z</time>
      </trkpt>
      <trkpt lat="42.75374" lon="0.60884">
        <ele>812.99</ele>
        <time>2018-07-29T13:36:01Z</time>
      </trkpt>
      <trkpt lat="42.75357" lon="0.60875">
        <ele>814.58</ele>
        <time>2018-07-29T13:36:02Z</time>
      </trkpt>
      <trkpt lat="42.75322" lon="0.60862">
        <ele>816.12</ele>
        <time>2018-07-29T13:36:04Z</time>
      </trkpt>
      <trkpt lat="42.75289" lon="0.60857">
        <ele>816.95</ele>
        <time>2018-07-29T13:36:06Z</time>
      </trkpt>
      <trkpt lat="42.75254" lon="0.6087">
        <ele>817.24</ele>
        <time>2018-07-29T13:36:08Z</time>
      </trkpt>
      <trkpt lat="42.75234" lon="0.60879">
        <ele>817.96</ele>
        <time>2018-07-29T13:36:09Z</time>
      </trkpt>
      <trkpt lat="42.75214" lon="0.60888">
        <ele>819.57</ele>
        <time>2018-07-29T13:36:10Z</time>
      </trkpt>
      <trkpt lat="42.75196" lon="0.60898">
        <ele>820.76</ele>
        <time>2018-07-29T13:36:11Z</time>
      </trkpt>
      <trkpt lat="42.75177" lon="0.60905">
        <ele>821.11</ele>
        <time>2018-07-29T13:36:12Z</time>
      </trkpt>
      <trkpt lat="42.75158" lon="0.60911">
        <ele>822.62</ele>
        <time>2018-07-29T13:36:13Z</time>
      </trkpt>
      <trkpt lat="42.75139" lon="0.60916">
        <ele>824.47</ele>
        <time>2018-07-29T13:36:14Z</time>
      </trkpt>
      <trkpt lat="42.75119" lon="0.6092">
        <ele>825.03</ele>
        <time>2018-07-29T13:36:15Z</time>
      </trkpt>
      <trkpt lat="42.75099" lon="0.60924">
        <ele>825.2</ele>
        <time>2018-07-29T13:36:16Z</time>
      </trkpt>
      <trkpt lat="42.75078" lon="0.60927">
        <ele>825.95</ele>
        <time>2018-07-29T13:36:17Z</time>
      </trkpt>
      <trkpt lat="42.75058" lon="0.60931">
        <ele>824.77</ele>
        <time>2018-07-29T13:36:18Z</time>
      </trkpt>
      <trkpt lat="42.75037" lon="0.60937">
        <ele>825.82</ele>
        <time>2018-07-29T13:36:19Z</time>
      </trkpt>
      <trkpt lat="42.75017" lon="0.60942">
        <ele>826.83</ele>
        <time>2018-07-29T13:36:20Z</time>
      </trkpt>
      <trkpt lat="42.74996" lon="0.60949">
        <ele>825.64</ele>
        <time>2018-07-29T13:36:21Z</time>
      </trkpt>
      <trkpt lat="42.74977" lon="0.60955">
        <ele>825.28</ele>
        <time>2018-07-29T13:36:22Z</time>
      </trkpt>
      <trkpt lat="42.74957" lon="0.60962">
        <ele>826.58</ele>
        <time>2018-07-29T13:36:23Z</time>
      </trkpt>
      <trkpt lat="42.74938" lon="0.60972">
        <ele>827.66</ele>
        <time>2018-07-29T13:36:24Z</time>
      </trkpt>
      <trkpt lat="42.7492" lon="0.60987">
        <ele>827.99</ele>
        <time>2018-07-29T13:36:25Z</time>
      </trkpt>
      <trkpt lat="42.74902" lon="0.61002">
        <ele>828.79</ele>
        <time>2018-07-29T13:36:26Z</time>
      </trkpt>
      <trkpt lat="42.74884" lon="0.61019">
        <ele>829.73</ele>
        <time>2018-07-29T13:36:27Z</time>
      </trkpt>
      <trkpt lat="42.74867" lon="0.61037">
        <ele>831.41</ele>
        <time>2018-07-29T13:36:28Z</time>
      </trkpt>
      <trkpt lat="42.74849" lon="0.61051">
        <ele>833.31</ele>
        <time>2018-07-29T13:36:29Z</time>
      </trkpt>
      <trkpt lat="42.74831" lon="0.61064">
        <ele>834.59</ele>
        <time>2018-07-29T13:36:30Z</time>
      </trkpt>
      <trkpt lat="42.74813" lon="0.61077">
        <ele>835.67</ele>
        <time>2018-07-29T13:36:31Z</time>
      </trkpt>
      <trkpt lat="42.74795" lon="0.61089">
        <ele>836.69</ele>
        <time>2018-07-29T13:36:32Z</time>
      </trkpt>
      <trkpt lat="42.74776" lon="0.61099">
        <ele>837</ele>
        <time>2018-07-29T13:36:33Z</time>
      </trkpt>
      <trkpt lat="42.74756" lon="0.61102">
        <ele>839.19</ele>
        <time>2018-07-29T13:36:34Z</time>
      </trkpt>
      <trkpt lat="42.74737" lon="0.61108">
        <ele>841.25</ele>
        <time>2018-07-29T13:36:35Z</time>
      </trkpt>
      <trkpt lat="42.74719" lon="0.61117">
        <ele>842.57</ele>
        <time>2018-07-29T13:36:36Z</time>
      </trkpt>
      <trkpt lat="42.74702" lon="0.61124">
        <ele>843.66</ele>
        <time>2018-07-29T13:36:37Z</time>
      </trkpt>
      <trkpt lat="42.74674" lon="0.61133">
        <ele>845.7</ele>
        <time>2018-07-29T13:36:39Z</time>
      </trkpt>
      <trkpt lat="42.74648" lon="0.61134">
        <ele>847.7</ele>
        <time>2018-07-29T13:36:41Z</time>
      </trkpt>
      <trkpt lat="42.74622" lon="0.61134">
        <ele>850.7</ele>
        <time>2018-07-29T13:36:44Z</time>
      </trkpt>
      <trkpt lat="42.74603" lon="0.61138">
        <ele>853.71</ele>
        <time>2018-07-29T13:36:48Z</time>
      </trkpt>
      <trkpt lat="42.74584" lon="0.61134">
        <ele>857.31</ele>
        <time>2018-07-29T13:36:50Z</time>
      </trkpt>
      <trkpt lat="42.74565" lon="0.61136">
        <ele>858.76</ele>
        <time>2018-07-29T13:36:52Z</time>
      </trkpt>
      <trkpt lat="42.74546" lon="0.61144">
        <ele>859.1</ele>
        <time>2018-07-29T13:36:54Z</time>
      </trkpt>
      <trkpt lat="42.74527" lon="0.61143">
        <ele>861.65</ele>
        <time>2018-07-29T13:36:56Z</time>
      </trkpt>
      <trkpt lat="42.74506" lon="0.6113">
        <ele>865.8</ele>
        <time>2018-07-29T13:36:58Z</time>
      </trkpt>
      <trkpt lat="42.74485" lon="0.61122">
        <ele>870.44</ele>
        <time>2018-07-29T13:37:00Z</time>
      </trkpt>
      <trkpt lat="42.74466" lon="0.61127">
        <ele>872.68</ele>
        <time>2018-07-29T13:37:02Z</time>
      </trkpt>
      <trkpt lat="42.74452" lon="0.61151">
        <ele>875.4</ele>
        <time>2018-07-29T13:37:04Z</time>
      </trkpt>
      <trkpt lat="42.74431" lon="0.6117">
        <ele>877.67</ele>
        <time>2018-07-29T13:37:06Z</time>
      </trkpt>
      <trkpt lat="42.74407" lon="0.61182">
        <ele>880.61</ele>
        <time>2018-07-29T13:37:08Z</time>
      </trkpt>
      <trkpt lat="42.74379" lon="0.61184">
        <ele>882.69</ele>
        <time>2018-07-29T13:37:10Z</time>
      </trkpt>
      <trkpt lat="42.74352" lon="0.61191">
        <ele>883.09</ele>
        <time>2018-07-29T13:37:12Z</time>
      </trkpt>
      <trkpt lat="42.74329" lon="0.61209">
        <ele>883.83</ele>
        <time>2018-07-29T13:37:14Z</time>
      </trkpt>
      <trkpt lat="42.74311" lon="0.61239">
        <ele>888.23</ele>
        <time>2018-07-29T13:37:16Z</time>
      </trkpt>
      <trkpt lat="42.74297" lon="0.6127">
        <ele>890.66</ele>
        <time>2018-07-29T13:37:18Z</time>
      </trkpt>
      <trkpt lat="42.74283" lon="0.61301">
        <ele>892</ele>
        <time>2018-07-29T13:37:20Z</time>
      </trkpt>
      <trkpt lat="42.74262" lon="0.61327">
        <ele>892.82</ele>
        <time>2018-07-29T13:37:22Z</time>
      </trkpt>
      <trkpt lat="42.7424" lon="0.61351">
        <ele>893.8</ele>
        <time>2018-07-29T13:37:24Z</time>
      </trkpt>
      <trkpt lat="42.74222" lon="0.61376">
        <ele>895.71</ele>
        <time>2018-07-29T13:37:26Z</time>
      </trkpt>
      <trkpt lat="42.74209" lon="0.61409">
        <ele>895.18</ele>
        <time>2018-07-29T13:37:28Z</time>
      </trkpt>
      <trkpt lat="42.74197" lon="0.6144">
        <ele>895.83</ele>
        <time>2018-07-29T13:37:30Z</time>
      </trkpt>
      <trkpt lat="42.74185" lon="0.61467">
        <ele>895.4</ele>
        <time>2018-07-29T13:37:32Z</time>
      </trkpt>
      <trkpt lat="42.74166" lon="0.61475">
        <ele>895.07</ele>
        <time>2018-07-29T13:37:35Z</time>
      </trkpt>
      <trkpt lat="42.74145" lon="0.61452">
        <ele>894.86</ele>
        <time>2018-07-29T13:37:38Z</time>
      </trkpt>
      <trkpt lat="42.74127" lon="0.61448">
        <ele>894.41</ele>
        <time>2018-07-29T13:37:40Z</time>
      </trkpt>
      <trkpt lat="42.74106" lon="0.61453">
        <ele>893.24</ele>
        <time>2018-07-29T13:37:42Z</time>
      </trkpt>
      <trkpt lat="42.74085" lon="0.61481">
        <ele>894.96</ele>
        <time>2018-07-29T13:37:44Z</time>
      </trkpt>
      <trkpt lat="42.74065" lon="0.61505">
        <ele>895.11</ele>
        <time>2018-07-29T13:37:46Z</time>
      </trkpt>
      <trkpt lat="42.74045" lon="0.61536">
        <ele>897.23</ele>
        <time>2018-07-29T13:37:48Z</time>
      </trkpt>
      <trkpt lat="42.74027" lon="0.61569">
        <ele>901.48</ele>
        <time>2018-07-29T13:37:50Z</time>
      </trkpt>
      <trkpt lat="42.74009" lon="0.61606">
        <ele>902.07</ele>
        <time>2018-07-29T13:37:52Z</time>
      </trkpt>
      <trkpt lat="42.73993" lon="0.61645">
        <ele>903.94</ele>
        <time>2018-07-29T13:37:54Z</time>
      </trkpt>
      <trkpt lat="42.73978" lon="0.61684">
        <ele>904.81</ele>
        <time>2018-07-29T13:37:56Z</time>
      </trkpt>
      <trkpt lat="42.73964" lon="0.61715">
        <ele>906.92</ele>
        <time>2018-07-29T13:37:58Z</time>
      </trkpt>
      <trkpt lat="42.73947" lon="0.61744">
        <ele>908.93</ele>
        <time>2018-07-29T13:38:00Z</time>
      </trkpt>
      <trkpt lat="42.73926" lon="0.61772">
        <ele>910.51</ele>
        <time>2018-07-29T13:38:02Z</time>
      </trkpt>
      <trkpt lat="42.73918" lon="0.61811">
        <ele>912.47</ele>
        <time>2018-07-29T13:38:04Z</time>
      </trkpt>
      <trkpt lat="42.73909" lon="0.61852">
        <ele>912.16</ele>
        <time>2018-07-29T13:38:06Z</time>
      </trkpt>
      <trkpt lat="42.73897" lon="0.61889">
        <ele>911.43</ele>
        <time>2018-07-29T13:38:08Z</time>
      </trkpt>
      <trkpt lat="42.73874" lon="0.61922">
        <ele>911.16</ele>
        <time>2018-07-29T13:38:10Z</time>
      </trkpt>
      <trkpt lat="42.73849" lon="0.61955">
        <ele>911.83</ele>
        <time>2018-07-29T13:38:12Z</time>
      </trkpt>
      <trkpt lat="42.73825" lon="0.61988">
        <ele>914.62</ele>
        <time>2018-07-29T13:38:14Z</time>
      </trkpt>
      <trkpt lat="42.73802" lon="0.6202">
        <ele>914.87</ele>
        <time>2018-07-29T13:38:16Z</time>
      </trkpt>
      <trkpt lat="42.73774" lon="0.62046">
        <ele>915.81</ele>
        <time>2018-07-29T13:38:18Z</time>
      </trkpt>
      <trkpt lat="42.73745" lon="0.62078">
        <ele>916.8</ele>
        <time>2018-07-29T13:38:20Z</time>
      </trkpt>
      <trkpt lat="42.73733" lon="0.62099">
        <ele>917.73</ele>
        <time>2018-07-29T13:38:21Z</time>
      </trkpt>
      <trkpt lat="42.73721" lon="0.62119">
        <ele>919.41</ele>
        <time>2018-07-29T13:38:22Z</time>
      </trkpt>
      <trkpt lat="42.73708" lon="0.62138">
        <ele>921.31</ele>
        <time>2018-07-29T13:38:23Z</time>
      </trkpt>
      <trkpt lat="42.73695" lon="0.62157">
        <ele>922.59</ele>
        <time>2018-07-29T13:38:24Z</time>
      </trkpt>
      <trkpt lat="42.73683" lon="0.62176">
        <ele>923.67</ele>
        <time>2018-07-29T13:38:25Z</time>
      </trkpt>
      <trkpt lat="42.7367" lon="0.62192">
        <ele>925.39</ele>
        <time>2018-07-29T13:38:26Z</time>
      </trkpt>
      <trkpt lat="42.73642" lon="0.62218">
        <ele>928.37</ele>
        <time>2018-07-29T13:38:28Z</time>
      </trkpt>
      <trkpt lat="42.73626" lon="0.62231">
        <ele>930.3</ele>
        <time>2018-07-29T13:38:29Z</time>
      </trkpt>
      <trkpt lat="42.73603" lon="0.62265">
        <ele>935.19</ele>
        <time>2018-07-29T13:38:31Z</time>
      </trkpt>
      <trkpt lat="42.73581" lon="0.62301">
        <ele>937.45</ele>
        <time>2018-07-29T13:38:33Z</time>
      </trkpt>
      <trkpt lat="42.73557" lon="0.62334">
        <ele>940.59</ele>
        <time>2018-07-29T13:38:35Z</time>
      </trkpt>
      <trkpt lat="42.73528" lon="0.62362">
        <ele>942.69</ele>
        <time>2018-07-29T13:38:37Z</time>
      </trkpt>
      <trkpt lat="42.73498" lon="0.62388">
        <ele>944.7</ele>
        <time>2018-07-29T13:38:39Z</time>
      </trkpt>
      <trkpt lat="42.73469" lon="0.62417">
        <ele>945.79</ele>
        <time>2018-07-29T13:38:41Z</time>
      </trkpt>
      <trkpt lat="42.73441" lon="0.62446">
        <ele>948.62</ele>
        <time>2018-07-29T13:38:43Z</time>
      </trkpt>
      <trkpt lat="42.73426" lon="0.62461">
        <ele>950.38</ele>
        <time>2018-07-29T13:38:44Z</time>
      </trkpt>
      <trkpt lat="42.73397" lon="0.62487">
        <ele>954.07</ele>
        <time>2018-07-29T13:38:46Z</time>
      </trkpt>
      <trkpt lat="42.73381" lon="0.62499">
        <ele>956.21</ele>
        <time>2018-07-29T13:38:47Z</time>
      </trkpt>
      <trkpt lat="42.73366" lon="0.62511">
        <ele>958.95</ele>
        <time>2018-07-29T13:38:48Z</time>
      </trkpt>
      <trkpt lat="42.73348" lon="0.62522">
        <ele>960.48</ele>
        <time>2018-07-29T13:38:49Z</time>
      </trkpt>
      <trkpt lat="42.73319" lon="0.62543">
        <ele>962.47</ele>
        <time>2018-07-29T13:38:51Z</time>
      </trkpt>
      <trkpt lat="42.73302" lon="0.62555">
        <ele>964.33</ele>
        <time>2018-07-29T13:38:52Z</time>
      </trkpt>
      <trkpt lat="42.73271" lon="0.62576">
        <ele>965.97</ele>
        <time>2018-07-29T13:38:54Z</time>
      </trkpt>
      <trkpt lat="42.73242" lon="0.62594">
        <ele>967.52</ele>
        <time>2018-07-29T13:38:56Z</time>
      </trkpt>
      <trkpt lat="42.73214" lon="0.62613">
        <ele>970.59</ele>
        <time>2018-07-29T13:38:58Z</time>
      </trkpt>
      <trkpt lat="42.73183" lon="0.6263">
        <ele>974.09</ele>
        <time>2018-07-29T13:39:00Z</time>
      </trkpt>
      <trkpt lat="42.73166" lon="0.6264">
        <ele>976.92</ele>
        <time>2018-07-29T13:39:01Z</time>
      </trkpt>
      <trkpt lat="42.73149" lon="0.6265">
        <ele>978.47</ele>
        <time>2018-07-29T13:39:02Z</time>
      </trkpt>
      <trkpt lat="42.7313" lon="0.6266">
        <ele>979.63</ele>
        <time>2018-07-29T13:39:03Z</time>
      </trkpt>
      <trkpt lat="42.73113" lon="0.6267">
        <ele>979.98</ele>
        <time>2018-07-29T13:39:04Z</time>
      </trkpt>
      <trkpt lat="42.73093" lon="0.62679">
        <ele>980.79</ele>
        <time>2018-07-29T13:39:05Z</time>
      </trkpt>
      <trkpt lat="42.73072" lon="0.62687">
        <ele>984.53</ele>
        <time>2018-07-29T13:39:06Z</time>
      </trkpt>
      <trkpt lat="42.7305" lon="0.62694">
        <ele>987.05</ele>
        <time>2018-07-29T13:39:07Z</time>
      </trkpt>
      <trkpt lat="42.73032" lon="0.62704">
        <ele>988.51</ele>
        <time>2018-07-29T13:39:08Z</time>
      </trkpt>
      <trkpt lat="42.73014" lon="0.62712">
        <ele>991.04</ele>
        <time>2018-07-29T13:39:09Z</time>
      </trkpt>
      <trkpt lat="42.72982" lon="0.62727">
        <ele>995.46</ele>
        <time>2018-07-29T13:39:11Z</time>
      </trkpt>
      <trkpt lat="42.72957" lon="0.62746">
        <ele>997.68</ele>
        <time>2018-07-29T13:39:13Z</time>
      </trkpt>
      <trkpt lat="42.72932" lon="0.62771">
        <ele>999.7</ele>
        <time>2018-07-29T13:39:15Z</time>
      </trkpt>
      <trkpt lat="42.72908" lon="0.62797">
        <ele>1001.7</ele>
        <time>2018-07-29T13:39:17Z</time>
      </trkpt>
      <trkpt lat="42.72882" lon="0.62823">
        <ele>1003.7</ele>
        <time>2018-07-29T13:39:19Z</time>
      </trkpt>
      <trkpt lat="42.72858" lon="0.62854">
        <ele>1003.39</ele>
        <time>2018-07-29T13:39:21Z</time>
      </trkpt>
      <trkpt lat="42.72832" lon="0.6288">
        <ele>1004.06</ele>
        <time>2018-07-29T13:39:23Z</time>
      </trkpt>
      <trkpt lat="42.72805" lon="0.62895">
        <ele>1004.12</ele>
        <time>2018-07-29T13:39:25Z</time>
      </trkpt>
      <trkpt lat="42.72779" lon="0.62898">
        <ele>1006.44</ele>
        <time>2018-07-29T13:39:27Z</time>
      </trkpt>
      <trkpt lat="42.72753" lon="0.62891">
        <ele>1007.77</ele>
        <time>2018-07-29T13:39:29Z</time>
      </trkpt>
      <trkpt lat="42.72729" lon="0.62886">
        <ele>1006.28</ele>
        <time>2018-07-29T13:39:31Z</time>
      </trkpt>
      <trkpt lat="42.72707" lon="0.62902">
        <ele>1006.83</ele>
        <time>2018-07-29T13:39:34Z</time>
      </trkpt>
      <trkpt lat="42.72708" lon="0.62932">
        <ele>1007.1</ele>
        <time>2018-07-29T13:39:36Z</time>
      </trkpt>
      <trkpt lat="42.72717" lon="0.62969">
        <ele>1009.44</ele>
        <time>2018-07-29T13:39:38Z</time>
      </trkpt>
      <trkpt lat="42.72727" lon="0.63008">
        <ele>1010.07</ele>
        <time>2018-07-29T13:39:40Z</time>
      </trkpt>
      <trkpt lat="42.7273" lon="0.63049">
        <ele>1010.12</ele>
        <time>2018-07-29T13:39:42Z</time>
      </trkpt>
      <trkpt lat="42.72726" lon="0.63092">
        <ele>1012.65</ele>
        <time>2018-07-29T13:39:44Z</time>
      </trkpt>
      <trkpt lat="42.72723" lon="0.63138">
        <ele>1012.88</ele>
        <time>2018-07-29T13:39:46Z</time>
      </trkpt>
      <trkpt lat="42.72721" lon="0.63163">
        <ele>1013.75</ele>
        <time>2018-07-29T13:39:47Z</time>
      </trkpt>
      <trkpt lat="42.7272" lon="0.63209">
        <ele>1016.41</ele>
        <time>2018-07-29T13:39:49Z</time>
      </trkpt>
      <trkpt lat="42.72714" lon="0.63249">
        <ele>1022.1</ele>
        <time>2018-07-29T13:39:51Z</time>
      </trkpt>
      <trkpt lat="42.72704" lon="0.63285">
        <ele>1026.68</ele>
        <time>2018-07-29T13:39:53Z</time>
      </trkpt>
      <trkpt lat="42.72697" lon="0.63312">
        <ele>1029.4</ele>
        <time>2018-07-29T13:39:55Z</time>
      </trkpt>
      <trkpt lat="42.72706" lon="0.63278">
        <ele>1037.79</ele>
        <time>2018-07-29T13:40:03Z</time>
      </trkpt>
      <trkpt lat="42.72706" lon="0.63243">
        <ele>1038.31</ele>
        <time>2018-07-29T13:40:05Z</time>
      </trkpt>
      <trkpt lat="42.72704" lon="0.63198">
        <ele>1039.06</ele>
        <time>2018-07-29T13:40:07Z</time>
      </trkpt>
      <trkpt lat="42.72704" lon="0.63152">
        <ele>1041.64</ele>
        <time>2018-07-29T13:40:09Z</time>
      </trkpt>
      <trkpt lat="42.727" lon="0.63108">
        <ele>1044.61</ele>
        <time>2018-07-29T13:40:11Z</time>
      </trkpt>
      <trkpt lat="42.72697" lon="0.63068">
        <ele>1047.6</ele>
        <time>2018-07-29T13:40:13Z</time>
      </trkpt>
      <trkpt lat="42.72692" lon="0.63033">
        <ele>1052.21</ele>
        <time>2018-07-29T13:40:15Z</time>
      </trkpt>
      <trkpt lat="42.72686" lon="0.63005">
        <ele>1054.66</ele>
        <time>2018-07-29T13:40:17Z</time>
      </trkpt>
      <trkpt lat="42.72674" lon="0.6298">
        <ele>1058.67</ele>
        <time>2018-07-29T13:40:20Z</time>
      </trkpt>
      <trkpt lat="42.7266" lon="0.63012">
        <ele>1062.4</ele>
        <time>2018-07-29T13:40:23Z</time>
      </trkpt>
      <trkpt lat="42.72674" lon="0.63055">
        <ele>1066.07</ele>
        <time>2018-07-29T13:40:25Z</time>
      </trkpt>
      <trkpt lat="42.72674" lon="0.63095">
        <ele>1070.95</ele>
        <time>2018-07-29T13:40:27Z</time>
      </trkpt>
      <trkpt lat="42.7267" lon="0.63138">
        <ele>1073.63</ele>
        <time>2018-07-29T13:40:29Z</time>
      </trkpt>
      <trkpt lat="42.72662" lon="0.63178">
        <ele>1075.49</ele>
        <time>2018-07-29T13:40:31Z</time>
      </trkpt>
      <trkpt lat="42.72648" lon="0.63214">
        <ele>1078.59</ele>
        <time>2018-07-29T13:40:33Z</time>
      </trkpt>
      <trkpt lat="42.72631" lon="0.63247">
        <ele>1081.11</ele>
        <time>2018-07-29T13:40:35Z</time>
      </trkpt>
      <trkpt lat="42.72616" lon="0.63279">
        <ele>1082.04</ele>
        <time>2018-07-29T13:40:37Z</time>
      </trkpt>
      <trkpt lat="42.72614" lon="0.63313">
        <ele>1085.13</ele>
        <time>2018-07-29T13:40:39Z</time>
      </trkpt>
      <trkpt lat="42.72611" lon="0.63354">
        <ele>1091.08</ele>
        <time>2018-07-29T13:40:41Z</time>
      </trkpt>
      <trkpt lat="42.72605" lon="0.63399">
        <ele>1097.78</ele>
        <time>2018-07-29T13:40:43Z</time>
      </trkpt>
      <trkpt lat="42.72603" lon="0.63425">
        <ele>1100.82</ele>
        <time>2018-07-29T13:40:44Z</time>
      </trkpt>
      <trkpt lat="42.72601" lon="0.63449">
        <ele>1104.54</ele>
        <time>2018-07-29T13:40:45Z</time>
      </trkpt>
      <trkpt lat="42.72598" lon="0.63497">
        <ele>1110.12</ele>
        <time>2018-07-29T13:40:47Z</time>
      </trkpt>
      <trkpt lat="42.72595" lon="0.63521">
        <ele>1110.83</ele>
        <time>2018-07-29T13:40:48Z</time>
      </trkpt>
      <trkpt lat="42.72591" lon="0.63567">
        <ele>1112.71</ele>
        <time>2018-07-29T13:40:50Z</time>
      </trkpt>
      <trkpt lat="42.72581" lon="0.63611">
        <ele>1115.61</ele>
        <time>2018-07-29T13:40:52Z</time>
      </trkpt>
      <trkpt lat="42.72565" lon="0.63651">
        <ele>1122.52</ele>
        <time>2018-07-29T13:40:54Z</time>
      </trkpt>
      <trkpt lat="42.72548" lon="0.63694">
        <ele>1128.82</ele>
        <time>2018-07-29T13:40:56Z</time>
      </trkpt>
      <trkpt lat="42.7254" lon="0.63716">
        <ele>1131.14</ele>
        <time>2018-07-29T13:40:57Z</time>
      </trkpt>
      <trkpt lat="42.72522" lon="0.63758">
        <ele>1136.87</ele>
        <time>2018-07-29T13:40:59Z</time>
      </trkpt>
      <trkpt lat="42.72504" lon="0.63797">
        <ele>1141.73</ele>
        <time>2018-07-29T13:41:01Z</time>
      </trkpt>
      <trkpt lat="42.72488" lon="0.63838">
        <ele>1146.43</ele>
        <time>2018-07-29T13:41:03Z</time>
      </trkpt>
      <trkpt lat="42.72475" lon="0.6388">
        <ele>1149.59</ele>
        <time>2018-07-29T13:41:05Z</time>
      </trkpt>
      <trkpt lat="42.72459" lon="0.63922">
        <ele>1152.81</ele>
        <time>2018-07-29T13:41:07Z</time>
      </trkpt>
      <trkpt lat="42.72449" lon="0.63942">
        <ele>1154.43</ele>
        <time>2018-07-29T13:41:08Z</time>
      </trkpt>
      <trkpt lat="42.72439" lon="0.63963">
        <ele>1155.62</ele>
        <time>2018-07-29T13:41:09Z</time>
      </trkpt>
      <trkpt lat="42.7242" lon="0.64002">
        <ele>1158.6</ele>
        <time>2018-07-29T13:41:11Z</time>
      </trkpt>
      <trkpt lat="42.72399" lon="0.64038">
        <ele>1159.78</ele>
        <time>2018-07-29T13:41:13Z</time>
      </trkpt>
      <trkpt lat="42.72387" lon="0.64074">
        <ele>1165.84</ele>
        <time>2018-07-29T13:41:15Z</time>
      </trkpt>
      <trkpt lat="42.72368" lon="0.64101">
        <ele>1168.62</ele>
        <time>2018-07-29T13:41:17Z</time>
      </trkpt>
      <trkpt lat="42.72342" lon="0.64119">
        <ele>1169.78</ele>
        <time>2018-07-29T13:41:19Z</time>
      </trkpt>
      <trkpt lat="42.72322" lon="0.64144">
        <ele>1174.02</ele>
        <time>2018-07-29T13:41:21Z</time>
      </trkpt>
      <trkpt lat="42.72305" lon="0.64178">
        <ele>1176.64</ele>
        <time>2018-07-29T13:41:23Z</time>
      </trkpt>
      <trkpt lat="42.72298" lon="0.64219">
        <ele>1181.01</ele>
        <time>2018-07-29T13:41:25Z</time>
      </trkpt>
      <trkpt lat="42.72286" lon="0.64251">
        <ele>1186.86</ele>
        <time>2018-07-29T13:41:27Z</time>
      </trkpt>
      <trkpt lat="42.72269" lon="0.64287">
        <ele>1188.72</ele>
        <time>2018-07-29T13:41:29Z</time>
      </trkpt>
      <trkpt lat="42.72253" lon="0.64327">
        <ele>1190</ele>
        <time>2018-07-29T13:41:31Z</time>
      </trkpt>
      <trkpt lat="42.72243" lon="0.6437">
        <ele>1194.46</ele>
        <time>2018-07-29T13:41:33Z</time>
      </trkpt>
      <trkpt lat="42.72234" lon="0.64412">
        <ele>1200.39</ele>
        <time>2018-07-29T13:41:35Z</time>
      </trkpt>
      <trkpt lat="42.72229" lon="0.64455">
        <ele>1206.59</ele>
        <time>2018-07-29T13:41:37Z</time>
      </trkpt>
      <trkpt lat="42.72226" lon="0.645">
        <ele>1211.7</ele>
        <time>2018-07-29T13:41:39Z</time>
      </trkpt>
      <trkpt lat="42.7222" lon="0.64539">
        <ele>1216.92</ele>
        <time>2018-07-29T13:41:41Z</time>
      </trkpt>
      <trkpt lat="42.7221" lon="0.64578">
        <ele>1221.24</ele>
        <time>2018-07-29T13:41:43Z</time>
      </trkpt>
      <trkpt lat="42.72195" lon="0.64614">
        <ele>1224.36</ele>
        <time>2018-07-29T13:41:45Z</time>
      </trkpt>
      <trkpt lat="42.7218" lon="0.64646">
        <ele>1225.97</ele>
        <time>2018-07-29T13:41:47Z</time>
      </trkpt>
      <trkpt lat="42.72162" lon="0.6467">
        <ele>1227.03</ele>
        <time>2018-07-29T13:41:49Z</time>
      </trkpt>
      <trkpt lat="42.72149" lon="0.64699">
        <ele>1229.43</ele>
        <time>2018-07-29T13:41:51Z</time>
      </trkpt>
      <trkpt lat="42.7215" lon="0.64726">
        <ele>1232.73</ele>
        <time>2018-07-29T13:41:55Z</time>
      </trkpt>
      <trkpt lat="42.7214" lon="0.64703">
        <ele>1234.65</ele>
        <time>2018-07-29T13:41:59Z</time>
      </trkpt>
      <trkpt lat="42.72127" lon="0.64674">
        <ele>1236.7</ele>
        <time>2018-07-29T13:42:01Z</time>
      </trkpt>
      <trkpt lat="42.72118" lon="0.64641">
        <ele>1240.8</ele>
        <time>2018-07-29T13:42:03Z</time>
      </trkpt>
      <trkpt lat="42.72125" lon="0.64606">
        <ele>1244.32</ele>
        <time>2018-07-29T13:42:05Z</time>
      </trkpt>
      <trkpt lat="42.72132" lon="0.64566">
        <ele>1248.77</ele>
        <time>2018-07-29T13:42:07Z</time>
      </trkpt>
      <trkpt lat="42.72136" lon="0.64529">
        <ele>1252.53</ele>
        <time>2018-07-29T13:42:09Z</time>
      </trkpt>
      <trkpt lat="42.7214" lon="0.64496">
        <ele>1255.39</ele>
        <time>2018-07-29T13:42:11Z</time>
      </trkpt>
      <trkpt lat="42.72135" lon="0.64465">
        <ele>1258.48</ele>
        <time>2018-07-29T13:42:14Z</time>
      </trkpt>
      <trkpt lat="42.72118" lon="0.64484">
        <ele>1262.51</ele>
        <time>2018-07-29T13:42:18Z</time>
      </trkpt>
      <trkpt lat="42.721" lon="0.64522">
        <ele>1267.9</ele>
        <time>2018-07-29T13:42:20Z</time>
      </trkpt>
      <trkpt lat="42.72082" lon="0.64555">
        <ele>1270.63</ele>
        <time>2018-07-29T13:42:22Z</time>
      </trkpt>
      <trkpt lat="42.72073" lon="0.64589">
        <ele>1271.78</ele>
        <time>2018-07-29T13:42:24Z</time>
      </trkpt>
      <trkpt lat="42.72065" lon="0.64632">
        <ele>1275.81</ele>
        <time>2018-07-29T13:42:26Z</time>
      </trkpt>
      <trkpt lat="42.72056" lon="0.64674">
        <ele>1281.14</ele>
        <time>2018-07-29T13:42:28Z</time>
      </trkpt>
      <trkpt lat="42.7205" lon="0.64716">
        <ele>1284.35</ele>
        <time>2018-07-29T13:42:30Z</time>
      </trkpt>
      <trkpt lat="42.72042" lon="0.64758">
        <ele>1288.98</ele>
        <time>2018-07-29T13:42:32Z</time>
      </trkpt>
      <trkpt lat="42.7203" lon="0.64802">
        <ele>1294.16</ele>
        <time>2018-07-29T13:42:34Z</time>
      </trkpt>
      <trkpt lat="42.72017" lon="0.64842">
        <ele>1299.87</ele>
        <time>2018-07-29T13:42:36Z</time>
      </trkpt>
      <trkpt lat="42.72003" lon="0.6488">
        <ele>1304.24</ele>
        <time>2018-07-29T13:42:38Z</time>
      </trkpt>
      <trkpt lat="42.71989" lon="0.64914">
        <ele>1308.27</ele>
        <time>2018-07-29T13:42:40Z</time>
      </trkpt>
      <trkpt lat="42.71978" lon="0.64945">
        <ele>1309.96</ele>
        <time>2018-07-29T13:42:42Z</time>
      </trkpt>
      <trkpt lat="42.7197" lon="0.64975">
        <ele>1311.51</ele>
        <time>2018-07-29T13:42:44Z</time>
      </trkpt>
      <trkpt lat="42.71962" lon="0.65001">
        <ele>1312.98</ele>
        <time>2018-07-29T13:42:46Z</time>
      </trkpt>
      <trkpt lat="42.71947" lon="0.6502">
        <ele>1315.71</ele>
        <time>2018-07-29T13:42:49Z</time>
      </trkpt>
      <trkpt lat="42.71944" lon="0.65048">
        <ele>1323.11</ele>
        <time>2018-07-29T13:43:03Z</time>
      </trkpt>
      <trkpt lat="42.71962" lon="0.65065">
        <ele>1325.78</ele>
        <time>2018-07-29T13:43:06Z</time>
      </trkpt>
      <trkpt lat="42.71979" lon="0.65095">
        <ele>1330.25</ele>
        <time>2018-07-29T13:43:09Z</time>
      </trkpt>
      <trkpt lat="42.71989" lon="0.65128">
        <ele>1330.9</ele>
        <time>2018-07-29T13:43:12Z</time>
      </trkpt>
      <trkpt lat="42.71997" lon="0.65152">
        <ele>1333.63</ele>
        <time>2018-07-29T13:43:14Z</time>
      </trkpt>
      <trkpt lat="42.72013" lon="0.65174">
        <ele>1337.51</ele>
        <time>2018-07-29T13:43:16Z</time>
      </trkpt>
      <trkpt lat="42.72029" lon="0.65194">
        <ele>1339.68</ele>
        <time>2018-07-29T13:43:18Z</time>
      </trkpt>
      <trkpt lat="42.72056" lon="0.65201">
        <ele>1340.09</ele>
        <time>2018-07-29T13:43:20Z</time>
      </trkpt>
      <trkpt lat="42.72075" lon="0.6521">
        <ele>1340.62</ele>
        <time>2018-07-29T13:43:22Z</time>
      </trkpt>
      <trkpt lat="42.7209" lon="0.65225">
        <ele>1341.78</ele>
        <time>2018-07-29T13:43:24Z</time>
      </trkpt>
      <trkpt lat="42.721" lon="0.65258">
        <ele>1351.12</ele>
        <time>2018-07-29T13:43:27Z</time>
      </trkpt>
      <trkpt lat="42.72096" lon="0.65283">
        <ele>1353.44</ele>
        <time>2018-07-29T13:43:29Z</time>
      </trkpt>
      <trkpt lat="42.72087" lon="0.65305">
        <ele>1356.8</ele>
        <time>2018-07-29T13:43:31Z</time>
      </trkpt>
      <trkpt lat="42.72078" lon="0.65327">
        <ele>1358.03</ele>
        <time>2018-07-29T13:43:34Z</time>
      </trkpt>
      <trkpt lat="42.72083" lon="0.65357">
        <ele>1361</ele>
        <time>2018-07-29T13:43:38Z</time>
      </trkpt>
      <trkpt lat="42.72099" lon="0.65375">
        <ele>1363.03</ele>
        <time>2018-07-29T13:43:42Z</time>
      </trkpt>
      <trkpt lat="42.72113" lon="0.65391">
        <ele>1364.06</ele>
        <time>2018-07-29T13:43:46Z</time>
      </trkpt>
      <trkpt lat="42.72132" lon="0.65392">
        <ele>1368.73</ele>
        <time>2018-07-29T13:43:54Z</time>
      </trkpt>
      <trkpt lat="42.72128" lon="0.65416">
        <ele>1381.83</ele>
        <time>2018-07-29T13:47:21Z</time>
      </trkpt>
      <trkpt lat="42.72114" lon="0.65432">
        <ele>1386.1</ele>
        <time>2018-07-29T13:47:42Z</time>
      </trkpt>
      <trkpt lat="42.72103" lon="0.65452">
        <ele>1390.89</ele>
        <time>2018-07-29T13:48:03Z</time>
      </trkpt>
      <trkpt lat="42.72092" lon="0.65472">
        <ele>1389.13</ele>
        <time>2018-07-29T13:48:29Z</time>
      </trkpt>
      <trkpt lat="42.72095" lon="0.65497">
        <ele>1379.12</ele>
        <time>2018-07-29T13:51:21Z</time>
      </trkpt>
      <trkpt lat="42.721" lon="0.65521">
        <ele>1383.07</ele>
        <time>2018-07-29T13:52:20Z</time>
      </trkpt>
      <trkpt lat="42.72098" lon="0.65496">
        <ele>1389.19</ele>
        <time>2018-07-29T13:56:15Z</time>
      </trkpt>
      <trkpt lat="42.7208" lon="0.65489">
        <ele>1388.4</ele>
        <time>2018-07-29T13:58:04Z</time>
      </trkpt>
      <trkpt lat="42.72106" lon="0.65491">
        <ele>1384.84</ele>
        <time>2018-07-29T13:58:08Z</time>
      </trkpt>
      <trkpt lat="42.72107" lon="0.65466">
        <ele>1389.02</ele>
        <time>2018-07-29T13:58:36Z</time>
      </trkpt>
      <trkpt lat="42.72118" lon="0.65448">
        <ele>1404.11</ele>
        <time>2018-07-29T13:58:55Z</time>
      </trkpt>
      <trkpt lat="42.7213" lon="0.65428">
        <ele>1408.14</ele>
        <time>2018-07-29T13:59:12Z</time>
      </trkpt>
      <trkpt lat="42.72146" lon="0.65414">
        <ele>1419.08</ele>
        <time>2018-07-29T13:59:35Z</time>
      </trkpt>
      <trkpt lat="42.72132" lon="0.65398">
        <ele>1392.18</ele>
        <time>2018-07-29T13:59:52Z</time>
      </trkpt>
      <trkpt lat="42.72148" lon="0.65383">
        <ele>1378.13</ele>
        <time>2018-07-29T14:02:37Z</time>
      </trkpt>
      <trkpt lat="42.72159" lon="0.65362">
        <ele>1376.43</ele>
        <time>2018-07-29T14:02:42Z</time>
      </trkpt>
      <trkpt lat="42.72173" lon="0.65341">
        <ele>1374.17</ele>
        <time>2018-07-29T14:02:47Z</time>
      </trkpt>
      <trkpt lat="42.72193" lon="0.65332">
        <ele>1370.76</ele>
        <time>2018-07-29T14:02:52Z</time>
      </trkpt>
      <trkpt lat="42.72215" lon="0.65326">
        <ele>1367.26</ele>
        <time>2018-07-29T14:02:56Z</time>
      </trkpt>
      <trkpt lat="42.72234" lon="0.65321">
        <ele>1363.58</ele>
        <time>2018-07-29T14:02:59Z</time>
      </trkpt>
      <trkpt lat="42.72258" lon="0.65312">
        <ele>1361.44</ele>
        <time>2018-07-29T14:03:03Z</time>
      </trkpt>
      <trkpt lat="42.7228" lon="0.65302">
        <ele>1358.47</ele>
        <time>2018-07-29T14:03:07Z</time>
      </trkpt>
      <trkpt lat="42.72302" lon="0.65298">
        <ele>1359.12</ele>
        <time>2018-07-29T14:03:11Z</time>
      </trkpt>
      <trkpt lat="42.72312" lon="0.65276">
        <ele>1359.22</ele>
        <time>2018-07-29T14:03:36Z</time>
      </trkpt>
      <trkpt lat="42.72322" lon="0.65252">
        <ele>1353.15</ele>
        <time>2018-07-29T14:03:41Z</time>
      </trkpt>
      <trkpt lat="42.7233" lon="0.65229">
        <ele>1352.23</ele>
        <time>2018-07-29T14:03:46Z</time>
      </trkpt>
      <trkpt lat="42.72341" lon="0.65207">
        <ele>1349.3</ele>
        <time>2018-07-29T14:03:56Z</time>
      </trkpt>
      <trkpt lat="42.72326" lon="0.65228">
        <ele>1347.19</ele>
        <time>2018-07-29T14:05:22Z</time>
      </trkpt>
      <trkpt lat="42.72315" lon="0.65249">
        <ele>1347.83</ele>
        <time>2018-07-29T14:05:25Z</time>
      </trkpt>
      <trkpt lat="42.72306" lon="0.65275">
        <ele>1347.27</ele>
        <time>2018-07-29T14:05:28Z</time>
      </trkpt>
      <trkpt lat="42.72291" lon="0.65296">
        <ele>1348.04</ele>
        <time>2018-07-29T14:05:31Z</time>
      </trkpt>
      <trkpt lat="42.72273" lon="0.65307">
        <ele>1350.01</ele>
        <time>2018-07-29T14:05:35Z</time>
      </trkpt>
      <trkpt lat="42.72251" lon="0.65318">
        <ele>1355.68</ele>
        <time>2018-07-29T14:05:47Z</time>
      </trkpt>
      <trkpt lat="42.72231" lon="0.65322">
        <ele>1357.73</ele>
        <time>2018-07-29T14:05:50Z</time>
      </trkpt>
      <trkpt lat="42.72209" lon="0.65328">
        <ele>1361.21</ele>
        <time>2018-07-29T14:05:54Z</time>
      </trkpt>
      <trkpt lat="42.72187" lon="0.65334">
        <ele>1364.72</ele>
        <time>2018-07-29T14:05:58Z</time>
      </trkpt>
      <trkpt lat="42.72169" lon="0.65339">
        <ele>1367.03</ele>
        <time>2018-07-29T14:06:02Z</time>
      </trkpt>
      <trkpt lat="42.72147" lon="0.65352">
        <ele>1369.34</ele>
        <time>2018-07-29T14:06:32Z</time>
      </trkpt>
      <trkpt lat="42.72134" lon="0.65374">
        <ele>1371.02</ele>
        <time>2018-07-29T14:06:35Z</time>
      </trkpt>
      <trkpt lat="42.72118" lon="0.65389">
        <ele>1371.13</ele>
        <time>2018-07-29T14:06:38Z</time>
      </trkpt>
      <trkpt lat="42.72102" lon="0.65376">
        <ele>1372.8</ele>
        <time>2018-07-29T14:06:41Z</time>
      </trkpt>
      <trkpt lat="42.72089" lon="0.65359">
        <ele>1373.8</ele>
        <time>2018-07-29T14:06:43Z</time>
      </trkpt>
      <trkpt lat="42.72077" lon="0.65337">
        <ele>1374.1</ele>
        <time>2018-07-29T14:06:45Z</time>
      </trkpt>
      <trkpt lat="42.72072" lon="0.6531">
        <ele>1371.82</ele>
        <time>2018-07-29T14:06:47Z</time>
      </trkpt>
      <trkpt lat="42.72084" lon="0.6529">
        <ele>1371.89</ele>
        <time>2018-07-29T14:06:49Z</time>
      </trkpt>
      <trkpt lat="42.72093" lon="0.65268">
        <ele>1370.5</ele>
        <time>2018-07-29T14:06:51Z</time>
      </trkpt>
      <trkpt lat="42.72093" lon="0.65243">
        <ele>1369.25</ele>
        <time>2018-07-29T14:06:53Z</time>
      </trkpt>
      <trkpt lat="42.72088" lon="0.65219">
        <ele>1369.14</ele>
        <time>2018-07-29T14:06:55Z</time>
      </trkpt>
      <trkpt lat="42.72066" lon="0.65193">
        <ele>1368.43</ele>
        <time>2018-07-29T14:06:58Z</time>
      </trkpt>
      <trkpt lat="42.72051" lon="0.65181">
        <ele>1368.16</ele>
        <time>2018-07-29T14:07:00Z</time>
      </trkpt>
      <trkpt lat="42.72029" lon="0.6517">
        <ele>1367.64</ele>
        <time>2018-07-29T14:07:02Z</time>
      </trkpt>
      <trkpt lat="42.72008" lon="0.65149">
        <ele>1364.66</ele>
        <time>2018-07-29T14:07:04Z</time>
      </trkpt>
      <trkpt lat="42.71997" lon="0.65123">
        <ele>1360.26</ele>
        <time>2018-07-29T14:07:06Z</time>
      </trkpt>
      <trkpt lat="42.7199" lon="0.65095">
        <ele>1357.62</ele>
        <time>2018-07-29T14:07:08Z</time>
      </trkpt>
      <trkpt lat="42.71978" lon="0.6507">
        <ele>1355.07</ele>
        <time>2018-07-29T14:07:10Z</time>
      </trkpt>
      <trkpt lat="42.71964" lon="0.65052">
        <ele>1351.91</ele>
        <time>2018-07-29T14:07:12Z</time>
      </trkpt>
      <trkpt lat="42.71947" lon="0.65037">
        <ele>1347.77</ele>
        <time>2018-07-29T14:07:14Z</time>
      </trkpt>
      <trkpt lat="42.71937" lon="0.65011">
        <ele>1345.2</ele>
        <time>2018-07-29T14:07:17Z</time>
      </trkpt>
      <trkpt lat="42.71957" lon="0.64991">
        <ele>1344.43</ele>
        <time>2018-07-29T14:07:21Z</time>
      </trkpt>
      <trkpt lat="42.71971" lon="0.64964">
        <ele>1341.62</ele>
        <time>2018-07-29T14:07:24Z</time>
      </trkpt>
      <trkpt lat="42.71977" lon="0.64928">
        <ele>1336.95</ele>
        <time>2018-07-29T14:07:27Z</time>
      </trkpt>
      <trkpt lat="42.71986" lon="0.64905">
        <ele>1333.89</ele>
        <time>2018-07-29T14:07:29Z</time>
      </trkpt>
      <trkpt lat="42.71997" lon="0.64882">
        <ele>1329.98</ele>
        <time>2018-07-29T14:07:31Z</time>
      </trkpt>
      <trkpt lat="42.72008" lon="0.64856">
        <ele>1326.69</ele>
        <time>2018-07-29T14:07:33Z</time>
      </trkpt>
      <trkpt lat="42.72018" lon="0.6483">
        <ele>1323.87</ele>
        <time>2018-07-29T14:07:35Z</time>
      </trkpt>
      <trkpt lat="42.72027" lon="0.64801">
        <ele>1319.77</ele>
        <time>2018-07-29T14:07:37Z</time>
      </trkpt>
      <trkpt lat="42.72034" lon="0.64771">
        <ele>1316.18</ele>
        <time>2018-07-29T14:07:39Z</time>
      </trkpt>
      <trkpt lat="42.72041" lon="0.64742">
        <ele>1307.87</ele>
        <time>2018-07-29T14:07:41Z</time>
      </trkpt>
      <trkpt lat="42.72048" lon="0.64714">
        <ele>1306.29</ele>
        <time>2018-07-29T14:07:43Z</time>
      </trkpt>
      <trkpt lat="42.72052" lon="0.64684">
        <ele>1303.62</ele>
        <time>2018-07-29T14:07:45Z</time>
      </trkpt>
      <trkpt lat="42.72057" lon="0.64658">
        <ele>1299.04</ele>
        <time>2018-07-29T14:07:47Z</time>
      </trkpt>
      <trkpt lat="42.72063" lon="0.64629">
        <ele>1295.69</ele>
        <time>2018-07-29T14:07:49Z</time>
      </trkpt>
      <trkpt lat="42.72071" lon="0.64601">
        <ele>1292.66</ele>
        <time>2018-07-29T14:07:51Z</time>
      </trkpt>
      <trkpt lat="42.7208" lon="0.64574">
        <ele>1291.27</ele>
        <time>2018-07-29T14:07:53Z</time>
      </trkpt>
      <trkpt lat="42.72101" lon="0.64558">
        <ele>1288.13</ele>
        <time>2018-07-29T14:07:55Z</time>
      </trkpt>
      <trkpt lat="42.72116" lon="0.64542">
        <ele>1286.31</ele>
        <time>2018-07-29T14:07:57Z</time>
      </trkpt>
      <trkpt lat="42.72128" lon="0.64512">
        <ele>1283.28</ele>
        <time>2018-07-29T14:08:00Z</time>
      </trkpt>
      <trkpt lat="42.72131" lon="0.64483">
        <ele>1281.52</ele>
        <time>2018-07-29T14:08:03Z</time>
      </trkpt>
      <trkpt lat="42.72141" lon="0.64508">
        <ele>1280.39</ele>
        <time>2018-07-29T14:08:08Z</time>
      </trkpt>
      <trkpt lat="42.7214" lon="0.64544">
        <ele>1275.11</ele>
        <time>2018-07-29T14:08:10Z</time>
      </trkpt>
      <trkpt lat="42.72134" lon="0.64584">
        <ele>1270.09</ele>
        <time>2018-07-29T14:08:12Z</time>
      </trkpt>
      <trkpt lat="42.72125" lon="0.64619">
        <ele>1266</ele>
        <time>2018-07-29T14:08:14Z</time>
      </trkpt>
      <trkpt lat="42.72119" lon="0.6465">
        <ele>1264.3</ele>
        <time>2018-07-29T14:08:16Z</time>
      </trkpt>
      <trkpt lat="42.72119" lon="0.64675">
        <ele>1263.45</ele>
        <time>2018-07-29T14:08:18Z</time>
      </trkpt>
      <trkpt lat="42.72125" lon="0.64699">
        <ele>1262.95</ele>
        <time>2018-07-29T14:08:20Z</time>
      </trkpt>
      <trkpt lat="42.72138" lon="0.64726">
        <ele>1261.39</ele>
        <time>2018-07-29T14:08:23Z</time>
      </trkpt>
      <trkpt lat="42.72159" lon="0.6472">
        <ele>1261.14</ele>
        <time>2018-07-29T14:08:26Z</time>
      </trkpt>
      <trkpt lat="42.72166" lon="0.64695">
        <ele>1259.58</ele>
        <time>2018-07-29T14:08:29Z</time>
      </trkpt>
      <trkpt lat="42.72162" lon="0.64657">
        <ele>1258.26</ele>
        <time>2018-07-29T14:08:31Z</time>
      </trkpt>
      <trkpt lat="42.72169" lon="0.64628">
        <ele>1258.14</ele>
        <time>2018-07-29T14:08:33Z</time>
      </trkpt>
      <trkpt lat="42.72187" lon="0.64598">
        <ele>1256.52</ele>
        <time>2018-07-29T14:08:35Z</time>
      </trkpt>
      <trkpt lat="42.72205" lon="0.64566">
        <ele>1253.86</ele>
        <time>2018-07-29T14:08:37Z</time>
      </trkpt>
      <trkpt lat="42.72217" lon="0.64529">
        <ele>1246.76</ele>
        <time>2018-07-29T14:08:39Z</time>
      </trkpt>
      <trkpt lat="42.72223" lon="0.64489">
        <ele>1239.12</ele>
        <time>2018-07-29T14:08:41Z</time>
      </trkpt>
      <trkpt lat="42.72226" lon="0.64447">
        <ele>1234.79</ele>
        <time>2018-07-29T14:08:43Z</time>
      </trkpt>
      <trkpt lat="42.72232" lon="0.64403">
        <ele>1232.58</ele>
        <time>2018-07-29T14:08:45Z</time>
      </trkpt>
      <trkpt lat="42.72242" lon="0.64361">
        <ele>1229.37</ele>
        <time>2018-07-29T14:08:47Z</time>
      </trkpt>
      <trkpt lat="42.7225" lon="0.64321">
        <ele>1223.13</ele>
        <time>2018-07-29T14:08:49Z</time>
      </trkpt>
      <trkpt lat="42.72264" lon="0.64284">
        <ele>1217.88</ele>
        <time>2018-07-29T14:08:51Z</time>
      </trkpt>
      <trkpt lat="42.72282" lon="0.6425">
        <ele>1216.29</ele>
        <time>2018-07-29T14:08:53Z</time>
      </trkpt>
      <trkpt lat="42.72295" lon="0.64214">
        <ele>1213.13</ele>
        <time>2018-07-29T14:08:55Z</time>
      </trkpt>
      <trkpt lat="42.72304" lon="0.64171">
        <ele>1209.7</ele>
        <time>2018-07-29T14:08:57Z</time>
      </trkpt>
      <trkpt lat="42.72319" lon="0.64136">
        <ele>1204.56</ele>
        <time>2018-07-29T14:08:59Z</time>
      </trkpt>
      <trkpt lat="42.72338" lon="0.64105">
        <ele>1200.74</ele>
        <time>2018-07-29T14:09:01Z</time>
      </trkpt>
      <trkpt lat="42.72368" lon="0.64085">
        <ele>1198.78</ele>
        <time>2018-07-29T14:09:03Z</time>
      </trkpt>
      <trkpt lat="42.72389" lon="0.64056">
        <ele>1196.09</ele>
        <time>2018-07-29T14:09:05Z</time>
      </trkpt>
      <trkpt lat="42.72404" lon="0.64018">
        <ele>1192.7</ele>
        <time>2018-07-29T14:09:07Z</time>
      </trkpt>
      <trkpt lat="42.72424" lon="0.63985">
        <ele>1190.57</ele>
        <time>2018-07-29T14:09:09Z</time>
      </trkpt>
      <trkpt lat="42.72443" lon="0.63951">
        <ele>1189.47</ele>
        <time>2018-07-29T14:09:11Z</time>
      </trkpt>
      <trkpt lat="42.72458" lon="0.63912">
        <ele>1186.85</ele>
        <time>2018-07-29T14:09:13Z</time>
      </trkpt>
      <trkpt lat="42.72471" lon="0.63871">
        <ele>1184.58</ele>
        <time>2018-07-29T14:09:15Z</time>
      </trkpt>
      <trkpt lat="42.72486" lon="0.63833">
        <ele>1180.25</ele>
        <time>2018-07-29T14:09:17Z</time>
      </trkpt>
      <trkpt lat="42.725" lon="0.63794">
        <ele>1176.22</ele>
        <time>2018-07-29T14:09:19Z</time>
      </trkpt>
      <trkpt lat="42.72518" lon="0.63756">
        <ele>1171.8</ele>
        <time>2018-07-29T14:09:21Z</time>
      </trkpt>
      <trkpt lat="42.72537" lon="0.63715">
        <ele>1168.88</ele>
        <time>2018-07-29T14:09:23Z</time>
      </trkpt>
      <trkpt lat="42.72551" lon="0.63674">
        <ele>1164.77</ele>
        <time>2018-07-29T14:09:25Z</time>
      </trkpt>
      <trkpt lat="42.72565" lon="0.63636">
        <ele>1160.69</ele>
        <time>2018-07-29T14:09:27Z</time>
      </trkpt>
      <trkpt lat="42.7258" lon="0.63596">
        <ele>1154.16</ele>
        <time>2018-07-29T14:09:29Z</time>
      </trkpt>
      <trkpt lat="42.72589" lon="0.63554">
        <ele>1149.09</ele>
        <time>2018-07-29T14:09:31Z</time>
      </trkpt>
      <trkpt lat="42.72592" lon="0.63509">
        <ele>1141.99</ele>
        <time>2018-07-29T14:09:33Z</time>
      </trkpt>
      <trkpt lat="42.72597" lon="0.63466">
        <ele>1135.26</ele>
        <time>2018-07-29T14:09:35Z</time>
      </trkpt>
      <trkpt lat="42.72601" lon="0.63421">
        <ele>1129.89</ele>
        <time>2018-07-29T14:09:37Z</time>
      </trkpt>
      <trkpt lat="42.72607" lon="0.63376">
        <ele>1124.16</ele>
        <time>2018-07-29T14:09:39Z</time>
      </trkpt>
      <trkpt lat="42.72614" lon="0.6333">
        <ele>1119.09</ele>
        <time>2018-07-29T14:09:41Z</time>
      </trkpt>
      <trkpt lat="42.72618" lon="0.63285">
        <ele>1116.61</ele>
        <time>2018-07-29T14:09:43Z</time>
      </trkpt>
      <trkpt lat="42.72625" lon="0.63247">
        <ele>1113.16</ele>
        <time>2018-07-29T14:09:45Z</time>
      </trkpt>
      <trkpt lat="42.72642" lon="0.63213">
        <ele>1112.22</ele>
        <time>2018-07-29T14:09:47Z</time>
      </trkpt>
      <trkpt lat="42.72655" lon="0.63173">
        <ele>1110.53</ele>
        <time>2018-07-29T14:09:49Z</time>
      </trkpt>
      <trkpt lat="42.72668" lon="0.63133">
        <ele>1105.06</ele>
        <time>2018-07-29T14:09:51Z</time>
      </trkpt>
      <trkpt lat="42.72669" lon="0.63095">
        <ele>1093.64</ele>
        <time>2018-07-29T14:09:53Z</time>
      </trkpt>
      <trkpt lat="42.72672" lon="0.63059">
        <ele>1089.75</ele>
        <time>2018-07-29T14:09:55Z</time>
      </trkpt>
      <trkpt lat="42.72667" lon="0.63033">
        <ele>1088.49</ele>
        <time>2018-07-29T14:09:57Z</time>
      </trkpt>
      <trkpt lat="42.72663" lon="0.63005">
        <ele>1087.23</ele>
        <time>2018-07-29T14:10:00Z</time>
      </trkpt>
      <trkpt lat="42.72684" lon="0.63014">
        <ele>1085.44</ele>
        <time>2018-07-29T14:10:07Z</time>
      </trkpt>
      <trkpt lat="42.72686" lon="0.63056">
        <ele>1080.33</ele>
        <time>2018-07-29T14:10:09Z</time>
      </trkpt>
      <trkpt lat="42.7269" lon="0.63099">
        <ele>1076.02</ele>
        <time>2018-07-29T14:10:11Z</time>
      </trkpt>
      <trkpt lat="42.72696" lon="0.63143">
        <ele>1071.99</ele>
        <time>2018-07-29T14:10:13Z</time>
      </trkpt>
      <trkpt lat="42.72693" lon="0.63189">
        <ele>1065.47</ele>
        <time>2018-07-29T14:10:15Z</time>
      </trkpt>
      <trkpt lat="42.72693" lon="0.63233">
        <ele>1061.24</ele>
        <time>2018-07-29T14:10:17Z</time>
      </trkpt>
      <trkpt lat="42.72696" lon="0.63273">
        <ele>1057.71</ele>
        <time>2018-07-29T14:10:19Z</time>
      </trkpt>
      <trkpt lat="42.72693" lon="0.63301">
        <ele>1055.15</ele>
        <time>2018-07-29T14:10:21Z</time>
      </trkpt>
      <trkpt lat="42.72688" lon="0.63326">
        <ele>1054.22</ele>
        <time>2018-07-29T14:10:24Z</time>
      </trkpt>
      <trkpt lat="42.727" lon="0.63307">
        <ele>1052.25</ele>
        <time>2018-07-29T14:10:28Z</time>
      </trkpt>
      <trkpt lat="42.72713" lon="0.63281">
        <ele>1052.87</ele>
        <time>2018-07-29T14:10:29Z</time>
      </trkpt>
      <trkpt lat="42.72718" lon="0.63254">
        <ele>1051.65</ele>
        <time>2018-07-29T14:10:30Z</time>
      </trkpt>
      <trkpt lat="42.72727" lon="0.63208">
        <ele>1046.84</ele>
        <time>2018-07-29T14:10:32Z</time>
      </trkpt>
      <trkpt lat="42.72733" lon="0.63162">
        <ele>1044.58</ele>
        <time>2018-07-29T14:10:34Z</time>
      </trkpt>
      <trkpt lat="42.72735" lon="0.63114">
        <ele>1042.77</ele>
        <time>2018-07-29T14:10:36Z</time>
      </trkpt>
      <trkpt lat="42.72739" lon="0.63067">
        <ele>1038.76</ele>
        <time>2018-07-29T14:10:38Z</time>
      </trkpt>
      <trkpt lat="42.72744" lon="0.63026">
        <ele>1034.97</ele>
        <time>2018-07-29T14:10:40Z</time>
      </trkpt>
      <trkpt lat="42.72742" lon="0.62984">
        <ele>1033.3</ele>
        <time>2018-07-29T14:10:42Z</time>
      </trkpt>
      <trkpt lat="42.72737" lon="0.62941">
        <ele>1032.44</ele>
        <time>2018-07-29T14:10:44Z</time>
      </trkpt>
      <trkpt lat="42.72727" lon="0.62913">
        <ele>1030.55</ele>
        <time>2018-07-29T14:10:46Z</time>
      </trkpt>
      <trkpt lat="42.72724" lon="0.62887">
        <ele>1029.26</ele>
        <time>2018-07-29T14:10:48Z</time>
      </trkpt>
      <trkpt lat="42.72738" lon="0.62871">
        <ele>1027.46</ele>
        <time>2018-07-29T14:10:51Z</time>
      </trkpt>
      <trkpt lat="42.72762" lon="0.62895">
        <ele>1027.16</ele>
        <time>2018-07-29T14:10:53Z</time>
      </trkpt>
      <trkpt lat="42.72781" lon="0.62893">
        <ele>1027.14</ele>
        <time>2018-07-29T14:10:54Z</time>
      </trkpt>
      <trkpt lat="42.72799" lon="0.62888">
        <ele>1026.43</ele>
        <time>2018-07-29T14:10:55Z</time>
      </trkpt>
      <trkpt lat="42.72831" lon="0.62875">
        <ele>1026.86</ele>
        <time>2018-07-29T14:10:57Z</time>
      </trkpt>
      <trkpt lat="42.7285" lon="0.62861">
        <ele>1027.75</ele>
        <time>2018-07-29T14:10:58Z</time>
      </trkpt>
      <trkpt lat="42.72868" lon="0.62847">
        <ele>1026.62</ele>
        <time>2018-07-29T14:10:59Z</time>
      </trkpt>
      <trkpt lat="42.72898" lon="0.62822">
        <ele>1027.08</ele>
        <time>2018-07-29T14:11:01Z</time>
      </trkpt>
      <trkpt lat="42.72921" lon="0.62792">
        <ele>1027.83</ele>
        <time>2018-07-29T14:11:03Z</time>
      </trkpt>
      <trkpt lat="42.72945" lon="0.62764">
        <ele>1029.01</ele>
        <time>2018-07-29T14:11:05Z</time>
      </trkpt>
      <trkpt lat="42.72972" lon="0.6274">
        <ele>1028.42</ele>
        <time>2018-07-29T14:11:07Z</time>
      </trkpt>
      <trkpt lat="42.73004" lon="0.62726">
        <ele>1028.86</ele>
        <time>2018-07-29T14:11:09Z</time>
      </trkpt>
      <trkpt lat="42.73035" lon="0.62706">
        <ele>1026.1</ele>
        <time>2018-07-29T14:11:11Z</time>
      </trkpt>
      <trkpt lat="42.73068" lon="0.62688">
        <ele>1023.61</ele>
        <time>2018-07-29T14:11:13Z</time>
      </trkpt>
      <trkpt lat="42.73087" lon="0.6268">
        <ele>1021.87</ele>
        <time>2018-07-29T14:11:14Z</time>
      </trkpt>
      <trkpt lat="42.73119" lon="0.62662">
        <ele>1020.5</ele>
        <time>2018-07-29T14:11:16Z</time>
      </trkpt>
      <trkpt lat="42.73136" lon="0.62654">
        <ele>1019.54</ele>
        <time>2018-07-29T14:11:17Z</time>
      </trkpt>
      <trkpt lat="42.73154" lon="0.62646">
        <ele>1018.55</ele>
        <time>2018-07-29T14:11:18Z</time>
      </trkpt>
      <trkpt lat="42.73187" lon="0.62629">
        <ele>1017.26</ele>
        <time>2018-07-29T14:11:20Z</time>
      </trkpt>
      <trkpt lat="42.73206" lon="0.6262">
        <ele>1016.47</ele>
        <time>2018-07-29T14:11:21Z</time>
      </trkpt>
      <trkpt lat="42.73237" lon="0.62602">
        <ele>1013.85</ele>
        <time>2018-07-29T14:11:23Z</time>
      </trkpt>
      <trkpt lat="42.73253" lon="0.62591">
        <ele>1011.25</ele>
        <time>2018-07-29T14:11:24Z</time>
      </trkpt>
      <trkpt lat="42.73285" lon="0.62573">
        <ele>1009.32</ele>
        <time>2018-07-29T14:11:26Z</time>
      </trkpt>
      <trkpt lat="42.73314" lon="0.62553">
        <ele>1007.54</ele>
        <time>2018-07-29T14:11:28Z</time>
      </trkpt>
      <trkpt lat="42.73344" lon="0.62531">
        <ele>1004.16</ele>
        <time>2018-07-29T14:11:30Z</time>
      </trkpt>
      <trkpt lat="42.73361" lon="0.62522">
        <ele>1002.74</ele>
        <time>2018-07-29T14:11:31Z</time>
      </trkpt>
      <trkpt lat="42.73392" lon="0.625">
        <ele>1000.57</ele>
        <time>2018-07-29T14:11:33Z</time>
      </trkpt>
      <trkpt lat="42.73421" lon="0.62476">
        <ele>998.98</ele>
        <time>2018-07-29T14:11:35Z</time>
      </trkpt>
      <trkpt lat="42.73448" lon="0.62449">
        <ele>996.6</ele>
        <time>2018-07-29T14:11:37Z</time>
      </trkpt>
      <trkpt lat="42.73477" lon="0.62423">
        <ele>995.26</ele>
        <time>2018-07-29T14:11:39Z</time>
      </trkpt>
      <trkpt lat="42.73506" lon="0.62395">
        <ele>993.53</ele>
        <time>2018-07-29T14:11:41Z</time>
      </trkpt>
      <trkpt lat="42.73536" lon="0.62369">
        <ele>991.98</ele>
        <time>2018-07-29T14:11:43Z</time>
      </trkpt>
      <trkpt lat="42.73563" lon="0.62342">
        <ele>989.6</ele>
        <time>2018-07-29T14:11:45Z</time>
      </trkpt>
      <trkpt lat="42.73587" lon="0.62306">
        <ele>982.31</ele>
        <time>2018-07-29T14:11:47Z</time>
      </trkpt>
      <trkpt lat="42.73607" lon="0.62269">
        <ele>981.24</ele>
        <time>2018-07-29T14:11:49Z</time>
      </trkpt>
      <trkpt lat="42.73628" lon="0.62231">
        <ele>977.01</ele>
        <time>2018-07-29T14:11:51Z</time>
      </trkpt>
      <trkpt lat="42.73658" lon="0.62207">
        <ele>974.6</ele>
        <time>2018-07-29T14:11:53Z</time>
      </trkpt>
      <trkpt lat="42.73685" lon="0.62177">
        <ele>972.35</ele>
        <time>2018-07-29T14:11:55Z</time>
      </trkpt>
      <trkpt lat="42.73698" lon="0.6216">
        <ele>972.2</ele>
        <time>2018-07-29T14:11:56Z</time>
      </trkpt>
      <trkpt lat="42.7371" lon="0.62141">
        <ele>971.45</ele>
        <time>2018-07-29T14:11:57Z</time>
      </trkpt>
      <trkpt lat="42.73723" lon="0.62123">
        <ele>970.53</ele>
        <time>2018-07-29T14:11:58Z</time>
      </trkpt>
      <trkpt lat="42.73736" lon="0.62104">
        <ele>968.85</ele>
        <time>2018-07-29T14:11:59Z</time>
      </trkpt>
      <trkpt lat="42.73749" lon="0.62086">
        <ele>968.35</ele>
        <time>2018-07-29T14:12:00Z</time>
      </trkpt>
      <trkpt lat="42.73762" lon="0.62068">
        <ele>967.49</ele>
        <time>2018-07-29T14:12:01Z</time>
      </trkpt>
      <trkpt lat="42.73777" lon="0.62053">
        <ele>965.14</ele>
        <time>2018-07-29T14:12:02Z</time>
      </trkpt>
      <trkpt lat="42.73806" lon="0.62026">
        <ele>961.49</ele>
        <time>2018-07-29T14:12:04Z</time>
      </trkpt>
      <trkpt lat="42.73831" lon="0.61992">
        <ele>959.34</ele>
        <time>2018-07-29T14:12:06Z</time>
      </trkpt>
      <trkpt lat="42.73856" lon="0.61958">
        <ele>958.24</ele>
        <time>2018-07-29T14:12:08Z</time>
      </trkpt>
      <trkpt lat="42.73881" lon="0.61924">
        <ele>952.89</ele>
        <time>2018-07-29T14:12:10Z</time>
      </trkpt>
      <trkpt lat="42.73893" lon="0.61905">
        <ele>951.66</ele>
        <time>2018-07-29T14:12:11Z</time>
      </trkpt>
      <trkpt lat="42.73903" lon="0.61884">
        <ele>948.49</ele>
        <time>2018-07-29T14:12:12Z</time>
      </trkpt>
      <trkpt lat="42.73914" lon="0.61841">
        <ele>941.02</ele>
        <time>2018-07-29T14:12:14Z</time>
      </trkpt>
      <trkpt lat="42.73915" lon="0.61798">
        <ele>933.35</ele>
        <time>2018-07-29T14:12:16Z</time>
      </trkpt>
      <trkpt lat="42.73919" lon="0.61759">
        <ele>931.33</ele>
        <time>2018-07-29T14:12:18Z</time>
      </trkpt>
      <trkpt lat="42.73937" lon="0.61732">
        <ele>929.54</ele>
        <time>2018-07-29T14:12:20Z</time>
      </trkpt>
      <trkpt lat="42.73959" lon="0.61708">
        <ele>928.26</ele>
        <time>2018-07-29T14:12:22Z</time>
      </trkpt>
      <trkpt lat="42.73984" lon="0.61681">
        <ele>928.14</ele>
        <time>2018-07-29T14:12:24Z</time>
      </trkpt>
      <trkpt lat="42.73999" lon="0.61638">
        <ele>925.12</ele>
        <time>2018-07-29T14:12:26Z</time>
      </trkpt>
      <trkpt lat="42.74015" lon="0.61593">
        <ele>922.61</ele>
        <time>2018-07-29T14:12:28Z</time>
      </trkpt>
      <trkpt lat="42.74037" lon="0.61554">
        <ele>921.26</ele>
        <time>2018-07-29T14:12:30Z</time>
      </trkpt>
      <trkpt lat="42.7405" lon="0.61535">
        <ele>920.47</ele>
        <time>2018-07-29T14:12:31Z</time>
      </trkpt>
      <trkpt lat="42.74074" lon="0.61501">
        <ele>917.64</ele>
        <time>2018-07-29T14:12:33Z</time>
      </trkpt>
      <trkpt lat="42.741" lon="0.61474">
        <ele>915.36</ele>
        <time>2018-07-29T14:12:35Z</time>
      </trkpt>
      <trkpt lat="42.74121" lon="0.61454">
        <ele>913.75</ele>
        <time>2018-07-29T14:12:37Z</time>
      </trkpt>
      <trkpt lat="42.74143" lon="0.61441">
        <ele>912.17</ele>
        <time>2018-07-29T14:12:40Z</time>
      </trkpt>
      <trkpt lat="42.74156" lon="0.61467">
        <ele>912.34</ele>
        <time>2018-07-29T14:12:42Z</time>
      </trkpt>
      <trkpt lat="42.7418" lon="0.61474">
        <ele>910.74</ele>
        <time>2018-07-29T14:12:45Z</time>
      </trkpt>
      <trkpt lat="42.74199" lon="0.61463">
        <ele>909.48</ele>
        <time>2018-07-29T14:12:47Z</time>
      </trkpt>
      <trkpt lat="42.74206" lon="0.61432">
        <ele>908.25</ele>
        <time>2018-07-29T14:12:49Z</time>
      </trkpt>
      <trkpt lat="42.74212" lon="0.614">
        <ele>907.23</ele>
        <time>2018-07-29T14:12:51Z</time>
      </trkpt>
      <trkpt lat="42.74222" lon="0.61371">
        <ele>908.05</ele>
        <time>2018-07-29T14:12:53Z</time>
      </trkpt>
      <trkpt lat="42.7424" lon="0.61348">
        <ele>907.21</ele>
        <time>2018-07-29T14:12:55Z</time>
      </trkpt>
      <trkpt lat="42.74258" lon="0.61324">
        <ele>908.05</ele>
        <time>2018-07-29T14:12:57Z</time>
      </trkpt>
      <trkpt lat="42.74274" lon="0.613">
        <ele>907.63</ele>
        <time>2018-07-29T14:12:59Z</time>
      </trkpt>
      <trkpt lat="42.74288" lon="0.61275">
        <ele>907.39</ele>
        <time>2018-07-29T14:13:01Z</time>
      </trkpt>
      <trkpt lat="42.74297" lon="0.61242">
        <ele>906.01</ele>
        <time>2018-07-29T14:13:04Z</time>
      </trkpt>
      <trkpt lat="42.74287" lon="0.61264">
        <ele>906.97</ele>
        <time>2018-07-29T14:13:44Z</time>
      </trkpt>
      <trkpt lat="42.74282" lon="0.61291">
        <ele>907.21</ele>
        <time>2018-07-29T14:13:48Z</time>
      </trkpt>
      <trkpt lat="42.74271" lon="0.61314">
        <ele>907.56</ele>
        <time>2018-07-29T14:13:51Z</time>
      </trkpt>
      <trkpt lat="42.74257" lon="0.61335">
        <ele>908.78</ele>
        <time>2018-07-29T14:13:53Z</time>
      </trkpt>
      <trkpt lat="42.74247" lon="0.61357">
        <ele>909.1</ele>
        <time>2018-07-29T14:13:55Z</time>
      </trkpt>
      <trkpt lat="42.74233" lon="0.61373">
        <ele>910.04</ele>
        <time>2018-07-29T14:13:57Z</time>
      </trkpt>
      <trkpt lat="42.74224" lon="0.614">
        <ele>912.65</ele>
        <time>2018-07-29T14:14:00Z</time>
      </trkpt>
      <trkpt lat="42.74226" lon="0.61433">
        <ele>915.91</ele>
        <time>2018-07-29T14:14:03Z</time>
      </trkpt>
      <trkpt lat="42.74225" lon="0.61471">
        <ele>918.71</ele>
        <time>2018-07-29T14:14:06Z</time>
      </trkpt>
      <trkpt lat="42.74214" lon="0.61497">
        <ele>919.79</ele>
        <time>2018-07-29T14:14:08Z</time>
      </trkpt>
      <trkpt lat="42.74207" lon="0.61523">
        <ele>922.41</ele>
        <time>2018-07-29T14:14:10Z</time>
      </trkpt>
      <trkpt lat="42.74207" lon="0.61549">
        <ele>924.68</ele>
        <time>2018-07-29T14:14:12Z</time>
      </trkpt>
      <trkpt lat="42.74196" lon="0.61573">
        <ele>927.22</ele>
        <time>2018-07-29T14:14:15Z</time>
      </trkpt>
      <trkpt lat="42.74172" lon="0.61587">
        <ele>929.99</ele>
        <time>2018-07-29T14:14:18Z</time>
      </trkpt>
      <trkpt lat="42.74154" lon="0.616">
        <ele>930.82</ele>
        <time>2018-07-29T14:14:20Z</time>
      </trkpt>
      <trkpt lat="42.74135" lon="0.61621">
        <ele>934.61</ele>
        <time>2018-07-29T14:14:23Z</time>
      </trkpt>
      <trkpt lat="42.74138" lon="0.61649">
        <ele>938.88</ele>
        <time>2018-07-29T14:14:26Z</time>
      </trkpt>
      <trkpt lat="42.74133" lon="0.61676">
        <ele>941.64</ele>
        <time>2018-07-29T14:14:29Z</time>
      </trkpt>
      <trkpt lat="42.74117" lon="0.61704">
        <ele>947.41</ele>
        <time>2018-07-29T14:14:32Z</time>
      </trkpt>
      <trkpt lat="42.74109" lon="0.61734">
        <ele>952.58</ele>
        <time>2018-07-29T14:14:35Z</time>
      </trkpt>
      <trkpt lat="42.74102" lon="0.61764">
        <ele>954.09</ele>
        <time>2018-07-29T14:14:38Z</time>
      </trkpt>
      <trkpt lat="42.74088" lon="0.6178">
        <ele>955.74</ele>
        <time>2018-07-29T14:14:40Z</time>
      </trkpt>
      <trkpt lat="42.74078" lon="0.61805">
        <ele>957.7</ele>
        <time>2018-07-29T14:14:42Z</time>
      </trkpt>
      <trkpt lat="42.74068" lon="0.61829">
        <ele>959</ele>
        <time>2018-07-29T14:14:44Z</time>
      </trkpt>
      <trkpt lat="42.74057" lon="0.61853">
        <ele>961.64</ele>
        <time>2018-07-29T14:14:46Z</time>
      </trkpt>
      <trkpt lat="42.74052" lon="0.61888">
        <ele>964.7</ele>
        <time>2018-07-29T14:14:49Z</time>
      </trkpt>
      <trkpt lat="42.74051" lon="0.61921">
        <ele>965.82</ele>
        <time>2018-07-29T14:14:52Z</time>
      </trkpt>
      <trkpt lat="42.74047" lon="0.61946">
        <ele>967.73</ele>
        <time>2018-07-29T14:14:55Z</time>
      </trkpt>
      <trkpt lat="42.74032" lon="0.61967">
        <ele>973.5</ele>
        <time>2018-07-29T14:14:58Z</time>
      </trkpt>
      <trkpt lat="42.74019" lon="0.61984">
        <ele>975.68</ele>
        <time>2018-07-29T14:15:00Z</time>
      </trkpt>
      <trkpt lat="42.74005" lon="0.62003">
        <ele>979.31</ele>
        <time>2018-07-29T14:15:02Z</time>
      </trkpt>
      <trkpt lat="42.73997" lon="0.62025">
        <ele>982.58</ele>
        <time>2018-07-29T14:15:04Z</time>
      </trkpt>
      <trkpt lat="42.73983" lon="0.62046">
        <ele>984.69</ele>
        <time>2018-07-29T14:15:06Z</time>
      </trkpt>
      <trkpt lat="42.73972" lon="0.62066">
        <ele>986.7</ele>
        <time>2018-07-29T14:15:08Z</time>
      </trkpt>
      <trkpt lat="42.73962" lon="0.62087">
        <ele>987.79</ele>
        <time>2018-07-29T14:15:10Z</time>
      </trkpt>
      <trkpt lat="42.73952" lon="0.62112">
        <ele>988.8</ele>
        <time>2018-07-29T14:15:12Z</time>
      </trkpt>
      <trkpt lat="42.73942" lon="0.62137">
        <ele>989.8</ele>
        <time>2018-07-29T14:15:14Z</time>
      </trkpt>
      <trkpt lat="42.73927" lon="0.6216">
        <ele>993.53</ele>
        <time>2018-07-29T14:15:16Z</time>
      </trkpt>
      <trkpt lat="42.73916" lon="0.62187">
        <ele>994.5</ele>
        <time>2018-07-29T14:15:18Z</time>
      </trkpt>
      <trkpt lat="42.73906" lon="0.62215">
        <ele>996.68</ele>
        <time>2018-07-29T14:15:20Z</time>
      </trkpt>
      <trkpt lat="42.73896" lon="0.62244">
        <ele>998.49</ele>
        <time>2018-07-29T14:15:22Z</time>
      </trkpt>
      <trkpt lat="42.73887" lon="0.62271">
        <ele>1000.68</ele>
        <time>2018-07-29T14:15:24Z</time>
      </trkpt>
      <trkpt lat="42.73878" lon="0.62295">
        <ele>1001.09</ele>
        <time>2018-07-29T14:15:26Z</time>
      </trkpt>
      <trkpt lat="42.73867" lon="0.6232">
        <ele>1003.65</ele>
        <time>2018-07-29T14:15:28Z</time>
      </trkpt>
      <trkpt lat="42.73859" lon="0.62344">
        <ele>1007.31</ele>
        <time>2018-07-29T14:15:30Z</time>
      </trkpt>
      <trkpt lat="42.73849" lon="0.62367">
        <ele>1007.85</ele>
        <time>2018-07-29T14:15:32Z</time>
      </trkpt>
      <trkpt lat="42.73843" lon="0.62395">
        <ele>1010.62</ele>
        <time>2018-07-29T14:15:34Z</time>
      </trkpt>
      <trkpt lat="42.73832" lon="0.62425">
        <ele>1012.9</ele>
        <time>2018-07-29T14:15:36Z</time>
      </trkpt>
      <trkpt lat="42.73821" lon="0.62456">
        <ele>1014.72</ele>
        <time>2018-07-29T14:15:38Z</time>
      </trkpt>
      <trkpt lat="42.73806" lon="0.62482">
        <ele>1018.1</ele>
        <time>2018-07-29T14:15:40Z</time>
      </trkpt>
      <trkpt lat="42.73795" lon="0.62508">
        <ele>1019.95</ele>
        <time>2018-07-29T14:15:42Z</time>
      </trkpt>
      <trkpt lat="42.73783" lon="0.62534">
        <ele>1021.51</ele>
        <time>2018-07-29T14:15:44Z</time>
      </trkpt>
      <trkpt lat="42.73767" lon="0.62558">
        <ele>1022.77</ele>
        <time>2018-07-29T14:15:46Z</time>
      </trkpt>
      <trkpt lat="42.73754" lon="0.62581">
        <ele>1024.01</ele>
        <time>2018-07-29T14:15:48Z</time>
      </trkpt>
      <trkpt lat="42.73744" lon="0.62605">
        <ele>1025.52</ele>
        <time>2018-07-29T14:15:50Z</time>
      </trkpt>
      <trkpt lat="42.73737" lon="0.62632">
        <ele>1029.79</ele>
        <time>2018-07-29T14:15:52Z</time>
      </trkpt>
      <trkpt lat="42.7373" lon="0.62657">
        <ele>1033.53</ele>
        <time>2018-07-29T14:15:54Z</time>
      </trkpt>
      <trkpt lat="42.73731" lon="0.62682">
        <ele>1035.02</ele>
        <time>2018-07-29T14:15:57Z</time>
      </trkpt>
      <trkpt lat="42.73743" lon="0.62704">
        <ele>1037.5</ele>
        <time>2018-07-29T14:16:00Z</time>
      </trkpt>
      <trkpt lat="42.73757" lon="0.62729">
        <ele>1039.09</ele>
        <time>2018-07-29T14:16:03Z</time>
      </trkpt>
      <trkpt lat="42.7376" lon="0.62756">
        <ele>1039.13</ele>
        <time>2018-07-29T14:16:05Z</time>
      </trkpt>
      <trkpt lat="42.73736" lon="0.62755">
        <ele>1039.13</ele>
        <time>2018-07-29T14:16:06Z</time>
      </trkpt>
      <trkpt lat="42.73715" lon="0.62757">
        <ele>1042.69</ele>
        <time>2018-07-29T14:16:09Z</time>
      </trkpt>
      <trkpt lat="42.7369" lon="0.62746">
        <ele>1043.18</ele>
        <time>2018-07-29T14:16:12Z</time>
      </trkpt>
      <trkpt lat="42.73669" lon="0.62759">
        <ele>1045.11</ele>
        <time>2018-07-29T14:16:16Z</time>
      </trkpt>
      <trkpt lat="42.73652" lon="0.62782">
        <ele>1047.44</ele>
        <time>2018-07-29T14:16:19Z</time>
      </trkpt>
      <trkpt lat="42.73646" lon="0.62815">
        <ele>1051.67</ele>
        <time>2018-07-29T14:16:22Z</time>
      </trkpt>
      <trkpt lat="42.73638" lon="0.62841">
        <ele>1055.9</ele>
        <time>2018-07-29T14:16:26Z</time>
      </trkpt>
      <trkpt lat="42.73617" lon="0.62857">
        <ele>1058.77</ele>
        <time>2018-07-29T14:16:29Z</time>
      </trkpt>
      <trkpt lat="42.73594" lon="0.62878">
        <ele>1061.7</ele>
        <time>2018-07-29T14:16:32Z</time>
      </trkpt>
      <trkpt lat="42.73573" lon="0.6289">
        <ele>1064.37</ele>
        <time>2018-07-29T14:16:35Z</time>
      </trkpt>
      <trkpt lat="42.7355" lon="0.62897">
        <ele>1069.3</ele>
        <time>2018-07-29T14:16:38Z</time>
      </trkpt>
      <trkpt lat="42.73532" lon="0.62906">
        <ele>1071.72</ele>
        <time>2018-07-29T14:16:41Z</time>
      </trkpt>
      <trkpt lat="42.73514" lon="0.62916">
        <ele>1072.79</ele>
        <time>2018-07-29T14:16:43Z</time>
      </trkpt>
      <trkpt lat="42.73488" lon="0.62924">
        <ele>1075.07</ele>
        <time>2018-07-29T14:16:46Z</time>
      </trkpt>
      <trkpt lat="42.7346" lon="0.6293">
        <ele>1076.16</ele>
        <time>2018-07-29T14:16:49Z</time>
      </trkpt>
      <trkpt lat="42.73442" lon="0.62936">
        <ele>1076.13</ele>
        <time>2018-07-29T14:16:51Z</time>
      </trkpt>
      <trkpt lat="42.73423" lon="0.62951">
        <ele>1076.83</ele>
        <time>2018-07-29T14:16:54Z</time>
      </trkpt>
      <trkpt lat="42.73403" lon="0.62966">
        <ele>1079.71</ele>
        <time>2018-07-29T14:16:59Z</time>
      </trkpt>
      <trkpt lat="42.73384" lon="0.62961">
        <ele>1082.71</ele>
        <time>2018-07-29T14:17:04Z</time>
      </trkpt>
      <trkpt lat="42.73402" lon="0.62957">
        <ele>1101.89</ele>
        <time>2018-07-29T14:18:26Z</time>
      </trkpt>
      <trkpt lat="42.73417" lon="0.62943">
        <ele>1101.37</ele>
        <time>2018-07-29T14:18:31Z</time>
      </trkpt>
      <trkpt lat="42.73434" lon="0.62926">
        <ele>1098.23</ele>
        <time>2018-07-29T14:18:36Z</time>
      </trkpt>
      <trkpt lat="42.73453" lon="0.62927">
        <ele>1097.16</ele>
        <time>2018-07-29T14:18:39Z</time>
      </trkpt>
      <trkpt lat="42.73471" lon="0.62924">
        <ele>1094.61</ele>
        <time>2018-07-29T14:18:43Z</time>
      </trkpt>
      <trkpt lat="42.73493" lon="0.62914">
        <ele>1090.25</ele>
        <time>2018-07-29T14:18:48Z</time>
      </trkpt>
      <trkpt lat="42.73511" lon="0.62907">
        <ele>1089.37</ele>
        <time>2018-07-29T14:18:51Z</time>
      </trkpt>
      <trkpt lat="42.7353" lon="0.629">
        <ele>1087.53</ele>
        <time>2018-07-29T14:18:54Z</time>
      </trkpt>
      <trkpt lat="42.7355" lon="0.6289">
        <ele>1085.32</ele>
        <time>2018-07-29T14:18:57Z</time>
      </trkpt>
      <trkpt lat="42.73571" lon="0.6288">
        <ele>1083.95</ele>
        <time>2018-07-29T14:19:00Z</time>
      </trkpt>
      <trkpt lat="42.73591" lon="0.6287">
        <ele>1078.96</ele>
        <time>2018-07-29T14:19:03Z</time>
      </trkpt>
      <trkpt lat="42.7361" lon="0.62855">
        <ele>1076.69</ele>
        <time>2018-07-29T14:19:06Z</time>
      </trkpt>
      <trkpt lat="42.73633" lon="0.62846">
        <ele>1075.43</ele>
        <time>2018-07-29T14:19:10Z</time>
      </trkpt>
      <trkpt lat="42.73641" lon="0.6282">
        <ele>1073.19</ele>
        <time>2018-07-29T14:19:13Z</time>
      </trkpt>
      <trkpt lat="42.73648" lon="0.62794">
        <ele>1072.16</ele>
        <time>2018-07-29T14:19:16Z</time>
      </trkpt>
      <trkpt lat="42.73661" lon="0.62765">
        <ele>1067.87</ele>
        <time>2018-07-29T14:19:19Z</time>
      </trkpt>
      <trkpt lat="42.73674" lon="0.6274">
        <ele>1065.54</ele>
        <time>2018-07-29T14:19:22Z</time>
      </trkpt>
      <trkpt lat="42.73695" lon="0.6273">
        <ele>1060.19</ele>
        <time>2018-07-29T14:19:25Z</time>
      </trkpt>
      <trkpt lat="42.73715" lon="0.62748">
        <ele>1056.58</ele>
        <time>2018-07-29T14:19:28Z</time>
      </trkpt>
      <trkpt lat="42.73737" lon="0.62754">
        <ele>1056.84</ele>
        <time>2018-07-29T14:19:31Z</time>
      </trkpt>
      <trkpt lat="42.73754" lon="0.62742">
        <ele>1054.54</ele>
        <time>2018-07-29T14:19:34Z</time>
      </trkpt>
      <trkpt lat="42.7376" lon="0.62717">
        <ele>1052.74</ele>
        <time>2018-07-29T14:19:37Z</time>
      </trkpt>
      <trkpt lat="42.73742" lon="0.62691">
        <ele>1052.89</ele>
        <time>2018-07-29T14:19:39Z</time>
      </trkpt>
      <trkpt lat="42.73731" lon="0.62665">
        <ele>1054.03</ele>
        <time>2018-07-29T14:19:42Z</time>
      </trkpt>
      <trkpt lat="42.73737" lon="0.62634">
        <ele>1053.22</ele>
        <time>2018-07-29T14:19:45Z</time>
      </trkpt>
      <trkpt lat="42.73742" lon="0.6261">
        <ele>1051.53</ele>
        <time>2018-07-29T14:19:47Z</time>
      </trkpt>
      <trkpt lat="42.73751" lon="0.62589">
        <ele>1051.17</ele>
        <time>2018-07-29T14:19:49Z</time>
      </trkpt>
      <trkpt lat="42.73763" lon="0.62567">
        <ele>1049.52</ele>
        <time>2018-07-29T14:19:51Z</time>
      </trkpt>
      <trkpt lat="42.73773" lon="0.62544">
        <ele>1048.26</ele>
        <time>2018-07-29T14:19:53Z</time>
      </trkpt>
      <trkpt lat="42.73783" lon="0.62522">
        <ele>1045.13</ele>
        <time>2018-07-29T14:19:55Z</time>
      </trkpt>
      <trkpt lat="42.73794" lon="0.62499">
        <ele>1042.4</ele>
        <time>2018-07-29T14:19:57Z</time>
      </trkpt>
      <trkpt lat="42.73803" lon="0.62472">
        <ele>1037.32</ele>
        <time>2018-07-29T14:19:59Z</time>
      </trkpt>
      <trkpt lat="42.73814" lon="0.62448">
        <ele>1034.63</ele>
        <time>2018-07-29T14:20:01Z</time>
      </trkpt>
      <trkpt lat="42.73826" lon="0.62429">
        <ele>1031.44</ele>
        <time>2018-07-29T14:20:03Z</time>
      </trkpt>
      <trkpt lat="42.73834" lon="0.62403">
        <ele>1030.46</ele>
        <time>2018-07-29T14:20:05Z</time>
      </trkpt>
      <trkpt lat="42.73843" lon="0.62376">
        <ele>1029.25</ele>
        <time>2018-07-29T14:20:07Z</time>
      </trkpt>
      <trkpt lat="42.73851" lon="0.62352">
        <ele>1029.14</ele>
        <time>2018-07-29T14:20:09Z</time>
      </trkpt>
      <trkpt lat="42.73861" lon="0.62318">
        <ele>1027.79</ele>
        <time>2018-07-29T14:20:12Z</time>
      </trkpt>
      <trkpt lat="42.73866" lon="0.62294">
        <ele>1025.37</ele>
        <time>2018-07-29T14:20:14Z</time>
      </trkpt>
      <trkpt lat="42.73875" lon="0.62273">
        <ele>1022.63</ele>
        <time>2018-07-29T14:20:16Z</time>
      </trkpt>
      <trkpt lat="42.73883" lon="0.62248">
        <ele>1020.57</ele>
        <time>2018-07-29T14:20:18Z</time>
      </trkpt>
      <trkpt lat="42.73893" lon="0.62226">
        <ele>1020.17</ele>
        <time>2018-07-29T14:20:20Z</time>
      </trkpt>
      <trkpt lat="42.73901" lon="0.62203">
        <ele>1018.52</ele>
        <time>2018-07-29T14:20:22Z</time>
      </trkpt>
      <trkpt lat="42.73912" lon="0.62181">
        <ele>1014.95</ele>
        <time>2018-07-29T14:20:24Z</time>
      </trkpt>
      <trkpt lat="42.7392" lon="0.62154">
        <ele>1014.2</ele>
        <time>2018-07-29T14:20:26Z</time>
      </trkpt>
      <trkpt lat="42.7393" lon="0.6213">
        <ele>1013.44</ele>
        <time>2018-07-29T14:20:28Z</time>
      </trkpt>
      <trkpt lat="42.73942" lon="0.62108">
        <ele>1011.55</ele>
        <time>2018-07-29T14:20:30Z</time>
      </trkpt>
      <trkpt lat="42.73953" lon="0.62086">
        <ele>1010.26</ele>
        <time>2018-07-29T14:20:32Z</time>
      </trkpt>
      <trkpt lat="42.73966" lon="0.62065">
        <ele>1006.01</ele>
        <time>2018-07-29T14:20:34Z</time>
      </trkpt>
      <trkpt lat="42.73977" lon="0.6204">
        <ele>1002.57</ele>
        <time>2018-07-29T14:20:37Z</time>
      </trkpt>
      <trkpt lat="42.7399" lon="0.62019">
        <ele>1001.17</ele>
        <time>2018-07-29T14:20:40Z</time>
      </trkpt>
      <trkpt lat="42.74004" lon="0.61995">
        <ele>999.46</ele>
        <time>2018-07-29T14:20:43Z</time>
      </trkpt>
      <trkpt lat="42.74018" lon="0.61972">
        <ele>997.32</ele>
        <time>2018-07-29T14:20:46Z</time>
      </trkpt>
      <trkpt lat="42.74031" lon="0.61948">
        <ele>995.74</ele>
        <time>2018-07-29T14:20:49Z</time>
      </trkpt>
      <trkpt lat="42.7404" lon="0.61921">
        <ele>995.34</ele>
        <time>2018-07-29T14:20:53Z</time>
      </trkpt>
      <trkpt lat="42.74048" lon="0.61897">
        <ele>994.08</ele>
        <time>2018-07-29T14:20:57Z</time>
      </trkpt>
      <trkpt lat="42.74047" lon="0.61867">
        <ele>992.46</ele>
        <time>2018-07-29T14:21:01Z</time>
      </trkpt>
      <trkpt lat="42.74052" lon="0.61837">
        <ele>987.88</ele>
        <time>2018-07-29T14:21:04Z</time>
      </trkpt>
      <trkpt lat="42.74068" lon="0.61807">
        <ele>986.24</ele>
        <time>2018-07-29T14:21:07Z</time>
      </trkpt>
      <trkpt lat="42.74082" lon="0.61788">
        <ele>983.62</ele>
        <time>2018-07-29T14:21:09Z</time>
      </trkpt>
      <trkpt lat="42.74093" lon="0.61767">
        <ele>980.65</ele>
        <time>2018-07-29T14:21:11Z</time>
      </trkpt>
      <trkpt lat="42.74107" lon="0.61743">
        <ele>978.26</ele>
        <time>2018-07-29T14:21:14Z</time>
      </trkpt>
      <trkpt lat="42.74116" lon="0.6172">
        <ele>972.75</ele>
        <time>2018-07-29T14:21:17Z</time>
      </trkpt>
      <trkpt lat="42.7413" lon="0.61693">
        <ele>965.73</ele>
        <time>2018-07-29T14:21:20Z</time>
      </trkpt>
      <trkpt lat="42.74142" lon="0.61667">
        <ele>963.26</ele>
        <time>2018-07-29T14:21:23Z</time>
      </trkpt>
      <trkpt lat="42.74143" lon="0.61639">
        <ele>960.61</ele>
        <time>2018-07-29T14:21:26Z</time>
      </trkpt>
      <trkpt lat="42.74149" lon="0.61613">
        <ele>959.44</ele>
        <time>2018-07-29T14:21:29Z</time>
      </trkpt>
      <trkpt lat="42.74161" lon="0.61589">
        <ele>959.14</ele>
        <time>2018-07-29T14:21:32Z</time>
      </trkpt>
      <trkpt lat="42.74186" lon="0.61575">
        <ele>959.13</ele>
        <time>2018-07-29T14:21:35Z</time>
      </trkpt>
      <trkpt lat="42.74207" lon="0.61565">
        <ele>955.3</ele>
        <time>2018-07-29T14:21:38Z</time>
      </trkpt>
      <trkpt lat="42.74212" lon="0.61537">
        <ele>953.46</ele>
        <time>2018-07-29T14:21:41Z</time>
      </trkpt>
      <trkpt lat="42.74216" lon="0.61501">
        <ele>946.49</ele>
        <time>2018-07-29T14:21:44Z</time>
      </trkpt>
      <trkpt lat="42.74226" lon="0.61476">
        <ele>942.03</ele>
        <time>2018-07-29T14:21:46Z</time>
      </trkpt>
      <trkpt lat="42.74228" lon="0.61447">
        <ele>937.08</ele>
        <time>2018-07-29T14:21:48Z</time>
      </trkpt>
      <trkpt lat="42.74234" lon="0.61413">
        <ele>934.82</ele>
        <time>2018-07-29T14:21:51Z</time>
      </trkpt>
      <trkpt lat="42.74236" lon="0.61382">
        <ele>934.21</ele>
        <time>2018-07-29T14:21:54Z</time>
      </trkpt>
      <trkpt lat="42.74245" lon="0.61357">
        <ele>931.55</ele>
        <time>2018-07-29T14:21:57Z</time>
      </trkpt>
      <trkpt lat="42.74257" lon="0.61327">
        <ele>928.62</ele>
        <time>2018-07-29T14:22:00Z</time>
      </trkpt>
      <trkpt lat="42.74269" lon="0.61307">
        <ele>925.65</ele>
        <time>2018-07-29T14:22:02Z</time>
      </trkpt>
      <trkpt lat="42.74279" lon="0.61285">
        <ele>922.66</ele>
        <time>2018-07-29T14:22:04Z</time>
      </trkpt>
      <trkpt lat="42.74289" lon="0.61256">
        <ele>920.47</ele>
        <time>2018-07-29T14:22:07Z</time>
      </trkpt>
      <trkpt lat="42.74301" lon="0.61236">
        <ele>916.29</ele>
        <time>2018-07-29T14:22:12Z</time>
      </trkpt>
      <trkpt lat="42.74315" lon="0.61213">
        <ele>913.28</ele>
        <time>2018-07-29T14:22:16Z</time>
      </trkpt>
      <trkpt lat="42.74332" lon="0.61196">
        <ele>908.67</ele>
        <time>2018-07-29T14:22:19Z</time>
      </trkpt>
      <trkpt lat="42.74357" lon="0.61178">
        <ele>908.14</ele>
        <time>2018-07-29T14:22:22Z</time>
      </trkpt>
      <trkpt lat="42.74389" lon="0.61183">
        <ele>907.43</ele>
        <time>2018-07-29T14:22:24Z</time>
      </trkpt>
      <trkpt lat="42.74411" lon="0.61177">
        <ele>906.46</ele>
        <time>2018-07-29T14:22:26Z</time>
      </trkpt>
      <trkpt lat="42.74432" lon="0.61168">
        <ele>905.25</ele>
        <time>2018-07-29T14:22:28Z</time>
      </trkpt>
      <trkpt lat="42.74453" lon="0.61156">
        <ele>903.53</ele>
        <time>2018-07-29T14:22:30Z</time>
      </trkpt>
      <trkpt lat="42.74465" lon="0.61137">
        <ele>903.17</ele>
        <time>2018-07-29T14:22:32Z</time>
      </trkpt>
      <trkpt lat="42.74483" lon="0.61119">
        <ele>902.16</ele>
        <time>2018-07-29T14:22:35Z</time>
      </trkpt>
      <trkpt lat="42.74502" lon="0.61123">
        <ele>902.34</ele>
        <time>2018-07-29T14:22:37Z</time>
      </trkpt>
      <trkpt lat="42.74525" lon="0.61136">
        <ele>899.62</ele>
        <time>2018-07-29T14:22:40Z</time>
      </trkpt>
      <trkpt lat="42.74551" lon="0.61138">
        <ele>895.16</ele>
        <time>2018-07-29T14:22:43Z</time>
      </trkpt>
      <trkpt lat="42.74572" lon="0.61132">
        <ele>892.61</ele>
        <time>2018-07-29T14:22:45Z</time>
      </trkpt>
      <trkpt lat="42.74591" lon="0.61132">
        <ele>888.95</ele>
        <time>2018-07-29T14:22:47Z</time>
      </trkpt>
      <trkpt lat="42.74608" lon="0.61125">
        <ele>882.33</ele>
        <time>2018-07-29T14:22:52Z</time>
      </trkpt>
      <trkpt lat="42.74587" lon="0.6112">
        <ele>876.44</ele>
        <time>2018-07-29T14:23:01Z</time>
      </trkpt>
      <trkpt lat="42.74568" lon="0.61119">
        <ele>873.85</ele>
        <time>2018-07-29T14:23:03Z</time>
      </trkpt>
      <trkpt lat="42.74543" lon="0.61114">
        <ele>871.05</ele>
        <time>2018-07-29T14:23:06Z</time>
      </trkpt>
      <trkpt lat="42.74531" lon="0.61092">
        <ele>870</ele>
        <time>2018-07-29T14:23:08Z</time>
      </trkpt>
      <trkpt lat="42.74518" lon="0.61069">
        <ele>871.73</ele>
        <time>2018-07-29T14:23:10Z</time>
      </trkpt>
      <trkpt lat="42.74501" lon="0.61057">
        <ele>872.09</ele>
        <time>2018-07-29T14:23:12Z</time>
      </trkpt>
      <trkpt lat="42.74484" lon="0.61045">
        <ele>870.73</ele>
        <time>2018-07-29T14:23:14Z</time>
      </trkpt>
      <trkpt lat="42.74472" lon="0.61023">
        <ele>870.18</ele>
        <time>2018-07-29T14:23:16Z</time>
      </trkpt>
      <trkpt lat="42.74461" lon="0.60997">
        <ele>871.04</ele>
        <time>2018-07-29T14:23:18Z</time>
      </trkpt>
      <trkpt lat="42.74449" lon="0.60966">
        <ele>872.03</ele>
        <time>2018-07-29T14:23:20Z</time>
      </trkpt>
      <trkpt lat="42.7445" lon="0.6093">
        <ele>872.12</ele>
        <time>2018-07-29T14:23:22Z</time>
      </trkpt>
      <trkpt lat="42.74447" lon="0.60895">
        <ele>870.31</ele>
        <time>2018-07-29T14:23:24Z</time>
      </trkpt>
      <trkpt lat="42.74449" lon="0.60858">
        <ele>870.36</ele>
        <time>2018-07-29T14:23:26Z</time>
      </trkpt>
      <trkpt lat="42.74458" lon="0.60827">
        <ele>871.76</ele>
        <time>2018-07-29T14:23:28Z</time>
      </trkpt>
      <trkpt lat="42.74459" lon="0.60795">
        <ele>871.4</ele>
        <time>2018-07-29T14:23:30Z</time>
      </trkpt>
      <trkpt lat="42.74448" lon="0.60762">
        <ele>874.16</ele>
        <time>2018-07-29T14:23:32Z</time>
      </trkpt>
      <trkpt lat="42.74442" lon="0.60724">
        <ele>877.35</ele>
        <time>2018-07-29T14:23:34Z</time>
      </trkpt>
      <trkpt lat="42.74434" lon="0.60683">
        <ele>879.67</ele>
        <time>2018-07-29T14:23:36Z</time>
      </trkpt>
      <trkpt lat="42.74425" lon="0.60642">
        <ele>882.61</ele>
        <time>2018-07-29T14:23:38Z</time>
      </trkpt>
      <trkpt lat="42.74406" lon="0.60609">
        <ele>884.48</ele>
        <time>2018-07-29T14:23:40Z</time>
      </trkpt>
      <trkpt lat="42.74381" lon="0.6058">
        <ele>885.07</ele>
        <time>2018-07-29T14:23:42Z</time>
      </trkpt>
      <trkpt lat="42.74363" lon="0.60545">
        <ele>886.73</ele>
        <time>2018-07-29T14:23:44Z</time>
      </trkpt>
      <trkpt lat="42.74349" lon="0.60505">
        <ele>888</ele>
        <time>2018-07-29T14:23:46Z</time>
      </trkpt>
      <trkpt lat="42.74339" lon="0.60464">
        <ele>888.12</ele>
        <time>2018-07-29T14:23:48Z</time>
      </trkpt>
      <trkpt lat="42.74329" lon="0.60418">
        <ele>888.83</ele>
        <time>2018-07-29T14:23:50Z</time>
      </trkpt>
      <trkpt lat="42.74324" lon="0.60387">
        <ele>889.04</ele>
        <time>2018-07-29T14:23:51Z</time>
      </trkpt>
      <trkpt lat="42.74322" lon="0.6036">
        <ele>889.1</ele>
        <time>2018-07-29T14:23:52Z</time>
      </trkpt>
      <trkpt lat="42.7432" lon="0.60331">
        <ele>889.82</ele>
        <time>2018-07-29T14:23:53Z</time>
      </trkpt>
      <trkpt lat="42.7432" lon="0.60305">
        <ele>890.04</ele>
        <time>2018-07-29T14:23:54Z</time>
      </trkpt>
      <trkpt lat="42.74317" lon="0.60277">
        <ele>890.1</ele>
        <time>2018-07-29T14:23:55Z</time>
      </trkpt>
      <trkpt lat="42.74317" lon="0.60249">
        <ele>890.12</ele>
        <time>2018-07-29T14:23:56Z</time>
      </trkpt>
      <trkpt lat="42.74315" lon="0.60221">
        <ele>890.83</ele>
        <time>2018-07-29T14:23:57Z</time>
      </trkpt>
      <trkpt lat="42.74314" lon="0.60196">
        <ele>892.44</ele>
        <time>2018-07-29T14:23:58Z</time>
      </trkpt>
      <trkpt lat="42.74313" lon="0.60168">
        <ele>893.62</ele>
        <time>2018-07-29T14:23:59Z</time>
      </trkpt>
      <trkpt lat="42.74316" lon="0.60142">
        <ele>893.28</ele>
        <time>2018-07-29T14:24:00Z</time>
      </trkpt>
      <trkpt lat="42.74326" lon="0.60105">
        <ele>894.75</ele>
        <time>2018-07-29T14:24:02Z</time>
      </trkpt>
      <trkpt lat="42.74329" lon="0.6008">
        <ele>895.72</ele>
        <time>2018-07-29T14:24:03Z</time>
      </trkpt>
      <trkpt lat="42.74331" lon="0.60053">
        <ele>896.71</ele>
        <time>2018-07-29T14:24:04Z</time>
      </trkpt>
      <trkpt lat="42.74338" lon="0.60025">
        <ele>898.4</ele>
        <time>2018-07-29T14:24:05Z</time>
      </trkpt>
      <trkpt lat="42.74342" lon="0.59999">
        <ele>901.01</ele>
        <time>2018-07-29T14:24:06Z</time>
      </trkpt>
      <trkpt lat="42.74346" lon="0.59971">
        <ele>902.49</ele>
        <time>2018-07-29T14:24:07Z</time>
      </trkpt>
      <trkpt lat="42.74351" lon="0.59944">
        <ele>902.94</ele>
        <time>2018-07-29T14:24:08Z</time>
      </trkpt>
      <trkpt lat="42.74352" lon="0.59918">
        <ele>905.17</ele>
        <time>2018-07-29T14:24:09Z</time>
      </trkpt>
      <trkpt lat="42.74352" lon="0.5989">
        <ele>907.24</ele>
        <time>2018-07-29T14:24:10Z</time>
      </trkpt>
      <trkpt lat="42.74353" lon="0.59865">
        <ele>909.26</ele>
        <time>2018-07-29T14:24:11Z</time>
      </trkpt>
      <trkpt lat="42.74355" lon="0.59839">
        <ele>910.57</ele>
        <time>2018-07-29T14:24:12Z</time>
      </trkpt>
      <trkpt lat="42.74353" lon="0.59814">
        <ele>911.66</ele>
        <time>2018-07-29T14:24:13Z</time>
      </trkpt>
      <trkpt lat="42.74349" lon="0.59787">
        <ele>911.99</ele>
        <time>2018-07-29T14:24:14Z</time>
      </trkpt>
      <trkpt lat="42.74341" lon="0.59764">
        <ele>912.09</ele>
        <time>2018-07-29T14:24:15Z</time>
      </trkpt>
      <trkpt lat="42.74336" lon="0.59725">
        <ele>915.35</ele>
        <time>2018-07-29T14:24:17Z</time>
      </trkpt>
      <trkpt lat="42.74354" lon="0.59689">
        <ele>921.8</ele>
        <time>2018-07-29T14:24:19Z</time>
      </trkpt>
      <trkpt lat="42.74361" lon="0.59665">
        <ele>922.73</ele>
        <time>2018-07-29T14:24:20Z</time>
      </trkpt>
      <trkpt lat="42.74367" lon="0.5964">
        <ele>923.71</ele>
        <time>2018-07-29T14:24:21Z</time>
      </trkpt>
      <trkpt lat="42.74377" lon="0.59613">
        <ele>924.7</ele>
        <time>2018-07-29T14:24:22Z</time>
      </trkpt>
      <trkpt lat="42.74388" lon="0.59585">
        <ele>925.7</ele>
        <time>2018-07-29T14:24:23Z</time>
      </trkpt>
      <trkpt lat="42.74397" lon="0.59555">
        <ele>927.4</ele>
        <time>2018-07-29T14:24:24Z</time>
      </trkpt>
      <trkpt lat="42.74412" lon="0.59528">
        <ele>928.61</ele>
        <time>2018-07-29T14:24:25Z</time>
      </trkpt>
      <trkpt lat="42.74423" lon="0.59498">
        <ele>929.67</ele>
        <time>2018-07-29T14:24:26Z</time>
      </trkpt>
      <trkpt lat="42.74436" lon="0.59471">
        <ele>930.69</ele>
        <time>2018-07-29T14:24:27Z</time>
      </trkpt>
      <trkpt lat="42.74447" lon="0.59446">
        <ele>931</ele>
        <time>2018-07-29T14:24:28Z</time>
      </trkpt>
      <trkpt lat="42.74457" lon="0.5942">
        <ele>931.09</ele>
        <time>2018-07-29T14:24:29Z</time>
      </trkpt>
      <trkpt lat="42.74463" lon="0.59394">
        <ele>932.52</ele>
        <time>2018-07-29T14:24:30Z</time>
      </trkpt>
      <trkpt lat="42.74465" lon="0.59366">
        <ele>934.35</ele>
        <time>2018-07-29T14:24:31Z</time>
      </trkpt>
      <trkpt lat="42.74468" lon="0.5934">
        <ele>936.29</ele>
        <time>2018-07-29T14:24:32Z</time>
      </trkpt>
      <trkpt lat="42.74475" lon="0.59316">
        <ele>939.68</ele>
        <time>2018-07-29T14:24:33Z</time>
      </trkpt>
      <trkpt lat="42.74484" lon="0.59293">
        <ele>942.09</ele>
        <time>2018-07-29T14:24:34Z</time>
      </trkpt>
      <trkpt lat="42.74492" lon="0.5927">
        <ele>943.52</ele>
        <time>2018-07-29T14:24:35Z</time>
      </trkpt>
      <trkpt lat="42.74502" lon="0.59248">
        <ele>946.05</ele>
        <time>2018-07-29T14:24:36Z</time>
      </trkpt>
      <trkpt lat="42.74522" lon="0.59209">
        <ele>948.85</ele>
        <time>2018-07-29T14:24:38Z</time>
      </trkpt>
      <trkpt lat="42.74537" lon="0.59193">
        <ele>949.05</ele>
        <time>2018-07-29T14:24:39Z</time>
      </trkpt>
      <trkpt lat="42.7455" lon="0.59175">
        <ele>950.51</ele>
        <time>2018-07-29T14:24:40Z</time>
      </trkpt>
      <trkpt lat="42.74563" lon="0.59158">
        <ele>950.94</ele>
        <time>2018-07-29T14:24:41Z</time>
      </trkpt>
      <trkpt lat="42.74576" lon="0.59139">
        <ele>952.47</ele>
        <time>2018-07-29T14:24:42Z</time>
      </trkpt>
      <trkpt lat="42.7459" lon="0.59122">
        <ele>954.33</ele>
        <time>2018-07-29T14:24:43Z</time>
      </trkpt>
      <trkpt lat="42.74592" lon="0.59091">
        <ele>958.39</ele>
        <time>2018-07-29T14:24:44Z</time>
      </trkpt>
      <trkpt lat="42.74601" lon="0.59068">
        <ele>961.71</ele>
        <time>2018-07-29T14:24:45Z</time>
      </trkpt>
      <trkpt lat="42.74608" lon="0.59042">
        <ele>964.8</ele>
        <time>2018-07-29T14:24:46Z</time>
      </trkpt>
      <trkpt lat="42.74617" lon="0.59018">
        <ele>966.43</ele>
        <time>2018-07-29T14:24:47Z</time>
      </trkpt>
      <trkpt lat="42.74626" lon="0.58994">
        <ele>968.32</ele>
        <time>2018-07-29T14:24:48Z</time>
      </trkpt>
      <trkpt lat="42.74632" lon="0.58969">
        <ele>970.29</ele>
        <time>2018-07-29T14:24:49Z</time>
      </trkpt>
      <trkpt lat="42.74637" lon="0.58943">
        <ele>972.98</ele>
        <time>2018-07-29T14:24:50Z</time>
      </trkpt>
      <trkpt lat="42.7464" lon="0.58916">
        <ele>975.88</ele>
        <time>2018-07-29T14:24:51Z</time>
      </trkpt>
      <trkpt lat="42.74645" lon="0.58889">
        <ele>977.46</ele>
        <time>2018-07-29T14:24:52Z</time>
      </trkpt>
      <trkpt lat="42.7465" lon="0.58863">
        <ele>979.33</ele>
        <time>2018-07-29T14:24:53Z</time>
      </trkpt>
      <trkpt lat="42.74657" lon="0.58839">
        <ele>981.29</ele>
        <time>2018-07-29T14:24:54Z</time>
      </trkpt>
      <trkpt lat="42.74665" lon="0.58814">
        <ele>983.28</ele>
        <time>2018-07-29T14:24:55Z</time>
      </trkpt>
      <trkpt lat="42.74672" lon="0.58789">
        <ele>985.27</ele>
        <time>2018-07-29T14:24:56Z</time>
      </trkpt>
      <trkpt lat="42.74678" lon="0.58764">
        <ele>986.57</ele>
        <time>2018-07-29T14:24:57Z</time>
      </trkpt>
      <trkpt lat="42.74678" lon="0.58735">
        <ele>989.76</ele>
        <time>2018-07-29T14:24:58Z</time>
      </trkpt>
      <trkpt lat="42.74684" lon="0.5871">
        <ele>992.82</ele>
        <time>2018-07-29T14:24:59Z</time>
      </trkpt>
      <trkpt lat="42.74688" lon="0.58661">
        <ele>997.93</ele>
        <time>2018-07-29T14:25:01Z</time>
      </trkpt>
      <trkpt lat="42.74697" lon="0.58618">
        <ele>1002.94</ele>
        <time>2018-07-29T14:25:03Z</time>
      </trkpt>
      <trkpt lat="42.74715" lon="0.58584">
        <ele>1008.15</ele>
        <time>2018-07-29T14:25:05Z</time>
      </trkpt>
      <trkpt lat="42.74739" lon="0.58552">
        <ele>1012.47</ele>
        <time>2018-07-29T14:25:07Z</time>
      </trkpt>
      <trkpt lat="42.74765" lon="0.58524">
        <ele>1016.5</ele>
        <time>2018-07-29T14:25:09Z</time>
      </trkpt>
      <trkpt lat="42.74793" lon="0.58504">
        <ele>1017.77</ele>
        <time>2018-07-29T14:25:11Z</time>
      </trkpt>
      <trkpt lat="42.74819" lon="0.58479">
        <ele>1018.1</ele>
        <time>2018-07-29T14:25:13Z</time>
      </trkpt>
      <trkpt lat="42.74834" lon="0.5844">
        <ele>1021.56</ele>
        <time>2018-07-29T14:25:15Z</time>
      </trkpt>
      <trkpt lat="42.74848" lon="0.58396">
        <ele>1023.69</ele>
        <time>2018-07-29T14:25:17Z</time>
      </trkpt>
      <trkpt lat="42.74854" lon="0.58373">
        <ele>1026.8</ele>
        <time>2018-07-29T14:25:18Z</time>
      </trkpt>
      <trkpt lat="42.7486" lon="0.58326">
        <ele>1031.23</ele>
        <time>2018-07-29T14:25:20Z</time>
      </trkpt>
      <trkpt lat="42.74863" lon="0.5828">
        <ele>1037.09</ele>
        <time>2018-07-29T14:25:22Z</time>
      </trkpt>
      <trkpt lat="42.74865" lon="0.58234">
        <ele>1041.26</ele>
        <time>2018-07-29T14:25:24Z</time>
      </trkpt>
      <trkpt lat="42.74864" lon="0.58186">
        <ele>1044.57</ele>
        <time>2018-07-29T14:25:26Z</time>
      </trkpt>
      <trkpt lat="42.74869" lon="0.58141">
        <ele>1049.21</ele>
        <time>2018-07-29T14:25:28Z</time>
      </trkpt>
      <trkpt lat="42.74875" lon="0.58097">
        <ele>1051.66</ele>
        <time>2018-07-29T14:25:30Z</time>
      </trkpt>
      <trkpt lat="42.74877" lon="0.58056">
        <ele>1054.61</ele>
        <time>2018-07-29T14:25:32Z</time>
      </trkpt>
      <trkpt lat="42.74877" lon="0.58013">
        <ele>1056.69</ele>
        <time>2018-07-29T14:25:34Z</time>
      </trkpt>
      <trkpt lat="42.7487" lon="0.57973">
        <ele>1057.79</ele>
        <time>2018-07-29T14:25:36Z</time>
      </trkpt>
      <trkpt lat="42.74867" lon="0.57936">
        <ele>1059.5</ele>
        <time>2018-07-29T14:25:38Z</time>
      </trkpt>
      <trkpt lat="42.74872" lon="0.57898">
        <ele>1060.07</ele>
        <time>2018-07-29T14:25:40Z</time>
      </trkpt>
      <trkpt lat="42.74879" lon="0.57859">
        <ele>1061.03</ele>
        <time>2018-07-29T14:25:42Z</time>
      </trkpt>
      <trkpt lat="42.74893" lon="0.57828">
        <ele>1062.03</ele>
        <time>2018-07-29T14:25:44Z</time>
      </trkpt>
      <trkpt lat="42.74911" lon="0.57793">
        <ele>1062.12</ele>
        <time>2018-07-29T14:25:46Z</time>
      </trkpt>
      <trkpt lat="42.74921" lon="0.57753">
        <ele>1062.83</ele>
        <time>2018-07-29T14:25:48Z</time>
      </trkpt>
      <trkpt lat="42.74921" lon="0.57709">
        <ele>1063.1</ele>
        <time>2018-07-29T14:25:50Z</time>
      </trkpt>
      <trkpt lat="42.74907" lon="0.57671">
        <ele>1064.74</ele>
        <time>2018-07-29T14:25:52Z</time>
      </trkpt>
      <trkpt lat="42.74887" lon="0.57636">
        <ele>1066</ele>
        <time>2018-07-29T14:25:54Z</time>
      </trkpt>
      <trkpt lat="42.74875" lon="0.57596">
        <ele>1067.31</ele>
        <time>2018-07-29T14:25:56Z</time>
      </trkpt>
      <trkpt lat="42.74866" lon="0.57551">
        <ele>1070.37</ele>
        <time>2018-07-29T14:25:58Z</time>
      </trkpt>
      <trkpt lat="42.74861" lon="0.57505">
        <ele>1073.16</ele>
        <time>2018-07-29T14:26:00Z</time>
      </trkpt>
      <trkpt lat="42.74859" lon="0.57456">
        <ele>1074.95</ele>
        <time>2018-07-29T14:26:02Z</time>
      </trkpt>
      <trkpt lat="42.74861" lon="0.57431">
        <ele>1075.78</ele>
        <time>2018-07-29T14:26:03Z</time>
      </trkpt>
      <trkpt lat="42.74867" lon="0.57384">
        <ele>1076.1</ele>
        <time>2018-07-29T14:26:05Z</time>
      </trkpt>
      <trkpt lat="42.74857" lon="0.57353">
        <ele>1076.83</ele>
        <time>2018-07-29T14:26:07Z</time>
      </trkpt>
      <trkpt lat="42.74842" lon="0.57335">
        <ele>1078.44</ele>
        <time>2018-07-29T14:26:08Z</time>
      </trkpt>
      <trkpt lat="42.74825" lon="0.57297">
        <ele>1081.38</ele>
        <time>2018-07-29T14:26:10Z</time>
      </trkpt>
      <trkpt lat="42.74807" lon="0.5726">
        <ele>1082.97</ele>
        <time>2018-07-29T14:26:12Z</time>
      </trkpt>
      <trkpt lat="42.74789" lon="0.5723">
        <ele>1085.64</ele>
        <time>2018-07-29T14:26:14Z</time>
      </trkpt>
      <trkpt lat="42.74773" lon="0.57205">
        <ele>1087</ele>
        <time>2018-07-29T14:26:16Z</time>
      </trkpt>
      <trkpt lat="42.74766" lon="0.57169">
        <ele>1089.01</ele>
        <time>2018-07-29T14:26:19Z</time>
      </trkpt>
      <trkpt lat="42.74762" lon="0.57139">
        <ele>1089.82</ele>
        <time>2018-07-29T14:26:21Z</time>
      </trkpt>
      <trkpt lat="42.74757" lon="0.57106">
        <ele>1090.1</ele>
        <time>2018-07-29T14:26:23Z</time>
      </trkpt>
      <trkpt lat="42.74747" lon="0.57073">
        <ele>1090.13</ele>
        <time>2018-07-29T14:26:25Z</time>
      </trkpt>
      <trkpt lat="42.74735" lon="0.57039">
        <ele>1090.13</ele>
        <time>2018-07-29T14:26:27Z</time>
      </trkpt>
      <trkpt lat="42.74722" lon="0.57003">
        <ele>1090.34</ele>
        <time>2018-07-29T14:26:29Z</time>
      </trkpt>
      <trkpt lat="42.74708" lon="0.56967">
        <ele>1090.85</ele>
        <time>2018-07-29T14:26:31Z</time>
      </trkpt>
      <trkpt lat="42.74694" lon="0.5693">
        <ele>1091.1</ele>
        <time>2018-07-29T14:26:33Z</time>
      </trkpt>
      <trkpt lat="42.74684" lon="0.56893">
        <ele>1091.34</ele>
        <time>2018-07-29T14:26:35Z</time>
      </trkpt>
      <trkpt lat="42.74681" lon="0.56852">
        <ele>1090.24</ele>
        <time>2018-07-29T14:26:37Z</time>
      </trkpt>
      <trkpt lat="42.74675" lon="0.5681">
        <ele>1090.14</ele>
        <time>2018-07-29T14:26:39Z</time>
      </trkpt>
      <trkpt lat="42.74665" lon="0.5677">
        <ele>1089.43</ele>
        <time>2018-07-29T14:26:41Z</time>
      </trkpt>
      <trkpt lat="42.7465" lon="0.56731">
        <ele>1089.16</ele>
        <time>2018-07-29T14:26:43Z</time>
      </trkpt>
      <trkpt lat="42.74631" lon="0.56696">
        <ele>1089.13</ele>
        <time>2018-07-29T14:26:45Z</time>
      </trkpt>
      <trkpt lat="42.74612" lon="0.5666">
        <ele>1089.83</ele>
        <time>2018-07-29T14:26:47Z</time>
      </trkpt>
      <trkpt lat="42.74595" lon="0.56621">
        <ele>1090.1</ele>
        <time>2018-07-29T14:26:49Z</time>
      </trkpt>
      <trkpt lat="42.74585" lon="0.56581">
        <ele>1091.04</ele>
        <time>2018-07-29T14:26:51Z</time>
      </trkpt>
      <trkpt lat="42.74575" lon="0.5654">
        <ele>1092.03</ele>
        <time>2018-07-29T14:26:53Z</time>
      </trkpt>
      <trkpt lat="42.74565" lon="0.56503">
        <ele>1092.12</ele>
        <time>2018-07-29T14:26:55Z</time>
      </trkpt>
      <trkpt lat="42.74549" lon="0.56472">
        <ele>1092.83</ele>
        <time>2018-07-29T14:26:57Z</time>
      </trkpt>
      <trkpt lat="42.74534" lon="0.5644">
        <ele>1093.1</ele>
        <time>2018-07-29T14:26:59Z</time>
      </trkpt>
      <trkpt lat="42.74518" lon="0.56409">
        <ele>1094.04</ele>
        <time>2018-07-29T14:27:01Z</time>
      </trkpt>
      <trkpt lat="42.74502" lon="0.56377">
        <ele>1094.82</ele>
        <time>2018-07-29T14:27:03Z</time>
      </trkpt>
      <trkpt lat="42.74486" lon="0.56344">
        <ele>1095.1</ele>
        <time>2018-07-29T14:27:05Z</time>
      </trkpt>
      <trkpt lat="42.7447" lon="0.5631">
        <ele>1096.04</ele>
        <time>2018-07-29T14:27:07Z</time>
      </trkpt>
      <trkpt lat="42.74454" lon="0.56277">
        <ele>1097.03</ele>
        <time>2018-07-29T14:27:09Z</time>
      </trkpt>
      <trkpt lat="42.74439" lon="0.56245">
        <ele>1098.03</ele>
        <time>2018-07-29T14:27:11Z</time>
      </trkpt>
      <trkpt lat="42.74423" lon="0.56215">
        <ele>1099.73</ele>
        <time>2018-07-29T14:27:13Z</time>
      </trkpt>
      <trkpt lat="42.74409" lon="0.56184">
        <ele>1101</ele>
        <time>2018-07-29T14:27:15Z</time>
      </trkpt>
      <trkpt lat="42.74397" lon="0.56156">
        <ele>1101.82</ele>
        <time>2018-07-29T14:27:17Z</time>
      </trkpt>
      <trkpt lat="42.74385" lon="0.56132">
        <ele>1102.1</ele>
        <time>2018-07-29T14:27:19Z</time>
      </trkpt>
      <trkpt lat="42.74371" lon="0.56115">
        <ele>1103.04</ele>
        <time>2018-07-29T14:27:21Z</time>
      </trkpt>
      <trkpt lat="42.74356" lon="0.561">
        <ele>1103.82</ele>
        <time>2018-07-29T14:27:23Z</time>
      </trkpt>
      <trkpt lat="42.7434" lon="0.56087">
        <ele>1103.89</ele>
        <time>2018-07-29T14:27:25Z</time>
      </trkpt>
      <trkpt lat="42.74321" lon="0.56072">
        <ele>1104.11</ele>
        <time>2018-07-29T14:27:27Z</time>
      </trkpt>
      <trkpt lat="42.74302" lon="0.56057">
        <ele>1104.83</ele>
        <time>2018-07-29T14:27:29Z</time>
      </trkpt>
      <trkpt lat="42.74285" lon="0.56045">
        <ele>1105.1</ele>
        <time>2018-07-29T14:27:31Z</time>
      </trkpt>
      <trkpt lat="42.74266" lon="0.56034">
        <ele>1106.04</ele>
        <time>2018-07-29T14:27:33Z</time>
      </trkpt>
      <trkpt lat="42.74246" lon="0.56027">
        <ele>1106.82</ele>
        <time>2018-07-29T14:27:35Z</time>
      </trkpt>
      <trkpt lat="42.74225" lon="0.56018">
        <ele>1107.8</ele>
        <time>2018-07-29T14:27:37Z</time>
      </trkpt>
      <trkpt lat="42.74202" lon="0.56011">
        <ele>1108.8</ele>
        <time>2018-07-29T14:27:39Z</time>
      </trkpt>
      <trkpt lat="42.74178" lon="0.56005">
        <ele>1109.8</ele>
        <time>2018-07-29T14:27:41Z</time>
      </trkpt>
      <trkpt lat="42.74156" lon="0.55997">
        <ele>1112.83</ele>
        <time>2018-07-29T14:27:43Z</time>
      </trkpt>
      <trkpt lat="42.74132" lon="0.55988">
        <ele>1113.31</ele>
        <time>2018-07-29T14:27:45Z</time>
      </trkpt>
      <trkpt lat="42.74108" lon="0.55976">
        <ele>1113.15</ele>
        <time>2018-07-29T14:27:47Z</time>
      </trkpt>
      <trkpt lat="42.74096" lon="0.55946">
        <ele>1114.95</ele>
        <time>2018-07-29T14:27:49Z</time>
      </trkpt>
      <trkpt lat="42.74084" lon="0.55916">
        <ele>1115.11</ele>
        <time>2018-07-29T14:27:51Z</time>
      </trkpt>
      <trkpt lat="42.74075" lon="0.55883">
        <ele>1116.04</ele>
        <time>2018-07-29T14:27:53Z</time>
      </trkpt>
      <trkpt lat="42.74062" lon="0.55852">
        <ele>1117.03</ele>
        <time>2018-07-29T14:27:55Z</time>
      </trkpt>
      <trkpt lat="42.74049" lon="0.55822">
        <ele>1118.03</ele>
        <time>2018-07-29T14:27:57Z</time>
      </trkpt>
      <trkpt lat="42.74036" lon="0.55796">
        <ele>1118.82</ele>
        <time>2018-07-29T14:27:59Z</time>
      </trkpt>
      <trkpt lat="42.74024" lon="0.5577">
        <ele>1118.4</ele>
        <time>2018-07-29T14:28:01Z</time>
      </trkpt>
      <trkpt lat="42.74012" lon="0.55746">
        <ele>1117.45</ele>
        <time>2018-07-29T14:28:03Z</time>
      </trkpt>
      <trkpt lat="42.74001" lon="0.55723">
        <ele>1118.07</ele>
        <time>2018-07-29T14:28:05Z</time>
      </trkpt>
      <trkpt lat="42.73988" lon="0.55702">
        <ele>1118.12</ele>
        <time>2018-07-29T14:28:07Z</time>
      </trkpt>
      <trkpt lat="42.73973" lon="0.5569">
        <ele>1118.13</ele>
        <time>2018-07-29T14:28:09Z</time>
      </trkpt>
      <trkpt lat="42.73947" lon="0.55687">
        <ele>1120.08</ele>
        <time>2018-07-29T14:28:12Z</time>
      </trkpt>
      <trkpt lat="42.73923" lon="0.55684">
        <ele>1120.13</ele>
        <time>2018-07-29T14:28:15Z</time>
      </trkpt>
      <trkpt lat="42.73899" lon="0.55682">
        <ele>1120.19</ele>
        <time>2018-07-29T14:28:18Z</time>
      </trkpt>
      <trkpt lat="42.73877" lon="0.55674">
        <ele>1121.04</ele>
        <time>2018-07-29T14:28:21Z</time>
      </trkpt>
      <trkpt lat="42.73858" lon="0.55665">
        <ele>1121.83</ele>
        <time>2018-07-29T14:28:24Z</time>
      </trkpt>
      <trkpt lat="42.7384" lon="0.5565">
        <ele>1123.03</ele>
        <time>2018-07-29T14:28:27Z</time>
      </trkpt>
      <trkpt lat="42.73823" lon="0.55628">
        <ele>1123.13</ele>
        <time>2018-07-29T14:28:30Z</time>
      </trkpt>
      <trkpt lat="42.73802" lon="0.5561">
        <ele>1124.1</ele>
        <time>2018-07-29T14:28:33Z</time>
      </trkpt>
      <trkpt lat="42.73779" lon="0.55605">
        <ele>1125.8</ele>
        <time>2018-07-29T14:28:36Z</time>
      </trkpt>
      <trkpt lat="42.73755" lon="0.55595">
        <ele>1127.09</ele>
        <time>2018-07-29T14:28:39Z</time>
      </trkpt>
      <trkpt lat="42.73733" lon="0.55585">
        <ele>1128.04</ele>
        <time>2018-07-29T14:28:42Z</time>
      </trkpt>
      <trkpt lat="42.73708" lon="0.55585">
        <ele>1128.4</ele>
        <time>2018-07-29T14:28:45Z</time>
      </trkpt>
      <trkpt lat="42.73685" lon="0.5559">
        <ele>1129.32</ele>
        <time>2018-07-29T14:28:48Z</time>
      </trkpt>
      <trkpt lat="42.7366" lon="0.55591">
        <ele>1130.81</ele>
        <time>2018-07-29T14:28:51Z</time>
      </trkpt>
      <trkpt lat="42.73641" lon="0.55589">
        <ele>1131.33</ele>
        <time>2018-07-29T14:28:54Z</time>
      </trkpt>
      <trkpt lat="42.73619" lon="0.55586">
        <ele>1132.11</ele>
        <time>2018-07-29T14:28:57Z</time>
      </trkpt>
      <trkpt lat="42.73599" lon="0.5558">
        <ele>1132.83</ele>
        <time>2018-07-29T14:29:00Z</time>
      </trkpt>
      <trkpt lat="42.73581" lon="0.55583">
        <ele>1136.76</ele>
        <time>2018-07-29T14:29:08Z</time>
      </trkpt>
      <trkpt lat="42.73599" lon="0.55583">
        <ele>1133.22</ele>
        <time>2018-07-29T14:29:36Z</time>
      </trkpt>
      <trkpt lat="42.73616" lon="0.55592">
        <ele>1134.32</ele>
        <time>2018-07-29T14:29:54Z</time>
      </trkpt>
      <trkpt lat="42.73635" lon="0.5559">
        <ele>1134.96</ele>
        <time>2018-07-29T14:35:34Z</time>
      </trkpt>
      <trkpt lat="42.73656" lon="0.55595">
        <ele>1135.83</ele>
        <time>2018-07-29T14:35:38Z</time>
      </trkpt>
      <trkpt lat="42.73675" lon="0.55597">
        <ele>1135.36</ele>
        <time>2018-07-29T14:35:42Z</time>
      </trkpt>
      <trkpt lat="42.73696" lon="0.55596">
        <ele>1134.22</ele>
        <time>2018-07-29T14:35:46Z</time>
      </trkpt>
      <trkpt lat="42.73718" lon="0.55591">
        <ele>1133.16</ele>
        <time>2018-07-29T14:35:50Z</time>
      </trkpt>
      <trkpt lat="42.73736" lon="0.55592">
        <ele>1133.83</ele>
        <time>2018-07-29T14:35:53Z</time>
      </trkpt>
      <trkpt lat="42.73758" lon="0.55601">
        <ele>1133.14</ele>
        <time>2018-07-29T14:35:57Z</time>
      </trkpt>
      <trkpt lat="42.7378" lon="0.55607">
        <ele>1131.44</ele>
        <time>2018-07-29T14:36:01Z</time>
      </trkpt>
      <trkpt lat="42.73801" lon="0.55613">
        <ele>1130.23</ele>
        <time>2018-07-29T14:36:04Z</time>
      </trkpt>
      <trkpt lat="42.73823" lon="0.55632">
        <ele>1129.16</ele>
        <time>2018-07-29T14:36:07Z</time>
      </trkpt>
      <trkpt lat="42.73837" lon="0.55649">
        <ele>1129.13</ele>
        <time>2018-07-29T14:36:09Z</time>
      </trkpt>
      <trkpt lat="42.7386" lon="0.55668">
        <ele>1128.16</ele>
        <time>2018-07-29T14:36:12Z</time>
      </trkpt>
      <trkpt lat="42.73877" lon="0.55677">
        <ele>1127.22</ele>
        <time>2018-07-29T14:36:14Z</time>
      </trkpt>
      <trkpt lat="42.73897" lon="0.55684">
        <ele>1125.53</ele>
        <time>2018-07-29T14:36:16Z</time>
      </trkpt>
      <trkpt lat="42.73917" lon="0.55688">
        <ele>1125.17</ele>
        <time>2018-07-29T14:36:18Z</time>
      </trkpt>
      <trkpt lat="42.73935" lon="0.5569">
        <ele>1123.52</ele>
        <time>2018-07-29T14:36:20Z</time>
      </trkpt>
      <trkpt lat="42.7396" lon="0.55692">
        <ele>1123.14</ele>
        <time>2018-07-29T14:36:23Z</time>
      </trkpt>
      <trkpt lat="42.73984" lon="0.55702">
        <ele>1122.16</ele>
        <time>2018-07-29T14:36:26Z</time>
      </trkpt>
      <trkpt lat="42.73997" lon="0.55721">
        <ele>1122.13</ele>
        <time>2018-07-29T14:36:28Z</time>
      </trkpt>
      <trkpt lat="42.74009" lon="0.55746">
        <ele>1122.34</ele>
        <time>2018-07-29T14:36:30Z</time>
      </trkpt>
      <trkpt lat="42.74022" lon="0.55771">
        <ele>1122.15</ele>
        <time>2018-07-29T14:36:32Z</time>
      </trkpt>
      <trkpt lat="42.74034" lon="0.55796">
        <ele>1121.43</ele>
        <time>2018-07-29T14:36:34Z</time>
      </trkpt>
      <trkpt lat="42.74046" lon="0.55821">
        <ele>1120.46</ele>
        <time>2018-07-29T14:36:36Z</time>
      </trkpt>
      <trkpt lat="42.74058" lon="0.55848">
        <ele>1119.46</ele>
        <time>2018-07-29T14:36:38Z</time>
      </trkpt>
      <trkpt lat="42.74069" lon="0.55877">
        <ele>1119.16</ele>
        <time>2018-07-29T14:36:40Z</time>
      </trkpt>
      <trkpt lat="42.74078" lon="0.55905">
        <ele>1117.52</ele>
        <time>2018-07-29T14:36:42Z</time>
      </trkpt>
      <trkpt lat="42.74085" lon="0.55933">
        <ele>1116.26</ele>
        <time>2018-07-29T14:36:44Z</time>
      </trkpt>
      <trkpt lat="42.74097" lon="0.55957">
        <ele>1115.44</ele>
        <time>2018-07-29T14:36:46Z</time>
      </trkpt>
      <trkpt lat="42.74112" lon="0.55976">
        <ele>1114.25</ele>
        <time>2018-07-29T14:36:48Z</time>
      </trkpt>
      <trkpt lat="42.74131" lon="0.55992">
        <ele>1113.23</ele>
        <time>2018-07-29T14:36:50Z</time>
      </trkpt>
      <trkpt lat="42.74151" lon="0.56001">
        <ele>1113.84</ele>
        <time>2018-07-29T14:36:52Z</time>
      </trkpt>
      <trkpt lat="42.74172" lon="0.56006">
        <ele>1114.1</ele>
        <time>2018-07-29T14:36:54Z</time>
      </trkpt>
      <trkpt lat="42.74192" lon="0.56013">
        <ele>1113.43</ele>
        <time>2018-07-29T14:36:56Z</time>
      </trkpt>
      <trkpt lat="42.74212" lon="0.56018">
        <ele>1111.76</ele>
        <time>2018-07-29T14:36:58Z</time>
      </trkpt>
      <trkpt lat="42.74232" lon="0.56024">
        <ele>1110.28</ele>
        <time>2018-07-29T14:37:00Z</time>
      </trkpt>
      <trkpt lat="42.74251" lon="0.56031">
        <ele>1109.23</ele>
        <time>2018-07-29T14:37:02Z</time>
      </trkpt>
      <trkpt lat="42.7427" lon="0.56038">
        <ele>1108.23</ele>
        <time>2018-07-29T14:37:04Z</time>
      </trkpt>
      <trkpt lat="42.74288" lon="0.56048">
        <ele>1108.14</ele>
        <time>2018-07-29T14:37:06Z</time>
      </trkpt>
      <trkpt lat="42.74305" lon="0.56061">
        <ele>1108.13</ele>
        <time>2018-07-29T14:37:08Z</time>
      </trkpt>
      <trkpt lat="42.74322" lon="0.56074">
        <ele>1108.13</ele>
        <time>2018-07-29T14:37:10Z</time>
      </trkpt>
      <trkpt lat="42.7434" lon="0.56089">
        <ele>1107.22</ele>
        <time>2018-07-29T14:37:12Z</time>
      </trkpt>
      <trkpt lat="42.74359" lon="0.56105">
        <ele>1106.44</ele>
        <time>2018-07-29T14:37:14Z</time>
      </trkpt>
      <trkpt lat="42.74378" lon="0.56127">
        <ele>1105.46</ele>
        <time>2018-07-29T14:37:16Z</time>
      </trkpt>
      <trkpt lat="42.74393" lon="0.56153">
        <ele>1104.46</ele>
        <time>2018-07-29T14:37:18Z</time>
      </trkpt>
      <trkpt lat="42.74407" lon="0.56183">
        <ele>1103.25</ele>
        <time>2018-07-29T14:37:20Z</time>
      </trkpt>
      <trkpt lat="42.74421" lon="0.56214">
        <ele>1102.44</ele>
        <time>2018-07-29T14:37:22Z</time>
      </trkpt>
      <trkpt lat="42.74436" lon="0.56244">
        <ele>1101.46</ele>
        <time>2018-07-29T14:37:24Z</time>
      </trkpt>
      <trkpt lat="42.74449" lon="0.56273">
        <ele>1100.25</ele>
        <time>2018-07-29T14:37:26Z</time>
      </trkpt>
      <trkpt lat="42.74462" lon="0.563">
        <ele>1099.44</ele>
        <time>2018-07-29T14:37:28Z</time>
      </trkpt>
      <trkpt lat="42.74474" lon="0.56326">
        <ele>1098.46</ele>
        <time>2018-07-29T14:37:30Z</time>
      </trkpt>
      <trkpt lat="42.74487" lon="0.56354">
        <ele>1098.16</ele>
        <time>2018-07-29T14:37:32Z</time>
      </trkpt>
      <trkpt lat="42.74501" lon="0.56382">
        <ele>1097.43</ele>
        <time>2018-07-29T14:37:34Z</time>
      </trkpt>
      <trkpt lat="42.74514" lon="0.56411">
        <ele>1097.16</ele>
        <time>2018-07-29T14:37:36Z</time>
      </trkpt>
      <trkpt lat="42.74528" lon="0.56439">
        <ele>1097.13</ele>
        <time>2018-07-29T14:37:38Z</time>
      </trkpt>
      <trkpt lat="42.74541" lon="0.56468">
        <ele>1096.22</ele>
        <time>2018-07-29T14:37:40Z</time>
      </trkpt>
      <trkpt lat="42.74555" lon="0.56497">
        <ele>1095.23</ele>
        <time>2018-07-29T14:37:42Z</time>
      </trkpt>
      <trkpt lat="42.74567" lon="0.56526">
        <ele>1095.14</ele>
        <time>2018-07-29T14:37:44Z</time>
      </trkpt>
      <trkpt lat="42.74577" lon="0.56557">
        <ele>1095.13</ele>
        <time>2018-07-29T14:37:46Z</time>
      </trkpt>
      <trkpt lat="42.74584" lon="0.56586">
        <ele>1094.92</ele>
        <time>2018-07-29T14:37:48Z</time>
      </trkpt>
      <trkpt lat="42.74591" lon="0.56614">
        <ele>1094.2</ele>
        <time>2018-07-29T14:37:50Z</time>
      </trkpt>
      <trkpt lat="42.74599" lon="0.56641">
        <ele>1093.23</ele>
        <time>2018-07-29T14:37:52Z</time>
      </trkpt>
      <trkpt lat="42.74611" lon="0.56666">
        <ele>1093.14</ele>
        <time>2018-07-29T14:37:54Z</time>
      </trkpt>
      <trkpt lat="42.74623" lon="0.56689">
        <ele>1092.22</ele>
        <time>2018-07-29T14:37:56Z</time>
      </trkpt>
      <trkpt lat="42.74637" lon="0.56709">
        <ele>1092.14</ele>
        <time>2018-07-29T14:37:58Z</time>
      </trkpt>
      <trkpt lat="42.7465" lon="0.56734">
        <ele>1091.16</ele>
        <time>2018-07-29T14:38:01Z</time>
      </trkpt>
      <trkpt lat="42.74658" lon="0.5676">
        <ele>1092.1</ele>
        <time>2018-07-29T14:38:04Z</time>
      </trkpt>
      <trkpt lat="42.74667" lon="0.56788">
        <ele>1092.13</ele>
        <time>2018-07-29T14:38:07Z</time>
      </trkpt>
      <trkpt lat="42.74674" lon="0.56817">
        <ele>1092.83</ele>
        <time>2018-07-29T14:38:10Z</time>
      </trkpt>
      <trkpt lat="42.74678" lon="0.56849">
        <ele>1092.15</ele>
        <time>2018-07-29T14:38:13Z</time>
      </trkpt>
      <trkpt lat="42.74681" lon="0.56884">
        <ele>1093.04</ele>
        <time>2018-07-29T14:38:16Z</time>
      </trkpt>
      <trkpt lat="42.74688" lon="0.56919">
        <ele>1094.04</ele>
        <time>2018-07-29T14:38:19Z</time>
      </trkpt>
      <trkpt lat="42.747" lon="0.56952">
        <ele>1094.13</ele>
        <time>2018-07-29T14:38:22Z</time>
      </trkpt>
      <trkpt lat="42.7471" lon="0.56976">
        <ele>1094.13</ele>
        <time>2018-07-29T14:38:24Z</time>
      </trkpt>
      <trkpt lat="42.74719" lon="0.57001">
        <ele>1093.22</ele>
        <time>2018-07-29T14:38:26Z</time>
      </trkpt>
      <trkpt lat="42.7473" lon="0.57028">
        <ele>1093.14</ele>
        <time>2018-07-29T14:38:28Z</time>
      </trkpt>
      <trkpt lat="42.7474" lon="0.57055">
        <ele>1093.13</ele>
        <time>2018-07-29T14:38:30Z</time>
      </trkpt>
      <trkpt lat="42.74749" lon="0.57083">
        <ele>1092.92</ele>
        <time>2018-07-29T14:38:32Z</time>
      </trkpt>
      <trkpt lat="42.74757" lon="0.5711">
        <ele>1092.2</ele>
        <time>2018-07-29T14:38:34Z</time>
      </trkpt>
      <trkpt lat="42.74761" lon="0.57135">
        <ele>1092.14</ele>
        <time>2018-07-29T14:38:36Z</time>
      </trkpt>
      <trkpt lat="42.74766" lon="0.57167">
        <ele>1092.83</ele>
        <time>2018-07-29T14:38:39Z</time>
      </trkpt>
      <trkpt lat="42.74786" lon="0.57185">
        <ele>1094.03</ele>
        <time>2018-07-29T14:38:42Z</time>
      </trkpt>
      <trkpt lat="42.74801" lon="0.57198">
        <ele>1094.82</ele>
        <time>2018-07-29T14:38:44Z</time>
      </trkpt>
      <trkpt lat="42.74817" lon="0.57215">
        <ele>1095.1</ele>
        <time>2018-07-29T14:38:46Z</time>
      </trkpt>
      <trkpt lat="42.74832" lon="0.57232">
        <ele>1095.83</ele>
        <time>2018-07-29T14:38:48Z</time>
      </trkpt>
      <trkpt lat="42.74846" lon="0.57249">
        <ele>1097.01</ele>
        <time>2018-07-29T14:38:50Z</time>
      </trkpt>
      <trkpt lat="42.74863" lon="0.57266">
        <ele>1098.8</ele>
        <time>2018-07-29T14:38:53Z</time>
      </trkpt>
      <trkpt lat="42.74878" lon="0.57244">
        <ele>1099.89</ele>
        <time>2018-07-29T14:38:57Z</time>
      </trkpt>
      <trkpt lat="42.7487" lon="0.5722">
        <ele>1101.03</ele>
        <time>2018-07-29T14:39:00Z</time>
      </trkpt>
      <trkpt lat="42.74853" lon="0.57199">
        <ele>1101.13</ele>
        <time>2018-07-29T14:39:03Z</time>
      </trkpt>
      <trkpt lat="42.74836" lon="0.57177">
        <ele>1102.8</ele>
        <time>2018-07-29T14:39:06Z</time>
      </trkpt>
      <trkpt lat="42.74822" lon="0.5716">
        <ele>1103.8</ele>
        <time>2018-07-29T14:39:08Z</time>
      </trkpt>
      <trkpt lat="42.74808" lon="0.57139">
        <ele>1105.01</ele>
        <time>2018-07-29T14:39:10Z</time>
      </trkpt>
      <trkpt lat="42.74798" lon="0.57118">
        <ele>1106.03</ele>
        <time>2018-07-29T14:39:12Z</time>
      </trkpt>
      <trkpt lat="42.74802" lon="0.57093">
        <ele>1107.04</ele>
        <time>2018-07-29T14:39:15Z</time>
      </trkpt>
      <trkpt lat="42.74823" lon="0.57103">
        <ele>1107.89</ele>
        <time>2018-07-29T14:39:18Z</time>
      </trkpt>
      <trkpt lat="42.74839" lon="0.5712">
        <ele>1109.72</ele>
        <time>2018-07-29T14:39:20Z</time>
      </trkpt>
      <trkpt lat="42.74857" lon="0.57138">
        <ele>1111.7</ele>
        <time>2018-07-29T14:39:22Z</time>
      </trkpt>
      <trkpt lat="42.74875" lon="0.57151">
        <ele>1113.7</ele>
        <time>2018-07-29T14:39:24Z</time>
      </trkpt>
      <trkpt lat="42.74894" lon="0.57161">
        <ele>1114.79</ele>
        <time>2018-07-29T14:39:26Z</time>
      </trkpt>
      <trkpt lat="42.74913" lon="0.57169">
        <ele>1115.1</ele>
        <time>2018-07-29T14:39:28Z</time>
      </trkpt>
      <trkpt lat="42.7493" lon="0.57182">
        <ele>1116.53</ele>
        <time>2018-07-29T14:39:30Z</time>
      </trkpt>
      <trkpt lat="42.74943" lon="0.57202">
        <ele>1117.99</ele>
        <time>2018-07-29T14:39:32Z</time>
      </trkpt>
      <trkpt lat="42.74955" lon="0.57226">
        <ele>1119.03</ele>
        <time>2018-07-29T14:39:34Z</time>
      </trkpt>
      <trkpt lat="42.74965" lon="0.57254">
        <ele>1121.43</ele>
        <time>2018-07-29T14:39:36Z</time>
      </trkpt>
      <trkpt lat="42.74974" lon="0.57283">
        <ele>1123.68</ele>
        <time>2018-07-29T14:39:38Z</time>
      </trkpt>
      <trkpt lat="42.74986" lon="0.57312">
        <ele>1127.31</ele>
        <time>2018-07-29T14:39:40Z</time>
      </trkpt>
      <trkpt lat="42.75" lon="0.5734">
        <ele>1129.67</ele>
        <time>2018-07-29T14:39:42Z</time>
      </trkpt>
      <trkpt lat="42.7501" lon="0.57368">
        <ele>1132.73</ele>
        <time>2018-07-29T14:39:44Z</time>
      </trkpt>
      <trkpt lat="42.75019" lon="0.57392">
        <ele>1135.14</ele>
        <time>2018-07-29T14:39:47Z</time>
      </trkpt>
      <trkpt lat="42.75032" lon="0.57413">
        <ele>1137.87</ele>
        <time>2018-07-29T14:39:52Z</time>
      </trkpt>
      <trkpt lat="42.7504" lon="0.57438">
        <ele>1139.87</ele>
        <time>2018-07-29T14:39:55Z</time>
      </trkpt>
      <trkpt lat="42.7504" lon="0.57465">
        <ele>1141.17</ele>
        <time>2018-07-29T14:39:58Z</time>
      </trkpt>
      <trkpt lat="42.7504" lon="0.57495">
        <ele>1142.24</ele>
        <time>2018-07-29T14:40:01Z</time>
      </trkpt>
      <trkpt lat="42.75041" lon="0.57521">
        <ele>1143.87</ele>
        <time>2018-07-29T14:40:03Z</time>
      </trkpt>
      <trkpt lat="42.75042" lon="0.57549">
        <ele>1146.75</ele>
        <time>2018-07-29T14:40:05Z</time>
      </trkpt>
      <trkpt lat="42.75044" lon="0.5758">
        <ele>1148.83</ele>
        <time>2018-07-29T14:40:07Z</time>
      </trkpt>
      <trkpt lat="42.75046" lon="0.57612">
        <ele>1151.54</ele>
        <time>2018-07-29T14:40:09Z</time>
      </trkpt>
      <trkpt lat="42.75043" lon="0.57643">
        <ele>1154.51</ele>
        <time>2018-07-29T14:40:11Z</time>
      </trkpt>
      <trkpt lat="42.75047" lon="0.57666">
        <ele>1156.81</ele>
        <time>2018-07-29T14:40:13Z</time>
      </trkpt>
      <trkpt lat="42.75063" lon="0.57693">
        <ele>1157.93</ele>
        <time>2018-07-29T14:40:15Z</time>
      </trkpt>
      <trkpt lat="42.75077" lon="0.57732">
        <ele>1159.85</ele>
        <time>2018-07-29T14:40:17Z</time>
      </trkpt>
      <trkpt lat="42.75084" lon="0.57773">
        <ele>1161.84</ele>
        <time>2018-07-29T14:40:19Z</time>
      </trkpt>
      <trkpt lat="42.75088" lon="0.57818">
        <ele>1165.24</ele>
        <time>2018-07-29T14:40:21Z</time>
      </trkpt>
      <trkpt lat="42.75088" lon="0.57864">
        <ele>1168.69</ele>
        <time>2018-07-29T14:40:23Z</time>
      </trkpt>
      <trkpt lat="42.75083" lon="0.5791">
        <ele>1172.44</ele>
        <time>2018-07-29T14:40:25Z</time>
      </trkpt>
      <trkpt lat="42.75078" lon="0.57953">
        <ele>1175.71</ele>
        <time>2018-07-29T14:40:27Z</time>
      </trkpt>
      <trkpt lat="42.75076" lon="0.57992">
        <ele>1179.44</ele>
        <time>2018-07-29T14:40:29Z</time>
      </trkpt>
      <trkpt lat="42.75082" lon="0.5803">
        <ele>1181.8</ele>
        <time>2018-07-29T14:40:31Z</time>
      </trkpt>
      <trkpt lat="42.7508" lon="0.58067">
        <ele>1184.75</ele>
        <time>2018-07-29T14:40:33Z</time>
      </trkpt>
      <trkpt lat="42.75067" lon="0.58099">
        <ele>1186.13</ele>
        <time>2018-07-29T14:40:35Z</time>
      </trkpt>
      <trkpt lat="42.75058" lon="0.58132">
        <ele>1188.77</ele>
        <time>2018-07-29T14:40:37Z</time>
      </trkpt>
      <trkpt lat="42.75053" lon="0.58163">
        <ele>1189.22</ele>
        <time>2018-07-29T14:40:39Z</time>
      </trkpt>
      <trkpt lat="42.75049" lon="0.58192">
        <ele>1188.56</ele>
        <time>2018-07-29T14:40:41Z</time>
      </trkpt>
      <trkpt lat="42.75061" lon="0.58225">
        <ele>1189.9</ele>
        <time>2018-07-29T14:40:43Z</time>
      </trkpt>
      <trkpt lat="42.75054" lon="0.58259">
        <ele>1190.93</ele>
        <time>2018-07-29T14:40:45Z</time>
      </trkpt>
      <trkpt lat="42.75039" lon="0.58296">
        <ele>1191.24</ele>
        <time>2018-07-29T14:40:47Z</time>
      </trkpt>
      <trkpt lat="42.75025" lon="0.58335">
        <ele>1191.26</ele>
        <time>2018-07-29T14:40:49Z</time>
      </trkpt>
      <trkpt lat="42.75013" lon="0.58373">
        <ele>1193.58</ele>
        <time>2018-07-29T14:40:51Z</time>
      </trkpt>
      <trkpt lat="42.75005" lon="0.58414">
        <ele>1195.81</ele>
        <time>2018-07-29T14:40:53Z</time>
      </trkpt>
      <trkpt lat="42.74998" lon="0.58452">
        <ele>1197.25</ele>
        <time>2018-07-29T14:40:55Z</time>
      </trkpt>
      <trkpt lat="42.74998" lon="0.58492">
        <ele>1200.36</ele>
        <time>2018-07-29T14:40:57Z</time>
      </trkpt>
      <trkpt lat="42.75008" lon="0.58527">
        <ele>1203.71</ele>
        <time>2018-07-29T14:40:59Z</time>
      </trkpt>
      <trkpt lat="42.75023" lon="0.58558">
        <ele>1205.83</ele>
        <time>2018-07-29T14:41:01Z</time>
      </trkpt>
      <trkpt lat="42.75028" lon="0.58594">
        <ele>1208.75</ele>
        <time>2018-07-29T14:41:03Z</time>
      </trkpt>
      <trkpt lat="42.75026" lon="0.58642">
        <ele>1209.92</ele>
        <time>2018-07-29T14:41:05Z</time>
      </trkpt>
      <trkpt lat="42.75024" lon="0.58686">
        <ele>1211.85</ele>
        <time>2018-07-29T14:41:07Z</time>
      </trkpt>
      <trkpt lat="42.75013" lon="0.58726">
        <ele>1214.05</ele>
        <time>2018-07-29T14:41:09Z</time>
      </trkpt>
      <trkpt lat="42.74995" lon="0.58763">
        <ele>1214.15</ele>
        <time>2018-07-29T14:41:11Z</time>
      </trkpt>
      <trkpt lat="42.74977" lon="0.58801">
        <ele>1214.83</ele>
        <time>2018-07-29T14:41:13Z</time>
      </trkpt>
      <trkpt lat="42.7496" lon="0.58838">
        <ele>1218.11</ele>
        <time>2018-07-29T14:41:15Z</time>
      </trkpt>
      <trkpt lat="42.74945" lon="0.58876">
        <ele>1222.26</ele>
        <time>2018-07-29T14:41:17Z</time>
      </trkpt>
      <trkpt lat="42.74934" lon="0.58918">
        <ele>1226.27</ele>
        <time>2018-07-29T14:41:19Z</time>
      </trkpt>
      <trkpt lat="42.74924" lon="0.58961">
        <ele>1231.18</ele>
        <time>2018-07-29T14:41:21Z</time>
      </trkpt>
      <trkpt lat="42.74916" lon="0.59006">
        <ele>1233.65</ele>
        <time>2018-07-29T14:41:23Z</time>
      </trkpt>
      <trkpt lat="42.74904" lon="0.59048">
        <ele>1238.01</ele>
        <time>2018-07-29T14:41:25Z</time>
      </trkpt>
      <trkpt lat="42.74892" lon="0.59088">
        <ele>1242.95</ele>
        <time>2018-07-29T14:41:27Z</time>
      </trkpt>
      <trkpt lat="42.74885" lon="0.59127">
        <ele>1247.24</ele>
        <time>2018-07-29T14:41:29Z</time>
      </trkpt>
      <trkpt lat="42.74883" lon="0.59167">
        <ele>1248.96</ele>
        <time>2018-07-29T14:41:31Z</time>
      </trkpt>
      <trkpt lat="42.74883" lon="0.59208">
        <ele>1250.72</ele>
        <time>2018-07-29T14:41:33Z</time>
      </trkpt>
      <trkpt lat="42.74881" lon="0.59251">
        <ele>1252</ele>
        <time>2018-07-29T14:41:35Z</time>
      </trkpt>
      <trkpt lat="42.74881" lon="0.59294">
        <ele>1253.03</ele>
        <time>2018-07-29T14:41:37Z</time>
      </trkpt>
      <trkpt lat="42.74877" lon="0.59336">
        <ele>1253.82</ele>
        <time>2018-07-29T14:41:39Z</time>
      </trkpt>
      <trkpt lat="42.74865" lon="0.5938">
        <ele>1254.1</ele>
        <time>2018-07-29T14:41:41Z</time>
      </trkpt>
      <trkpt lat="42.7486" lon="0.59404">
        <ele>1254.82</ele>
        <time>2018-07-29T14:41:42Z</time>
      </trkpt>
      <trkpt lat="42.74854" lon="0.59429">
        <ele>1255.74</ele>
        <time>2018-07-29T14:41:43Z</time>
      </trkpt>
      <trkpt lat="42.74848" lon="0.59455">
        <ele>1256.71</ele>
        <time>2018-07-29T14:41:44Z</time>
      </trkpt>
      <trkpt lat="42.74842" lon="0.5948">
        <ele>1258.4</ele>
        <time>2018-07-29T14:41:45Z</time>
      </trkpt>
      <trkpt lat="42.74828" lon="0.59522">
        <ele>1260.67</ele>
        <time>2018-07-29T14:41:47Z</time>
      </trkpt>
      <trkpt lat="42.74812" lon="0.59555">
        <ele>1262.7</ele>
        <time>2018-07-29T14:41:49Z</time>
      </trkpt>
      <trkpt lat="42.74805" lon="0.59593">
        <ele>1265.4</ele>
        <time>2018-07-29T14:41:51Z</time>
      </trkpt>
      <trkpt lat="42.74799" lon="0.59635">
        <ele>1267.46</ele>
        <time>2018-07-29T14:41:53Z</time>
      </trkpt>
      <trkpt lat="42.74791" lon="0.59677">
        <ele>1269.68</ele>
        <time>2018-07-29T14:41:55Z</time>
      </trkpt>
      <trkpt lat="42.74773" lon="0.59711">
        <ele>1273.31</ele>
        <time>2018-07-29T14:41:57Z</time>
      </trkpt>
      <trkpt lat="42.74763" lon="0.59744">
        <ele>1275.67</ele>
        <time>2018-07-29T14:41:59Z</time>
      </trkpt>
      <trkpt lat="42.74758" lon="0.59778">
        <ele>1277.7</ele>
        <time>2018-07-29T14:42:01Z</time>
      </trkpt>
      <trkpt lat="42.74769" lon="0.59811">
        <ele>1279.7</ele>
        <time>2018-07-29T14:42:03Z</time>
      </trkpt>
      <trkpt lat="42.74777" lon="0.59841">
        <ele>1281.7</ele>
        <time>2018-07-29T14:42:05Z</time>
      </trkpt>
      <trkpt lat="42.74796" lon="0.59861">
        <ele>1284.7</ele>
        <time>2018-07-29T14:42:08Z</time>
      </trkpt>
      <trkpt lat="42.74816" lon="0.59864">
        <ele>1287.04</ele>
        <time>2018-07-29T14:42:26Z</time>
      </trkpt>
      <trkpt lat="42.74825" lon="0.59886">
        <ele>1287.15</ele>
        <time>2018-07-29T14:42:33Z</time>
      </trkpt>
      <trkpt lat="42.74837" lon="0.5991">
        <ele>1286.14</ele>
        <time>2018-07-29T14:42:40Z</time>
      </trkpt>
      <trkpt lat="42.74848" lon="0.5993">
        <ele>1286.83</ele>
        <time>2018-07-29T14:42:45Z</time>
      </trkpt>
      <trkpt lat="42.74863" lon="0.59946">
        <ele>1287.13</ele>
        <time>2018-07-29T14:42:50Z</time>
      </trkpt>
      <trkpt lat="42.7488" lon="0.59961">
        <ele>1286.15</ele>
        <time>2018-07-29T14:42:56Z</time>
      </trkpt>
      <trkpt lat="42.74897" lon="0.59973">
        <ele>1285.15</ele>
        <time>2018-07-29T14:43:02Z</time>
      </trkpt>
      <trkpt lat="42.74883" lon="0.59956">
        <ele>1281.98</ele>
        <time>2018-07-29T14:48:47Z</time>
      </trkpt>
      <trkpt lat="42.74867" lon="0.59942">
        <ele>1282.13</ele>
        <time>2018-07-29T14:48:50Z</time>
      </trkpt>
      <trkpt lat="42.74852" lon="0.59928">
        <ele>1283.04</ele>
        <time>2018-07-29T14:48:53Z</time>
      </trkpt>
      <trkpt lat="42.74838" lon="0.59908">
        <ele>1285.03</ele>
        <time>2018-07-29T14:48:57Z</time>
      </trkpt>
      <trkpt lat="42.74827" lon="0.59883">
        <ele>1285.83</ele>
        <time>2018-07-29T14:49:01Z</time>
      </trkpt>
      <trkpt lat="42.74816" lon="0.59854">
        <ele>1288.79</ele>
        <time>2018-07-29T14:49:05Z</time>
      </trkpt>
      <trkpt lat="42.74808" lon="0.5982">
        <ele>1291</ele>
        <time>2018-07-29T14:49:08Z</time>
      </trkpt>
      <trkpt lat="42.74798" lon="0.59789">
        <ele>1292.73</ele>
        <time>2018-07-29T14:49:10Z</time>
      </trkpt>
      <trkpt lat="42.74796" lon="0.59753">
        <ele>1294</ele>
        <time>2018-07-29T14:49:12Z</time>
      </trkpt>
      <trkpt lat="42.74806" lon="0.5972">
        <ele>1295.73</ele>
        <time>2018-07-29T14:49:14Z</time>
      </trkpt>
      <trkpt lat="42.74827" lon="0.59684">
        <ele>1297.7</ele>
        <time>2018-07-29T14:49:16Z</time>
      </trkpt>
      <trkpt lat="42.74836" lon="0.59661">
        <ele>1299.4</ele>
        <time>2018-07-29T14:49:17Z</time>
      </trkpt>
      <trkpt lat="42.74852" lon="0.59618">
        <ele>1302.58</ele>
        <time>2018-07-29T14:49:19Z</time>
      </trkpt>
      <trkpt lat="42.74868" lon="0.59576">
        <ele>1305.6</ele>
        <time>2018-07-29T14:49:21Z</time>
      </trkpt>
      <trkpt lat="42.74886" lon="0.59538">
        <ele>1308.6</ele>
        <time>2018-07-29T14:49:23Z</time>
      </trkpt>
      <trkpt lat="42.74905" lon="0.595">
        <ele>1310.9</ele>
        <time>2018-07-29T14:49:25Z</time>
      </trkpt>
      <trkpt lat="42.74921" lon="0.59458">
        <ele>1314.33</ele>
        <time>2018-07-29T14:49:27Z</time>
      </trkpt>
      <trkpt lat="42.74935" lon="0.59414">
        <ele>1317.37</ele>
        <time>2018-07-29T14:49:29Z</time>
      </trkpt>
      <trkpt lat="42.74943" lon="0.59392">
        <ele>1318.6</ele>
        <time>2018-07-29T14:49:30Z</time>
      </trkpt>
      <trkpt lat="42.7496" lon="0.59351">
        <ele>1322.3</ele>
        <time>2018-07-29T14:49:32Z</time>
      </trkpt>
      <trkpt lat="42.74969" lon="0.59308">
        <ele>1325.37</ele>
        <time>2018-07-29T14:49:34Z</time>
      </trkpt>
      <trkpt lat="42.74969" lon="0.5926">
        <ele>1328.58</ele>
        <time>2018-07-29T14:49:36Z</time>
      </trkpt>
      <trkpt lat="42.74974" lon="0.59212">
        <ele>1331.39</ele>
        <time>2018-07-29T14:49:38Z</time>
      </trkpt>
      <trkpt lat="42.74983" lon="0.5917">
        <ele>1334.58</ele>
        <time>2018-07-29T14:49:40Z</time>
      </trkpt>
      <trkpt lat="42.74993" lon="0.59133">
        <ele>1338.3</ele>
        <time>2018-07-29T14:49:42Z</time>
      </trkpt>
      <trkpt lat="42.75" lon="0.59109">
        <ele>1339.76</ele>
        <time>2018-07-29T14:49:44Z</time>
      </trkpt>
      <trkpt lat="42.75007" lon="0.59133">
        <ele>1344.23</ele>
        <time>2018-07-29T14:49:50Z</time>
      </trkpt>
      <trkpt lat="42.74999" lon="0.59157">
        <ele>1344.38</ele>
        <time>2018-07-29T14:49:52Z</time>
      </trkpt>
      <trkpt lat="42.74994" lon="0.59185">
        <ele>1344.15</ele>
        <time>2018-07-29T14:49:54Z</time>
      </trkpt>
      <trkpt lat="42.7499" lon="0.59215">
        <ele>1344.83</ele>
        <time>2018-07-29T14:49:56Z</time>
      </trkpt>
      <trkpt lat="42.74988" lon="0.59245">
        <ele>1345.8</ele>
        <time>2018-07-29T14:49:58Z</time>
      </trkpt>
      <trkpt lat="42.74993" lon="0.59274">
        <ele>1347.5</ele>
        <time>2018-07-29T14:50:00Z</time>
      </trkpt>
      <trkpt lat="42.74999" lon="0.59303">
        <ele>1348.98</ele>
        <time>2018-07-29T14:50:02Z</time>
      </trkpt>
      <trkpt lat="42.75002" lon="0.59336">
        <ele>1351.76</ele>
        <time>2018-07-29T14:50:04Z</time>
      </trkpt>
      <trkpt lat="42.74995" lon="0.59369">
        <ele>1354.2</ele>
        <time>2018-07-29T14:50:06Z</time>
      </trkpt>
      <trkpt lat="42.74991" lon="0.59406">
        <ele>1356.66</ele>
        <time>2018-07-29T14:50:08Z</time>
      </trkpt>
      <trkpt lat="42.74988" lon="0.59443">
        <ele>1359.61</ele>
        <time>2018-07-29T14:50:10Z</time>
      </trkpt>
      <trkpt lat="42.74986" lon="0.59481">
        <ele>1361.69</ele>
        <time>2018-07-29T14:50:12Z</time>
      </trkpt>
      <trkpt lat="42.74978" lon="0.59516">
        <ele>1364.4</ele>
        <time>2018-07-29T14:50:14Z</time>
      </trkpt>
      <trkpt lat="42.74964" lon="0.59546">
        <ele>1366.67</ele>
        <time>2018-07-29T14:50:16Z</time>
      </trkpt>
      <trkpt lat="42.74962" lon="0.59586">
        <ele>1369.61</ele>
        <time>2018-07-29T14:50:18Z</time>
      </trkpt>
      <trkpt lat="42.74962" lon="0.5963">
        <ele>1371.69</ele>
        <time>2018-07-29T14:50:20Z</time>
      </trkpt>
      <trkpt lat="42.74955" lon="0.59674">
        <ele>1373.7</ele>
        <time>2018-07-29T14:50:22Z</time>
      </trkpt>
      <trkpt lat="42.74959" lon="0.59713">
        <ele>1376.4</ele>
        <time>2018-07-29T14:50:24Z</time>
      </trkpt>
      <trkpt lat="42.74968" lon="0.59738">
        <ele>1379.37</ele>
        <time>2018-07-29T14:50:26Z</time>
      </trkpt>
      <trkpt lat="42.74987" lon="0.59755">
        <ele>1380.76</ele>
        <time>2018-07-29T14:50:28Z</time>
      </trkpt>
      <trkpt lat="42.74996" lon="0.59729">
        <ele>1381.72</ele>
        <time>2018-07-29T14:50:29Z</time>
      </trkpt>
      <trkpt lat="42.74996" lon="0.59697">
        <ele>1383.49</ele>
        <time>2018-07-29T14:50:31Z</time>
      </trkpt>
      <trkpt lat="42.74993" lon="0.59658">
        <ele>1386.38</ele>
        <time>2018-07-29T14:50:33Z</time>
      </trkpt>
      <trkpt lat="42.75004" lon="0.59618">
        <ele>1391.29</ele>
        <time>2018-07-29T14:50:35Z</time>
      </trkpt>
      <trkpt lat="42.75022" lon="0.59582">
        <ele>1394.28</ele>
        <time>2018-07-29T14:50:37Z</time>
      </trkpt>
      <trkpt lat="42.75045" lon="0.59546">
        <ele>1397.49</ele>
        <time>2018-07-29T14:50:39Z</time>
      </trkpt>
      <trkpt lat="42.75068" lon="0.59513">
        <ele>1399.81</ele>
        <time>2018-07-29T14:50:41Z</time>
      </trkpt>
      <trkpt lat="42.75084" lon="0.59478">
        <ele>1403.24</ele>
        <time>2018-07-29T14:50:43Z</time>
      </trkpt>
      <trkpt lat="42.75094" lon="0.5944">
        <ele>1406.48</ele>
        <time>2018-07-29T14:50:45Z</time>
      </trkpt>
      <trkpt lat="42.751" lon="0.59399">
        <ele>1410.42</ele>
        <time>2018-07-29T14:50:47Z</time>
      </trkpt>
      <trkpt lat="42.75107" lon="0.59356">
        <ele>1412.8</ele>
        <time>2018-07-29T14:50:49Z</time>
      </trkpt>
      <trkpt lat="42.75111" lon="0.59312">
        <ele>1415.54</ele>
        <time>2018-07-29T14:50:51Z</time>
      </trkpt>
      <trkpt lat="42.75115" lon="0.59269">
        <ele>1418.72</ele>
        <time>2018-07-29T14:50:53Z</time>
      </trkpt>
      <trkpt lat="42.75117" lon="0.59225">
        <ele>1422.44</ele>
        <time>2018-07-29T14:50:55Z</time>
      </trkpt>
      <trkpt lat="42.7512" lon="0.59184">
        <ele>1425.5</ele>
        <time>2018-07-29T14:50:57Z</time>
      </trkpt>
      <trkpt lat="42.75131" lon="0.59146">
        <ele>1428.51</ele>
        <time>2018-07-29T14:50:59Z</time>
      </trkpt>
      <trkpt lat="42.75147" lon="0.59109">
        <ele>1432.63</ele>
        <time>2018-07-29T14:51:01Z</time>
      </trkpt>
      <trkpt lat="42.75165" lon="0.59074">
        <ele>1435.52</ele>
        <time>2018-07-29T14:51:03Z</time>
      </trkpt>
      <trkpt lat="42.75181" lon="0.59038">
        <ele>1438.72</ele>
        <time>2018-07-29T14:51:05Z</time>
      </trkpt>
      <trkpt lat="42.75198" lon="0.59004">
        <ele>1443.35</ele>
        <time>2018-07-29T14:51:07Z</time>
      </trkpt>
      <trkpt lat="42.7522" lon="0.58974">
        <ele>1447.4</ele>
        <time>2018-07-29T14:51:09Z</time>
      </trkpt>
      <trkpt lat="42.75246" lon="0.58948">
        <ele>1450.5</ele>
        <time>2018-07-29T14:51:11Z</time>
      </trkpt>
      <trkpt lat="42.75269" lon="0.58922">
        <ele>1453.51</ele>
        <time>2018-07-29T14:51:13Z</time>
      </trkpt>
      <trkpt lat="42.7529" lon="0.58891">
        <ele>1456.72</ele>
        <time>2018-07-29T14:51:15Z</time>
      </trkpt>
      <trkpt lat="42.7531" lon="0.58861">
        <ele>1459.53</ele>
        <time>2018-07-29T14:51:17Z</time>
      </trkpt>
      <trkpt lat="42.75331" lon="0.58829">
        <ele>1464.12</ele>
        <time>2018-07-29T14:51:19Z</time>
      </trkpt>
      <trkpt lat="42.75355" lon="0.58801">
        <ele>1467.47</ele>
        <time>2018-07-29T14:51:21Z</time>
      </trkpt>
      <trkpt lat="42.7538" lon="0.58771">
        <ele>1469.81</ele>
        <time>2018-07-29T14:51:23Z</time>
      </trkpt>
      <trkpt lat="42.75394" lon="0.58755">
        <ele>1470.83</ele>
        <time>2018-07-29T14:51:24Z</time>
      </trkpt>
      <trkpt lat="42.75419" lon="0.58726">
        <ele>1472.63</ele>
        <time>2018-07-29T14:51:26Z</time>
      </trkpt>
      <trkpt lat="42.75447" lon="0.58696">
        <ele>1476.22</ele>
        <time>2018-07-29T14:51:28Z</time>
      </trkpt>
      <trkpt lat="42.75476" lon="0.58672">
        <ele>1480.39</ele>
        <time>2018-07-29T14:51:30Z</time>
      </trkpt>
      <trkpt lat="42.75501" lon="0.58644">
        <ele>1484.2</ele>
        <time>2018-07-29T14:51:32Z</time>
      </trkpt>
      <trkpt lat="42.75517" lon="0.58607">
        <ele>1487.69</ele>
        <time>2018-07-29T14:51:34Z</time>
      </trkpt>
      <trkpt lat="42.75533" lon="0.5857">
        <ele>1491.65</ele>
        <time>2018-07-29T14:51:36Z</time>
      </trkpt>
      <trkpt lat="42.75548" lon="0.58533">
        <ele>1496.13</ele>
        <time>2018-07-29T14:51:38Z</time>
      </trkpt>
      <trkpt lat="42.75561" lon="0.58495">
        <ele>1499.47</ele>
        <time>2018-07-29T14:51:40Z</time>
      </trkpt>
      <trkpt lat="42.75577" lon="0.58459">
        <ele>1502.51</ele>
        <time>2018-07-29T14:51:42Z</time>
      </trkpt>
      <trkpt lat="42.75596" lon="0.58433">
        <ele>1506.42</ele>
        <time>2018-07-29T14:51:44Z</time>
      </trkpt>
      <trkpt lat="42.75618" lon="0.58434">
        <ele>1510.53</ele>
        <time>2018-07-29T14:51:47Z</time>
      </trkpt>
      <trkpt lat="42.75606" lon="0.58453">
        <ele>1512.86</ele>
        <time>2018-07-29T14:51:50Z</time>
      </trkpt>
      <trkpt lat="42.75591" lon="0.58468">
        <ele>1514.14</ele>
        <time>2018-07-29T14:51:52Z</time>
      </trkpt>
      <trkpt lat="42.75584" lon="0.58499">
        <ele>1515.87</ele>
        <time>2018-07-29T14:51:54Z</time>
      </trkpt>
      <trkpt lat="42.75584" lon="0.58533">
        <ele>1517.84</ele>
        <time>2018-07-29T14:51:56Z</time>
      </trkpt>
      <trkpt lat="42.75588" lon="0.58567">
        <ele>1520.75</ele>
        <time>2018-07-29T14:51:58Z</time>
      </trkpt>
      <trkpt lat="42.75593" lon="0.58595">
        <ele>1522.83</ele>
        <time>2018-07-29T14:52:00Z</time>
      </trkpt>
      <trkpt lat="42.75603" lon="0.58626">
        <ele>1525.84</ele>
        <time>2018-07-29T14:52:03Z</time>
      </trkpt>
      <trkpt lat="42.75611" lon="0.58654">
        <ele>1527.87</ele>
        <time>2018-07-29T14:52:06Z</time>
      </trkpt>
      <trkpt lat="42.75613" lon="0.58679">
        <ele>1529.84</ele>
        <time>2018-07-29T14:52:08Z</time>
      </trkpt>
      <trkpt lat="42.75606" lon="0.58707">
        <ele>1530.93</ele>
        <time>2018-07-29T14:52:10Z</time>
      </trkpt>
      <trkpt lat="42.75587" lon="0.58732">
        <ele>1533.55</ele>
        <time>2018-07-29T14:52:12Z</time>
      </trkpt>
      <trkpt lat="42.75564" lon="0.58755">
        <ele>1535.81</ele>
        <time>2018-07-29T14:52:14Z</time>
      </trkpt>
      <trkpt lat="42.7554" lon="0.58775">
        <ele>1538.54</ele>
        <time>2018-07-29T14:52:16Z</time>
      </trkpt>
      <trkpt lat="42.75516" lon="0.58797">
        <ele>1542.42</ele>
        <time>2018-07-29T14:52:18Z</time>
      </trkpt>
      <trkpt lat="42.75494" lon="0.58826">
        <ele>1545.5</ele>
        <time>2018-07-29T14:52:20Z</time>
      </trkpt>
      <trkpt lat="42.75471" lon="0.58858">
        <ele>1549.42</ele>
        <time>2018-07-29T14:52:22Z</time>
      </trkpt>
      <trkpt lat="42.75449" lon="0.58894">
        <ele>1552.5</ele>
        <time>2018-07-29T14:52:24Z</time>
      </trkpt>
      <trkpt lat="42.75428" lon="0.58931">
        <ele>1556.42</ele>
        <time>2018-07-29T14:52:26Z</time>
      </trkpt>
      <trkpt lat="42.75407" lon="0.58966">
        <ele>1559.5</ele>
        <time>2018-07-29T14:52:28Z</time>
      </trkpt>
      <trkpt lat="42.75387" lon="0.59">
        <ele>1562.72</ele>
        <time>2018-07-29T14:52:30Z</time>
      </trkpt>
      <trkpt lat="42.7537" lon="0.59038">
        <ele>1565.53</ele>
        <time>2018-07-29T14:52:32Z</time>
      </trkpt>
      <trkpt lat="42.75357" lon="0.59076">
        <ele>1568.51</ele>
        <time>2018-07-29T14:52:34Z</time>
      </trkpt>
      <trkpt lat="42.75353" lon="0.59108">
        <ele>1571.51</ele>
        <time>2018-07-29T14:52:36Z</time>
      </trkpt>
      <trkpt lat="42.75362" lon="0.59133">
        <ele>1573.11</ele>
        <time>2018-07-29T14:52:38Z</time>
      </trkpt>
      <trkpt lat="42.75384" lon="0.59148">
        <ele>1574.94</ele>
        <time>2018-07-29T14:52:41Z</time>
      </trkpt>
      <trkpt lat="42.75402" lon="0.59142">
        <ele>1575.94</ele>
        <time>2018-07-29T14:52:43Z</time>
      </trkpt>
      <trkpt lat="42.75415" lon="0.59123">
        <ele>1576.94</ele>
        <time>2018-07-29T14:52:45Z</time>
      </trkpt>
      <trkpt lat="42.75427" lon="0.59097">
        <ele>1578.15</ele>
        <time>2018-07-29T14:52:47Z</time>
      </trkpt>
      <trkpt lat="42.75442" lon="0.59066">
        <ele>1579.17</ele>
        <time>2018-07-29T14:52:49Z</time>
      </trkpt>
      <trkpt lat="42.75463" lon="0.59033">
        <ele>1581.78</ele>
        <time>2018-07-29T14:52:51Z</time>
      </trkpt>
      <trkpt lat="42.75486" lon="0.59002">
        <ele>1583.83</ele>
        <time>2018-07-29T14:52:53Z</time>
      </trkpt>
      <trkpt lat="42.75511" lon="0.58973">
        <ele>1585.84</ele>
        <time>2018-07-29T14:52:55Z</time>
      </trkpt>
      <trkpt lat="42.75543" lon="0.58951">
        <ele>1588.54</ele>
        <time>2018-07-29T14:52:57Z</time>
      </trkpt>
      <trkpt lat="42.75562" lon="0.58941">
        <ele>1590.45</ele>
        <time>2018-07-29T14:52:58Z</time>
      </trkpt>
      <trkpt lat="42.75581" lon="0.5893">
        <ele>1592.42</ele>
        <time>2018-07-29T14:52:59Z</time>
      </trkpt>
      <trkpt lat="42.756" lon="0.58919">
        <ele>1593.71</ele>
        <time>2018-07-29T14:53:00Z</time>
      </trkpt>
      <trkpt lat="42.75618" lon="0.58907">
        <ele>1595.5</ele>
        <time>2018-07-29T14:53:01Z</time>
      </trkpt>
      <trkpt lat="42.75636" lon="0.58895">
        <ele>1597.44</ele>
        <time>2018-07-29T14:53:02Z</time>
      </trkpt>
      <trkpt lat="42.75652" lon="0.58884">
        <ele>1598.72</ele>
        <time>2018-07-29T14:53:03Z</time>
      </trkpt>
      <trkpt lat="42.75682" lon="0.58862">
        <ele>1600.83</ele>
        <time>2018-07-29T14:53:05Z</time>
      </trkpt>
      <trkpt lat="42.75708" lon="0.58842">
        <ele>1602.84</ele>
        <time>2018-07-29T14:53:07Z</time>
      </trkpt>
      <trkpt lat="42.75728" lon="0.58824">
        <ele>1605.54</ele>
        <time>2018-07-29T14:53:09Z</time>
      </trkpt>
      <trkpt lat="42.75748" lon="0.58823">
        <ele>1608.13</ele>
        <time>2018-07-29T14:53:12Z</time>
      </trkpt>
      <trkpt lat="42.75736" lon="0.58852">
        <ele>1610.57</ele>
        <time>2018-07-29T14:53:15Z</time>
      </trkpt>
      <trkpt lat="42.75714" lon="0.58865">
        <ele>1611.9</ele>
        <time>2018-07-29T14:53:17Z</time>
      </trkpt>
      <trkpt lat="42.75693" lon="0.58879">
        <ele>1614.75</ele>
        <time>2018-07-29T14:53:19Z</time>
      </trkpt>
      <trkpt lat="42.75675" lon="0.58904">
        <ele>1616.83</ele>
        <time>2018-07-29T14:53:21Z</time>
      </trkpt>
      <trkpt lat="42.75656" lon="0.58932">
        <ele>1617.93</ele>
        <time>2018-07-29T14:53:23Z</time>
      </trkpt>
      <trkpt lat="42.75636" lon="0.58954">
        <ele>1619.85</ele>
        <time>2018-07-29T14:53:25Z</time>
      </trkpt>
      <trkpt lat="42.75621" lon="0.58973">
        <ele>1620.93</ele>
        <time>2018-07-29T14:53:27Z</time>
      </trkpt>
      <trkpt lat="42.75628" lon="0.58997">
        <ele>1622.87</ele>
        <time>2018-07-29T14:53:30Z</time>
      </trkpt>
      <trkpt lat="42.75651" lon="0.58976">
        <ele>1623.96</ele>
        <time>2018-07-29T14:53:33Z</time>
      </trkpt>
      <trkpt lat="42.75672" lon="0.58951">
        <ele>1624.94</ele>
        <time>2018-07-29T14:53:35Z</time>
      </trkpt>
      <trkpt lat="42.75697" lon="0.58935">
        <ele>1626.85</ele>
        <time>2018-07-29T14:53:37Z</time>
      </trkpt>
      <trkpt lat="42.75724" lon="0.58931">
        <ele>1627.93</ele>
        <time>2018-07-29T14:53:39Z</time>
      </trkpt>
      <trkpt lat="42.75753" lon="0.58936">
        <ele>1629.85</ele>
        <time>2018-07-29T14:53:41Z</time>
      </trkpt>
      <trkpt lat="42.75776" lon="0.58928">
        <ele>1630.93</ele>
        <time>2018-07-29T14:53:43Z</time>
      </trkpt>
      <trkpt lat="42.75795" lon="0.58905">
        <ele>1631.94</ele>
        <time>2018-07-29T14:53:45Z</time>
      </trkpt>
      <trkpt lat="42.75796" lon="0.58878">
        <ele>1633.57</ele>
        <time>2018-07-29T14:53:46Z</time>
      </trkpt>
      <trkpt lat="42.75805" lon="0.58837">
        <ele>1636.51</ele>
        <time>2018-07-29T14:53:48Z</time>
      </trkpt>
      <trkpt lat="42.75822" lon="0.58804">
        <ele>1639.51</ele>
        <time>2018-07-29T14:53:50Z</time>
      </trkpt>
      <trkpt lat="42.75843" lon="0.58773">
        <ele>1640.9</ele>
        <time>2018-07-29T14:53:52Z</time>
      </trkpt>
      <trkpt lat="42.75858" lon="0.58736">
        <ele>1643.54</ele>
        <time>2018-07-29T14:53:54Z</time>
      </trkpt>
      <trkpt lat="42.7587" lon="0.587">
        <ele>1645.81</ele>
        <time>2018-07-29T14:53:56Z</time>
      </trkpt>
      <trkpt lat="42.75889" lon="0.5867">
        <ele>1648.05</ele>
        <time>2018-07-29T14:53:58Z</time>
      </trkpt>
      <trkpt lat="42.75913" lon="0.58646">
        <ele>1649.86</ele>
        <time>2018-07-29T14:54:00Z</time>
      </trkpt>
      <trkpt lat="42.75936" lon="0.58629">
        <ele>1652.54</ele>
        <time>2018-07-29T14:54:02Z</time>
      </trkpt>
      <trkpt lat="42.75957" lon="0.58631">
        <ele>1655.51</ele>
        <time>2018-07-29T14:54:04Z</time>
      </trkpt>
      <trkpt lat="42.75972" lon="0.58651">
        <ele>1656.9</ele>
        <time>2018-07-29T14:54:06Z</time>
      </trkpt>
      <trkpt lat="42.75971" lon="0.5868">
        <ele>1658.84</ele>
        <time>2018-07-29T14:54:08Z</time>
      </trkpt>
      <trkpt lat="42.75966" lon="0.5871">
        <ele>1660.84</ele>
        <time>2018-07-29T14:54:10Z</time>
      </trkpt>
      <trkpt lat="42.75971" lon="0.58734">
        <ele>1661.93</ele>
        <time>2018-07-29T14:54:12Z</time>
      </trkpt>
      <trkpt lat="42.75995" lon="0.58736">
        <ele>1662.96</ele>
        <time>2018-07-29T14:54:15Z</time>
      </trkpt>
      <trkpt lat="42.76011" lon="0.587">
        <ele>1663.94</ele>
        <time>2018-07-29T14:54:17Z</time>
      </trkpt>
      <trkpt lat="42.76022" lon="0.58678">
        <ele>1664.87</ele>
        <time>2018-07-29T14:54:18Z</time>
      </trkpt>
      <trkpt lat="42.76036" lon="0.58658">
        <ele>1665.15</ele>
        <time>2018-07-29T14:54:19Z</time>
      </trkpt>
      <trkpt lat="42.76054" lon="0.58638">
        <ele>1667.33</ele>
        <time>2018-07-29T14:54:20Z</time>
      </trkpt>
      <trkpt lat="42.7607" lon="0.58618">
        <ele>1668.69</ele>
        <time>2018-07-29T14:54:21Z</time>
      </trkpt>
      <trkpt lat="42.76085" lon="0.58599">
        <ele>1670.49</ele>
        <time>2018-07-29T14:54:22Z</time>
      </trkpt>
      <trkpt lat="42.76099" lon="0.58581">
        <ele>1672.43</ele>
        <time>2018-07-29T14:54:23Z</time>
      </trkpt>
      <trkpt lat="42.7611" lon="0.5856">
        <ele>1674.42</ele>
        <time>2018-07-29T14:54:24Z</time>
      </trkpt>
      <trkpt lat="42.76119" lon="0.58537">
        <ele>1676.41</ele>
        <time>2018-07-29T14:54:25Z</time>
      </trkpt>
      <trkpt lat="42.76124" lon="0.58513">
        <ele>1678.41</ele>
        <time>2018-07-29T14:54:26Z</time>
      </trkpt>
      <trkpt lat="42.76122" lon="0.58466">
        <ele>1683.11</ele>
        <time>2018-07-29T14:54:28Z</time>
      </trkpt>
      <trkpt lat="42.76114" lon="0.58439">
        <ele>1685.32</ele>
        <time>2018-07-29T14:54:29Z</time>
      </trkpt>
      <trkpt lat="42.76105" lon="0.58412">
        <ele>1687.38</ele>
        <time>2018-07-29T14:54:30Z</time>
      </trkpt>
      <trkpt lat="42.76095" lon="0.58384">
        <ele>1690.1</ele>
        <time>2018-07-29T14:54:31Z</time>
      </trkpt>
      <trkpt lat="42.76086" lon="0.58358">
        <ele>1692.32</ele>
        <time>2018-07-29T14:54:32Z</time>
      </trkpt>
      <trkpt lat="42.76078" lon="0.58336">
        <ele>1695.08</ele>
        <time>2018-07-29T14:54:33Z</time>
      </trkpt>
      <trkpt lat="42.76068" lon="0.58298">
        <ele>1698.47</ele>
        <time>2018-07-29T14:54:35Z</time>
      </trkpt>
      <trkpt lat="42.76074" lon="0.5826">
        <ele>1701.51</ele>
        <time>2018-07-29T14:54:37Z</time>
      </trkpt>
      <trkpt lat="42.76094" lon="0.58231">
        <ele>1703.6</ele>
        <time>2018-07-29T14:54:39Z</time>
      </trkpt>
      <trkpt lat="42.76119" lon="0.58216">
        <ele>1707.43</ele>
        <time>2018-07-29T14:54:41Z</time>
      </trkpt>
      <trkpt lat="42.76137" lon="0.58188">
        <ele>1710.5</ele>
        <time>2018-07-29T14:54:43Z</time>
      </trkpt>
      <trkpt lat="42.76151" lon="0.58151">
        <ele>1713.72</ele>
        <time>2018-07-29T14:54:45Z</time>
      </trkpt>
      <trkpt lat="42.76173" lon="0.58115">
        <ele>1717.44</ele>
        <time>2018-07-29T14:54:47Z</time>
      </trkpt>
      <trkpt lat="42.76186" lon="0.58098">
        <ele>1719.42</ele>
        <time>2018-07-29T14:54:48Z</time>
      </trkpt>
      <trkpt lat="42.76199" lon="0.5808">
        <ele>1721.41</ele>
        <time>2018-07-29T14:54:49Z</time>
      </trkpt>
      <trkpt lat="42.76212" lon="0.58058">
        <ele>1723.41</ele>
        <time>2018-07-29T14:54:50Z</time>
      </trkpt>
      <trkpt lat="42.76225" lon="0.58037">
        <ele>1725.41</ele>
        <time>2018-07-29T14:54:51Z</time>
      </trkpt>
      <trkpt lat="42.7624" lon="0.58015">
        <ele>1727.41</ele>
        <time>2018-07-29T14:54:52Z</time>
      </trkpt>
      <trkpt lat="42.76256" lon="0.57994">
        <ele>1730.81</ele>
        <time>2018-07-29T14:54:53Z</time>
      </trkpt>
      <trkpt lat="42.76273" lon="0.57972">
        <ele>1732.53</ele>
        <time>2018-07-29T14:54:54Z</time>
      </trkpt>
      <trkpt lat="42.76289" lon="0.57951">
        <ele>1735.15</ele>
        <time>2018-07-29T14:54:55Z</time>
      </trkpt>
      <trkpt lat="42.76307" lon="0.5793">
        <ele>1738.03</ele>
        <time>2018-07-29T14:54:56Z</time>
      </trkpt>
      <trkpt lat="42.76325" lon="0.5791">
        <ele>1740.3</ele>
        <time>2018-07-29T14:54:57Z</time>
      </trkpt>
      <trkpt lat="42.76343" lon="0.5789">
        <ele>1743.08</ele>
        <time>2018-07-29T14:54:58Z</time>
      </trkpt>
      <trkpt lat="42.76362" lon="0.57871">
        <ele>1745.31</ele>
        <time>2018-07-29T14:54:59Z</time>
      </trkpt>
      <trkpt lat="42.76382" lon="0.57853">
        <ele>1747.38</ele>
        <time>2018-07-29T14:55:00Z</time>
      </trkpt>
      <trkpt lat="42.76402" lon="0.57837">
        <ele>1750.1</ele>
        <time>2018-07-29T14:55:01Z</time>
      </trkpt>
      <trkpt lat="42.76421" lon="0.57822">
        <ele>1752.32</ele>
        <time>2018-07-29T14:55:02Z</time>
      </trkpt>
      <trkpt lat="42.7644" lon="0.57808">
        <ele>1755.08</ele>
        <time>2018-07-29T14:55:03Z</time>
      </trkpt>
      <trkpt lat="42.76458" lon="0.57791">
        <ele>1757.31</ele>
        <time>2018-07-29T14:55:04Z</time>
      </trkpt>
      <trkpt lat="42.76476" lon="0.57773">
        <ele>1759.38</ele>
        <time>2018-07-29T14:55:05Z</time>
      </trkpt>
      <trkpt lat="42.76496" lon="0.57757">
        <ele>1762.1</ele>
        <time>2018-07-29T14:55:06Z</time>
      </trkpt>
      <trkpt lat="42.76517" lon="0.57745">
        <ele>1764.32</ele>
        <time>2018-07-29T14:55:07Z</time>
      </trkpt>
      <trkpt lat="42.76537" lon="0.57734">
        <ele>1767.08</ele>
        <time>2018-07-29T14:55:08Z</time>
      </trkpt>
      <trkpt lat="42.76556" lon="0.57725">
        <ele>1769.31</ele>
        <time>2018-07-29T14:55:09Z</time>
      </trkpt>
      <trkpt lat="42.76573" lon="0.57716">
        <ele>1771.38</ele>
        <time>2018-07-29T14:55:10Z</time>
      </trkpt>
      <trkpt lat="42.76606" lon="0.57698">
        <ele>1774.71</ele>
        <time>2018-07-29T14:55:12Z</time>
      </trkpt>
      <trkpt lat="42.76633" lon="0.5768">
        <ele>1777.74</ele>
        <time>2018-07-29T14:55:14Z</time>
      </trkpt>
      <trkpt lat="42.76655" lon="0.57665">
        <ele>1780.74</ele>
        <time>2018-07-29T14:55:16Z</time>
      </trkpt>
      <trkpt lat="42.76674" lon="0.57652">
        <ele>1782.83</ele>
        <time>2018-07-29T14:55:18Z</time>
      </trkpt>
      <trkpt lat="42.76689" lon="0.57638">
        <ele>1784.14</ele>
        <time>2018-07-29T14:55:20Z</time>
      </trkpt>
      <trkpt lat="42.76705" lon="0.57623">
        <ele>1785.17</ele>
        <time>2018-07-29T14:55:22Z</time>
      </trkpt>
      <trkpt lat="42.76723" lon="0.57618">
        <ele>1785.96</ele>
        <time>2018-07-29T14:55:24Z</time>
      </trkpt>
      <trkpt lat="42.76741" lon="0.57623">
        <ele>1787.85</ele>
        <time>2018-07-29T14:55:26Z</time>
      </trkpt>
      <trkpt lat="42.76757" lon="0.57635">
        <ele>1789.84</ele>
        <time>2018-07-29T14:55:28Z</time>
      </trkpt>
      <trkpt lat="42.76773" lon="0.57648">
        <ele>1792.75</ele>
        <time>2018-07-29T14:55:30Z</time>
      </trkpt>
      <trkpt lat="42.76793" lon="0.57668">
        <ele>1794.16</ele>
        <time>2018-07-29T14:55:33Z</time>
      </trkpt>
      <trkpt lat="42.76805" lon="0.57688">
        <ele>1796.17</ele>
        <time>2018-07-29T14:55:37Z</time>
      </trkpt>
      <trkpt lat="42.76809" lon="0.57718">
        <ele>1796.27</ele>
        <time>2018-07-29T14:55:41Z</time>
      </trkpt>
      <trkpt lat="42.76811" lon="0.57744">
        <ele>1796.33</ele>
        <time>2018-07-29T14:55:45Z</time>
      </trkpt>
      <trkpt lat="42.76815" lon="0.57768">
        <ele>1796.86</ele>
        <time>2018-07-29T15:01:24Z</time>
      </trkpt>
      <trkpt lat="42.76806" lon="0.57744">
        <ele>1800.27</ele>
        <time>2018-07-29T15:05:28Z</time>
      </trkpt>
      <trkpt lat="42.76807" lon="0.57717">
        <ele>1800.56</ele>
        <time>2018-07-29T15:05:37Z</time>
      </trkpt>
      <trkpt lat="42.76801" lon="0.57689">
        <ele>1800.57</ele>
        <time>2018-07-29T15:05:56Z</time>
      </trkpt>
      <trkpt lat="42.76792" lon="0.57667">
        <ele>1799.57</ele>
        <time>2018-07-29T15:06:01Z</time>
      </trkpt>
      <trkpt lat="42.76776" lon="0.57653">
        <ele>1797.67</ele>
        <time>2018-07-29T15:06:04Z</time>
      </trkpt>
      <trkpt lat="42.7676" lon="0.57636">
        <ele>1795.6</ele>
        <time>2018-07-29T15:06:07Z</time>
      </trkpt>
      <trkpt lat="42.76741" lon="0.57621">
        <ele>1792.69</ele>
        <time>2018-07-29T15:06:10Z</time>
      </trkpt>
      <trkpt lat="42.7672" lon="0.57617">
        <ele>1790.67</ele>
        <time>2018-07-29T15:06:13Z</time>
      </trkpt>
      <trkpt lat="42.767" lon="0.57623">
        <ele>1788.67</ele>
        <time>2018-07-29T15:06:16Z</time>
      </trkpt>
      <trkpt lat="42.76681" lon="0.5764">
        <ele>1786.6</ele>
        <time>2018-07-29T15:06:19Z</time>
      </trkpt>
      <trkpt lat="42.76663" lon="0.57656">
        <ele>1785.58</ele>
        <time>2018-07-29T15:06:22Z</time>
      </trkpt>
      <trkpt lat="42.76642" lon="0.5767">
        <ele>1783.39</ele>
        <time>2018-07-29T15:06:25Z</time>
      </trkpt>
      <trkpt lat="42.7662" lon="0.57685">
        <ele>1779.99</ele>
        <time>2018-07-29T15:06:28Z</time>
      </trkpt>
      <trkpt lat="42.76603" lon="0.57695">
        <ele>1777.93</ele>
        <time>2018-07-29T15:06:30Z</time>
      </trkpt>
      <trkpt lat="42.76585" lon="0.57705">
        <ele>1775.72</ele>
        <time>2018-07-29T15:06:32Z</time>
      </trkpt>
      <trkpt lat="42.76566" lon="0.57715">
        <ele>1773.7</ele>
        <time>2018-07-29T15:06:34Z</time>
      </trkpt>
      <trkpt lat="42.76546" lon="0.57724">
        <ele>1772.61</ele>
        <time>2018-07-29T15:06:36Z</time>
      </trkpt>
      <trkpt lat="42.76526" lon="0.57734">
        <ele>1769.99</ele>
        <time>2018-07-29T15:06:38Z</time>
      </trkpt>
      <trkpt lat="42.76506" lon="0.57748">
        <ele>1768.63</ele>
        <time>2018-07-29T15:06:40Z</time>
      </trkpt>
      <trkpt lat="42.76485" lon="0.57763">
        <ele>1765.78</ele>
        <time>2018-07-29T15:06:42Z</time>
      </trkpt>
      <trkpt lat="42.76464" lon="0.57781">
        <ele>1763</ele>
        <time>2018-07-29T15:06:44Z</time>
      </trkpt>
      <trkpt lat="42.76443" lon="0.57799">
        <ele>1761.42</ele>
        <time>2018-07-29T15:06:46Z</time>
      </trkpt>
      <trkpt lat="42.76421" lon="0.57817">
        <ele>1757.85</ele>
        <time>2018-07-29T15:06:48Z</time>
      </trkpt>
      <trkpt lat="42.76399" lon="0.57835">
        <ele>1755.71</ele>
        <time>2018-07-29T15:06:50Z</time>
      </trkpt>
      <trkpt lat="42.76377" lon="0.57855">
        <ele>1753.7</ele>
        <time>2018-07-29T15:06:52Z</time>
      </trkpt>
      <trkpt lat="42.76354" lon="0.57875">
        <ele>1750.09</ele>
        <time>2018-07-29T15:06:54Z</time>
      </trkpt>
      <trkpt lat="42.76332" lon="0.57898">
        <ele>1747.73</ele>
        <time>2018-07-29T15:06:56Z</time>
      </trkpt>
      <trkpt lat="42.76311" lon="0.57923">
        <ele>1744.09</ele>
        <time>2018-07-29T15:06:58Z</time>
      </trkpt>
      <trkpt lat="42.76289" lon="0.57948">
        <ele>1740.82</ele>
        <time>2018-07-29T15:07:00Z</time>
      </trkpt>
      <trkpt lat="42.76269" lon="0.57974">
        <ele>1736.89</ele>
        <time>2018-07-29T15:07:02Z</time>
      </trkpt>
      <trkpt lat="42.76248" lon="0.58002">
        <ele>1733.8</ele>
        <time>2018-07-29T15:07:04Z</time>
      </trkpt>
      <trkpt lat="42.76227" lon="0.58031">
        <ele>1731.01</ele>
        <time>2018-07-29T15:07:06Z</time>
      </trkpt>
      <trkpt lat="42.76207" lon="0.58062">
        <ele>1727.81</ele>
        <time>2018-07-29T15:07:08Z</time>
      </trkpt>
      <trkpt lat="42.76187" lon="0.58093">
        <ele>1725.5</ele>
        <time>2018-07-29T15:07:10Z</time>
      </trkpt>
      <trkpt lat="42.76164" lon="0.58123">
        <ele>1723.68</ele>
        <time>2018-07-29T15:07:12Z</time>
      </trkpt>
      <trkpt lat="42.76147" lon="0.58157">
        <ele>1719.87</ele>
        <time>2018-07-29T15:07:14Z</time>
      </trkpt>
      <trkpt lat="42.76133" lon="0.58193">
        <ele>1717.01</ele>
        <time>2018-07-29T15:07:16Z</time>
      </trkpt>
      <trkpt lat="42.76112" lon="0.58218">
        <ele>1713.81</ele>
        <time>2018-07-29T15:07:18Z</time>
      </trkpt>
      <trkpt lat="42.76086" lon="0.58235">
        <ele>1709.4</ele>
        <time>2018-07-29T15:07:20Z</time>
      </trkpt>
      <trkpt lat="42.76071" lon="0.58258">
        <ele>1705.85</ele>
        <time>2018-07-29T15:07:22Z</time>
      </trkpt>
      <trkpt lat="42.76064" lon="0.58291">
        <ele>1703.71</ele>
        <time>2018-07-29T15:07:24Z</time>
      </trkpt>
      <trkpt lat="42.7607" lon="0.58322">
        <ele>1701</ele>
        <time>2018-07-29T15:07:26Z</time>
      </trkpt>
      <trkpt lat="42.76082" lon="0.58352">
        <ele>1698.02</ele>
        <time>2018-07-29T15:07:28Z</time>
      </trkpt>
      <trkpt lat="42.76093" lon="0.58382">
        <ele>1695.72</ele>
        <time>2018-07-29T15:07:30Z</time>
      </trkpt>
      <trkpt lat="42.76104" lon="0.58412">
        <ele>1692.09</ele>
        <time>2018-07-29T15:07:32Z</time>
      </trkpt>
      <trkpt lat="42.76114" lon="0.58444">
        <ele>1689.73</ele>
        <time>2018-07-29T15:07:34Z</time>
      </trkpt>
      <trkpt lat="42.76121" lon="0.58478">
        <ele>1687</ele>
        <time>2018-07-29T15:07:36Z</time>
      </trkpt>
      <trkpt lat="42.76122" lon="0.58514">
        <ele>1684.02</ele>
        <time>2018-07-29T15:07:38Z</time>
      </trkpt>
      <trkpt lat="42.76113" lon="0.58547">
        <ele>1681.72</ele>
        <time>2018-07-29T15:07:40Z</time>
      </trkpt>
      <trkpt lat="42.76098" lon="0.58577">
        <ele>1679.7</ele>
        <time>2018-07-29T15:07:42Z</time>
      </trkpt>
      <trkpt lat="42.76078" lon="0.58603">
        <ele>1676.79</ele>
        <time>2018-07-29T15:07:44Z</time>
      </trkpt>
      <trkpt lat="42.76058" lon="0.58629">
        <ele>1673.3</ele>
        <time>2018-07-29T15:07:46Z</time>
      </trkpt>
      <trkpt lat="42.76038" lon="0.58654">
        <ele>1670.75</ele>
        <time>2018-07-29T15:07:48Z</time>
      </trkpt>
      <trkpt lat="42.76018" lon="0.58681">
        <ele>1667.79</ele>
        <time>2018-07-29T15:07:50Z</time>
      </trkpt>
      <trkpt lat="42.76004" lon="0.58709">
        <ele>1667.31</ele>
        <time>2018-07-29T15:07:52Z</time>
      </trkpt>
      <trkpt lat="42.75989" lon="0.58732">
        <ele>1666.36</ele>
        <time>2018-07-29T15:07:54Z</time>
      </trkpt>
      <trkpt lat="42.75966" lon="0.58733">
        <ele>1664.6</ele>
        <time>2018-07-29T15:07:57Z</time>
      </trkpt>
      <trkpt lat="42.75959" lon="0.58701">
        <ele>1662.69</ele>
        <time>2018-07-29T15:07:59Z</time>
      </trkpt>
      <trkpt lat="42.75974" lon="0.58669">
        <ele>1662.3</ele>
        <time>2018-07-29T15:08:01Z</time>
      </trkpt>
      <trkpt lat="42.75969" lon="0.58638">
        <ele>1659.96</ele>
        <time>2018-07-29T15:08:03Z</time>
      </trkpt>
      <trkpt lat="42.75948" lon="0.58623">
        <ele>1658.63</ele>
        <time>2018-07-29T15:08:05Z</time>
      </trkpt>
      <trkpt lat="42.75922" lon="0.58632">
        <ele>1656.69</ele>
        <time>2018-07-29T15:08:07Z</time>
      </trkpt>
      <trkpt lat="42.75899" lon="0.58654">
        <ele>1653.99</ele>
        <time>2018-07-29T15:08:09Z</time>
      </trkpt>
      <trkpt lat="42.75878" lon="0.5868">
        <ele>1651.02</ele>
        <time>2018-07-29T15:08:11Z</time>
      </trkpt>
      <trkpt lat="42.75866" lon="0.587">
        <ele>1648.72</ele>
        <time>2018-07-29T15:08:13Z</time>
      </trkpt>
      <trkpt lat="42.75856" lon="0.58722">
        <ele>1651.18</ele>
        <time>2018-07-29T15:10:03Z</time>
      </trkpt>
      <trkpt lat="42.75849" lon="0.58755">
        <ele>1647.69</ele>
        <time>2018-07-29T15:10:07Z</time>
      </trkpt>
      <trkpt lat="42.75835" lon="0.58776">
        <ele>1646.4</ele>
        <time>2018-07-29T15:10:09Z</time>
      </trkpt>
      <trkpt lat="42.75817" lon="0.588">
        <ele>1644.67</ele>
        <time>2018-07-29T15:10:11Z</time>
      </trkpt>
      <trkpt lat="42.75802" lon="0.5883">
        <ele>1641.78</ele>
        <time>2018-07-29T15:10:13Z</time>
      </trkpt>
      <trkpt lat="42.75793" lon="0.58867">
        <ele>1639.7</ele>
        <time>2018-07-29T15:10:15Z</time>
      </trkpt>
      <trkpt lat="42.75788" lon="0.58903">
        <ele>1637</ele>
        <time>2018-07-29T15:10:17Z</time>
      </trkpt>
      <trkpt lat="42.75774" lon="0.58926">
        <ele>1634.72</ele>
        <time>2018-07-29T15:10:19Z</time>
      </trkpt>
      <trkpt lat="42.75752" lon="0.58933">
        <ele>1632</ele>
        <time>2018-07-29T15:10:21Z</time>
      </trkpt>
      <trkpt lat="42.75726" lon="0.58932">
        <ele>1630.63</ele>
        <time>2018-07-29T15:10:23Z</time>
      </trkpt>
      <trkpt lat="42.75704" lon="0.58929">
        <ele>1629.6</ele>
        <time>2018-07-29T15:10:25Z</time>
      </trkpt>
      <trkpt lat="42.75684" lon="0.5894">
        <ele>1628.6</ele>
        <time>2018-07-29T15:10:27Z</time>
      </trkpt>
      <trkpt lat="42.75659" lon="0.58963">
        <ele>1627.6</ele>
        <time>2018-07-29T15:10:29Z</time>
      </trkpt>
      <trkpt lat="42.7564" lon="0.58983">
        <ele>1626.6</ele>
        <time>2018-07-29T15:10:31Z</time>
      </trkpt>
      <trkpt lat="42.75617" lon="0.58982">
        <ele>1624.39</ele>
        <time>2018-07-29T15:10:34Z</time>
      </trkpt>
      <trkpt lat="42.7563" lon="0.58965">
        <ele>1623.6</ele>
        <time>2018-07-29T15:10:35Z</time>
      </trkpt>
      <trkpt lat="42.75652" lon="0.58943">
        <ele>1623.3</ele>
        <time>2018-07-29T15:10:37Z</time>
      </trkpt>
      <trkpt lat="42.75666" lon="0.58927">
        <ele>1622.58</ele>
        <time>2018-07-29T15:10:38Z</time>
      </trkpt>
      <trkpt lat="42.75679" lon="0.58908">
        <ele>1621.66</ele>
        <time>2018-07-29T15:10:39Z</time>
      </trkpt>
      <trkpt lat="42.75703" lon="0.58879">
        <ele>1618.78</ele>
        <time>2018-07-29T15:10:41Z</time>
      </trkpt>
      <trkpt lat="42.75729" lon="0.58862">
        <ele>1616</ele>
        <time>2018-07-29T15:10:43Z</time>
      </trkpt>
      <trkpt lat="42.75744" lon="0.58838">
        <ele>1613.72</ele>
        <time>2018-07-29T15:10:45Z</time>
      </trkpt>
      <trkpt lat="42.75735" lon="0.58816">
        <ele>1611.4</ele>
        <time>2018-07-29T15:10:48Z</time>
      </trkpt>
      <trkpt lat="42.75714" lon="0.58832">
        <ele>1609.67</ele>
        <time>2018-07-29T15:10:50Z</time>
      </trkpt>
      <trkpt lat="42.75683" lon="0.58854">
        <ele>1607.69</ele>
        <time>2018-07-29T15:10:52Z</time>
      </trkpt>
      <trkpt lat="42.75665" lon="0.58867">
        <ele>1605.99</ele>
        <time>2018-07-29T15:10:53Z</time>
      </trkpt>
      <trkpt lat="42.75646" lon="0.5888">
        <ele>1604.09</ele>
        <time>2018-07-29T15:10:54Z</time>
      </trkpt>
      <trkpt lat="42.75628" lon="0.58894">
        <ele>1602.81</ele>
        <time>2018-07-29T15:10:55Z</time>
      </trkpt>
      <trkpt lat="42.75608" lon="0.58907">
        <ele>1601.03</ele>
        <time>2018-07-29T15:10:56Z</time>
      </trkpt>
      <trkpt lat="42.75587" lon="0.5892">
        <ele>1599.8</ele>
        <time>2018-07-29T15:10:57Z</time>
      </trkpt>
      <trkpt lat="42.75567" lon="0.58931">
        <ele>1598.73</ele>
        <time>2018-07-29T15:10:58Z</time>
      </trkpt>
      <trkpt lat="42.75547" lon="0.58942">
        <ele>1597</ele>
        <time>2018-07-29T15:10:59Z</time>
      </trkpt>
      <trkpt lat="42.75527" lon="0.58955">
        <ele>1594.39</ele>
        <time>2018-07-29T15:11:00Z</time>
      </trkpt>
      <trkpt lat="42.75509" lon="0.58969">
        <ele>1590.8</ele>
        <time>2018-07-29T15:11:01Z</time>
      </trkpt>
      <trkpt lat="42.75491" lon="0.58987">
        <ele>1588.33</ele>
        <time>2018-07-29T15:11:02Z</time>
      </trkpt>
      <trkpt lat="42.75475" lon="0.59006">
        <ele>1586.89</ele>
        <time>2018-07-29T15:11:03Z</time>
      </trkpt>
      <trkpt lat="42.75461" lon="0.59027">
        <ele>1585.05</ele>
        <time>2018-07-29T15:11:04Z</time>
      </trkpt>
      <trkpt lat="42.75447" lon="0.59049">
        <ele>1583.8</ele>
        <time>2018-07-29T15:11:05Z</time>
      </trkpt>
      <trkpt lat="42.75436" lon="0.59073">
        <ele>1582.03</ele>
        <time>2018-07-29T15:11:06Z</time>
      </trkpt>
      <trkpt lat="42.75425" lon="0.59095">
        <ele>1580.8</ele>
        <time>2018-07-29T15:11:07Z</time>
      </trkpt>
      <trkpt lat="42.75406" lon="0.5913">
        <ele>1579.61</ele>
        <time>2018-07-29T15:11:09Z</time>
      </trkpt>
      <trkpt lat="42.75385" lon="0.59144">
        <ele>1578.39</ele>
        <time>2018-07-29T15:11:11Z</time>
      </trkpt>
      <trkpt lat="42.75363" lon="0.59134">
        <ele>1577.37</ele>
        <time>2018-07-29T15:11:13Z</time>
      </trkpt>
      <trkpt lat="42.75346" lon="0.59103">
        <ele>1576.37</ele>
        <time>2018-07-29T15:11:15Z</time>
      </trkpt>
      <trkpt lat="42.75348" lon="0.59056">
        <ele>1574.67</ele>
        <time>2018-07-29T15:11:17Z</time>
      </trkpt>
      <trkpt lat="42.75355" lon="0.59029">
        <ele>1573.69</ele>
        <time>2018-07-29T15:11:18Z</time>
      </trkpt>
      <trkpt lat="42.75379" lon="0.59009">
        <ele>1570.59</ele>
        <time>2018-07-29T15:11:19Z</time>
      </trkpt>
      <trkpt lat="42.7539" lon="0.58986">
        <ele>1567.56</ele>
        <time>2018-07-29T15:11:20Z</time>
      </trkpt>
      <trkpt lat="42.75407" lon="0.58964">
        <ele>1565.26</ele>
        <time>2018-07-29T15:11:21Z</time>
      </trkpt>
      <trkpt lat="42.75422" lon="0.58943">
        <ele>1563.16</ele>
        <time>2018-07-29T15:11:22Z</time>
      </trkpt>
      <trkpt lat="42.75437" lon="0.58921">
        <ele>1561.14</ele>
        <time>2018-07-29T15:11:23Z</time>
      </trkpt>
      <trkpt lat="42.7545" lon="0.58898">
        <ele>1559.13</ele>
        <time>2018-07-29T15:11:24Z</time>
      </trkpt>
      <trkpt lat="42.75464" lon="0.58875">
        <ele>1557.13</ele>
        <time>2018-07-29T15:11:25Z</time>
      </trkpt>
      <trkpt lat="42.75477" lon="0.58854">
        <ele>1554.42</ele>
        <time>2018-07-29T15:11:26Z</time>
      </trkpt>
      <trkpt lat="42.75491" lon="0.58834">
        <ele>1552.21</ele>
        <time>2018-07-29T15:11:27Z</time>
      </trkpt>
      <trkpt lat="42.75505" lon="0.58816">
        <ele>1550.15</ele>
        <time>2018-07-29T15:11:28Z</time>
      </trkpt>
      <trkpt lat="42.7552" lon="0.58799">
        <ele>1548.13</ele>
        <time>2018-07-29T15:11:29Z</time>
      </trkpt>
      <trkpt lat="42.75537" lon="0.58783">
        <ele>1546.13</ele>
        <time>2018-07-29T15:11:30Z</time>
      </trkpt>
      <trkpt lat="42.75555" lon="0.58769">
        <ele>1544.12</ele>
        <time>2018-07-29T15:11:31Z</time>
      </trkpt>
      <trkpt lat="42.75571" lon="0.58754">
        <ele>1541.42</ele>
        <time>2018-07-29T15:11:32Z</time>
      </trkpt>
      <trkpt lat="42.75587" lon="0.58738">
        <ele>1539.91</ele>
        <time>2018-07-29T15:11:33Z</time>
      </trkpt>
      <trkpt lat="42.75609" lon="0.58702">
        <ele>1536.11</ele>
        <time>2018-07-29T15:11:35Z</time>
      </trkpt>
      <trkpt lat="42.75614" lon="0.58662">
        <ele>1532.82</ele>
        <time>2018-07-29T15:11:37Z</time>
      </trkpt>
      <trkpt lat="42.75606" lon="0.58624">
        <ele>1530.01</ele>
        <time>2018-07-29T15:11:39Z</time>
      </trkpt>
      <trkpt lat="42.75595" lon="0.58598">
        <ele>1527.72</ele>
        <time>2018-07-29T15:11:41Z</time>
      </trkpt>
      <trkpt lat="42.75591" lon="0.58573">
        <ele>1525.61</ele>
        <time>2018-07-29T15:11:44Z</time>
      </trkpt>
      <trkpt lat="42.75587" lon="0.58543">
        <ele>1522.6</ele>
        <time>2018-07-29T15:11:48Z</time>
      </trkpt>
      <trkpt lat="42.75586" lon="0.58506">
        <ele>1519.69</ele>
        <time>2018-07-29T15:11:52Z</time>
      </trkpt>
      <trkpt lat="42.75591" lon="0.58475">
        <ele>1518.6</ele>
        <time>2018-07-29T15:11:54Z</time>
      </trkpt>
      <trkpt lat="42.75603" lon="0.58456">
        <ele>1517.6</ele>
        <time>2018-07-29T15:11:56Z</time>
      </trkpt>
      <trkpt lat="42.75618" lon="0.58435">
        <ele>1515.6</ele>
        <time>2018-07-29T15:11:59Z</time>
      </trkpt>
      <trkpt lat="42.75602" lon="0.58421">
        <ele>1512.69</ele>
        <time>2018-07-29T15:12:02Z</time>
      </trkpt>
      <trkpt lat="42.75585" lon="0.58437">
        <ele>1510.7</ele>
        <time>2018-07-29T15:12:04Z</time>
      </trkpt>
      <trkpt lat="42.75569" lon="0.58461">
        <ele>1508.7</ele>
        <time>2018-07-29T15:12:06Z</time>
      </trkpt>
      <trkpt lat="42.75556" lon="0.58497">
        <ele>1505.79</ele>
        <time>2018-07-29T15:12:08Z</time>
      </trkpt>
      <trkpt lat="42.75543" lon="0.58536">
        <ele>1503</ele>
        <time>2018-07-29T15:12:10Z</time>
      </trkpt>
      <trkpt lat="42.75527" lon="0.58574">
        <ele>1500.72</ele>
        <time>2018-07-29T15:12:12Z</time>
      </trkpt>
      <trkpt lat="42.75511" lon="0.58613">
        <ele>1497.79</ele>
        <time>2018-07-29T15:12:14Z</time>
      </trkpt>
      <trkpt lat="42.75493" lon="0.5865">
        <ele>1495</ele>
        <time>2018-07-29T15:12:16Z</time>
      </trkpt>
      <trkpt lat="42.75465" lon="0.58677">
        <ele>1491.81</ele>
        <time>2018-07-29T15:12:18Z</time>
      </trkpt>
      <trkpt lat="42.7545" lon="0.5869">
        <ele>1490.03</ele>
        <time>2018-07-29T15:12:19Z</time>
      </trkpt>
      <trkpt lat="42.75436" lon="0.58705">
        <ele>1487.4</ele>
        <time>2018-07-29T15:12:20Z</time>
      </trkpt>
      <trkpt lat="42.75421" lon="0.58722">
        <ele>1485.21</ele>
        <time>2018-07-29T15:12:21Z</time>
      </trkpt>
      <trkpt lat="42.75405" lon="0.5874">
        <ele>1483.85</ele>
        <time>2018-07-29T15:12:22Z</time>
      </trkpt>
      <trkpt lat="42.7539" lon="0.58757">
        <ele>1482.04</ele>
        <time>2018-07-29T15:12:23Z</time>
      </trkpt>
      <trkpt lat="42.75374" lon="0.58775">
        <ele>1480.1</ele>
        <time>2018-07-29T15:12:24Z</time>
      </trkpt>
      <trkpt lat="42.75359" lon="0.58791">
        <ele>1478.12</ele>
        <time>2018-07-29T15:12:25Z</time>
      </trkpt>
      <trkpt lat="42.75344" lon="0.58807">
        <ele>1476.12</ele>
        <time>2018-07-29T15:12:26Z</time>
      </trkpt>
      <trkpt lat="42.7533" lon="0.58825">
        <ele>1474.12</ele>
        <time>2018-07-29T15:12:27Z</time>
      </trkpt>
      <trkpt lat="42.75316" lon="0.58843">
        <ele>1472.82</ele>
        <time>2018-07-29T15:12:28Z</time>
      </trkpt>
      <trkpt lat="42.75303" lon="0.58864">
        <ele>1471.03</ele>
        <time>2018-07-29T15:12:29Z</time>
      </trkpt>
      <trkpt lat="42.75289" lon="0.58884">
        <ele>1469.1</ele>
        <time>2018-07-29T15:12:30Z</time>
      </trkpt>
      <trkpt lat="42.75276" lon="0.58904">
        <ele>1468.52</ele>
        <time>2018-07-29T15:12:31Z</time>
      </trkpt>
      <trkpt lat="42.75263" lon="0.58924">
        <ele>1466.94</ele>
        <time>2018-07-29T15:12:32Z</time>
      </trkpt>
      <trkpt lat="42.75249" lon="0.58941">
        <ele>1464.37</ele>
        <time>2018-07-29T15:12:33Z</time>
      </trkpt>
      <trkpt lat="42.75234" lon="0.58956">
        <ele>1462.2</ele>
        <time>2018-07-29T15:12:34Z</time>
      </trkpt>
      <trkpt lat="42.75219" lon="0.58971">
        <ele>1460.85</ele>
        <time>2018-07-29T15:12:35Z</time>
      </trkpt>
      <trkpt lat="42.75205" lon="0.58988">
        <ele>1459.04</ele>
        <time>2018-07-29T15:12:36Z</time>
      </trkpt>
      <trkpt lat="42.75183" lon="0.59025">
        <ele>1456.24</ele>
        <time>2018-07-29T15:12:38Z</time>
      </trkpt>
      <trkpt lat="42.75172" lon="0.59048">
        <ele>1453.46</ele>
        <time>2018-07-29T15:12:39Z</time>
      </trkpt>
      <trkpt lat="42.75161" lon="0.59071">
        <ele>1452.62</ele>
        <time>2018-07-29T15:12:40Z</time>
      </trkpt>
      <trkpt lat="42.7515" lon="0.59094">
        <ele>1450.27</ele>
        <time>2018-07-29T15:12:41Z</time>
      </trkpt>
      <trkpt lat="42.75139" lon="0.59115">
        <ele>1448.17</ele>
        <time>2018-07-29T15:12:42Z</time>
      </trkpt>
      <trkpt lat="42.75131" lon="0.59138">
        <ele>1446.14</ele>
        <time>2018-07-29T15:12:43Z</time>
      </trkpt>
      <trkpt lat="42.75123" lon="0.59161">
        <ele>1444.13</ele>
        <time>2018-07-29T15:12:44Z</time>
      </trkpt>
      <trkpt lat="42.75118" lon="0.59184">
        <ele>1442.83</ele>
        <time>2018-07-29T15:12:45Z</time>
      </trkpt>
      <trkpt lat="42.75112" lon="0.59209">
        <ele>1441.73</ele>
        <time>2018-07-29T15:12:46Z</time>
      </trkpt>
      <trkpt lat="42.75115" lon="0.59242">
        <ele>1439.31</ele>
        <time>2018-07-29T15:12:47Z</time>
      </trkpt>
      <trkpt lat="42.75113" lon="0.59271">
        <ele>1437.18</ele>
        <time>2018-07-29T15:12:48Z</time>
      </trkpt>
      <trkpt lat="42.75111" lon="0.593">
        <ele>1435.14</ele>
        <time>2018-07-29T15:12:49Z</time>
      </trkpt>
      <trkpt lat="42.75109" lon="0.59329">
        <ele>1433.13</ele>
        <time>2018-07-29T15:12:50Z</time>
      </trkpt>
      <trkpt lat="42.75106" lon="0.59357">
        <ele>1431.13</ele>
        <time>2018-07-29T15:12:51Z</time>
      </trkpt>
      <trkpt lat="42.75103" lon="0.59384">
        <ele>1429.12</ele>
        <time>2018-07-29T15:12:52Z</time>
      </trkpt>
      <trkpt lat="42.75099" lon="0.5941">
        <ele>1427.82</ele>
        <time>2018-07-29T15:12:53Z</time>
      </trkpt>
      <trkpt lat="42.75095" lon="0.59436">
        <ele>1426.03</ele>
        <time>2018-07-29T15:12:54Z</time>
      </trkpt>
      <trkpt lat="42.75091" lon="0.59462">
        <ele>1424.8</ele>
        <time>2018-07-29T15:12:55Z</time>
      </trkpt>
      <trkpt lat="42.75076" lon="0.59505">
        <ele>1422</ele>
        <time>2018-07-29T15:12:57Z</time>
      </trkpt>
      <trkpt lat="42.75063" lon="0.59523">
        <ele>1419.39</ele>
        <time>2018-07-29T15:12:58Z</time>
      </trkpt>
      <trkpt lat="42.75049" lon="0.59541">
        <ele>1415.8</ele>
        <time>2018-07-29T15:12:59Z</time>
      </trkpt>
      <trkpt lat="42.75037" lon="0.5956">
        <ele>1414.03</ele>
        <time>2018-07-29T15:13:00Z</time>
      </trkpt>
      <trkpt lat="42.75024" lon="0.59579">
        <ele>1411.4</ele>
        <time>2018-07-29T15:13:01Z</time>
      </trkpt>
      <trkpt lat="42.75001" lon="0.59613">
        <ele>1407.36</ele>
        <time>2018-07-29T15:13:03Z</time>
      </trkpt>
      <trkpt lat="42.74988" lon="0.59653">
        <ele>1401.9</ele>
        <time>2018-07-29T15:13:05Z</time>
      </trkpt>
      <trkpt lat="42.74987" lon="0.59696">
        <ele>1399.8</ele>
        <time>2018-07-29T15:13:07Z</time>
      </trkpt>
      <trkpt lat="42.74988" lon="0.59726">
        <ele>1397.58</ele>
        <time>2018-07-29T15:13:09Z</time>
      </trkpt>
      <trkpt lat="42.74964" lon="0.59726">
        <ele>1394.77</ele>
        <time>2018-07-29T15:13:12Z</time>
      </trkpt>
      <trkpt lat="42.74951" lon="0.59702">
        <ele>1393.49</ele>
        <time>2018-07-29T15:13:14Z</time>
      </trkpt>
      <trkpt lat="42.74951" lon="0.59677">
        <ele>1392.25</ele>
        <time>2018-07-29T15:13:16Z</time>
      </trkpt>
      <trkpt lat="42.74956" lon="0.59643">
        <ele>1389.55</ele>
        <time>2018-07-29T15:13:19Z</time>
      </trkpt>
      <trkpt lat="42.74959" lon="0.59616">
        <ele>1387.23</ele>
        <time>2018-07-29T15:13:23Z</time>
      </trkpt>
      <trkpt lat="42.74962" lon="0.59586">
        <ele>1384.53</ele>
        <time>2018-07-29T15:13:27Z</time>
      </trkpt>
      <trkpt lat="42.74961" lon="0.59561">
        <ele>1381.86</ele>
        <time>2018-07-29T15:13:29Z</time>
      </trkpt>
      <trkpt lat="42.74968" lon="0.59533">
        <ele>1378.68</ele>
        <time>2018-07-29T15:13:31Z</time>
      </trkpt>
      <trkpt lat="42.74981" lon="0.59503">
        <ele>1376.57</ele>
        <time>2018-07-29T15:13:33Z</time>
      </trkpt>
      <trkpt lat="42.74986" lon="0.59463">
        <ele>1373.65</ele>
        <time>2018-07-29T15:13:35Z</time>
      </trkpt>
      <trkpt lat="42.74988" lon="0.5942">
        <ele>1370.87</ele>
        <time>2018-07-29T15:13:37Z</time>
      </trkpt>
      <trkpt lat="42.74992" lon="0.5938">
        <ele>1368.59</ele>
        <time>2018-07-29T15:13:39Z</time>
      </trkpt>
      <trkpt lat="42.75001" lon="0.59342">
        <ele>1366.45</ele>
        <time>2018-07-29T15:13:41Z</time>
      </trkpt>
      <trkpt lat="42.74999" lon="0.59304">
        <ele>1362.06</ele>
        <time>2018-07-29T15:13:43Z</time>
      </trkpt>
      <trkpt lat="42.7499" lon="0.59267">
        <ele>1359.39</ele>
        <time>2018-07-29T15:13:45Z</time>
      </trkpt>
      <trkpt lat="42.74987" lon="0.59227">
        <ele>1356.84</ele>
        <time>2018-07-29T15:13:47Z</time>
      </trkpt>
      <trkpt lat="42.74991" lon="0.59188">
        <ele>1355.28</ele>
        <time>2018-07-29T15:13:49Z</time>
      </trkpt>
      <trkpt lat="42.74999" lon="0.5915">
        <ele>1354.23</ele>
        <time>2018-07-29T15:13:51Z</time>
      </trkpt>
      <trkpt lat="42.7501" lon="0.59122">
        <ele>1354.26</ele>
        <time>2018-07-29T15:13:53Z</time>
      </trkpt>
      <trkpt lat="42.75006" lon="0.59098">
        <ele>1353.57</ele>
        <time>2018-07-29T15:13:56Z</time>
      </trkpt>
      <trkpt lat="42.74991" lon="0.59127">
        <ele>1349.8</ele>
        <time>2018-07-29T15:13:59Z</time>
      </trkpt>
      <trkpt lat="42.74981" lon="0.59167">
        <ele>1345.97</ele>
        <time>2018-07-29T15:14:01Z</time>
      </trkpt>
      <trkpt lat="42.74971" lon="0.59209">
        <ele>1342.9</ele>
        <time>2018-07-29T15:14:03Z</time>
      </trkpt>
      <trkpt lat="42.74966" lon="0.59253">
        <ele>1338.98</ele>
        <time>2018-07-29T15:14:05Z</time>
      </trkpt>
      <trkpt lat="42.74966" lon="0.59295">
        <ele>1334.08</ele>
        <time>2018-07-29T15:14:07Z</time>
      </trkpt>
      <trkpt lat="42.74962" lon="0.59336">
        <ele>1330.91</ele>
        <time>2018-07-29T15:14:09Z</time>
      </trkpt>
      <trkpt lat="42.74947" lon="0.59373">
        <ele>1327.89</ele>
        <time>2018-07-29T15:14:11Z</time>
      </trkpt>
      <trkpt lat="42.74933" lon="0.59415">
        <ele>1323.98</ele>
        <time>2018-07-29T15:14:13Z</time>
      </trkpt>
      <trkpt lat="42.74921" lon="0.59459">
        <ele>1322.3</ele>
        <time>2018-07-29T15:14:15Z</time>
      </trkpt>
      <trkpt lat="42.74901" lon="0.595">
        <ele>1319.83</ele>
        <time>2018-07-29T15:14:17Z</time>
      </trkpt>
      <trkpt lat="42.74891" lon="0.59521">
        <ele>1318.64</ele>
        <time>2018-07-29T15:14:18Z</time>
      </trkpt>
      <trkpt lat="42.74882" lon="0.59542">
        <ele>1317.58</ele>
        <time>2018-07-29T15:14:19Z</time>
      </trkpt>
      <trkpt lat="42.74864" lon="0.59585">
        <ele>1314.86</ele>
        <time>2018-07-29T15:14:21Z</time>
      </trkpt>
      <trkpt lat="42.7485" lon="0.59628">
        <ele>1311.89</ele>
        <time>2018-07-29T15:14:23Z</time>
      </trkpt>
      <trkpt lat="42.74833" lon="0.5967">
        <ele>1308.19</ele>
        <time>2018-07-29T15:14:25Z</time>
      </trkpt>
      <trkpt lat="42.74823" lon="0.5969">
        <ele>1306.75</ele>
        <time>2018-07-29T15:14:26Z</time>
      </trkpt>
      <trkpt lat="42.74812" lon="0.5971">
        <ele>1305.62</ele>
        <time>2018-07-29T15:14:27Z</time>
      </trkpt>
      <trkpt lat="42.74795" lon="0.59745">
        <ele>1302.65</ele>
        <time>2018-07-29T15:14:29Z</time>
      </trkpt>
      <trkpt lat="42.74789" lon="0.5978">
        <ele>1300.57</ele>
        <time>2018-07-29T15:14:31Z</time>
      </trkpt>
      <trkpt lat="42.748" lon="0.59813">
        <ele>1297.86</ele>
        <time>2018-07-29T15:14:33Z</time>
      </trkpt>
      <trkpt lat="42.74807" lon="0.59836">
        <ele>1295.59</ele>
        <time>2018-07-29T15:14:35Z</time>
      </trkpt>
      <trkpt lat="42.74814" lon="0.59859">
        <ele>1294.44</ele>
        <time>2018-07-29T15:14:38Z</time>
      </trkpt>
      <trkpt lat="42.74823" lon="0.59887">
        <ele>1290.34</ele>
        <time>2018-07-29T15:15:07Z</time>
      </trkpt>
      <trkpt lat="42.74837" lon="0.5991">
        <ele>1288.46</ele>
        <time>2018-07-29T15:15:10Z</time>
      </trkpt>
      <trkpt lat="42.74849" lon="0.59929">
        <ele>1287.23</ele>
        <time>2018-07-29T15:15:13Z</time>
      </trkpt>
      <trkpt lat="42.74869" lon="0.59948">
        <ele>1285.73</ele>
        <time>2018-07-29T15:15:17Z</time>
      </trkpt>
      <trkpt lat="42.74888" lon="0.59964">
        <ele>1283.46</ele>
        <time>2018-07-29T15:15:21Z</time>
      </trkpt>
      <trkpt lat="42.74872" lon="0.5995">
        <ele>1283.73</ele>
        <time>2018-07-29T15:15:39Z</time>
      </trkpt>
      <trkpt lat="42.74854" lon="0.59937">
        <ele>1284.33</ele>
        <time>2018-07-29T15:15:44Z</time>
      </trkpt>
      <trkpt lat="42.74841" lon="0.59917">
        <ele>1285.13</ele>
        <time>2018-07-29T15:15:50Z</time>
      </trkpt>
      <trkpt lat="42.74829" lon="0.59897">
        <ele>1287.09</ele>
        <time>2018-07-29T15:15:56Z</time>
      </trkpt>
      <trkpt lat="42.74819" lon="0.59874">
        <ele>1289.1</ele>
        <time>2018-07-29T15:16:03Z</time>
      </trkpt>
      <trkpt lat="42.74806" lon="0.59854">
        <ele>1290.4</ele>
        <time>2018-07-29T15:17:16Z</time>
      </trkpt>
      <trkpt lat="42.74782" lon="0.59848">
        <ele>1289.23</ele>
        <time>2018-07-29T15:17:19Z</time>
      </trkpt>
      <trkpt lat="42.74772" lon="0.5982">
        <ele>1288.44</ele>
        <time>2018-07-29T15:17:21Z</time>
      </trkpt>
      <trkpt lat="42.74764" lon="0.59785">
        <ele>1286.55</ele>
        <time>2018-07-29T15:17:23Z</time>
      </trkpt>
      <trkpt lat="42.74759" lon="0.5975">
        <ele>1285.26</ele>
        <time>2018-07-29T15:17:25Z</time>
      </trkpt>
      <trkpt lat="42.74769" lon="0.59717">
        <ele>1281.71</ele>
        <time>2018-07-29T15:17:27Z</time>
      </trkpt>
      <trkpt lat="42.74787" lon="0.59683">
        <ele>1279.57</ele>
        <time>2018-07-29T15:17:29Z</time>
      </trkpt>
      <trkpt lat="42.74796" lon="0.59638">
        <ele>1277.56</ele>
        <time>2018-07-29T15:17:31Z</time>
      </trkpt>
      <trkpt lat="42.748" lon="0.59613">
        <ele>1276.56</ele>
        <time>2018-07-29T15:17:32Z</time>
      </trkpt>
      <trkpt lat="42.74804" lon="0.59589">
        <ele>1275.56</ele>
        <time>2018-07-29T15:17:33Z</time>
      </trkpt>
      <trkpt lat="42.74815" lon="0.59544">
        <ele>1272.86</ele>
        <time>2018-07-29T15:17:35Z</time>
      </trkpt>
      <trkpt lat="42.74835" lon="0.59506">
        <ele>1269.89</ele>
        <time>2018-07-29T15:17:37Z</time>
      </trkpt>
      <trkpt lat="42.74846" lon="0.5946">
        <ele>1267.8</ele>
        <time>2018-07-29T15:17:39Z</time>
      </trkpt>
      <trkpt lat="42.74852" lon="0.59437">
        <ele>1266.63</ele>
        <time>2018-07-29T15:17:40Z</time>
      </trkpt>
      <trkpt lat="42.74858" lon="0.59413">
        <ele>1265.58</ele>
        <time>2018-07-29T15:17:41Z</time>
      </trkpt>
      <trkpt lat="42.74869" lon="0.59368">
        <ele>1263.56</ele>
        <time>2018-07-29T15:17:43Z</time>
      </trkpt>
      <trkpt lat="42.74879" lon="0.59325">
        <ele>1262.26</ele>
        <time>2018-07-29T15:17:45Z</time>
      </trkpt>
      <trkpt lat="42.7488" lon="0.59278">
        <ele>1261.93</ele>
        <time>2018-07-29T15:17:47Z</time>
      </trkpt>
      <trkpt lat="42.7488" lon="0.59253">
        <ele>1261.37</ele>
        <time>2018-07-29T15:17:48Z</time>
      </trkpt>
      <trkpt lat="42.74881" lon="0.59228">
        <ele>1260.5</ele>
        <time>2018-07-29T15:17:49Z</time>
      </trkpt>
      <trkpt lat="42.74882" lon="0.59204">
        <ele>1259.54</ele>
        <time>2018-07-29T15:17:50Z</time>
      </trkpt>
      <trkpt lat="42.74882" lon="0.59157">
        <ele>1258.47</ele>
        <time>2018-07-29T15:17:52Z</time>
      </trkpt>
      <trkpt lat="42.74885" lon="0.59111">
        <ele>1257.46</ele>
        <time>2018-07-29T15:17:54Z</time>
      </trkpt>
      <trkpt lat="42.74895" lon="0.59064">
        <ele>1255.55</ele>
        <time>2018-07-29T15:17:56Z</time>
      </trkpt>
      <trkpt lat="42.74901" lon="0.59038">
        <ele>1253.16</ele>
        <time>2018-07-29T15:17:57Z</time>
      </trkpt>
      <trkpt lat="42.74907" lon="0.59014">
        <ele>1250.34</ele>
        <time>2018-07-29T15:17:58Z</time>
      </trkpt>
      <trkpt lat="42.74912" lon="0.58989">
        <ele>1247.39</ele>
        <time>2018-07-29T15:17:59Z</time>
      </trkpt>
      <trkpt lat="42.74917" lon="0.58965">
        <ele>1245.11</ele>
        <time>2018-07-29T15:18:00Z</time>
      </trkpt>
      <trkpt lat="42.74922" lon="0.58941">
        <ele>1243.72</ele>
        <time>2018-07-29T15:18:01Z</time>
      </trkpt>
      <trkpt lat="42.74933" lon="0.58895">
        <ele>1241.57</ele>
        <time>2018-07-29T15:18:03Z</time>
      </trkpt>
      <trkpt lat="42.7494" lon="0.58871">
        <ele>1239.16</ele>
        <time>2018-07-29T15:18:04Z</time>
      </trkpt>
      <trkpt lat="42.74948" lon="0.58847">
        <ele>1237.04</ele>
        <time>2018-07-29T15:18:05Z</time>
      </trkpt>
      <trkpt lat="42.74957" lon="0.58823">
        <ele>1235</ele>
        <time>2018-07-29T15:18:06Z</time>
      </trkpt>
      <trkpt lat="42.74967" lon="0.588">
        <ele>1232.99</ele>
        <time>2018-07-29T15:18:07Z</time>
      </trkpt>
      <trkpt lat="42.7498" lon="0.58777">
        <ele>1230.29</ele>
        <time>2018-07-29T15:18:08Z</time>
      </trkpt>
      <trkpt lat="42.74992" lon="0.58754">
        <ele>1228.78</ele>
        <time>2018-07-29T15:18:09Z</time>
      </trkpt>
      <trkpt lat="42.75003" lon="0.58731">
        <ele>1227.02</ele>
        <time>2018-07-29T15:18:10Z</time>
      </trkpt>
      <trkpt lat="42.75013" lon="0.58707">
        <ele>1225.09</ele>
        <time>2018-07-29T15:18:11Z</time>
      </trkpt>
      <trkpt lat="42.7502" lon="0.5868">
        <ele>1223.81</ele>
        <time>2018-07-29T15:18:12Z</time>
      </trkpt>
      <trkpt lat="42.75024" lon="0.5865">
        <ele>1221.33</ele>
        <time>2018-07-29T15:18:13Z</time>
      </trkpt>
      <trkpt lat="42.75027" lon="0.5862">
        <ele>1219.19</ele>
        <time>2018-07-29T15:18:14Z</time>
      </trkpt>
      <trkpt lat="42.75028" lon="0.58593">
        <ele>1217.84</ele>
        <time>2018-07-29T15:18:15Z</time>
      </trkpt>
      <trkpt lat="42.75025" lon="0.58551">
        <ele>1214.31</ele>
        <time>2018-07-29T15:18:17Z</time>
      </trkpt>
      <trkpt lat="42.75015" lon="0.58516">
        <ele>1211.75</ele>
        <time>2018-07-29T15:18:19Z</time>
      </trkpt>
      <trkpt lat="42.74996" lon="0.58488">
        <ele>1211.42</ele>
        <time>2018-07-29T15:18:21Z</time>
      </trkpt>
      <trkpt lat="42.74998" lon="0.58445">
        <ele>1208.64</ele>
        <time>2018-07-29T15:18:23Z</time>
      </trkpt>
      <trkpt lat="42.75004" lon="0.58421">
        <ele>1206.98</ele>
        <time>2018-07-29T15:18:24Z</time>
      </trkpt>
      <trkpt lat="42.75008" lon="0.58394">
        <ele>1205.08</ele>
        <time>2018-07-29T15:18:25Z</time>
      </trkpt>
      <trkpt lat="42.75011" lon="0.58368">
        <ele>1202.41</ele>
        <time>2018-07-29T15:18:26Z</time>
      </trkpt>
      <trkpt lat="42.75019" lon="0.58341">
        <ele>1199.51</ele>
        <time>2018-07-29T15:18:27Z</time>
      </trkpt>
      <trkpt lat="42.75029" lon="0.58315">
        <ele>1198.64</ele>
        <time>2018-07-29T15:18:28Z</time>
      </trkpt>
      <trkpt lat="42.75038" lon="0.5829">
        <ele>1197.68</ele>
        <time>2018-07-29T15:18:29Z</time>
      </trkpt>
      <trkpt lat="42.75048" lon="0.58267">
        <ele>1197.39</ele>
        <time>2018-07-29T15:18:30Z</time>
      </trkpt>
      <trkpt lat="42.75061" lon="0.58228">
        <ele>1196.58</ele>
        <time>2018-07-29T15:18:32Z</time>
      </trkpt>
      <trkpt lat="42.75056" lon="0.58188">
        <ele>1195.59</ele>
        <time>2018-07-29T15:18:34Z</time>
      </trkpt>
      <trkpt lat="42.75051" lon="0.58149">
        <ele>1196</ele>
        <time>2018-07-29T15:18:36Z</time>
      </trkpt>
      <trkpt lat="42.75053" lon="0.58124">
        <ele>1196.19</ele>
        <time>2018-07-29T15:18:37Z</time>
      </trkpt>
      <trkpt lat="42.75069" lon="0.5808">
        <ele>1193.95</ele>
        <time>2018-07-29T15:18:39Z</time>
      </trkpt>
      <trkpt lat="42.75079" lon="0.5804">
        <ele>1191.72</ele>
        <time>2018-07-29T15:18:41Z</time>
      </trkpt>
      <trkpt lat="42.75073" lon="0.57997">
        <ele>1189.91</ele>
        <time>2018-07-29T15:18:43Z</time>
      </trkpt>
      <trkpt lat="42.75072" lon="0.57972">
        <ele>1188.76</ele>
        <time>2018-07-29T15:18:44Z</time>
      </trkpt>
      <trkpt lat="42.75074" lon="0.57946">
        <ele>1187.71</ele>
        <time>2018-07-29T15:18:45Z</time>
      </trkpt>
      <trkpt lat="42.75077" lon="0.57919">
        <ele>1186.7</ele>
        <time>2018-07-29T15:18:46Z</time>
      </trkpt>
      <trkpt lat="42.75081" lon="0.57892">
        <ele>1185</ele>
        <time>2018-07-29T15:18:47Z</time>
      </trkpt>
      <trkpt lat="42.75083" lon="0.57865">
        <ele>1183.09</ele>
        <time>2018-07-29T15:18:48Z</time>
      </trkpt>
      <trkpt lat="42.75085" lon="0.57839">
        <ele>1181.11</ele>
        <time>2018-07-29T15:18:49Z</time>
      </trkpt>
      <trkpt lat="42.75084" lon="0.57813">
        <ele>1179.12</ele>
        <time>2018-07-29T15:18:50Z</time>
      </trkpt>
      <trkpt lat="42.75083" lon="0.57786">
        <ele>1176.42</ele>
        <time>2018-07-29T15:18:51Z</time>
      </trkpt>
      <trkpt lat="42.7508" lon="0.57762">
        <ele>1174.21</ele>
        <time>2018-07-29T15:18:52Z</time>
      </trkpt>
      <trkpt lat="42.75068" lon="0.57717">
        <ele>1170.83</ele>
        <time>2018-07-29T15:18:54Z</time>
      </trkpt>
      <trkpt lat="42.7505" lon="0.57678">
        <ele>1168.01</ele>
        <time>2018-07-29T15:18:56Z</time>
      </trkpt>
      <trkpt lat="42.75039" lon="0.57648">
        <ele>1165.51</ele>
        <time>2018-07-29T15:18:58Z</time>
      </trkpt>
      <trkpt lat="42.75042" lon="0.57611">
        <ele>1162.07</ele>
        <time>2018-07-29T15:19:00Z</time>
      </trkpt>
      <trkpt lat="42.75042" lon="0.57569">
        <ele>1158.12</ele>
        <time>2018-07-29T15:19:02Z</time>
      </trkpt>
      <trkpt lat="42.7504" lon="0.5752">
        <ele>1155.94</ele>
        <time>2018-07-29T15:19:04Z</time>
      </trkpt>
      <trkpt lat="42.7504" lon="0.57495">
        <ele>1154.07</ele>
        <time>2018-07-29T15:19:05Z</time>
      </trkpt>
      <trkpt lat="42.7504" lon="0.5747">
        <ele>1152.11</ele>
        <time>2018-07-29T15:19:06Z</time>
      </trkpt>
      <trkpt lat="42.75035" lon="0.57425">
        <ele>1148.33</ele>
        <time>2018-07-29T15:19:08Z</time>
      </trkpt>
      <trkpt lat="42.75016" lon="0.57382">
        <ele>1145.05</ele>
        <time>2018-07-29T15:19:10Z</time>
      </trkpt>
      <trkpt lat="42.75005" lon="0.57358">
        <ele>1143.1</ele>
        <time>2018-07-29T15:19:11Z</time>
      </trkpt>
      <trkpt lat="42.74996" lon="0.57334">
        <ele>1140.32</ele>
        <time>2018-07-29T15:19:12Z</time>
      </trkpt>
      <trkpt lat="42.74985" lon="0.57312">
        <ele>1138.09</ele>
        <time>2018-07-29T15:19:13Z</time>
      </trkpt>
      <trkpt lat="42.74975" lon="0.5729">
        <ele>1136.02</ele>
        <time>2018-07-29T15:19:14Z</time>
      </trkpt>
      <trkpt lat="42.74967" lon="0.57267">
        <ele>1134</ele>
        <time>2018-07-29T15:19:15Z</time>
      </trkpt>
      <trkpt lat="42.7496" lon="0.57244">
        <ele>1132.69</ele>
        <time>2018-07-29T15:19:16Z</time>
      </trkpt>
      <trkpt lat="42.74943" lon="0.57204">
        <ele>1129.87</ele>
        <time>2018-07-29T15:19:18Z</time>
      </trkpt>
      <trkpt lat="42.74921" lon="0.57175">
        <ele>1125.98</ele>
        <time>2018-07-29T15:19:20Z</time>
      </trkpt>
      <trkpt lat="42.74895" lon="0.57161">
        <ele>1123.6</ele>
        <time>2018-07-29T15:19:22Z</time>
      </trkpt>
      <trkpt lat="42.74868" lon="0.57145">
        <ele>1121.56</ele>
        <time>2018-07-29T15:19:24Z</time>
      </trkpt>
      <trkpt lat="42.74843" lon="0.57122">
        <ele>1117.95</ele>
        <time>2018-07-29T15:19:26Z</time>
      </trkpt>
      <trkpt lat="42.74821" lon="0.57099">
        <ele>1115.59</ele>
        <time>2018-07-29T15:19:28Z</time>
      </trkpt>
      <trkpt lat="42.74802" lon="0.57091">
        <ele>1113.56</ele>
        <time>2018-07-29T15:19:30Z</time>
      </trkpt>
      <trkpt lat="42.74793" lon="0.57119">
        <ele>1113.14</ele>
        <time>2018-07-29T15:19:33Z</time>
      </trkpt>
      <trkpt lat="42.74808" lon="0.57145">
        <ele>1111.52</ele>
        <time>2018-07-29T15:19:35Z</time>
      </trkpt>
      <trkpt lat="42.74826" lon="0.5717">
        <ele>1109.56</ele>
        <time>2018-07-29T15:19:37Z</time>
      </trkpt>
      <trkpt lat="42.74846" lon="0.57198">
        <ele>1107.35</ele>
        <time>2018-07-29T15:19:39Z</time>
      </trkpt>
      <trkpt lat="42.74863" lon="0.57221">
        <ele>1105.54</ele>
        <time>2018-07-29T15:19:41Z</time>
      </trkpt>
      <trkpt lat="42.74874" lon="0.57242">
        <ele>1105.38</ele>
        <time>2018-07-29T15:19:43Z</time>
      </trkpt>
      <trkpt lat="42.74852" lon="0.57254">
        <ele>1101.77</ele>
        <time>2018-07-29T15:19:46Z</time>
      </trkpt>
      <trkpt lat="42.74837" lon="0.57238">
        <ele>1100.28</ele>
        <time>2018-07-29T15:19:48Z</time>
      </trkpt>
      <trkpt lat="42.74819" lon="0.57215">
        <ele>1099.23</ele>
        <time>2018-07-29T15:19:50Z</time>
      </trkpt>
      <trkpt lat="42.74803" lon="0.57196">
        <ele>1097.53</ele>
        <time>2018-07-29T15:19:52Z</time>
      </trkpt>
      <trkpt lat="42.74788" lon="0.5718">
        <ele>1096.47</ele>
        <time>2018-07-29T15:19:54Z</time>
      </trkpt>
      <trkpt lat="42.74765" lon="0.57178">
        <ele>1094.47</ele>
        <time>2018-07-29T15:19:57Z</time>
      </trkpt>
      <trkpt lat="42.74766" lon="0.57205">
        <ele>1092.26</ele>
        <time>2018-07-29T15:20:00Z</time>
      </trkpt>
      <trkpt lat="42.7478" lon="0.57227">
        <ele>1091.44</ele>
        <time>2018-07-29T15:20:02Z</time>
      </trkpt>
      <trkpt lat="42.74796" lon="0.57253">
        <ele>1089.34</ele>
        <time>2018-07-29T15:20:04Z</time>
      </trkpt>
      <trkpt lat="42.74813" lon="0.57284">
        <ele>1086.63</ele>
        <time>2018-07-29T15:20:06Z</time>
      </trkpt>
      <trkpt lat="42.7483" lon="0.57322">
        <ele>1084.56</ele>
        <time>2018-07-29T15:20:08Z</time>
      </trkpt>
      <trkpt lat="42.74849" lon="0.5736">
        <ele>1082.56</ele>
        <time>2018-07-29T15:20:10Z</time>
      </trkpt>
      <trkpt lat="42.74861" lon="0.57396">
        <ele>1081.47</ele>
        <time>2018-07-29T15:20:12Z</time>
      </trkpt>
      <trkpt lat="42.74861" lon="0.57436">
        <ele>1081.16</ele>
        <time>2018-07-29T15:20:14Z</time>
      </trkpt>
      <trkpt lat="42.74857" lon="0.57478">
        <ele>1078.82</ele>
        <time>2018-07-29T15:20:16Z</time>
      </trkpt>
      <trkpt lat="42.74856" lon="0.57521">
        <ele>1077.49</ele>
        <time>2018-07-29T15:20:18Z</time>
      </trkpt>
      <trkpt lat="42.74862" lon="0.57565">
        <ele>1074.85</ele>
        <time>2018-07-29T15:20:20Z</time>
      </trkpt>
      <trkpt lat="42.74871" lon="0.57607">
        <ele>1070.97</ele>
        <time>2018-07-29T15:20:22Z</time>
      </trkpt>
      <trkpt lat="42.74887" lon="0.57646">
        <ele>1069.3</ele>
        <time>2018-07-29T15:20:24Z</time>
      </trkpt>
      <trkpt lat="42.74907" lon="0.57682">
        <ele>1067.53</ele>
        <time>2018-07-29T15:20:26Z</time>
      </trkpt>
      <trkpt lat="42.74916" lon="0.57726">
        <ele>1066.47</ele>
        <time>2018-07-29T15:20:28Z</time>
      </trkpt>
      <trkpt lat="42.74909" lon="0.57775">
        <ele>1066.16</ele>
        <time>2018-07-29T15:20:30Z</time>
      </trkpt>
      <trkpt lat="42.749" lon="0.57798">
        <ele>1066.14</ele>
        <time>2018-07-29T15:20:31Z</time>
      </trkpt>
      <trkpt lat="42.74889" lon="0.57819">
        <ele>1066.83</ele>
        <time>2018-07-29T15:20:32Z</time>
      </trkpt>
      <trkpt lat="42.74872" lon="0.57859">
        <ele>1066.4</ele>
        <time>2018-07-29T15:20:34Z</time>
      </trkpt>
      <trkpt lat="42.74862" lon="0.57905">
        <ele>1067.06</ele>
        <time>2018-07-29T15:20:36Z</time>
      </trkpt>
      <trkpt lat="42.74857" lon="0.57947">
        <ele>1068.03</ele>
        <time>2018-07-29T15:20:38Z</time>
      </trkpt>
      <trkpt lat="42.74863" lon="0.5799">
        <ele>1066.72</ele>
        <time>2018-07-29T15:20:40Z</time>
      </trkpt>
      <trkpt lat="42.74867" lon="0.58014">
        <ele>1064.91</ele>
        <time>2018-07-29T15:20:41Z</time>
      </trkpt>
      <trkpt lat="42.74868" lon="0.5804">
        <ele>1063.66</ele>
        <time>2018-07-29T15:20:42Z</time>
      </trkpt>
      <trkpt lat="42.74868" lon="0.58066">
        <ele>1062.59</ele>
        <time>2018-07-29T15:20:43Z</time>
      </trkpt>
      <trkpt lat="42.74866" lon="0.58092">
        <ele>1060.87</ele>
        <time>2018-07-29T15:20:44Z</time>
      </trkpt>
      <trkpt lat="42.74862" lon="0.58117">
        <ele>1059.65</ele>
        <time>2018-07-29T15:20:45Z</time>
      </trkpt>
      <trkpt lat="42.74859" lon="0.58141">
        <ele>1057.89</ele>
        <time>2018-07-29T15:20:46Z</time>
      </trkpt>
      <trkpt lat="42.74854" lon="0.58189">
        <ele>1054.68</ele>
        <time>2018-07-29T15:20:48Z</time>
      </trkpt>
      <trkpt lat="42.74852" lon="0.58237">
        <ele>1050.96</ele>
        <time>2018-07-29T15:20:50Z</time>
      </trkpt>
      <trkpt lat="42.74851" lon="0.58286">
        <ele>1047.19</ele>
        <time>2018-07-29T15:20:52Z</time>
      </trkpt>
      <trkpt lat="42.74849" lon="0.58311">
        <ele>1045.05</ele>
        <time>2018-07-29T15:20:53Z</time>
      </trkpt>
      <trkpt lat="42.74847" lon="0.58335">
        <ele>1043.01</ele>
        <time>2018-07-29T15:20:54Z</time>
      </trkpt>
      <trkpt lat="42.74842" lon="0.5836">
        <ele>1040.99</ele>
        <time>2018-07-29T15:20:55Z</time>
      </trkpt>
      <trkpt lat="42.74835" lon="0.58384">
        <ele>1039.69</ele>
        <time>2018-07-29T15:20:56Z</time>
      </trkpt>
      <trkpt lat="42.74827" lon="0.58409">
        <ele>1037.9</ele>
        <time>2018-07-29T15:20:57Z</time>
      </trkpt>
      <trkpt lat="42.74819" lon="0.58433">
        <ele>1036.66</ele>
        <time>2018-07-29T15:20:58Z</time>
      </trkpt>
      <trkpt lat="42.74811" lon="0.58456">
        <ele>1035.59</ele>
        <time>2018-07-29T15:20:59Z</time>
      </trkpt>
      <trkpt lat="42.74792" lon="0.58494">
        <ele>1034.47</ele>
        <time>2018-07-29T15:21:01Z</time>
      </trkpt>
      <trkpt lat="42.74763" lon="0.58523">
        <ele>1030.73</ele>
        <time>2018-07-29T15:21:03Z</time>
      </trkpt>
      <trkpt lat="42.74746" lon="0.58537">
        <ele>1028.21</ele>
        <time>2018-07-29T15:21:04Z</time>
      </trkpt>
      <trkpt lat="42.74732" lon="0.58554">
        <ele>1026.05</ele>
        <time>2018-07-29T15:21:05Z</time>
      </trkpt>
      <trkpt lat="42.74718" lon="0.58572">
        <ele>1024.01</ele>
        <time>2018-07-29T15:21:06Z</time>
      </trkpt>
      <trkpt lat="42.74697" lon="0.58605">
        <ele>1018.8</ele>
        <time>2018-07-29T15:21:08Z</time>
      </trkpt>
      <trkpt lat="42.74685" lon="0.58649">
        <ele>1014.06</ele>
        <time>2018-07-29T15:21:10Z</time>
      </trkpt>
      <trkpt lat="42.74682" lon="0.58675">
        <ele>1012.01</ele>
        <time>2018-07-29T15:21:11Z</time>
      </trkpt>
      <trkpt lat="42.74679" lon="0.58702">
        <ele>1009.99</ele>
        <time>2018-07-29T15:21:12Z</time>
      </trkpt>
      <trkpt lat="42.74673" lon="0.5873">
        <ele>1007.99</ele>
        <time>2018-07-29T15:21:13Z</time>
      </trkpt>
      <trkpt lat="42.74668" lon="0.58757">
        <ele>1005.99</ele>
        <time>2018-07-29T15:21:14Z</time>
      </trkpt>
      <trkpt lat="42.74665" lon="0.58786">
        <ele>1005.39</ele>
        <time>2018-07-29T15:21:15Z</time>
      </trkpt>
      <trkpt lat="42.7466" lon="0.58814">
        <ele>1003.81</ele>
        <time>2018-07-29T15:21:16Z</time>
      </trkpt>
      <trkpt lat="42.74651" lon="0.58839">
        <ele>1002.63</ele>
        <time>2018-07-29T15:21:17Z</time>
      </trkpt>
      <trkpt lat="42.74643" lon="0.58866">
        <ele>1000.88</ele>
        <time>2018-07-29T15:21:18Z</time>
      </trkpt>
      <trkpt lat="42.74637" lon="0.58892">
        <ele>999.66</ele>
        <time>2018-07-29T15:21:19Z</time>
      </trkpt>
      <trkpt lat="42.74633" lon="0.5892">
        <ele>997.89</ele>
        <time>2018-07-29T15:21:20Z</time>
      </trkpt>
      <trkpt lat="42.74628" lon="0.58948">
        <ele>996.66</ele>
        <time>2018-07-29T15:21:21Z</time>
      </trkpt>
      <trkpt lat="42.74622" lon="0.58975">
        <ele>994.89</ele>
        <time>2018-07-29T15:21:22Z</time>
      </trkpt>
      <trkpt lat="42.74615" lon="0.59001">
        <ele>993.66</ele>
        <time>2018-07-29T15:21:23Z</time>
      </trkpt>
      <trkpt lat="42.74607" lon="0.59026">
        <ele>992.59</ele>
        <time>2018-07-29T15:21:24Z</time>
      </trkpt>
      <trkpt lat="42.746" lon="0.59051">
        <ele>990.17</ele>
        <time>2018-07-29T15:21:25Z</time>
      </trkpt>
      <trkpt lat="42.74591" lon="0.59075">
        <ele>988.04</ele>
        <time>2018-07-29T15:21:26Z</time>
      </trkpt>
      <trkpt lat="42.74581" lon="0.59099">
        <ele>986.7</ele>
        <time>2018-07-29T15:21:27Z</time>
      </trkpt>
      <trkpt lat="42.74571" lon="0.59123">
        <ele>984.9</ele>
        <time>2018-07-29T15:21:28Z</time>
      </trkpt>
      <trkpt lat="42.74561" lon="0.59146">
        <ele>982.26</ele>
        <time>2018-07-29T15:21:29Z</time>
      </trkpt>
      <trkpt lat="42.7455" lon="0.59166">
        <ele>979.37</ele>
        <time>2018-07-29T15:21:30Z</time>
      </trkpt>
      <trkpt lat="42.74538" lon="0.59184">
        <ele>977.1</ele>
        <time>2018-07-29T15:21:31Z</time>
      </trkpt>
      <trkpt lat="42.74523" lon="0.59199">
        <ele>975.72</ele>
        <time>2018-07-29T15:21:32Z</time>
      </trkpt>
      <trkpt lat="42.74497" lon="0.59231">
        <ele>973.57</ele>
        <time>2018-07-29T15:21:34Z</time>
      </trkpt>
      <trkpt lat="42.74486" lon="0.59251">
        <ele>973.26</ele>
        <time>2018-07-29T15:21:35Z</time>
      </trkpt>
      <trkpt lat="42.74475" lon="0.59272">
        <ele>972.47</ele>
        <time>2018-07-29T15:21:36Z</time>
      </trkpt>
      <trkpt lat="42.74466" lon="0.59295">
        <ele>971.53</ele>
        <time>2018-07-29T15:21:37Z</time>
      </trkpt>
      <trkpt lat="42.74459" lon="0.59322">
        <ele>969.85</ele>
        <time>2018-07-29T15:21:38Z</time>
      </trkpt>
      <trkpt lat="42.74452" lon="0.59347">
        <ele>967.95</ele>
        <time>2018-07-29T15:21:39Z</time>
      </trkpt>
      <trkpt lat="42.74446" lon="0.59373">
        <ele>966.67</ele>
        <time>2018-07-29T15:21:40Z</time>
      </trkpt>
      <trkpt lat="42.7444" lon="0.594">
        <ele>964.19</ele>
        <time>2018-07-29T15:21:41Z</time>
      </trkpt>
      <trkpt lat="42.74434" lon="0.59426">
        <ele>962.05</ele>
        <time>2018-07-29T15:21:42Z</time>
      </trkpt>
      <trkpt lat="42.74426" lon="0.59452">
        <ele>959.31</ele>
        <time>2018-07-29T15:21:43Z</time>
      </trkpt>
      <trkpt lat="42.74418" lon="0.59478">
        <ele>957.08</ele>
        <time>2018-07-29T15:21:44Z</time>
      </trkpt>
      <trkpt lat="42.74409" lon="0.59504">
        <ele>955.72</ele>
        <time>2018-07-29T15:21:45Z</time>
      </trkpt>
      <trkpt lat="42.744" lon="0.59529">
        <ele>955.31</ele>
        <time>2018-07-29T15:21:46Z</time>
      </trkpt>
      <trkpt lat="42.74394" lon="0.59554">
        <ele>953.78</ele>
        <time>2018-07-29T15:21:47Z</time>
      </trkpt>
      <trkpt lat="42.74387" lon="0.5958">
        <ele>952.63</ele>
        <time>2018-07-29T15:21:48Z</time>
      </trkpt>
      <trkpt lat="42.7438" lon="0.59605">
        <ele>952.28</ele>
        <time>2018-07-29T15:21:49Z</time>
      </trkpt>
      <trkpt lat="42.74372" lon="0.59629">
        <ele>951.47</ele>
        <time>2018-07-29T15:21:50Z</time>
      </trkpt>
      <trkpt lat="42.74364" lon="0.59653">
        <ele>950.53</ele>
        <time>2018-07-29T15:21:51Z</time>
      </trkpt>
      <trkpt lat="42.74355" lon="0.59677">
        <ele>950.25</ele>
        <time>2018-07-29T15:21:52Z</time>
      </trkpt>
      <trkpt lat="42.7434" lon="0.5972">
        <ele>946.92</ele>
        <time>2018-07-29T15:21:54Z</time>
      </trkpt>
      <trkpt lat="42.74332" lon="0.5976">
        <ele>944.38</ele>
        <time>2018-07-29T15:21:56Z</time>
      </trkpt>
      <trkpt lat="42.74335" lon="0.59786">
        <ele>942.81</ele>
        <time>2018-07-29T15:21:57Z</time>
      </trkpt>
      <trkpt lat="42.74339" lon="0.59811">
        <ele>941.63</ele>
        <time>2018-07-29T15:21:58Z</time>
      </trkpt>
      <trkpt lat="42.74342" lon="0.59838">
        <ele>940.58</ele>
        <time>2018-07-29T15:21:59Z</time>
      </trkpt>
      <trkpt lat="42.74345" lon="0.59864">
        <ele>939.57</ele>
        <time>2018-07-29T15:22:00Z</time>
      </trkpt>
      <trkpt lat="42.74346" lon="0.59891">
        <ele>938.56</ele>
        <time>2018-07-29T15:22:01Z</time>
      </trkpt>
      <trkpt lat="42.74345" lon="0.59916">
        <ele>936.86</ele>
        <time>2018-07-29T15:22:02Z</time>
      </trkpt>
      <trkpt lat="42.74338" lon="0.59964">
        <ele>933.89</ele>
        <time>2018-07-29T15:22:04Z</time>
      </trkpt>
      <trkpt lat="42.74335" lon="0.59989">
        <ele>931.96</ele>
        <time>2018-07-29T15:22:05Z</time>
      </trkpt>
      <trkpt lat="42.74331" lon="0.60014">
        <ele>929.98</ele>
        <time>2018-07-29T15:22:06Z</time>
      </trkpt>
      <trkpt lat="42.74327" lon="0.6004">
        <ele>927.98</ele>
        <time>2018-07-29T15:22:07Z</time>
      </trkpt>
      <trkpt lat="42.74323" lon="0.60065">
        <ele>926.69</ele>
        <time>2018-07-29T15:22:08Z</time>
      </trkpt>
      <trkpt lat="42.74319" lon="0.6009">
        <ele>925.6</ele>
        <time>2018-07-29T15:22:09Z</time>
      </trkpt>
      <trkpt lat="42.74312" lon="0.60135">
        <ele>921.74</ele>
        <time>2018-07-29T15:22:11Z</time>
      </trkpt>
      <trkpt lat="42.7431" lon="0.60182">
        <ele>920.49</ele>
        <time>2018-07-29T15:22:13Z</time>
      </trkpt>
      <trkpt lat="42.74312" lon="0.6021">
        <ele>919.54</ele>
        <time>2018-07-29T15:22:14Z</time>
      </trkpt>
      <trkpt lat="42.74315" lon="0.60236">
        <ele>918.55</ele>
        <time>2018-07-29T15:22:15Z</time>
      </trkpt>
      <trkpt lat="42.74322" lon="0.60286">
        <ele>917.26</ele>
        <time>2018-07-29T15:22:17Z</time>
      </trkpt>
      <trkpt lat="42.74323" lon="0.60312">
        <ele>914.37</ele>
        <time>2018-07-29T15:22:18Z</time>
      </trkpt>
      <trkpt lat="42.74323" lon="0.60336">
        <ele>912.1</ele>
        <time>2018-07-29T15:22:19Z</time>
      </trkpt>
      <trkpt lat="42.74325" lon="0.60385">
        <ele>908</ele>
        <time>2018-07-29T15:22:21Z</time>
      </trkpt>
      <trkpt lat="42.74327" lon="0.60409">
        <ele>905.99</ele>
        <time>2018-07-29T15:22:22Z</time>
      </trkpt>
      <trkpt lat="42.74332" lon="0.60434">
        <ele>904.69</ele>
        <time>2018-07-29T15:22:23Z</time>
      </trkpt>
      <trkpt lat="42.7434" lon="0.60479">
        <ele>901.17</ele>
        <time>2018-07-29T15:22:25Z</time>
      </trkpt>
      <trkpt lat="42.74352" lon="0.60524">
        <ele>899.52</ele>
        <time>2018-07-29T15:22:27Z</time>
      </trkpt>
      <trkpt lat="42.74369" lon="0.60567">
        <ele>896.65</ele>
        <time>2018-07-29T15:22:29Z</time>
      </trkpt>
      <trkpt lat="42.74393" lon="0.60601">
        <ele>894.36</ele>
        <time>2018-07-29T15:22:31Z</time>
      </trkpt>
      <trkpt lat="42.74418" lon="0.60633">
        <ele>891.84</ele>
        <time>2018-07-29T15:22:33Z</time>
      </trkpt>
      <trkpt lat="42.74431" lon="0.60679">
        <ele>888.88</ele>
        <time>2018-07-29T15:22:35Z</time>
      </trkpt>
      <trkpt lat="42.74436" lon="0.60703">
        <ele>886.26</ele>
        <time>2018-07-29T15:22:36Z</time>
      </trkpt>
      <trkpt lat="42.74441" lon="0.60727">
        <ele>884.07</ele>
        <time>2018-07-29T15:22:37Z</time>
      </trkpt>
      <trkpt lat="42.7445" lon="0.60773">
        <ele>881.39</ele>
        <time>2018-07-29T15:22:39Z</time>
      </trkpt>
      <trkpt lat="42.74461" lon="0.6081">
        <ele>878.63</ele>
        <time>2018-07-29T15:22:41Z</time>
      </trkpt>
      <trkpt lat="42.74458" lon="0.60835">
        <ele>877.27</ele>
        <time>2018-07-29T15:22:43Z</time>
      </trkpt>
      <trkpt lat="42.74452" lon="0.60865">
        <ele>876.23</ele>
        <time>2018-07-29T15:22:45Z</time>
      </trkpt>
      <trkpt lat="42.74448" lon="0.60899">
        <ele>875.44</ele>
        <time>2018-07-29T15:22:47Z</time>
      </trkpt>
      <trkpt lat="42.74448" lon="0.60932">
        <ele>873.76</ele>
        <time>2018-07-29T15:22:49Z</time>
      </trkpt>
      <trkpt lat="42.74449" lon="0.60966">
        <ele>871.79</ele>
        <time>2018-07-29T15:22:51Z</time>
      </trkpt>
      <trkpt lat="42.74451" lon="0.60996">
        <ele>870.28</ele>
        <time>2018-07-29T15:22:53Z</time>
      </trkpt>
      <trkpt lat="42.74465" lon="0.61021">
        <ele>870.84</ele>
        <time>2018-07-29T15:22:55Z</time>
      </trkpt>
      <trkpt lat="42.74476" lon="0.61046">
        <ele>871.1</ele>
        <time>2018-07-29T15:22:57Z</time>
      </trkpt>
      <trkpt lat="42.74495" lon="0.61057">
        <ele>871.83</ele>
        <time>2018-07-29T15:22:59Z</time>
      </trkpt>
      <trkpt lat="42.74517" lon="0.61076">
        <ele>870.51</ele>
        <time>2018-07-29T15:23:02Z</time>
      </trkpt>
      <trkpt lat="42.74528" lon="0.61099">
        <ele>870.16</ele>
        <time>2018-07-29T15:23:04Z</time>
      </trkpt>
      <trkpt lat="42.74546" lon="0.61116">
        <ele>869.43</ele>
        <time>2018-07-29T15:23:06Z</time>
      </trkpt>
      <trkpt lat="42.74569" lon="0.6112">
        <ele>868.46</ele>
        <time>2018-07-29T15:23:08Z</time>
      </trkpt>
      <trkpt lat="42.74593" lon="0.61122">
        <ele>868.16</ele>
        <time>2018-07-29T15:23:10Z</time>
      </trkpt>
      <trkpt lat="42.74617" lon="0.61126">
        <ele>866.73</ele>
        <time>2018-07-29T15:23:12Z</time>
      </trkpt>
      <trkpt lat="42.74644" lon="0.6113">
        <ele>864.57</ele>
        <time>2018-07-29T15:23:14Z</time>
      </trkpt>
      <trkpt lat="42.74676" lon="0.61129">
        <ele>861.65</ele>
        <time>2018-07-29T15:23:16Z</time>
      </trkpt>
      <trkpt lat="42.74709" lon="0.61116">
        <ele>860.27</ele>
        <time>2018-07-29T15:23:18Z</time>
      </trkpt>
      <trkpt lat="42.74743" lon="0.611">
        <ele>857.62</ele>
        <time>2018-07-29T15:23:20Z</time>
      </trkpt>
      <trkpt lat="42.74761" lon="0.61093">
        <ele>856.58</ele>
        <time>2018-07-29T15:23:21Z</time>
      </trkpt>
      <trkpt lat="42.74778" lon="0.61086">
        <ele>854.16</ele>
        <time>2018-07-29T15:23:22Z</time>
      </trkpt>
      <trkpt lat="42.74797" lon="0.61081">
        <ele>852.04</ele>
        <time>2018-07-29T15:23:23Z</time>
      </trkpt>
      <trkpt lat="42.74815" lon="0.61075">
        <ele>850</ele>
        <time>2018-07-29T15:23:24Z</time>
      </trkpt>
      <trkpt lat="42.74832" lon="0.61069">
        <ele>847.29</ele>
        <time>2018-07-29T15:23:25Z</time>
      </trkpt>
      <trkpt lat="42.74849" lon="0.6106">
        <ele>845.78</ele>
        <time>2018-07-29T15:23:26Z</time>
      </trkpt>
      <trkpt lat="42.74865" lon="0.61046">
        <ele>843.22</ele>
        <time>2018-07-29T15:23:27Z</time>
      </trkpt>
      <trkpt lat="42.74881" lon="0.61031">
        <ele>840.36</ele>
        <time>2018-07-29T15:23:28Z</time>
      </trkpt>
      <trkpt lat="42.74896" lon="0.61015">
        <ele>838.1</ele>
        <time>2018-07-29T15:23:29Z</time>
      </trkpt>
      <trkpt lat="42.74911" lon="0.60999">
        <ele>837.42</ele>
        <time>2018-07-29T15:23:30Z</time>
      </trkpt>
      <trkpt lat="42.74926" lon="0.60985">
        <ele>837.22</ele>
        <time>2018-07-29T15:23:31Z</time>
      </trkpt>
      <trkpt lat="42.74943" lon="0.60973">
        <ele>835.76</ele>
        <time>2018-07-29T15:23:32Z</time>
      </trkpt>
      <trkpt lat="42.74961" lon="0.60964">
        <ele>835.32</ele>
        <time>2018-07-29T15:23:33Z</time>
      </trkpt>
      <trkpt lat="42.7498" lon="0.60958">
        <ele>835.19</ele>
        <time>2018-07-29T15:23:34Z</time>
      </trkpt>
      <trkpt lat="42.75" lon="0.60952">
        <ele>834.45</ele>
        <time>2018-07-29T15:23:35Z</time>
      </trkpt>
      <trkpt lat="42.7502" lon="0.60947">
        <ele>835.02</ele>
        <time>2018-07-29T15:23:36Z</time>
      </trkpt>
      <trkpt lat="42.7504" lon="0.60942">
        <ele>834.49</ele>
        <time>2018-07-29T15:23:37Z</time>
      </trkpt>
      <trkpt lat="42.75061" lon="0.60937">
        <ele>833.63</ele>
        <time>2018-07-29T15:23:38Z</time>
      </trkpt>
      <trkpt lat="42.75081" lon="0.60934">
        <ele>833.38</ele>
        <time>2018-07-29T15:23:39Z</time>
      </trkpt>
      <trkpt lat="42.75101" lon="0.60931">
        <ele>832.6</ele>
        <time>2018-07-29T15:23:40Z</time>
      </trkpt>
      <trkpt lat="42.75121" lon="0.60928">
        <ele>831.67</ele>
        <time>2018-07-29T15:23:41Z</time>
      </trkpt>
      <trkpt lat="42.75142" lon="0.60924">
        <ele>831.39</ele>
        <time>2018-07-29T15:23:42Z</time>
      </trkpt>
      <trkpt lat="42.75161" lon="0.60918">
        <ele>830.6</ele>
        <time>2018-07-29T15:23:43Z</time>
      </trkpt>
      <trkpt lat="42.75182" lon="0.60911">
        <ele>830.37</ele>
        <time>2018-07-29T15:23:44Z</time>
      </trkpt>
      <trkpt lat="42.75201" lon="0.60904">
        <ele>830.3</ele>
        <time>2018-07-29T15:23:45Z</time>
      </trkpt>
      <trkpt lat="42.75221" lon="0.60896">
        <ele>829.58</ele>
        <time>2018-07-29T15:23:46Z</time>
      </trkpt>
      <trkpt lat="42.7524" lon="0.60888">
        <ele>828.66</ele>
        <time>2018-07-29T15:23:47Z</time>
      </trkpt>
      <trkpt lat="42.75257" lon="0.60879">
        <ele>828.38</ele>
        <time>2018-07-29T15:23:48Z</time>
      </trkpt>
      <trkpt lat="42.75289" lon="0.60867">
        <ele>828.28</ele>
        <time>2018-07-29T15:23:50Z</time>
      </trkpt>
      <trkpt lat="42.75319" lon="0.60865">
        <ele>828.27</ele>
        <time>2018-07-29T15:23:52Z</time>
      </trkpt>
      <trkpt lat="42.75346" lon="0.60875">
        <ele>827.57</ele>
        <time>2018-07-29T15:23:54Z</time>
      </trkpt>
      <trkpt lat="42.75372" lon="0.60888">
        <ele>827.99</ele>
        <time>2018-07-29T15:23:56Z</time>
      </trkpt>
      <trkpt lat="42.75398" lon="0.609">
        <ele>827.33</ele>
        <time>2018-07-29T15:23:58Z</time>
      </trkpt>
      <trkpt lat="42.75426" lon="0.60907">
        <ele>827.27</ele>
        <time>2018-07-29T15:24:00Z</time>
      </trkpt>
      <trkpt lat="42.75455" lon="0.60912">
        <ele>826.36</ele>
        <time>2018-07-29T15:24:02Z</time>
      </trkpt>
      <trkpt lat="42.75485" lon="0.60914">
        <ele>825.37</ele>
        <time>2018-07-29T15:24:04Z</time>
      </trkpt>
      <trkpt lat="42.75516" lon="0.60915">
        <ele>823.67</ele>
        <time>2018-07-29T15:24:06Z</time>
      </trkpt>
      <trkpt lat="42.75549" lon="0.60919">
        <ele>820.99</ele>
        <time>2018-07-29T15:24:08Z</time>
      </trkpt>
      <trkpt lat="42.75583" lon="0.60925">
        <ele>818.72</ele>
        <time>2018-07-29T15:24:10Z</time>
      </trkpt>
      <trkpt lat="42.75617" lon="0.60928">
        <ele>816.7</ele>
        <time>2018-07-29T15:24:12Z</time>
      </trkpt>
      <trkpt lat="42.75645" lon="0.60934">
        <ele>813.79</ele>
        <time>2018-07-29T15:24:14Z</time>
      </trkpt>
      <trkpt lat="42.75669" lon="0.60934">
        <ele>813.31</ele>
        <time>2018-07-29T15:24:16Z</time>
      </trkpt>
      <trkpt lat="42.75692" lon="0.60917">
        <ele>812.57</ele>
        <time>2018-07-29T15:24:18Z</time>
      </trkpt>
      <trkpt lat="42.75714" lon="0.60887">
        <ele>810.68</ele>
        <time>2018-07-29T15:24:20Z</time>
      </trkpt>
      <trkpt lat="42.75739" lon="0.60853">
        <ele>808.69</ele>
        <time>2018-07-29T15:24:22Z</time>
      </trkpt>
      <trkpt lat="42.75766" lon="0.60824">
        <ele>806.7</ele>
        <time>2018-07-29T15:24:24Z</time>
      </trkpt>
      <trkpt lat="42.758" lon="0.60809">
        <ele>805.61</ele>
        <time>2018-07-29T15:24:26Z</time>
      </trkpt>
      <trkpt lat="42.75818" lon="0.60804">
        <ele>805.37</ele>
        <time>2018-07-29T15:24:27Z</time>
      </trkpt>
      <trkpt lat="42.75851" lon="0.6079">
        <ele>803.67</ele>
        <time>2018-07-29T15:24:29Z</time>
      </trkpt>
      <trkpt lat="42.75881" lon="0.60786">
        <ele>804</ele>
        <time>2018-07-29T15:24:31Z</time>
      </trkpt>
      <trkpt lat="42.759" lon="0.60789">
        <ele>803.33</ele>
        <time>2018-07-29T15:24:33Z</time>
      </trkpt>
      <trkpt lat="42.75924" lon="0.60792">
        <ele>802.57</ele>
        <time>2018-07-29T15:25:14Z</time>
      </trkpt>
      <trkpt lat="42.75949" lon="0.60793">
        <ele>801.64</ele>
        <time>2018-07-29T15:25:17Z</time>
      </trkpt>
      <trkpt lat="42.7597" lon="0.60796">
        <ele>801.51</ele>
        <time>2018-07-29T15:25:19Z</time>
      </trkpt>
      <trkpt lat="42.75993" lon="0.60802">
        <ele>799.47</ele>
        <time>2018-07-29T15:25:21Z</time>
      </trkpt>
      <trkpt lat="42.76016" lon="0.60812">
        <ele>797.26</ele>
        <time>2018-07-29T15:25:23Z</time>
      </trkpt>
      <trkpt lat="42.76039" lon="0.60829">
        <ele>797.06</ele>
        <time>2018-07-29T15:25:25Z</time>
      </trkpt>
      <trkpt lat="42.76066" lon="0.60845">
        <ele>795.85</ele>
        <time>2018-07-29T15:25:27Z</time>
      </trkpt>
      <trkpt lat="42.76097" lon="0.60859">
        <ele>792.8</ele>
        <time>2018-07-29T15:25:29Z</time>
      </trkpt>
      <trkpt lat="42.76132" lon="0.60868">
        <ele>792.31</ele>
        <time>2018-07-29T15:25:31Z</time>
      </trkpt>
      <trkpt lat="42.76151" lon="0.60872">
        <ele>791.58</ele>
        <time>2018-07-29T15:25:32Z</time>
      </trkpt>
      <trkpt lat="42.76169" lon="0.60876">
        <ele>791.36</ele>
        <time>2018-07-29T15:25:33Z</time>
      </trkpt>
      <trkpt lat="42.76188" lon="0.60881">
        <ele>792</ele>
        <time>2018-07-29T15:25:34Z</time>
      </trkpt>
      <trkpt lat="42.76206" lon="0.60885">
        <ele>792.19</ele>
        <time>2018-07-29T15:25:35Z</time>
      </trkpt>
      <trkpt lat="42.76242" lon="0.60893">
        <ele>792.96</ele>
        <time>2018-07-29T15:25:37Z</time>
      </trkpt>
      <trkpt lat="42.76261" lon="0.60896">
        <ele>793.17</ele>
        <time>2018-07-29T15:25:38Z</time>
      </trkpt>
      <trkpt lat="42.76281" lon="0.60899">
        <ele>793.24</ele>
        <time>2018-07-29T15:25:39Z</time>
      </trkpt>
      <trkpt lat="42.763" lon="0.60902">
        <ele>793.26</ele>
        <time>2018-07-29T15:25:40Z</time>
      </trkpt>
      <trkpt lat="42.7632" lon="0.60905">
        <ele>792.56</ele>
        <time>2018-07-29T15:25:41Z</time>
      </trkpt>
      <trkpt lat="42.76339" lon="0.60907">
        <ele>792.36</ele>
        <time>2018-07-29T15:25:42Z</time>
      </trkpt>
      <trkpt lat="42.76358" lon="0.60912">
        <ele>792.29</ele>
        <time>2018-07-29T15:25:43Z</time>
      </trkpt>
      <trkpt lat="42.76379" lon="0.60912">
        <ele>790.88</ele>
        <time>2018-07-29T15:25:44Z</time>
      </trkpt>
      <trkpt lat="42.76399" lon="0.60916">
        <ele>789.75</ele>
        <time>2018-07-29T15:25:45Z</time>
      </trkpt>
      <trkpt lat="42.76417" lon="0.60918">
        <ele>788.71</ele>
        <time>2018-07-29T15:25:46Z</time>
      </trkpt>
      <trkpt lat="42.76436" lon="0.60919">
        <ele>787.7</ele>
        <time>2018-07-29T15:25:47Z</time>
      </trkpt>
      <trkpt lat="42.76454" lon="0.60923">
        <ele>786.7</ele>
        <time>2018-07-29T15:25:48Z</time>
      </trkpt>
      <trkpt lat="42.76471" lon="0.60929">
        <ele>786.4</ele>
        <time>2018-07-29T15:25:49Z</time>
      </trkpt>
      <trkpt lat="42.76503" lon="0.60939">
        <ele>786.28</ele>
        <time>2018-07-29T15:25:51Z</time>
      </trkpt>
      <trkpt lat="42.76536" lon="0.60929">
        <ele>785.57</ele>
        <time>2018-07-29T15:25:53Z</time>
      </trkpt>
      <trkpt lat="42.7657" lon="0.60922">
        <ele>782.07</ele>
        <time>2018-07-29T15:25:55Z</time>
      </trkpt>
      <trkpt lat="42.76602" lon="0.60904">
        <ele>779.73</ele>
        <time>2018-07-29T15:25:57Z</time>
      </trkpt>
      <trkpt lat="42.76614" lon="0.60885">
        <ele>775.91</ele>
        <time>2018-07-29T15:25:58Z</time>
      </trkpt>
      <trkpt lat="42.76626" lon="0.60865">
        <ele>773.36</ele>
        <time>2018-07-29T15:25:59Z</time>
      </trkpt>
      <trkpt lat="42.76638" lon="0.60842">
        <ele>769.79</ele>
        <time>2018-07-29T15:26:00Z</time>
      </trkpt>
      <trkpt lat="42.76651" lon="0.6082">
        <ele>766.63</ele>
        <time>2018-07-29T15:26:01Z</time>
      </trkpt>
      <trkpt lat="42.76664" lon="0.60799">
        <ele>762.17</ele>
        <time>2018-07-29T15:26:02Z</time>
      </trkpt>
      <trkpt lat="42.76677" lon="0.60779">
        <ele>758.74</ele>
        <time>2018-07-29T15:26:03Z</time>
      </trkpt>
      <trkpt lat="42.76689" lon="0.60759">
        <ele>754.91</ele>
        <time>2018-07-29T15:26:04Z</time>
      </trkpt>
      <trkpt lat="42.76701" lon="0.60738">
        <ele>753.06</ele>
        <time>2018-07-29T15:26:05Z</time>
      </trkpt>
      <trkpt lat="42.76713" lon="0.60716">
        <ele>751.8</ele>
        <time>2018-07-29T15:26:06Z</time>
      </trkpt>
      <trkpt lat="42.76726" lon="0.60695">
        <ele>749.33</ele>
        <time>2018-07-29T15:26:07Z</time>
      </trkpt>
      <trkpt lat="42.76739" lon="0.60676">
        <ele>748.59</ele>
        <time>2018-07-29T15:26:08Z</time>
      </trkpt>
      <trkpt lat="42.76753" lon="0.60658">
        <ele>746.96</ele>
        <time>2018-07-29T15:26:09Z</time>
      </trkpt>
      <trkpt lat="42.76768" lon="0.6064">
        <ele>745.78</ele>
        <time>2018-07-29T15:26:10Z</time>
      </trkpt>
      <trkpt lat="42.76783" lon="0.60622">
        <ele>744.72</ele>
        <time>2018-07-29T15:26:11Z</time>
      </trkpt>
      <trkpt lat="42.76797" lon="0.60605">
        <ele>741.6</ele>
        <time>2018-07-29T15:26:12Z</time>
      </trkpt>
      <trkpt lat="42.76812" lon="0.60589">
        <ele>738.57</ele>
        <time>2018-07-29T15:26:13Z</time>
      </trkpt>
      <trkpt lat="42.76828" lon="0.60577">
        <ele>736.26</ele>
        <time>2018-07-29T15:26:14Z</time>
      </trkpt>
      <trkpt lat="42.76845" lon="0.60563">
        <ele>734.86</ele>
        <time>2018-07-29T15:26:15Z</time>
      </trkpt>
      <trkpt lat="42.76865" lon="0.60557">
        <ele>735.15</ele>
        <time>2018-07-29T15:26:16Z</time>
      </trkpt>
      <trkpt lat="42.76887" lon="0.60557">
        <ele>735.23</ele>
        <time>2018-07-29T15:26:17Z</time>
      </trkpt>
      <trkpt lat="42.76906" lon="0.60555">
        <ele>735.26</ele>
        <time>2018-07-29T15:26:18Z</time>
      </trkpt>
      <trkpt lat="42.76924" lon="0.60545">
        <ele>735.26</ele>
        <time>2018-07-29T15:26:19Z</time>
      </trkpt>
      <trkpt lat="42.76941" lon="0.60534">
        <ele>734.57</ele>
        <time>2018-07-29T15:26:20Z</time>
      </trkpt>
      <trkpt lat="42.7695" lon="0.60511">
        <ele>730.86</ele>
        <time>2018-07-29T15:26:21Z</time>
      </trkpt>
      <trkpt lat="42.76959" lon="0.60488">
        <ele>726.24</ele>
        <time>2018-07-29T15:26:22Z</time>
      </trkpt>
      <trkpt lat="42.76968" lon="0.60465">
        <ele>724.16</ele>
        <time>2018-07-29T15:26:23Z</time>
      </trkpt>
      <trkpt lat="42.76987" lon="0.60426">
        <ele>721.74</ele>
        <time>2018-07-29T15:26:25Z</time>
      </trkpt>
      <trkpt lat="42.77013" lon="0.60394">
        <ele>715.36</ele>
        <time>2018-07-29T15:26:27Z</time>
      </trkpt>
      <trkpt lat="42.77044" lon="0.6037">
        <ele>710.66</ele>
        <time>2018-07-29T15:26:29Z</time>
      </trkpt>
      <trkpt lat="42.77076" lon="0.60356">
        <ele>706.87</ele>
        <time>2018-07-29T15:26:31Z</time>
      </trkpt>
      <trkpt lat="42.77109" lon="0.60356">
        <ele>703.1</ele>
        <time>2018-07-29T15:26:33Z</time>
      </trkpt>
      <trkpt lat="42.77128" lon="0.60358">
        <ele>702.52</ele>
        <time>2018-07-29T15:26:34Z</time>
      </trkpt>
      <trkpt lat="42.77147" lon="0.6036">
        <ele>700.94</ele>
        <time>2018-07-29T15:26:35Z</time>
      </trkpt>
      <trkpt lat="42.77167" lon="0.6036">
        <ele>699.77</ele>
        <time>2018-07-29T15:26:36Z</time>
      </trkpt>
      <trkpt lat="42.77186" lon="0.60357">
        <ele>698.72</ele>
        <time>2018-07-29T15:26:37Z</time>
      </trkpt>
      <trkpt lat="42.77204" lon="0.60353">
        <ele>698.4</ele>
        <time>2018-07-29T15:26:38Z</time>
      </trkpt>
      <trkpt lat="42.77238" lon="0.60346">
        <ele>695.06</ele>
        <time>2018-07-29T15:26:40Z</time>
      </trkpt>
      <trkpt lat="42.77271" lon="0.60333">
        <ele>693.64</ele>
        <time>2018-07-29T15:26:42Z</time>
      </trkpt>
      <trkpt lat="42.77288" lon="0.60325">
        <ele>692.68</ele>
        <time>2018-07-29T15:26:43Z</time>
      </trkpt>
      <trkpt lat="42.77318" lon="0.60303">
        <ele>691.6</ele>
        <time>2018-07-29T15:26:45Z</time>
      </trkpt>
      <trkpt lat="42.77346" lon="0.60278">
        <ele>686.47</ele>
        <time>2018-07-29T15:26:47Z</time>
      </trkpt>
      <trkpt lat="42.77371" lon="0.60257">
        <ele>682.16</ele>
        <time>2018-07-29T15:26:49Z</time>
      </trkpt>
      <trkpt lat="42.77395" lon="0.60236">
        <ele>680.23</ele>
        <time>2018-07-29T15:26:51Z</time>
      </trkpt>
      <trkpt lat="42.77417" lon="0.60215">
        <ele>676.34</ele>
        <time>2018-07-29T15:26:53Z</time>
      </trkpt>
      <trkpt lat="42.77443" lon="0.60199">
        <ele>672.14</ele>
        <time>2018-07-29T15:26:55Z</time>
      </trkpt>
      <trkpt lat="42.7747" lon="0.60185">
        <ele>669.74</ele>
        <time>2018-07-29T15:26:57Z</time>
      </trkpt>
      <trkpt lat="42.77493" lon="0.60168">
        <ele>666.09</ele>
        <time>2018-07-29T15:26:59Z</time>
      </trkpt>
      <trkpt lat="42.77516" lon="0.60154">
        <ele>663.94</ele>
        <time>2018-07-29T15:27:01Z</time>
      </trkpt>
      <trkpt lat="42.77537" lon="0.60135">
        <ele>662.42</ele>
        <time>2018-07-29T15:27:03Z</time>
      </trkpt>
      <trkpt lat="42.77557" lon="0.60113">
        <ele>659.97</ele>
        <time>2018-07-29T15:27:05Z</time>
      </trkpt>
      <trkpt lat="42.77576" lon="0.60093">
        <ele>659.33</ele>
        <time>2018-07-29T15:27:07Z</time>
      </trkpt>
      <trkpt lat="42.77597" lon="0.60079">
        <ele>658.36</ele>
        <time>2018-07-29T15:27:09Z</time>
      </trkpt>
      <trkpt lat="42.77622" lon="0.6008">
        <ele>658.98</ele>
        <time>2018-07-29T15:27:11Z</time>
      </trkpt>
      <trkpt lat="42.77645" lon="0.60087">
        <ele>659.03</ele>
        <time>2018-07-29T15:27:13Z</time>
      </trkpt>
      <trkpt lat="42.77669" lon="0.60088">
        <ele>657.43</ele>
        <time>2018-07-29T15:27:15Z</time>
      </trkpt>
      <trkpt lat="42.7769" lon="0.60076">
        <ele>655.67</ele>
        <time>2018-07-29T15:27:17Z</time>
      </trkpt>
      <trkpt lat="42.77713" lon="0.60061">
        <ele>654.6</ele>
        <time>2018-07-29T15:27:19Z</time>
      </trkpt>
      <trkpt lat="42.77735" lon="0.60046">
        <ele>654.3</ele>
        <time>2018-07-29T15:27:21Z</time>
      </trkpt>
      <trkpt lat="42.77756" lon="0.60025">
        <ele>653.36</ele>
        <time>2018-07-29T15:27:23Z</time>
      </trkpt>
      <trkpt lat="42.77775" lon="0.60001">
        <ele>653.49</ele>
        <time>2018-07-29T15:27:25Z</time>
      </trkpt>
      <trkpt lat="42.77793" lon="0.59973">
        <ele>652.59</ele>
        <time>2018-07-29T15:27:27Z</time>
      </trkpt>
      <trkpt lat="42.77807" lon="0.59943">
        <ele>651.6</ele>
        <time>2018-07-29T15:27:29Z</time>
      </trkpt>
      <trkpt lat="42.77821" lon="0.59915">
        <ele>650.39</ele>
        <time>2018-07-29T15:27:31Z</time>
      </trkpt>
      <trkpt lat="42.77835" lon="0.59891">
        <ele>649.58</ele>
        <time>2018-07-29T15:27:33Z</time>
      </trkpt>
      <trkpt lat="42.77853" lon="0.59871">
        <ele>649.29</ele>
        <time>2018-07-29T15:27:35Z</time>
      </trkpt>
      <trkpt lat="42.77876" lon="0.59855">
        <ele>649.48</ele>
        <time>2018-07-29T15:27:37Z</time>
      </trkpt>
      <trkpt lat="42.77902" lon="0.59846">
        <ele>649.29</ele>
        <time>2018-07-29T15:27:39Z</time>
      </trkpt>
      <trkpt lat="42.77927" lon="0.59842">
        <ele>650.18</ele>
        <time>2018-07-29T15:27:41Z</time>
      </trkpt>
      <trkpt lat="42.77951" lon="0.59837">
        <ele>650.26</ele>
        <time>2018-07-29T15:27:43Z</time>
      </trkpt>
      <trkpt lat="42.7797" lon="0.59834">
        <ele>650.06</ele>
        <time>2018-07-29T15:27:45Z</time>
      </trkpt>
      <trkpt lat="42.77988" lon="0.59828">
        <ele>649.55</ele>
        <time>2018-07-29T15:27:47Z</time>
      </trkpt>
      <trkpt lat="42.78008" lon="0.59815">
        <ele>647.68</ele>
        <time>2018-07-29T15:27:49Z</time>
      </trkpt>
      <trkpt lat="42.78029" lon="0.59801">
        <ele>647.3</ele>
        <time>2018-07-29T15:27:51Z</time>
      </trkpt>
      <trkpt lat="42.78049" lon="0.59788">
        <ele>646.36</ele>
        <time>2018-07-29T15:27:53Z</time>
      </trkpt>
      <trkpt lat="42.7807" lon="0.59775">
        <ele>645.37</ele>
        <time>2018-07-29T15:27:55Z</time>
      </trkpt>
      <trkpt lat="42.7809" lon="0.59761">
        <ele>645.49</ele>
        <time>2018-07-29T15:27:57Z</time>
      </trkpt>
      <trkpt lat="42.78111" lon="0.59751">
        <ele>644.59</ele>
        <time>2018-07-29T15:27:59Z</time>
      </trkpt>
      <trkpt lat="42.78133" lon="0.59743">
        <ele>643.6</ele>
        <time>2018-07-29T15:28:01Z</time>
      </trkpt>
      <trkpt lat="42.78156" lon="0.59741">
        <ele>642.6</ele>
        <time>2018-07-29T15:28:03Z</time>
      </trkpt>
      <trkpt lat="42.78179" lon="0.5974">
        <ele>642.3</ele>
        <time>2018-07-29T15:28:05Z</time>
      </trkpt>
      <trkpt lat="42.78201" lon="0.5973">
        <ele>639.96</ele>
        <time>2018-07-29T15:28:07Z</time>
      </trkpt>
      <trkpt lat="42.78223" lon="0.59721">
        <ele>639.33</ele>
        <time>2018-07-29T15:28:09Z</time>
      </trkpt>
      <trkpt lat="42.78244" lon="0.59715">
        <ele>639.27</ele>
        <time>2018-07-29T15:28:11Z</time>
      </trkpt>
      <trkpt lat="42.78264" lon="0.5971">
        <ele>638.36</ele>
        <time>2018-07-29T15:28:13Z</time>
      </trkpt>
      <trkpt lat="42.78281" lon="0.59703">
        <ele>637.58</ele>
        <time>2018-07-29T15:28:15Z</time>
      </trkpt>
      <trkpt lat="42.78299" lon="0.59693">
        <ele>638.2</ele>
        <time>2018-07-29T15:28:17Z</time>
      </trkpt>
      <trkpt lat="42.78316" lon="0.5968">
        <ele>636.65</ele>
        <time>2018-07-29T15:28:19Z</time>
      </trkpt>
      <trkpt lat="42.78334" lon="0.59668">
        <ele>638.12</ele>
        <time>2018-07-29T15:28:21Z</time>
      </trkpt>
      <trkpt lat="42.78353" lon="0.59655">
        <ele>638.25</ele>
        <time>2018-07-29T15:28:23Z</time>
      </trkpt>
      <trkpt lat="42.78371" lon="0.59642">
        <ele>638.27</ele>
        <time>2018-07-29T15:28:25Z</time>
      </trkpt>
      <trkpt lat="42.78388" lon="0.5963">
        <ele>638.27</ele>
        <time>2018-07-29T15:28:27Z</time>
      </trkpt>
      <trkpt lat="42.78411" lon="0.59615">
        <ele>638.27</ele>
        <time>2018-07-29T15:28:30Z</time>
      </trkpt>
      <trkpt lat="42.78431" lon="0.59598">
        <ele>637.36</ele>
        <time>2018-07-29T15:28:33Z</time>
      </trkpt>
      <trkpt lat="42.78452" lon="0.59582">
        <ele>637.27</ele>
        <time>2018-07-29T15:28:36Z</time>
      </trkpt>
      <trkpt lat="42.78474" lon="0.59571">
        <ele>636.57</ele>
        <time>2018-07-29T15:28:39Z</time>
      </trkpt>
      <trkpt lat="42.78494" lon="0.5956">
        <ele>636.21</ele>
        <time>2018-07-29T15:28:42Z</time>
      </trkpt>
      <trkpt lat="42.78513" lon="0.59551">
        <ele>635.57</ele>
        <time>2018-07-29T15:28:45Z</time>
      </trkpt>
      <trkpt lat="42.7853" lon="0.59541">
        <ele>635.28</ele>
        <time>2018-07-29T15:28:48Z</time>
      </trkpt>
      <trkpt lat="42.78547" lon="0.59532">
        <ele>635.48</ele>
        <time>2018-07-29T15:28:51Z</time>
      </trkpt>
      <trkpt lat="42.78564" lon="0.59522">
        <ele>634.57</ele>
        <time>2018-07-29T15:28:54Z</time>
      </trkpt>
      <trkpt lat="42.78575" lon="0.59499">
        <ele>635.9</ele>
        <time>2018-07-29T15:28:58Z</time>
      </trkpt>
      <trkpt lat="42.7857" lon="0.59473">
        <ele>635.28</ele>
        <time>2018-07-29T15:29:01Z</time>
      </trkpt>
      <trkpt lat="42.78563" lon="0.59442">
        <ele>635.29</ele>
        <time>2018-07-29T15:29:05Z</time>
      </trkpt>
      <trkpt lat="42.7856" lon="0.59417">
        <ele>635.06</ele>
        <time>2018-07-29T15:29:09Z</time>
      </trkpt>
      <trkpt lat="42.78574" lon="0.59396">
        <ele>634.27</ele>
        <time>2018-07-29T15:29:14Z</time>
      </trkpt>
      <trkpt lat="42.78593" lon="0.59386">
        <ele>632.58</ele>
        <time>2018-07-29T15:29:18Z</time>
      </trkpt>
      <trkpt lat="42.78612" lon="0.59376">
        <ele>632</ele>
        <time>2018-07-29T15:29:22Z</time>
      </trkpt>
      <trkpt lat="42.78632" lon="0.59367">
        <ele>631.06</ele>
        <time>2018-07-29T15:29:26Z</time>
      </trkpt>
      <trkpt lat="42.7865" lon="0.59357">
        <ele>630.95</ele>
        <time>2018-07-29T15:29:31Z</time>
      </trkpt>
      <trkpt lat="42.7867" lon="0.59348">
        <ele>632.15</ele>
        <time>2018-07-29T15:29:37Z</time>
      </trkpt>
      <trkpt lat="42.78687" lon="0.5934">
        <ele>631.17</ele>
        <time>2018-07-29T15:29:42Z</time>
      </trkpt>
      <trkpt lat="42.78705" lon="0.59327">
        <ele>635.34</ele>
        <time>2018-07-29T15:31:08Z</time>
      </trkpt>
      <trkpt lat="42.78723" lon="0.59319">
        <ele>634.88</ele>
        <time>2018-07-29T15:31:14Z</time>
      </trkpt>
      <trkpt lat="42.78742" lon="0.5931">
        <ele>638.03</ele>
        <time>2018-07-29T15:31:22Z</time>
      </trkpt>
      <trkpt lat="42.78758" lon="0.59297">
        <ele>638.69</ele>
        <time>2018-07-29T15:33:50Z</time>
      </trkpt>
      <trkpt lat="42.78778" lon="0.59288">
        <ele>637.28</ele>
        <time>2018-07-29T15:33:55Z</time>
      </trkpt>
      <trkpt lat="42.78795" lon="0.5928">
        <ele>636.59</ele>
        <time>2018-07-29T15:34:00Z</time>
      </trkpt>
      <trkpt lat="42.78813" lon="0.59272">
        <ele>637.18</ele>
        <time>2018-07-29T15:34:05Z</time>
      </trkpt>
      <trkpt lat="42.78831" lon="0.59262">
        <ele>636.59</ele>
        <time>2018-07-29T15:34:11Z</time>
      </trkpt>
      <trkpt lat="42.78844" lon="0.59242">
        <ele>634.36</ele>
        <time>2018-07-29T15:34:19Z</time>
      </trkpt>
      <trkpt lat="42.78862" lon="0.59245">
        <ele>627.95</ele>
        <time>2018-07-29T15:40:22Z</time>
      </trkpt>
      <trkpt lat="42.78879" lon="0.59239">
        <ele>630.94</ele>
        <time>2018-07-29T15:40:28Z</time>
      </trkpt>
      <trkpt lat="42.78897" lon="0.59227">
        <ele>630.98</ele>
        <time>2018-07-29T15:40:35Z</time>
      </trkpt>
      <trkpt lat="42.78914" lon="0.59217">
        <ele>632.2</ele>
        <time>2018-07-29T15:40:42Z</time>
      </trkpt>
      <trkpt lat="42.78933" lon="0.59207">
        <ele>631.46</ele>
        <time>2018-07-29T15:40:48Z</time>
      </trkpt>
      <trkpt lat="42.78952" lon="0.59198">
        <ele>630.28</ele>
        <time>2018-07-29T15:40:53Z</time>
      </trkpt>
      <trkpt lat="42.78969" lon="0.5919">
        <ele>629.28</ele>
        <time>2018-07-29T15:40:58Z</time>
      </trkpt>
      <trkpt lat="42.78987" lon="0.59179">
        <ele>633.21</ele>
        <time>2018-07-29T15:41:05Z</time>
      </trkpt>
      <trkpt lat="42.79004" lon="0.5917">
        <ele>634.15</ele>
        <time>2018-07-29T15:41:13Z</time>
      </trkpt>
      <trkpt lat="42.79014" lon="0.59149">
        <ele>627.59</ele>
        <time>2018-07-29T15:49:25Z</time>
      </trkpt>
      <trkpt lat="42.79032" lon="0.59151">
        <ele>632.87</ele>
        <time>2018-07-29T15:56:14Z</time>
      </trkpt>
      <trkpt lat="42.79053" lon="0.59139">
        <ele>634.17</ele>
        <time>2018-07-29T15:56:18Z</time>
      </trkpt>
      <trkpt lat="42.79071" lon="0.5913">
        <ele>634.26</ele>
        <time>2018-07-29T15:56:21Z</time>
      </trkpt>
      <trkpt lat="42.79089" lon="0.59121">
        <ele>634.27</ele>
        <time>2018-07-29T15:56:24Z</time>
      </trkpt>
      <trkpt lat="42.79112" lon="0.59115">
        <ele>636.17</ele>
        <time>2018-07-29T15:56:28Z</time>
      </trkpt>
      <trkpt lat="42.79131" lon="0.59118">
        <ele>635.57</ele>
        <time>2018-07-29T15:56:32Z</time>
      </trkpt>
      <trkpt lat="42.79149" lon="0.5912">
        <ele>637.32</ele>
        <time>2018-07-29T15:56:36Z</time>
      </trkpt>
      <trkpt lat="42.7917" lon="0.59121">
        <ele>635.79</ele>
        <time>2018-07-29T15:56:40Z</time>
      </trkpt>
      <trkpt lat="42.79189" lon="0.59133">
        <ele>636.47</ele>
        <time>2018-07-29T15:56:44Z</time>
      </trkpt>
      <trkpt lat="42.79204" lon="0.5915">
        <ele>637.05</ele>
        <time>2018-07-29T15:56:49Z</time>
      </trkpt>
      <trkpt lat="42.79226" lon="0.59166">
        <ele>635.59</ele>
        <time>2018-07-29T15:56:53Z</time>
      </trkpt>
      <trkpt lat="42.79242" lon="0.5918">
        <ele>634.39</ele>
        <time>2018-07-29T15:56:55Z</time>
      </trkpt>
      <trkpt lat="42.79256" lon="0.59195">
        <ele>634.28</ele>
        <time>2018-07-29T15:56:57Z</time>
      </trkpt>
      <trkpt lat="42.79278" lon="0.59215">
        <ele>633.36</ele>
        <time>2018-07-29T15:57:00Z</time>
      </trkpt>
      <trkpt lat="42.79299" lon="0.59236">
        <ele>633.27</ele>
        <time>2018-07-29T15:57:03Z</time>
      </trkpt>
      <trkpt lat="42.79321" lon="0.59257">
        <ele>632.29</ele>
        <time>2018-07-29T15:57:06Z</time>
      </trkpt>
      <trkpt lat="42.79336" lon="0.59272">
        <ele>632.97</ele>
        <time>2018-07-29T15:57:08Z</time>
      </trkpt>
      <trkpt lat="42.79352" lon="0.59287">
        <ele>633.94</ele>
        <time>2018-07-29T15:57:10Z</time>
      </trkpt>
      <trkpt lat="42.79368" lon="0.59301">
        <ele>633.54</ele>
        <time>2018-07-29T15:57:12Z</time>
      </trkpt>
      <trkpt lat="42.79383" lon="0.59315">
        <ele>633.99</ele>
        <time>2018-07-29T15:57:14Z</time>
      </trkpt>
      <trkpt lat="42.79398" lon="0.5933">
        <ele>633.12</ele>
        <time>2018-07-29T15:57:16Z</time>
      </trkpt>
      <trkpt lat="42.79414" lon="0.59347">
        <ele>633.25</ele>
        <time>2018-07-29T15:57:18Z</time>
      </trkpt>
      <trkpt lat="42.79429" lon="0.59361">
        <ele>632.36</ele>
        <time>2018-07-29T15:57:20Z</time>
      </trkpt>
      <trkpt lat="42.79451" lon="0.59382">
        <ele>631.57</ele>
        <time>2018-07-29T15:57:23Z</time>
      </trkpt>
      <trkpt lat="42.79469" lon="0.594">
        <ele>631.28</ele>
        <time>2018-07-29T15:57:26Z</time>
      </trkpt>
      <trkpt lat="42.79485" lon="0.59416">
        <ele>630.99</ele>
        <time>2018-07-29T15:57:29Z</time>
      </trkpt>
      <trkpt lat="42.79497" lon="0.5944">
        <ele>631.26</ele>
        <time>2018-07-29T15:57:32Z</time>
      </trkpt>
      <trkpt lat="42.79511" lon="0.59458">
        <ele>630.36</ele>
        <time>2018-07-29T15:57:36Z</time>
      </trkpt>
      <trkpt lat="42.79535" lon="0.5946">
        <ele>629.59</ele>
        <time>2018-07-29T15:57:40Z</time>
      </trkpt>
      <trkpt lat="42.79558" lon="0.59481">
        <ele>628.58</ele>
        <time>2018-07-29T15:57:43Z</time>
      </trkpt>
      <trkpt lat="42.79574" lon="0.59497">
        <ele>628.29</ele>
        <time>2018-07-29T15:57:45Z</time>
      </trkpt>
      <trkpt lat="42.79592" lon="0.59513">
        <ele>627.57</ele>
        <time>2018-07-29T15:57:47Z</time>
      </trkpt>
      <trkpt lat="42.79609" lon="0.59529">
        <ele>627.29</ele>
        <time>2018-07-29T15:57:49Z</time>
      </trkpt>
      <trkpt lat="42.79625" lon="0.59546">
        <ele>626.36</ele>
        <time>2018-07-29T15:57:51Z</time>
      </trkpt>
      <trkpt lat="42.7964" lon="0.59562">
        <ele>625.58</ele>
        <time>2018-07-29T15:57:53Z</time>
      </trkpt>
      <trkpt lat="42.79657" lon="0.59576">
        <ele>625.29</ele>
        <time>2018-07-29T15:57:55Z</time>
      </trkpt>
      <trkpt lat="42.79675" lon="0.59584">
        <ele>625.27</ele>
        <time>2018-07-29T15:57:57Z</time>
      </trkpt>
      <trkpt lat="42.79695" lon="0.59588">
        <ele>625.06</ele>
        <time>2018-07-29T15:57:59Z</time>
      </trkpt>
      <trkpt lat="42.79716" lon="0.59591">
        <ele>624.34</ele>
        <time>2018-07-29T15:58:01Z</time>
      </trkpt>
      <trkpt lat="42.79739" lon="0.59595">
        <ele>624.27</ele>
        <time>2018-07-29T15:58:03Z</time>
      </trkpt>
      <trkpt lat="42.79764" lon="0.59599">
        <ele>623.36</ele>
        <time>2018-07-29T15:58:05Z</time>
      </trkpt>
      <trkpt lat="42.7979" lon="0.59604">
        <ele>623.98</ele>
        <time>2018-07-29T15:58:07Z</time>
      </trkpt>
      <trkpt lat="42.79818" lon="0.59608">
        <ele>623.54</ele>
        <time>2018-07-29T15:58:09Z</time>
      </trkpt>
      <trkpt lat="42.79848" lon="0.59612">
        <ele>623.99</ele>
        <time>2018-07-29T15:58:11Z</time>
      </trkpt>
      <trkpt lat="42.79878" lon="0.59616">
        <ele>623.54</ele>
        <time>2018-07-29T15:58:13Z</time>
      </trkpt>
      <trkpt lat="42.79909" lon="0.5962">
        <ele>622.38</ele>
        <time>2018-07-29T15:58:15Z</time>
      </trkpt>
      <trkpt lat="42.7994" lon="0.59624">
        <ele>622.28</ele>
        <time>2018-07-29T15:58:17Z</time>
      </trkpt>
      <trkpt lat="42.79971" lon="0.59628">
        <ele>622.27</ele>
        <time>2018-07-29T15:58:19Z</time>
      </trkpt>
      <trkpt lat="42.80002" lon="0.59632">
        <ele>621.36</ele>
        <time>2018-07-29T15:58:21Z</time>
      </trkpt>
      <trkpt lat="42.80033" lon="0.59637">
        <ele>621.28</ele>
        <time>2018-07-29T15:58:23Z</time>
      </trkpt>
      <trkpt lat="42.80062" lon="0.59642">
        <ele>621.27</ele>
        <time>2018-07-29T15:58:25Z</time>
      </trkpt>
      <trkpt lat="42.8009" lon="0.59645">
        <ele>620.36</ele>
        <time>2018-07-29T15:58:27Z</time>
      </trkpt>
      <trkpt lat="42.80116" lon="0.59648">
        <ele>619.37</ele>
        <time>2018-07-29T15:58:29Z</time>
      </trkpt>
      <trkpt lat="42.80143" lon="0.59652">
        <ele>618.58</ele>
        <time>2018-07-29T15:58:31Z</time>
      </trkpt>
      <trkpt lat="42.80167" lon="0.59655">
        <ele>619.2</ele>
        <time>2018-07-29T15:58:33Z</time>
      </trkpt>
      <trkpt lat="42.80191" lon="0.59658">
        <ele>619.26</ele>
        <time>2018-07-29T15:58:35Z</time>
      </trkpt>
      <trkpt lat="42.80216" lon="0.59662">
        <ele>619.27</ele>
        <time>2018-07-29T15:58:37Z</time>
      </trkpt>
      <trkpt lat="42.80241" lon="0.59666">
        <ele>620.18</ele>
        <time>2018-07-29T15:58:39Z</time>
      </trkpt>
      <trkpt lat="42.80267" lon="0.59671">
        <ele>620.26</ele>
        <time>2018-07-29T15:58:41Z</time>
      </trkpt>
      <trkpt lat="42.80293" lon="0.59683">
        <ele>620.27</ele>
        <time>2018-07-29T15:58:43Z</time>
      </trkpt>
      <trkpt lat="42.80319" lon="0.59701">
        <ele>620.27</ele>
        <time>2018-07-29T15:58:45Z</time>
      </trkpt>
      <trkpt lat="42.80343" lon="0.59723">
        <ele>620.27</ele>
        <time>2018-07-29T15:58:47Z</time>
      </trkpt>
      <trkpt lat="42.80368" lon="0.59744">
        <ele>619.36</ele>
        <time>2018-07-29T15:58:49Z</time>
      </trkpt>
      <trkpt lat="42.80394" lon="0.59765">
        <ele>618.37</ele>
        <time>2018-07-29T15:58:51Z</time>
      </trkpt>
      <trkpt lat="42.80419" lon="0.59785">
        <ele>618.28</ele>
        <time>2018-07-29T15:58:53Z</time>
      </trkpt>
      <trkpt lat="42.80442" lon="0.59804">
        <ele>618.27</ele>
        <time>2018-07-29T15:58:55Z</time>
      </trkpt>
      <trkpt lat="42.80466" lon="0.59819">
        <ele>618.27</ele>
        <time>2018-07-29T15:58:57Z</time>
      </trkpt>
      <trkpt lat="42.80492" lon="0.59824">
        <ele>618.27</ele>
        <time>2018-07-29T15:58:59Z</time>
      </trkpt>
      <trkpt lat="42.80521" lon="0.5982">
        <ele>617.36</ele>
        <time>2018-07-29T15:59:01Z</time>
      </trkpt>
      <trkpt lat="42.80549" lon="0.59804">
        <ele>616.58</ele>
        <time>2018-07-29T15:59:03Z</time>
      </trkpt>
      <trkpt lat="42.80574" lon="0.59782">
        <ele>616.29</ele>
        <time>2018-07-29T15:59:05Z</time>
      </trkpt>
      <trkpt lat="42.80596" lon="0.5976">
        <ele>615.36</ele>
        <time>2018-07-29T15:59:07Z</time>
      </trkpt>
      <trkpt lat="42.80618" lon="0.59738">
        <ele>615.07</ele>
        <time>2018-07-29T15:59:09Z</time>
      </trkpt>
      <trkpt lat="42.80639" lon="0.59717">
        <ele>613.43</ele>
        <time>2018-07-29T15:59:11Z</time>
      </trkpt>
      <trkpt lat="42.80661" lon="0.597">
        <ele>613.28</ele>
        <time>2018-07-29T15:59:13Z</time>
      </trkpt>
      <trkpt lat="42.80685" lon="0.59687">
        <ele>613.27</ele>
        <time>2018-07-29T15:59:15Z</time>
      </trkpt>
      <trkpt lat="42.80711" lon="0.59678">
        <ele>613.27</ele>
        <time>2018-07-29T15:59:17Z</time>
      </trkpt>
      <trkpt lat="42.80738" lon="0.59669">
        <ele>613.48</ele>
        <time>2018-07-29T15:59:19Z</time>
      </trkpt>
      <trkpt lat="42.80762" lon="0.5966">
        <ele>613.29</ele>
        <time>2018-07-29T15:59:21Z</time>
      </trkpt>
      <trkpt lat="42.80782" lon="0.59653">
        <ele>613.97</ele>
        <time>2018-07-29T15:59:23Z</time>
      </trkpt>
      <trkpt lat="42.80804" lon="0.5966">
        <ele>613.29</ele>
        <time>2018-07-29T15:59:26Z</time>
      </trkpt>
      <trkpt lat="42.80807" lon="0.59692">
        <ele>611.59</ele>
        <time>2018-07-29T15:59:29Z</time>
      </trkpt>
      <trkpt lat="42.8081" lon="0.59725">
        <ele>611.07</ele>
        <time>2018-07-29T15:59:32Z</time>
      </trkpt>
      <trkpt lat="42.80815" lon="0.59759">
        <ele>611.26</ele>
        <time>2018-07-29T15:59:35Z</time>
      </trkpt>
      <trkpt lat="42.80822" lon="0.59786">
        <ele>612.18</ele>
        <time>2018-07-29T15:59:38Z</time>
      </trkpt>
      <trkpt lat="42.80827" lon="0.59813">
        <ele>612.26</ele>
        <time>2018-07-29T15:59:41Z</time>
      </trkpt>
      <trkpt lat="42.80832" lon="0.59838">
        <ele>612.27</ele>
        <time>2018-07-29T15:59:44Z</time>
      </trkpt>
      <trkpt lat="42.80832" lon="0.59863">
        <ele>613.47</ele>
        <time>2018-07-29T15:59:48Z</time>
      </trkpt>
      <trkpt lat="42.80823" lon="0.59841">
        <ele>612.56</ele>
        <time>2018-07-29T15:59:58Z</time>
      </trkpt>
      <trkpt lat="42.80816" lon="0.59818">
        <ele>613.55</ele>
        <time>2018-07-29T16:03:47Z</time>
      </trkpt>
      <trkpt lat="42.80819" lon="0.59791">
        <ele>613.33</ele>
        <time>2018-07-29T16:03:52Z</time>
      </trkpt>
      <trkpt lat="42.80816" lon="0.59765">
        <ele>613.27</ele>
        <time>2018-07-29T16:03:55Z</time>
      </trkpt>
      <trkpt lat="42.80812" lon="0.59733">
        <ele>611.38</ele>
        <time>2018-07-29T16:03:58Z</time>
      </trkpt>
      <trkpt lat="42.80809" lon="0.59707">
        <ele>610.37</ele>
        <time>2018-07-29T16:04:00Z</time>
      </trkpt>
      <trkpt lat="42.80806" lon="0.59675">
        <ele>610.06</ele>
        <time>2018-07-29T16:04:03Z</time>
      </trkpt>
      <trkpt lat="42.80804" lon="0.59649">
        <ele>613.17</ele>
        <time>2018-07-29T16:04:08Z</time>
      </trkpt>
      <trkpt lat="42.80778" lon="0.59649">
        <ele>612.57</ele>
        <time>2018-07-29T16:04:13Z</time>
      </trkpt>
      <trkpt lat="42.80757" lon="0.59655">
        <ele>612.5</ele>
        <time>2018-07-29T16:04:15Z</time>
      </trkpt>
      <trkpt lat="42.80734" lon="0.59663">
        <ele>612.5</ele>
        <time>2018-07-29T16:04:17Z</time>
      </trkpt>
      <trkpt lat="42.80708" lon="0.59672">
        <ele>612.08</ele>
        <time>2018-07-29T16:04:19Z</time>
      </trkpt>
      <trkpt lat="42.80681" lon="0.59683">
        <ele>612.25</ele>
        <time>2018-07-29T16:04:21Z</time>
      </trkpt>
      <trkpt lat="42.80654" lon="0.59699">
        <ele>612.27</ele>
        <time>2018-07-29T16:04:23Z</time>
      </trkpt>
      <trkpt lat="42.80629" lon="0.59719">
        <ele>612.27</ele>
        <time>2018-07-29T16:04:25Z</time>
      </trkpt>
      <trkpt lat="42.80606" lon="0.59742">
        <ele>613.18</ele>
        <time>2018-07-29T16:04:27Z</time>
      </trkpt>
      <trkpt lat="42.80585" lon="0.59763">
        <ele>614.17</ele>
        <time>2018-07-29T16:04:29Z</time>
      </trkpt>
      <trkpt lat="42.80565" lon="0.59783">
        <ele>615.17</ele>
        <time>2018-07-29T16:04:31Z</time>
      </trkpt>
      <trkpt lat="42.80546" lon="0.598">
        <ele>616.17</ele>
        <time>2018-07-29T16:04:33Z</time>
      </trkpt>
      <trkpt lat="42.80524" lon="0.59812">
        <ele>615.56</ele>
        <time>2018-07-29T16:04:35Z</time>
      </trkpt>
      <trkpt lat="42.805" lon="0.59817">
        <ele>615.29</ele>
        <time>2018-07-29T16:04:37Z</time>
      </trkpt>
      <trkpt lat="42.80474" lon="0.59814">
        <ele>615.97</ele>
        <time>2018-07-29T16:04:39Z</time>
      </trkpt>
      <trkpt lat="42.8045" lon="0.59803">
        <ele>616.24</ele>
        <time>2018-07-29T16:04:41Z</time>
      </trkpt>
      <trkpt lat="42.80427" lon="0.59786">
        <ele>616.26</ele>
        <time>2018-07-29T16:04:43Z</time>
      </trkpt>
      <trkpt lat="42.80406" lon="0.59768">
        <ele>616.27</ele>
        <time>2018-07-29T16:04:45Z</time>
      </trkpt>
      <trkpt lat="42.80385" lon="0.59751">
        <ele>616.27</ele>
        <time>2018-07-29T16:04:47Z</time>
      </trkpt>
      <trkpt lat="42.80366" lon="0.59735">
        <ele>616.27</ele>
        <time>2018-07-29T16:04:49Z</time>
      </trkpt>
      <trkpt lat="42.80346" lon="0.59718">
        <ele>616.97</ele>
        <time>2018-07-29T16:04:51Z</time>
      </trkpt>
      <trkpt lat="42.80326" lon="0.59701">
        <ele>617.24</ele>
        <time>2018-07-29T16:04:53Z</time>
      </trkpt>
      <trkpt lat="42.80304" lon="0.59684">
        <ele>617.26</ele>
        <time>2018-07-29T16:04:55Z</time>
      </trkpt>
      <trkpt lat="42.80281" lon="0.59673">
        <ele>618.18</ele>
        <time>2018-07-29T16:04:57Z</time>
      </trkpt>
      <trkpt lat="42.80257" lon="0.59664">
        <ele>617.35</ele>
        <time>2018-07-29T16:04:59Z</time>
      </trkpt>
      <trkpt lat="42.80234" lon="0.59659">
        <ele>617.27</ele>
        <time>2018-07-29T16:05:01Z</time>
      </trkpt>
      <trkpt lat="42.80209" lon="0.59656">
        <ele>616.57</ele>
        <time>2018-07-29T16:05:03Z</time>
      </trkpt>
      <trkpt lat="42.80186" lon="0.59653">
        <ele>616.29</ele>
        <time>2018-07-29T16:05:05Z</time>
      </trkpt>
      <trkpt lat="42.80162" lon="0.5965">
        <ele>616.27</ele>
        <time>2018-07-29T16:05:07Z</time>
      </trkpt>
      <trkpt lat="42.80139" lon="0.59646">
        <ele>616.27</ele>
        <time>2018-07-29T16:05:09Z</time>
      </trkpt>
      <trkpt lat="42.80115" lon="0.59644">
        <ele>616.27</ele>
        <time>2018-07-29T16:05:11Z</time>
      </trkpt>
      <trkpt lat="42.80093" lon="0.5964">
        <ele>616.27</ele>
        <time>2018-07-29T16:05:13Z</time>
      </trkpt>
      <trkpt lat="42.80069" lon="0.59636">
        <ele>616.27</ele>
        <time>2018-07-29T16:05:15Z</time>
      </trkpt>
      <trkpt lat="42.80045" lon="0.59633">
        <ele>616.27</ele>
        <time>2018-07-29T16:05:17Z</time>
      </trkpt>
      <trkpt lat="42.80021" lon="0.5963">
        <ele>616.27</ele>
        <time>2018-07-29T16:05:19Z</time>
      </trkpt>
      <trkpt lat="42.79996" lon="0.59626">
        <ele>616.06</ele>
        <time>2018-07-29T16:05:21Z</time>
      </trkpt>
      <trkpt lat="42.79971" lon="0.59623">
        <ele>615.55</ele>
        <time>2018-07-29T16:05:23Z</time>
      </trkpt>
      <trkpt lat="42.79946" lon="0.59619">
        <ele>616.2</ele>
        <time>2018-07-29T16:05:25Z</time>
      </trkpt>
      <trkpt lat="42.79921" lon="0.59615">
        <ele>617.17</ele>
        <time>2018-07-29T16:05:27Z</time>
      </trkpt>
      <trkpt lat="42.79898" lon="0.59611">
        <ele>617.26</ele>
        <time>2018-07-29T16:05:29Z</time>
      </trkpt>
      <trkpt lat="42.79874" lon="0.59607">
        <ele>618.18</ele>
        <time>2018-07-29T16:05:31Z</time>
      </trkpt>
      <trkpt lat="42.7985" lon="0.59604">
        <ele>618.26</ele>
        <time>2018-07-29T16:05:33Z</time>
      </trkpt>
      <trkpt lat="42.79826" lon="0.59601">
        <ele>619.18</ele>
        <time>2018-07-29T16:05:35Z</time>
      </trkpt>
      <trkpt lat="42.79802" lon="0.59597">
        <ele>619.26</ele>
        <time>2018-07-29T16:05:37Z</time>
      </trkpt>
      <trkpt lat="42.79778" lon="0.59594">
        <ele>620.18</ele>
        <time>2018-07-29T16:05:39Z</time>
      </trkpt>
      <trkpt lat="42.79758" lon="0.59591">
        <ele>620.26</ele>
        <time>2018-07-29T16:05:41Z</time>
      </trkpt>
      <trkpt lat="42.79739" lon="0.59588">
        <ele>620.27</ele>
        <time>2018-07-29T16:05:43Z</time>
      </trkpt>
      <trkpt lat="42.79716" lon="0.59585">
        <ele>621.24</ele>
        <time>2018-07-29T16:05:46Z</time>
      </trkpt>
      <trkpt lat="42.79697" lon="0.59582">
        <ele>621.27</ele>
        <time>2018-07-29T16:05:50Z</time>
      </trkpt>
      <trkpt lat="42.79676" lon="0.59576">
        <ele>622.97</ele>
        <time>2018-07-29T16:05:56Z</time>
      </trkpt>
      <trkpt lat="42.79655" lon="0.59565">
        <ele>623.26</ele>
        <time>2018-07-29T16:05:59Z</time>
      </trkpt>
      <trkpt lat="42.79631" lon="0.59556">
        <ele>624.18</ele>
        <time>2018-07-29T16:06:02Z</time>
      </trkpt>
      <trkpt lat="42.79609" lon="0.59568">
        <ele>623.77</ele>
        <time>2018-07-29T16:06:05Z</time>
      </trkpt>
      <trkpt lat="42.79591" lon="0.59576">
        <ele>622.61</ele>
        <time>2018-07-29T16:06:07Z</time>
      </trkpt>
      <trkpt lat="42.79573" lon="0.59582">
        <ele>622.09</ele>
        <time>2018-07-29T16:06:09Z</time>
      </trkpt>
      <trkpt lat="42.79556" lon="0.5959">
        <ele>623.16</ele>
        <time>2018-07-29T16:06:11Z</time>
      </trkpt>
      <trkpt lat="42.79536" lon="0.596">
        <ele>623.26</ele>
        <time>2018-07-29T16:06:14Z</time>
      </trkpt>
      <trkpt lat="42.79516" lon="0.59613">
        <ele>624.56</ele>
        <time>2018-07-29T16:06:21Z</time>
      </trkpt>
      <trkpt lat="42.79493" lon="0.59628">
        <ele>625.95</ele>
        <time>2018-07-29T16:06:24Z</time>
      </trkpt>
      <trkpt lat="42.79473" lon="0.59637">
        <ele>627.15</ele>
        <time>2018-07-29T16:06:26Z</time>
      </trkpt>
      <trkpt lat="42.79453" lon="0.59646">
        <ele>627.26</ele>
        <time>2018-07-29T16:06:28Z</time>
      </trkpt>
      <trkpt lat="42.79432" lon="0.59656">
        <ele>627.48</ele>
        <time>2018-07-29T16:06:30Z</time>
      </trkpt>
      <trkpt lat="42.79413" lon="0.59667">
        <ele>626.38</ele>
        <time>2018-07-29T16:06:32Z</time>
      </trkpt>
      <trkpt lat="42.79391" lon="0.5968">
        <ele>626.98</ele>
        <time>2018-07-29T16:06:34Z</time>
      </trkpt>
      <trkpt lat="42.7937" lon="0.59694">
        <ele>626.54</ele>
        <time>2018-07-29T16:06:36Z</time>
      </trkpt>
      <trkpt lat="42.79351" lon="0.59706">
        <ele>626.29</ele>
        <time>2018-07-29T16:06:38Z</time>
      </trkpt>
      <trkpt lat="42.79333" lon="0.59718">
        <ele>625.57</ele>
        <time>2018-07-29T16:06:40Z</time>
      </trkpt>
      <trkpt lat="42.79317" lon="0.59731">
        <ele>625.29</ele>
        <time>2018-07-29T16:06:42Z</time>
      </trkpt>
      <trkpt lat="42.79295" lon="0.59747">
        <ele>625.27</ele>
        <time>2018-07-29T16:06:45Z</time>
      </trkpt>
      <trkpt lat="42.79277" lon="0.59759">
        <ele>625.27</ele>
        <time>2018-07-29T16:06:48Z</time>
      </trkpt>
      <trkpt lat="42.79256" lon="0.59771">
        <ele>626.45</ele>
        <time>2018-07-29T16:06:51Z</time>
      </trkpt>
      <trkpt lat="42.79236" lon="0.59773">
        <ele>626.27</ele>
        <time>2018-07-29T16:06:54Z</time>
      </trkpt>
      <trkpt lat="42.79215" lon="0.59775">
        <ele>626.27</ele>
        <time>2018-07-29T16:06:57Z</time>
      </trkpt>
      <trkpt lat="42.79191" lon="0.59774">
        <ele>627.24</ele>
        <time>2018-07-29T16:07:00Z</time>
      </trkpt>
      <trkpt lat="42.79165" lon="0.59772">
        <ele>628.18</ele>
        <time>2018-07-29T16:07:03Z</time>
      </trkpt>
      <trkpt lat="42.79139" lon="0.5977">
        <ele>627.29</ele>
        <time>2018-07-29T16:07:06Z</time>
      </trkpt>
      <trkpt lat="42.7912" lon="0.5976">
        <ele>628.03</ele>
        <time>2018-07-29T16:07:09Z</time>
      </trkpt>
      <trkpt lat="42.79097" lon="0.59763">
        <ele>627.56</ele>
        <time>2018-07-29T16:07:12Z</time>
      </trkpt>
      <trkpt lat="42.7907" lon="0.59763">
        <ele>628.25</ele>
        <time>2018-07-29T16:07:15Z</time>
      </trkpt>
      <trkpt lat="42.7905" lon="0.59758">
        <ele>628.97</ele>
        <time>2018-07-29T16:07:17Z</time>
      </trkpt>
      <trkpt lat="42.79029" lon="0.59752">
        <ele>628.33</ele>
        <time>2018-07-29T16:07:19Z</time>
      </trkpt>
      <trkpt lat="42.79008" lon="0.59745">
        <ele>627.57</ele>
        <time>2018-07-29T16:07:21Z</time>
      </trkpt>
      <trkpt lat="42.78989" lon="0.59739">
        <ele>627.29</ele>
        <time>2018-07-29T16:07:23Z</time>
      </trkpt>
      <trkpt lat="42.78968" lon="0.59736">
        <ele>627.27</ele>
        <time>2018-07-29T16:07:25Z</time>
      </trkpt>
      <trkpt lat="42.78947" lon="0.59733">
        <ele>628.18</ele>
        <time>2018-07-29T16:07:27Z</time>
      </trkpt>
      <trkpt lat="42.78926" lon="0.5973">
        <ele>628.96</ele>
        <time>2018-07-29T16:07:29Z</time>
      </trkpt>
      <trkpt lat="42.78906" lon="0.59726">
        <ele>629.24</ele>
        <time>2018-07-29T16:07:31Z</time>
      </trkpt>
      <trkpt lat="42.78881" lon="0.59722">
        <ele>630.03</ele>
        <time>2018-07-29T16:07:34Z</time>
      </trkpt>
      <trkpt lat="42.78859" lon="0.5972">
        <ele>629.56</ele>
        <time>2018-07-29T16:07:37Z</time>
      </trkpt>
      <trkpt lat="42.78838" lon="0.59718">
        <ele>630.25</ele>
        <time>2018-07-29T16:07:40Z</time>
      </trkpt>
      <trkpt lat="42.78814" lon="0.5972">
        <ele>630.27</ele>
        <time>2018-07-29T16:07:43Z</time>
      </trkpt>
      <trkpt lat="42.7879" lon="0.59726">
        <ele>630.54</ele>
        <time>2018-07-29T16:07:46Z</time>
      </trkpt>
      <trkpt lat="42.78764" lon="0.59735">
        <ele>631.88</ele>
        <time>2018-07-29T16:07:49Z</time>
      </trkpt>
      <trkpt lat="42.78747" lon="0.59743">
        <ele>632.23</ele>
        <time>2018-07-29T16:07:51Z</time>
      </trkpt>
      <trkpt lat="42.78729" lon="0.59753">
        <ele>632.05</ele>
        <time>2018-07-29T16:07:53Z</time>
      </trkpt>
      <trkpt lat="42.78712" lon="0.59764">
        <ele>632.95</ele>
        <time>2018-07-29T16:07:55Z</time>
      </trkpt>
      <trkpt lat="42.78694" lon="0.59774">
        <ele>633.24</ele>
        <time>2018-07-29T16:07:57Z</time>
      </trkpt>
      <trkpt lat="42.7867" lon="0.59788">
        <ele>633.54</ele>
        <time>2018-07-29T16:08:00Z</time>
      </trkpt>
      <trkpt lat="42.78649" lon="0.59799">
        <ele>633</ele>
        <time>2018-07-29T16:08:03Z</time>
      </trkpt>
      <trkpt lat="42.78627" lon="0.59797">
        <ele>633.9</ele>
        <time>2018-07-29T16:08:07Z</time>
      </trkpt>
      <trkpt lat="42.78618" lon="0.5977">
        <ele>634.26</ele>
        <time>2018-07-29T16:08:10Z</time>
      </trkpt>
      <trkpt lat="42.78611" lon="0.59747">
        <ele>634.27</ele>
        <time>2018-07-29T16:08:12Z</time>
      </trkpt>
      <trkpt lat="42.78605" lon="0.59723">
        <ele>635.18</ele>
        <time>2018-07-29T16:08:14Z</time>
      </trkpt>
      <trkpt lat="42.78598" lon="0.59698">
        <ele>635.47</ele>
        <time>2018-07-29T16:08:16Z</time>
      </trkpt>
      <trkpt lat="42.7859" lon="0.59672">
        <ele>635.5</ele>
        <time>2018-07-29T16:08:18Z</time>
      </trkpt>
      <trkpt lat="42.78583" lon="0.59647">
        <ele>636.9</ele>
        <time>2018-07-29T16:08:20Z</time>
      </trkpt>
      <trkpt lat="42.78576" lon="0.59622">
        <ele>636.53</ele>
        <time>2018-07-29T16:08:22Z</time>
      </trkpt>
      <trkpt lat="42.78568" lon="0.59589">
        <ele>636.21</ele>
        <time>2018-07-29T16:08:25Z</time>
      </trkpt>
      <trkpt lat="42.7856" lon="0.59563">
        <ele>635.57</ele>
        <time>2018-07-29T16:08:28Z</time>
      </trkpt>
      <trkpt lat="42.78552" lon="0.5954">
        <ele>635.07</ele>
        <time>2018-07-29T16:08:31Z</time>
      </trkpt>
      <trkpt lat="42.78533" lon="0.59534">
        <ele>635.35</ele>
        <time>2018-07-29T16:08:39Z</time>
      </trkpt>
      <trkpt lat="42.78514" lon="0.59546">
        <ele>635.48</ele>
        <time>2018-07-29T16:08:42Z</time>
      </trkpt>
      <trkpt lat="42.78496" lon="0.59554">
        <ele>635.27</ele>
        <time>2018-07-29T16:08:45Z</time>
      </trkpt>
      <trkpt lat="42.78477" lon="0.59563">
        <ele>633.32</ele>
        <time>2018-07-29T16:08:49Z</time>
      </trkpt>
      <trkpt lat="42.78458" lon="0.59576">
        <ele>632.98</ele>
        <time>2018-07-29T16:08:53Z</time>
      </trkpt>
      <trkpt lat="42.78441" lon="0.59588">
        <ele>635.08</ele>
        <time>2018-07-29T16:08:56Z</time>
      </trkpt>
      <trkpt lat="42.78421" lon="0.59607">
        <ele>637.17</ele>
        <time>2018-07-29T16:09:00Z</time>
      </trkpt>
      <trkpt lat="42.78413" lon="0.59632">
        <ele>636.04</ele>
        <time>2018-07-29T16:09:08Z</time>
      </trkpt>
      <trkpt lat="42.78414" lon="0.59658">
        <ele>634.38</ele>
        <time>2018-07-29T16:09:16Z</time>
      </trkpt>
    </trkseg>
  </trk>
</gpx>